<?xml version="1.0" encoding="UTF-8" standalone="no" ?>
<gpx xmlns="http://www.topografix.com/GPX/1/1" xmlns:xsi="http://www.w3.org/2001/XMLSchema-instance" xsi:schemaLocation="http://www.topografix.com/GPX/1/1 http://www.topografix.com/GPX/1/1/gpx.xsd" version="1.1" creator="VisuGPX - https://www.visugpx.com">
  <metadata>
    <name>Le grand marais </name>
  </metadata>
  <trk>
    <name><![CDATA[Le grand marais _1]]></name>
    <trkseg>
      <trkpt lat="49.92108" lon="2.26221">
        <ele>18.9</ele>
        <time>2023-05-19T12:00:22Z</time>
      </trkpt>
      <trkpt lat="49.92109" lon="2.26219">
        <ele>18.9</ele>
        <time>2023-05-19T12:00:23Z</time>
      </trkpt>
      <trkpt lat="49.92109" lon="2.26219">
        <ele>18.9</ele>
        <time>2023-05-19T12:00:24Z</time>
      </trkpt>
      <trkpt lat="49.92109" lon="2.26218">
        <ele>18.9</ele>
        <time>2023-05-19T12:00:25Z</time>
      </trkpt>
      <trkpt lat="49.92109" lon="2.26217">
        <ele>18.9</ele>
        <time>2023-05-19T12:00:26Z</time>
      </trkpt>
      <trkpt lat="49.92109" lon="2.26216">
        <ele>18.9</ele>
        <time>2023-05-19T12:00:28Z</time>
      </trkpt>
      <trkpt lat="49.92109" lon="2.26216">
        <ele>18.9</ele>
        <time>2023-05-19T12:00:29Z</time>
      </trkpt>
      <trkpt lat="49.9211" lon="2.26211">
        <ele>18.9</ele>
        <time>2023-05-19T12:00:30Z</time>
      </trkpt>
      <trkpt lat="49.9211" lon="2.2621">
        <ele>18.9</ele>
        <time>2023-05-19T12:00:31Z</time>
      </trkpt>
      <trkpt lat="49.9211" lon="2.26208">
        <ele>18.9</ele>
        <time>2023-05-19T12:00:32Z</time>
      </trkpt>
      <trkpt lat="49.92111" lon="2.26206">
        <ele>18.9</ele>
        <time>2023-05-19T12:00:33Z</time>
      </trkpt>
      <trkpt lat="49.92111" lon="2.26204">
        <ele>18.9</ele>
        <time>2023-05-19T12:00:34Z</time>
      </trkpt>
      <trkpt lat="49.92112" lon="2.26202">
        <ele>18.9</ele>
        <time>2023-05-19T12:00:35Z</time>
      </trkpt>
      <trkpt lat="49.92112" lon="2.262">
        <ele>18.9</ele>
        <time>2023-05-19T12:00:37Z</time>
      </trkpt>
      <trkpt lat="49.92113" lon="2.26198">
        <ele>18.9</ele>
        <time>2023-05-19T12:00:38Z</time>
      </trkpt>
      <trkpt lat="49.92113" lon="2.26195">
        <ele>18.9</ele>
        <time>2023-05-19T12:00:39Z</time>
      </trkpt>
      <trkpt lat="49.92114" lon="2.26194">
        <ele>18.9</ele>
        <time>2023-05-19T12:00:40Z</time>
      </trkpt>
      <trkpt lat="49.92114" lon="2.26193">
        <ele>18.9</ele>
        <time>2023-05-19T12:00:41Z</time>
      </trkpt>
      <trkpt lat="49.92115" lon="2.26191">
        <ele>18.8</ele>
        <time>2023-05-19T12:00:42Z</time>
      </trkpt>
      <trkpt lat="49.92115" lon="2.2619">
        <ele>18.8</ele>
        <time>2023-05-19T12:00:43Z</time>
      </trkpt>
      <trkpt lat="49.92116" lon="2.26189">
        <ele>18.8</ele>
        <time>2023-05-19T12:00:44Z</time>
      </trkpt>
      <trkpt lat="49.92117" lon="2.26188">
        <ele>18.8</ele>
        <time>2023-05-19T12:00:46Z</time>
      </trkpt>
      <trkpt lat="49.92118" lon="2.26188">
        <ele>18.8</ele>
        <time>2023-05-19T12:00:47Z</time>
      </trkpt>
      <trkpt lat="49.92119" lon="2.26187">
        <ele>18.8</ele>
        <time>2023-05-19T12:00:48Z</time>
      </trkpt>
      <trkpt lat="49.9212" lon="2.26187">
        <ele>18.8</ele>
        <time>2023-05-19T12:00:49Z</time>
      </trkpt>
      <trkpt lat="49.92121" lon="2.26187">
        <ele>18.8</ele>
        <time>2023-05-19T12:00:50Z</time>
      </trkpt>
      <trkpt lat="49.92123" lon="2.26187">
        <ele>18.8</ele>
        <time>2023-05-19T12:00:51Z</time>
      </trkpt>
      <trkpt lat="49.92125" lon="2.26188">
        <ele>18.8</ele>
        <time>2023-05-19T12:00:52Z</time>
      </trkpt>
      <trkpt lat="49.92126" lon="2.26188">
        <ele>18.8</ele>
        <time>2023-05-19T12:00:54Z</time>
      </trkpt>
      <trkpt lat="49.92128" lon="2.26189">
        <ele>18.8</ele>
        <time>2023-05-19T12:00:55Z</time>
      </trkpt>
      <trkpt lat="49.92129" lon="2.2619">
        <ele>18.8</ele>
        <time>2023-05-19T12:00:56Z</time>
      </trkpt>
      <trkpt lat="49.92131" lon="2.2619">
        <ele>18.8</ele>
        <time>2023-05-19T12:00:57Z</time>
      </trkpt>
      <trkpt lat="49.92132" lon="2.26192">
        <ele>18.8</ele>
        <time>2023-05-19T12:00:58Z</time>
      </trkpt>
      <trkpt lat="49.92132" lon="2.26193">
        <ele>18.8</ele>
        <time>2023-05-19T12:00:59Z</time>
      </trkpt>
      <trkpt lat="49.92133" lon="2.26193">
        <ele>18.8</ele>
        <time>2023-05-19T12:01:00Z</time>
      </trkpt>
      <trkpt lat="49.92134" lon="2.26194">
        <ele>18.8</ele>
        <time>2023-05-19T12:01:01Z</time>
      </trkpt>
      <trkpt lat="49.92135" lon="2.26195">
        <ele>18.8</ele>
        <time>2023-05-19T12:01:03Z</time>
      </trkpt>
      <trkpt lat="49.92136" lon="2.26195">
        <ele>18.8</ele>
        <time>2023-05-19T12:01:04Z</time>
      </trkpt>
      <trkpt lat="49.92137" lon="2.26196">
        <ele>18.8</ele>
        <time>2023-05-19T12:01:05Z</time>
      </trkpt>
      <trkpt lat="49.92139" lon="2.26196">
        <ele>18.8</ele>
        <time>2023-05-19T12:01:06Z</time>
      </trkpt>
      <trkpt lat="49.92139" lon="2.26196">
        <ele>18.8</ele>
        <time>2023-05-19T12:01:07Z</time>
      </trkpt>
      <trkpt lat="49.92139" lon="2.26196">
        <ele>18.8</ele>
        <time>2023-05-19T12:01:08Z</time>
      </trkpt>
      <trkpt lat="49.9214" lon="2.26195">
        <ele>18.8</ele>
        <time>2023-05-19T12:01:09Z</time>
      </trkpt>
      <trkpt lat="49.9214" lon="2.26194">
        <ele>18.8</ele>
        <time>2023-05-19T12:01:10Z</time>
      </trkpt>
      <trkpt lat="49.92141" lon="2.26192">
        <ele>18.8</ele>
        <time>2023-05-19T12:01:11Z</time>
      </trkpt>
      <trkpt lat="49.92141" lon="2.2619">
        <ele>18.8</ele>
        <time>2023-05-19T12:01:13Z</time>
      </trkpt>
      <trkpt lat="49.92142" lon="2.26189">
        <ele>18.8</ele>
        <time>2023-05-19T12:01:14Z</time>
      </trkpt>
      <trkpt lat="49.92143" lon="2.26186">
        <ele>18.8</ele>
        <time>2023-05-19T12:01:15Z</time>
      </trkpt>
      <trkpt lat="49.92143" lon="2.26184">
        <ele>18.8</ele>
        <time>2023-05-19T12:01:16Z</time>
      </trkpt>
      <trkpt lat="49.92144" lon="2.26181">
        <ele>18.8</ele>
        <time>2023-05-19T12:01:18Z</time>
      </trkpt>
      <trkpt lat="49.92144" lon="2.26178">
        <ele>18.8</ele>
        <time>2023-05-19T12:01:19Z</time>
      </trkpt>
      <trkpt lat="49.92144" lon="2.26176">
        <ele>18.8</ele>
        <time>2023-05-19T12:01:20Z</time>
      </trkpt>
      <trkpt lat="49.92145" lon="2.26174">
        <ele>18.8</ele>
        <time>2023-05-19T12:01:21Z</time>
      </trkpt>
      <trkpt lat="49.92145" lon="2.26171">
        <ele>18.8</ele>
        <time>2023-05-19T12:01:22Z</time>
      </trkpt>
      <trkpt lat="49.92145" lon="2.26169">
        <ele>18.8</ele>
        <time>2023-05-19T12:01:23Z</time>
      </trkpt>
      <trkpt lat="49.92146" lon="2.26168">
        <ele>18.8</ele>
        <time>2023-05-19T12:01:24Z</time>
      </trkpt>
      <trkpt lat="49.92146" lon="2.26167">
        <ele>18.8</ele>
        <time>2023-05-19T12:01:25Z</time>
      </trkpt>
      <trkpt lat="49.92146" lon="2.26165">
        <ele>18.8</ele>
        <time>2023-05-19T12:01:26Z</time>
      </trkpt>
      <trkpt lat="49.92147" lon="2.26164">
        <ele>18.8</ele>
        <time>2023-05-19T12:01:27Z</time>
      </trkpt>
      <trkpt lat="49.92147" lon="2.26161">
        <ele>18.8</ele>
        <time>2023-05-19T12:01:28Z</time>
      </trkpt>
      <trkpt lat="49.92148" lon="2.2616">
        <ele>18.8</ele>
        <time>2023-05-19T12:01:30Z</time>
      </trkpt>
      <trkpt lat="49.92148" lon="2.26158">
        <ele>18.8</ele>
        <time>2023-05-19T12:01:31Z</time>
      </trkpt>
      <trkpt lat="49.92149" lon="2.26155">
        <ele>18.8</ele>
        <time>2023-05-19T12:01:32Z</time>
      </trkpt>
      <trkpt lat="49.92149" lon="2.26154">
        <ele>18.8</ele>
        <time>2023-05-19T12:01:33Z</time>
      </trkpt>
      <trkpt lat="49.92149" lon="2.26153">
        <ele>18.8</ele>
        <time>2023-05-19T12:01:34Z</time>
      </trkpt>
      <trkpt lat="49.9215" lon="2.26151">
        <ele>18.8</ele>
        <time>2023-05-19T12:01:35Z</time>
      </trkpt>
      <trkpt lat="49.9215" lon="2.26149">
        <ele>18.8</ele>
        <time>2023-05-19T12:01:37Z</time>
      </trkpt>
      <trkpt lat="49.9215" lon="2.26147">
        <ele>18.8</ele>
        <time>2023-05-19T12:01:38Z</time>
      </trkpt>
      <trkpt lat="49.9215" lon="2.26146">
        <ele>18.8</ele>
        <time>2023-05-19T12:01:39Z</time>
      </trkpt>
      <trkpt lat="49.92151" lon="2.26144">
        <ele>18.8</ele>
        <time>2023-05-19T12:01:40Z</time>
      </trkpt>
      <trkpt lat="49.92151" lon="2.2614">
        <ele>18.8</ele>
        <time>2023-05-19T12:01:41Z</time>
      </trkpt>
      <trkpt lat="49.92151" lon="2.26139">
        <ele>18.8</ele>
        <time>2023-05-19T12:01:43Z</time>
      </trkpt>
      <trkpt lat="49.92152" lon="2.26138">
        <ele>18.8</ele>
        <time>2023-05-19T12:01:44Z</time>
      </trkpt>
      <trkpt lat="49.92152" lon="2.26135">
        <ele>18.8</ele>
        <time>2023-05-19T12:01:45Z</time>
      </trkpt>
      <trkpt lat="49.92152" lon="2.26133">
        <ele>18.8</ele>
        <time>2023-05-19T12:01:46Z</time>
      </trkpt>
      <trkpt lat="49.92152" lon="2.26132">
        <ele>18.8</ele>
        <time>2023-05-19T12:01:47Z</time>
      </trkpt>
      <trkpt lat="49.92152" lon="2.26128">
        <ele>18.8</ele>
        <time>2023-05-19T12:01:49Z</time>
      </trkpt>
      <trkpt lat="49.92152" lon="2.26126">
        <ele>18.8</ele>
        <time>2023-05-19T12:01:51Z</time>
      </trkpt>
      <trkpt lat="49.92152" lon="2.26124">
        <ele>18.8</ele>
        <time>2023-05-19T12:01:52Z</time>
      </trkpt>
      <trkpt lat="49.92152" lon="2.26122">
        <ele>18.8</ele>
        <time>2023-05-19T12:01:53Z</time>
      </trkpt>
      <trkpt lat="49.92152" lon="2.2612">
        <ele>18.8</ele>
        <time>2023-05-19T12:01:54Z</time>
      </trkpt>
      <trkpt lat="49.92152" lon="2.26117">
        <ele>18.8</ele>
        <time>2023-05-19T12:01:56Z</time>
      </trkpt>
      <trkpt lat="49.92153" lon="2.26117">
        <ele>18.8</ele>
        <time>2023-05-19T12:01:58Z</time>
      </trkpt>
      <trkpt lat="49.92153" lon="2.26116">
        <ele>18.8</ele>
        <time>2023-05-19T12:01:59Z</time>
      </trkpt>
      <trkpt lat="49.92153" lon="2.26115">
        <ele>18.8</ele>
        <time>2023-05-19T12:02:00Z</time>
      </trkpt>
      <trkpt lat="49.92153" lon="2.26114">
        <ele>18.8</ele>
        <time>2023-05-19T12:02:01Z</time>
      </trkpt>
      <trkpt lat="49.92153" lon="2.26112">
        <ele>18.8</ele>
        <time>2023-05-19T12:02:02Z</time>
      </trkpt>
      <trkpt lat="49.92153" lon="2.2611">
        <ele>18.8</ele>
        <time>2023-05-19T12:02:03Z</time>
      </trkpt>
      <trkpt lat="49.92152" lon="2.26108">
        <ele>18.8</ele>
        <time>2023-05-19T12:02:05Z</time>
      </trkpt>
      <trkpt lat="49.92153" lon="2.26106">
        <ele>18.8</ele>
        <time>2023-05-19T12:02:06Z</time>
      </trkpt>
      <trkpt lat="49.92153" lon="2.26104">
        <ele>18.8</ele>
        <time>2023-05-19T12:02:07Z</time>
      </trkpt>
      <trkpt lat="49.92152" lon="2.26102">
        <ele>18.8</ele>
        <time>2023-05-19T12:02:08Z</time>
      </trkpt>
      <trkpt lat="49.92151" lon="2.26101">
        <ele>18.8</ele>
        <time>2023-05-19T12:02:09Z</time>
      </trkpt>
      <trkpt lat="49.92151" lon="2.26099">
        <ele>18.8</ele>
        <time>2023-05-19T12:02:10Z</time>
      </trkpt>
      <trkpt lat="49.9215" lon="2.26097">
        <ele>18.7</ele>
        <time>2023-05-19T12:02:12Z</time>
      </trkpt>
      <trkpt lat="49.9215" lon="2.26097">
        <ele>18.7</ele>
        <time>2023-05-19T12:02:13Z</time>
      </trkpt>
      <trkpt lat="49.92149" lon="2.26095">
        <ele>18.7</ele>
        <time>2023-05-19T12:02:14Z</time>
      </trkpt>
      <trkpt lat="49.92148" lon="2.26094">
        <ele>18.7</ele>
        <time>2023-05-19T12:02:15Z</time>
      </trkpt>
      <trkpt lat="49.92146" lon="2.2609">
        <ele>18.7</ele>
        <time>2023-05-19T12:02:16Z</time>
      </trkpt>
      <trkpt lat="49.92146" lon="2.26089">
        <ele>18.7</ele>
        <time>2023-05-19T12:02:17Z</time>
      </trkpt>
      <trkpt lat="49.92145" lon="2.26085">
        <ele>18.6</ele>
        <time>2023-05-19T12:02:19Z</time>
      </trkpt>
      <trkpt lat="49.92144" lon="2.26081">
        <ele>18.6</ele>
        <time>2023-05-19T12:02:20Z</time>
      </trkpt>
      <trkpt lat="49.92143" lon="2.26075">
        <ele>18.6</ele>
        <time>2023-05-19T12:02:21Z</time>
      </trkpt>
      <trkpt lat="49.92143" lon="2.26074">
        <ele>18.7</ele>
        <time>2023-05-19T12:02:22Z</time>
      </trkpt>
      <trkpt lat="49.92143" lon="2.26071">
        <ele>18.7</ele>
        <time>2023-05-19T12:02:23Z</time>
      </trkpt>
      <trkpt lat="49.92144" lon="2.26069">
        <ele>18.7</ele>
        <time>2023-05-19T12:02:24Z</time>
      </trkpt>
      <trkpt lat="49.92145" lon="2.26067">
        <ele>18.7</ele>
        <time>2023-05-19T12:02:25Z</time>
      </trkpt>
      <trkpt lat="49.92145" lon="2.26065">
        <ele>18.7</ele>
        <time>2023-05-19T12:02:27Z</time>
      </trkpt>
      <trkpt lat="49.92146" lon="2.26063">
        <ele>18.7</ele>
        <time>2023-05-19T12:02:28Z</time>
      </trkpt>
      <trkpt lat="49.92147" lon="2.26061">
        <ele>18.7</ele>
        <time>2023-05-19T12:02:29Z</time>
      </trkpt>
      <trkpt lat="49.92148" lon="2.26059">
        <ele>19</ele>
        <time>2023-05-19T12:02:30Z</time>
      </trkpt>
      <trkpt lat="49.92149" lon="2.26057">
        <ele>19.1</ele>
        <time>2023-05-19T12:02:32Z</time>
      </trkpt>
      <trkpt lat="49.9215" lon="2.26054">
        <ele>19.1</ele>
        <time>2023-05-19T12:02:33Z</time>
      </trkpt>
      <trkpt lat="49.92151" lon="2.26052">
        <ele>19.1</ele>
        <time>2023-05-19T12:02:34Z</time>
      </trkpt>
      <trkpt lat="49.92152" lon="2.2605">
        <ele>19.1</ele>
        <time>2023-05-19T12:02:35Z</time>
      </trkpt>
      <trkpt lat="49.92153" lon="2.26049">
        <ele>19.1</ele>
        <time>2023-05-19T12:02:36Z</time>
      </trkpt>
      <trkpt lat="49.92154" lon="2.26049">
        <ele>19.1</ele>
        <time>2023-05-19T12:02:37Z</time>
      </trkpt>
      <trkpt lat="49.92156" lon="2.26049">
        <ele>19.1</ele>
        <time>2023-05-19T12:02:38Z</time>
      </trkpt>
      <trkpt lat="49.92158" lon="2.26049">
        <ele>19.1</ele>
        <time>2023-05-19T12:02:40Z</time>
      </trkpt>
      <trkpt lat="49.92159" lon="2.2605">
        <ele>19.1</ele>
        <time>2023-05-19T12:02:41Z</time>
      </trkpt>
      <trkpt lat="49.92161" lon="2.26051">
        <ele>19.1</ele>
        <time>2023-05-19T12:02:42Z</time>
      </trkpt>
      <trkpt lat="49.92162" lon="2.26051">
        <ele>19.1</ele>
        <time>2023-05-19T12:02:43Z</time>
      </trkpt>
      <trkpt lat="49.92164" lon="2.26051">
        <ele>19.1</ele>
        <time>2023-05-19T12:02:45Z</time>
      </trkpt>
      <trkpt lat="49.92165" lon="2.26051">
        <ele>19.1</ele>
        <time>2023-05-19T12:02:46Z</time>
      </trkpt>
      <trkpt lat="49.92167" lon="2.26051">
        <ele>19.1</ele>
        <time>2023-05-19T12:02:47Z</time>
      </trkpt>
      <trkpt lat="49.92168" lon="2.26051">
        <ele>19.1</ele>
        <time>2023-05-19T12:02:48Z</time>
      </trkpt>
      <trkpt lat="49.92169" lon="2.2605">
        <ele>19.1</ele>
        <time>2023-05-19T12:02:49Z</time>
      </trkpt>
      <trkpt lat="49.92171" lon="2.2605">
        <ele>19.1</ele>
        <time>2023-05-19T12:02:50Z</time>
      </trkpt>
      <trkpt lat="49.92172" lon="2.26049">
        <ele>19.1</ele>
        <time>2023-05-19T12:02:51Z</time>
      </trkpt>
      <trkpt lat="49.92174" lon="2.26047">
        <ele>19.2</ele>
        <time>2023-05-19T12:02:53Z</time>
      </trkpt>
      <trkpt lat="49.92175" lon="2.26046">
        <ele>19.2</ele>
        <time>2023-05-19T12:02:54Z</time>
      </trkpt>
      <trkpt lat="49.92176" lon="2.26045">
        <ele>19.2</ele>
        <time>2023-05-19T12:02:55Z</time>
      </trkpt>
      <trkpt lat="49.92177" lon="2.26044">
        <ele>19.2</ele>
        <time>2023-05-19T12:02:56Z</time>
      </trkpt>
      <trkpt lat="49.92178" lon="2.26043">
        <ele>19.2</ele>
        <time>2023-05-19T12:02:57Z</time>
      </trkpt>
      <trkpt lat="49.92179" lon="2.26041">
        <ele>19.2</ele>
        <time>2023-05-19T12:02:59Z</time>
      </trkpt>
      <trkpt lat="49.9218" lon="2.2604">
        <ele>19.2</ele>
        <time>2023-05-19T12:03:01Z</time>
      </trkpt>
      <trkpt lat="49.92181" lon="2.26039">
        <ele>19.2</ele>
        <time>2023-05-19T12:03:02Z</time>
      </trkpt>
      <trkpt lat="49.92182" lon="2.26038">
        <ele>19.3</ele>
        <time>2023-05-19T12:03:03Z</time>
      </trkpt>
      <trkpt lat="49.92182" lon="2.26038">
        <ele>19.3</ele>
        <time>2023-05-19T12:03:04Z</time>
      </trkpt>
      <trkpt lat="49.92183" lon="2.26036">
        <ele>19.3</ele>
        <time>2023-05-19T12:03:05Z</time>
      </trkpt>
      <trkpt lat="49.92184" lon="2.26035">
        <ele>19.3</ele>
        <time>2023-05-19T12:03:06Z</time>
      </trkpt>
      <trkpt lat="49.92185" lon="2.26034">
        <ele>19.3</ele>
        <time>2023-05-19T12:03:07Z</time>
      </trkpt>
      <trkpt lat="49.92186" lon="2.26032">
        <ele>19.3</ele>
        <time>2023-05-19T12:03:09Z</time>
      </trkpt>
      <trkpt lat="49.92187" lon="2.2603">
        <ele>19.3</ele>
        <time>2023-05-19T12:03:10Z</time>
      </trkpt>
      <trkpt lat="49.92188" lon="2.26028">
        <ele>19.4</ele>
        <time>2023-05-19T12:03:11Z</time>
      </trkpt>
      <trkpt lat="49.92189" lon="2.26027">
        <ele>19.4</ele>
        <time>2023-05-19T12:03:12Z</time>
      </trkpt>
      <trkpt lat="49.92189" lon="2.26025">
        <ele>19.4</ele>
        <time>2023-05-19T12:03:13Z</time>
      </trkpt>
      <trkpt lat="49.9219" lon="2.26024">
        <ele>19.4</ele>
        <time>2023-05-19T12:03:14Z</time>
      </trkpt>
      <trkpt lat="49.92191" lon="2.26022">
        <ele>19.4</ele>
        <time>2023-05-19T12:03:16Z</time>
      </trkpt>
      <trkpt lat="49.92191" lon="2.2602">
        <ele>19.4</ele>
        <time>2023-05-19T12:03:17Z</time>
      </trkpt>
      <trkpt lat="49.92192" lon="2.26019">
        <ele>19.4</ele>
        <time>2023-05-19T12:03:18Z</time>
      </trkpt>
      <trkpt lat="49.92193" lon="2.26017">
        <ele>19.4</ele>
        <time>2023-05-19T12:03:19Z</time>
      </trkpt>
      <trkpt lat="49.92194" lon="2.26016">
        <ele>19.4</ele>
        <time>2023-05-19T12:03:20Z</time>
      </trkpt>
      <trkpt lat="49.92195" lon="2.26014">
        <ele>19.5</ele>
        <time>2023-05-19T12:03:22Z</time>
      </trkpt>
      <trkpt lat="49.92196" lon="2.26013">
        <ele>19.5</ele>
        <time>2023-05-19T12:03:23Z</time>
      </trkpt>
      <trkpt lat="49.92196" lon="2.26011">
        <ele>19.5</ele>
        <time>2023-05-19T12:03:24Z</time>
      </trkpt>
      <trkpt lat="49.92197" lon="2.2601">
        <ele>19.5</ele>
        <time>2023-05-19T12:03:25Z</time>
      </trkpt>
      <trkpt lat="49.92197" lon="2.26009">
        <ele>19.5</ele>
        <time>2023-05-19T12:03:26Z</time>
      </trkpt>
      <trkpt lat="49.92198" lon="2.26008">
        <ele>19.5</ele>
        <time>2023-05-19T12:03:27Z</time>
      </trkpt>
      <trkpt lat="49.92199" lon="2.26006">
        <ele>19.5</ele>
        <time>2023-05-19T12:03:28Z</time>
      </trkpt>
      <trkpt lat="49.922" lon="2.26004">
        <ele>19.5</ele>
        <time>2023-05-19T12:03:30Z</time>
      </trkpt>
      <trkpt lat="49.92201" lon="2.26002">
        <ele>19.5</ele>
        <time>2023-05-19T12:03:31Z</time>
      </trkpt>
      <trkpt lat="49.92202" lon="2.26">
        <ele>19.5</ele>
        <time>2023-05-19T12:03:32Z</time>
      </trkpt>
      <trkpt lat="49.92203" lon="2.25999">
        <ele>19.5</ele>
        <time>2023-05-19T12:03:33Z</time>
      </trkpt>
      <trkpt lat="49.92204" lon="2.25997">
        <ele>19.4</ele>
        <time>2023-05-19T12:03:34Z</time>
      </trkpt>
      <trkpt lat="49.92205" lon="2.25996">
        <ele>19.4</ele>
        <time>2023-05-19T12:03:35Z</time>
      </trkpt>
      <trkpt lat="49.92207" lon="2.25993">
        <ele>19.4</ele>
        <time>2023-05-19T12:03:36Z</time>
      </trkpt>
      <trkpt lat="49.92208" lon="2.25992">
        <ele>19.4</ele>
        <time>2023-05-19T12:03:38Z</time>
      </trkpt>
      <trkpt lat="49.92208" lon="2.25991">
        <ele>19.4</ele>
        <time>2023-05-19T12:03:39Z</time>
      </trkpt>
      <trkpt lat="49.92209" lon="2.2599">
        <ele>19.4</ele>
        <time>2023-05-19T12:03:40Z</time>
      </trkpt>
      <trkpt lat="49.9221" lon="2.25989">
        <ele>19.4</ele>
        <time>2023-05-19T12:03:41Z</time>
      </trkpt>
      <trkpt lat="49.92212" lon="2.25986">
        <ele>19.4</ele>
        <time>2023-05-19T12:03:42Z</time>
      </trkpt>
      <trkpt lat="49.92213" lon="2.25985">
        <ele>19.4</ele>
        <time>2023-05-19T12:03:44Z</time>
      </trkpt>
      <trkpt lat="49.92214" lon="2.25984">
        <ele>19.3</ele>
        <time>2023-05-19T12:03:45Z</time>
      </trkpt>
      <trkpt lat="49.92215" lon="2.25983">
        <ele>19.3</ele>
        <time>2023-05-19T12:03:46Z</time>
      </trkpt>
      <trkpt lat="49.92215" lon="2.25982">
        <ele>19.3</ele>
        <time>2023-05-19T12:03:47Z</time>
      </trkpt>
      <trkpt lat="49.92217" lon="2.25981">
        <ele>19.3</ele>
        <time>2023-05-19T12:03:48Z</time>
      </trkpt>
      <trkpt lat="49.92218" lon="2.2598">
        <ele>19.3</ele>
        <time>2023-05-19T12:03:49Z</time>
      </trkpt>
      <trkpt lat="49.92219" lon="2.25979">
        <ele>19.3</ele>
        <time>2023-05-19T12:03:50Z</time>
      </trkpt>
      <trkpt lat="49.92219" lon="2.25978">
        <ele>19.3</ele>
        <time>2023-05-19T12:03:51Z</time>
      </trkpt>
      <trkpt lat="49.9222" lon="2.25976">
        <ele>19.3</ele>
        <time>2023-05-19T12:03:52Z</time>
      </trkpt>
      <trkpt lat="49.92221" lon="2.25975">
        <ele>19.3</ele>
        <time>2023-05-19T12:03:53Z</time>
      </trkpt>
      <trkpt lat="49.92222" lon="2.25974">
        <ele>19.3</ele>
        <time>2023-05-19T12:03:54Z</time>
      </trkpt>
      <trkpt lat="49.92223" lon="2.25973">
        <ele>19.3</ele>
        <time>2023-05-19T12:03:55Z</time>
      </trkpt>
      <trkpt lat="49.92223" lon="2.25971">
        <ele>19.3</ele>
        <time>2023-05-19T12:03:57Z</time>
      </trkpt>
      <trkpt lat="49.92224" lon="2.2597">
        <ele>19.3</ele>
        <time>2023-05-19T12:03:58Z</time>
      </trkpt>
      <trkpt lat="49.92224" lon="2.25969">
        <ele>19.3</ele>
        <time>2023-05-19T12:03:59Z</time>
      </trkpt>
      <trkpt lat="49.92224" lon="2.25967">
        <ele>19.2</ele>
        <time>2023-05-19T12:04:00Z</time>
      </trkpt>
      <trkpt lat="49.92225" lon="2.25965">
        <ele>19.2</ele>
        <time>2023-05-19T12:04:01Z</time>
      </trkpt>
      <trkpt lat="49.92225" lon="2.25963">
        <ele>19.2</ele>
        <time>2023-05-19T12:04:02Z</time>
      </trkpt>
      <trkpt lat="49.92225" lon="2.25961">
        <ele>19.2</ele>
        <time>2023-05-19T12:04:04Z</time>
      </trkpt>
      <trkpt lat="49.92225" lon="2.25959">
        <ele>19.2</ele>
        <time>2023-05-19T12:04:05Z</time>
      </trkpt>
      <trkpt lat="49.92225" lon="2.25956">
        <ele>19.2</ele>
        <time>2023-05-19T12:04:06Z</time>
      </trkpt>
      <trkpt lat="49.92225" lon="2.25954">
        <ele>19.2</ele>
        <time>2023-05-19T12:04:07Z</time>
      </trkpt>
      <trkpt lat="49.92225" lon="2.25953">
        <ele>19.2</ele>
        <time>2023-05-19T12:04:08Z</time>
      </trkpt>
      <trkpt lat="49.92225" lon="2.25951">
        <ele>19.2</ele>
        <time>2023-05-19T12:04:09Z</time>
      </trkpt>
      <trkpt lat="49.92226" lon="2.25949">
        <ele>19.2</ele>
        <time>2023-05-19T12:04:10Z</time>
      </trkpt>
      <trkpt lat="49.92225" lon="2.25948">
        <ele>19.2</ele>
        <time>2023-05-19T12:04:11Z</time>
      </trkpt>
      <trkpt lat="49.92226" lon="2.25946">
        <ele>19.2</ele>
        <time>2023-05-19T12:04:12Z</time>
      </trkpt>
      <trkpt lat="49.92226" lon="2.25944">
        <ele>19.2</ele>
        <time>2023-05-19T12:04:14Z</time>
      </trkpt>
      <trkpt lat="49.92227" lon="2.25941">
        <ele>19.1</ele>
        <time>2023-05-19T12:04:15Z</time>
      </trkpt>
      <trkpt lat="49.92227" lon="2.25939">
        <ele>19.1</ele>
        <time>2023-05-19T12:04:16Z</time>
      </trkpt>
      <trkpt lat="49.92227" lon="2.25938">
        <ele>19.1</ele>
        <time>2023-05-19T12:04:17Z</time>
      </trkpt>
      <trkpt lat="49.92227" lon="2.25936">
        <ele>19.1</ele>
        <time>2023-05-19T12:04:18Z</time>
      </trkpt>
      <trkpt lat="49.92228" lon="2.25933">
        <ele>19.1</ele>
        <time>2023-05-19T12:04:19Z</time>
      </trkpt>
      <trkpt lat="49.92228" lon="2.2593">
        <ele>19.1</ele>
        <time>2023-05-19T12:04:20Z</time>
      </trkpt>
      <trkpt lat="49.92229" lon="2.25928">
        <ele>19.1</ele>
        <time>2023-05-19T12:04:22Z</time>
      </trkpt>
      <trkpt lat="49.92229" lon="2.25926">
        <ele>19.1</ele>
        <time>2023-05-19T12:04:23Z</time>
      </trkpt>
      <trkpt lat="49.92229" lon="2.25924">
        <ele>19.1</ele>
        <time>2023-05-19T12:04:24Z</time>
      </trkpt>
      <trkpt lat="49.92229" lon="2.25923">
        <ele>19.1</ele>
        <time>2023-05-19T12:04:25Z</time>
      </trkpt>
      <trkpt lat="49.92229" lon="2.25921">
        <ele>19.1</ele>
        <time>2023-05-19T12:04:26Z</time>
      </trkpt>
      <trkpt lat="49.92229" lon="2.25919">
        <ele>19.1</ele>
        <time>2023-05-19T12:04:27Z</time>
      </trkpt>
      <trkpt lat="49.92229" lon="2.25919">
        <ele>19.1</ele>
        <time>2023-05-19T12:04:28Z</time>
      </trkpt>
      <trkpt lat="49.92228" lon="2.25917">
        <ele>19.1</ele>
        <time>2023-05-19T12:04:30Z</time>
      </trkpt>
      <trkpt lat="49.92228" lon="2.25916">
        <ele>19.1</ele>
        <time>2023-05-19T12:04:31Z</time>
      </trkpt>
      <trkpt lat="49.92228" lon="2.25915">
        <ele>19</ele>
        <time>2023-05-19T12:04:32Z</time>
      </trkpt>
      <trkpt lat="49.92229" lon="2.25914">
        <ele>19</ele>
        <time>2023-05-19T12:04:33Z</time>
      </trkpt>
      <trkpt lat="49.92229" lon="2.25913">
        <ele>19</ele>
        <time>2023-05-19T12:04:34Z</time>
      </trkpt>
      <trkpt lat="49.92229" lon="2.25911">
        <ele>19</ele>
        <time>2023-05-19T12:04:35Z</time>
      </trkpt>
      <trkpt lat="49.92229" lon="2.2591">
        <ele>19</ele>
        <time>2023-05-19T12:04:36Z</time>
      </trkpt>
      <trkpt lat="49.9223" lon="2.25908">
        <ele>19</ele>
        <time>2023-05-19T12:04:37Z</time>
      </trkpt>
      <trkpt lat="49.9223" lon="2.25906">
        <ele>19</ele>
        <time>2023-05-19T12:04:38Z</time>
      </trkpt>
      <trkpt lat="49.92231" lon="2.25904">
        <ele>19</ele>
        <time>2023-05-19T12:04:40Z</time>
      </trkpt>
      <trkpt lat="49.92231" lon="2.25901">
        <ele>19</ele>
        <time>2023-05-19T12:04:41Z</time>
      </trkpt>
      <trkpt lat="49.92232" lon="2.25899">
        <ele>19</ele>
        <time>2023-05-19T12:04:42Z</time>
      </trkpt>
      <trkpt lat="49.92232" lon="2.25898">
        <ele>19</ele>
        <time>2023-05-19T12:04:43Z</time>
      </trkpt>
      <trkpt lat="49.92232" lon="2.25896">
        <ele>19</ele>
        <time>2023-05-19T12:04:44Z</time>
      </trkpt>
      <trkpt lat="49.92233" lon="2.25894">
        <ele>19</ele>
        <time>2023-05-19T12:04:45Z</time>
      </trkpt>
      <trkpt lat="49.92233" lon="2.25892">
        <ele>18.9</ele>
        <time>2023-05-19T12:04:46Z</time>
      </trkpt>
      <trkpt lat="49.92233" lon="2.2589">
        <ele>18.9</ele>
        <time>2023-05-19T12:04:47Z</time>
      </trkpt>
      <trkpt lat="49.92234" lon="2.25887">
        <ele>18.9</ele>
        <time>2023-05-19T12:04:49Z</time>
      </trkpt>
      <trkpt lat="49.92234" lon="2.25884">
        <ele>18.9</ele>
        <time>2023-05-19T12:04:50Z</time>
      </trkpt>
      <trkpt lat="49.92235" lon="2.25883">
        <ele>18.9</ele>
        <time>2023-05-19T12:04:51Z</time>
      </trkpt>
      <trkpt lat="49.92235" lon="2.25881">
        <ele>18.9</ele>
        <time>2023-05-19T12:04:52Z</time>
      </trkpt>
      <trkpt lat="49.92235" lon="2.25879">
        <ele>18.9</ele>
        <time>2023-05-19T12:04:53Z</time>
      </trkpt>
      <trkpt lat="49.92236" lon="2.25877">
        <ele>18.9</ele>
        <time>2023-05-19T12:04:55Z</time>
      </trkpt>
      <trkpt lat="49.92236" lon="2.25875">
        <ele>18.9</ele>
        <time>2023-05-19T12:04:56Z</time>
      </trkpt>
      <trkpt lat="49.92236" lon="2.25874">
        <ele>18.9</ele>
        <time>2023-05-19T12:04:57Z</time>
      </trkpt>
      <trkpt lat="49.92237" lon="2.25873">
        <ele>18.8</ele>
        <time>2023-05-19T12:04:58Z</time>
      </trkpt>
      <trkpt lat="49.92237" lon="2.25871">
        <ele>18.8</ele>
        <time>2023-05-19T12:05:00Z</time>
      </trkpt>
      <trkpt lat="49.92237" lon="2.25869">
        <ele>18.8</ele>
        <time>2023-05-19T12:05:01Z</time>
      </trkpt>
      <trkpt lat="49.92238" lon="2.25868">
        <ele>18.8</ele>
        <time>2023-05-19T12:05:02Z</time>
      </trkpt>
      <trkpt lat="49.92238" lon="2.25867">
        <ele>18.8</ele>
        <time>2023-05-19T12:05:03Z</time>
      </trkpt>
      <trkpt lat="49.92238" lon="2.25865">
        <ele>18.8</ele>
        <time>2023-05-19T12:05:04Z</time>
      </trkpt>
      <trkpt lat="49.92238" lon="2.25864">
        <ele>18.8</ele>
        <time>2023-05-19T12:05:05Z</time>
      </trkpt>
      <trkpt lat="49.92239" lon="2.25863">
        <ele>18.8</ele>
        <time>2023-05-19T12:05:06Z</time>
      </trkpt>
      <trkpt lat="49.92239" lon="2.25861">
        <ele>18.8</ele>
        <time>2023-05-19T12:05:07Z</time>
      </trkpt>
      <trkpt lat="49.9224" lon="2.25859">
        <ele>18.7</ele>
        <time>2023-05-19T12:05:09Z</time>
      </trkpt>
      <trkpt lat="49.9224" lon="2.25858">
        <ele>18.7</ele>
        <time>2023-05-19T12:05:10Z</time>
      </trkpt>
      <trkpt lat="49.92241" lon="2.25856">
        <ele>18.7</ele>
        <time>2023-05-19T12:05:11Z</time>
      </trkpt>
      <trkpt lat="49.92241" lon="2.25854">
        <ele>18.7</ele>
        <time>2023-05-19T12:05:12Z</time>
      </trkpt>
      <trkpt lat="49.92242" lon="2.25851">
        <ele>18.7</ele>
        <time>2023-05-19T12:05:13Z</time>
      </trkpt>
      <trkpt lat="49.92242" lon="2.2585">
        <ele>18.7</ele>
        <time>2023-05-19T12:05:14Z</time>
      </trkpt>
      <trkpt lat="49.92243" lon="2.25848">
        <ele>18.7</ele>
        <time>2023-05-19T12:05:15Z</time>
      </trkpt>
      <trkpt lat="49.92243" lon="2.25846">
        <ele>18.7</ele>
        <time>2023-05-19T12:05:16Z</time>
      </trkpt>
      <trkpt lat="49.92244" lon="2.25844">
        <ele>18.7</ele>
        <time>2023-05-19T12:05:18Z</time>
      </trkpt>
      <trkpt lat="49.92244" lon="2.25842">
        <ele>18.7</ele>
        <time>2023-05-19T12:05:19Z</time>
      </trkpt>
      <trkpt lat="49.92244" lon="2.25841">
        <ele>18.7</ele>
        <time>2023-05-19T12:05:20Z</time>
      </trkpt>
      <trkpt lat="49.92245" lon="2.25839">
        <ele>18.6</ele>
        <time>2023-05-19T12:05:21Z</time>
      </trkpt>
      <trkpt lat="49.92245" lon="2.25836">
        <ele>18.6</ele>
        <time>2023-05-19T12:05:23Z</time>
      </trkpt>
      <trkpt lat="49.92246" lon="2.25834">
        <ele>18.6</ele>
        <time>2023-05-19T12:05:25Z</time>
      </trkpt>
      <trkpt lat="49.92246" lon="2.25831">
        <ele>18.6</ele>
        <time>2023-05-19T12:05:26Z</time>
      </trkpt>
      <trkpt lat="49.92246" lon="2.2583">
        <ele>18.6</ele>
        <time>2023-05-19T12:05:27Z</time>
      </trkpt>
      <trkpt lat="49.92247" lon="2.25829">
        <ele>18.6</ele>
        <time>2023-05-19T12:05:28Z</time>
      </trkpt>
      <trkpt lat="49.92247" lon="2.25828">
        <ele>18.6</ele>
        <time>2023-05-19T12:05:29Z</time>
      </trkpt>
      <trkpt lat="49.92248" lon="2.25825">
        <ele>18.6</ele>
        <time>2023-05-19T12:05:31Z</time>
      </trkpt>
      <trkpt lat="49.92248" lon="2.25824">
        <ele>18.6</ele>
        <time>2023-05-19T12:05:32Z</time>
      </trkpt>
      <trkpt lat="49.92248" lon="2.25822">
        <ele>18.6</ele>
        <time>2023-05-19T12:05:34Z</time>
      </trkpt>
      <trkpt lat="49.92248" lon="2.2582">
        <ele>18.6</ele>
        <time>2023-05-19T12:05:35Z</time>
      </trkpt>
      <trkpt lat="49.92249" lon="2.25818">
        <ele>18.6</ele>
        <time>2023-05-19T12:05:36Z</time>
      </trkpt>
      <trkpt lat="49.92249" lon="2.25815">
        <ele>18.6</ele>
        <time>2023-05-19T12:05:37Z</time>
      </trkpt>
      <trkpt lat="49.92249" lon="2.25814">
        <ele>18.6</ele>
        <time>2023-05-19T12:05:38Z</time>
      </trkpt>
      <trkpt lat="49.92249" lon="2.25813">
        <ele>18.6</ele>
        <time>2023-05-19T12:05:39Z</time>
      </trkpt>
      <trkpt lat="49.9225" lon="2.25811">
        <ele>18.6</ele>
        <time>2023-05-19T12:05:40Z</time>
      </trkpt>
      <trkpt lat="49.9225" lon="2.2581">
        <ele>18.6</ele>
        <time>2023-05-19T12:05:41Z</time>
      </trkpt>
      <trkpt lat="49.9225" lon="2.25808">
        <ele>18.6</ele>
        <time>2023-05-19T12:05:42Z</time>
      </trkpt>
      <trkpt lat="49.92251" lon="2.25805">
        <ele>18.6</ele>
        <time>2023-05-19T12:05:43Z</time>
      </trkpt>
      <trkpt lat="49.92251" lon="2.25803">
        <ele>18.6</ele>
        <time>2023-05-19T12:05:45Z</time>
      </trkpt>
      <trkpt lat="49.92251" lon="2.25802">
        <ele>18.6</ele>
        <time>2023-05-19T12:05:46Z</time>
      </trkpt>
      <trkpt lat="49.92251" lon="2.25801">
        <ele>18.6</ele>
        <time>2023-05-19T12:05:47Z</time>
      </trkpt>
      <trkpt lat="49.92252" lon="2.25799">
        <ele>18.6</ele>
        <time>2023-05-19T12:05:48Z</time>
      </trkpt>
      <trkpt lat="49.92252" lon="2.25797">
        <ele>18.6</ele>
        <time>2023-05-19T12:05:49Z</time>
      </trkpt>
      <trkpt lat="49.92253" lon="2.25793">
        <ele>18.6</ele>
        <time>2023-05-19T12:05:50Z</time>
      </trkpt>
      <trkpt lat="49.92253" lon="2.2579">
        <ele>18.6</ele>
        <time>2023-05-19T12:05:52Z</time>
      </trkpt>
      <trkpt lat="49.92253" lon="2.25788">
        <ele>18.5</ele>
        <time>2023-05-19T12:05:54Z</time>
      </trkpt>
      <trkpt lat="49.92253" lon="2.25786">
        <ele>18.5</ele>
        <time>2023-05-19T12:05:55Z</time>
      </trkpt>
      <trkpt lat="49.92254" lon="2.25782">
        <ele>18.5</ele>
        <time>2023-05-19T12:05:56Z</time>
      </trkpt>
      <trkpt lat="49.92255" lon="2.25781">
        <ele>18.5</ele>
        <time>2023-05-19T12:05:58Z</time>
      </trkpt>
      <trkpt lat="49.92255" lon="2.25779">
        <ele>18.5</ele>
        <time>2023-05-19T12:05:59Z</time>
      </trkpt>
      <trkpt lat="49.92255" lon="2.25778">
        <ele>18.5</ele>
        <time>2023-05-19T12:06:00Z</time>
      </trkpt>
      <trkpt lat="49.92256" lon="2.25776">
        <ele>18.5</ele>
        <time>2023-05-19T12:06:01Z</time>
      </trkpt>
      <trkpt lat="49.92256" lon="2.25774">
        <ele>18.5</ele>
        <time>2023-05-19T12:06:02Z</time>
      </trkpt>
      <trkpt lat="49.92257" lon="2.25773">
        <ele>18.5</ele>
        <time>2023-05-19T12:06:03Z</time>
      </trkpt>
      <trkpt lat="49.92257" lon="2.25771">
        <ele>18.5</ele>
        <time>2023-05-19T12:06:04Z</time>
      </trkpt>
      <trkpt lat="49.92257" lon="2.25769">
        <ele>18.5</ele>
        <time>2023-05-19T12:06:05Z</time>
      </trkpt>
      <trkpt lat="49.92257" lon="2.25767">
        <ele>18.5</ele>
        <time>2023-05-19T12:06:06Z</time>
      </trkpt>
      <trkpt lat="49.92257" lon="2.25765">
        <ele>18.5</ele>
        <time>2023-05-19T12:06:07Z</time>
      </trkpt>
      <trkpt lat="49.92257" lon="2.25763">
        <ele>18.5</ele>
        <time>2023-05-19T12:06:08Z</time>
      </trkpt>
      <trkpt lat="49.92257" lon="2.25761">
        <ele>18.5</ele>
        <time>2023-05-19T12:06:09Z</time>
      </trkpt>
      <trkpt lat="49.92257" lon="2.25759">
        <ele>18.4</ele>
        <time>2023-05-19T12:06:11Z</time>
      </trkpt>
      <trkpt lat="49.92257" lon="2.25756">
        <ele>18.4</ele>
        <time>2023-05-19T12:06:12Z</time>
      </trkpt>
      <trkpt lat="49.92257" lon="2.25755">
        <ele>18.4</ele>
        <time>2023-05-19T12:06:13Z</time>
      </trkpt>
      <trkpt lat="49.92257" lon="2.25754">
        <ele>18.4</ele>
        <time>2023-05-19T12:06:14Z</time>
      </trkpt>
      <trkpt lat="49.92257" lon="2.25752">
        <ele>18.4</ele>
        <time>2023-05-19T12:06:15Z</time>
      </trkpt>
      <trkpt lat="49.92258" lon="2.2575">
        <ele>18.4</ele>
        <time>2023-05-19T12:06:16Z</time>
      </trkpt>
      <trkpt lat="49.92258" lon="2.25747">
        <ele>18.4</ele>
        <time>2023-05-19T12:06:18Z</time>
      </trkpt>
      <trkpt lat="49.92258" lon="2.25745">
        <ele>18.4</ele>
        <time>2023-05-19T12:06:19Z</time>
      </trkpt>
      <trkpt lat="49.92258" lon="2.25742">
        <ele>18.4</ele>
        <time>2023-05-19T12:06:20Z</time>
      </trkpt>
      <trkpt lat="49.92258" lon="2.2574">
        <ele>18.3</ele>
        <time>2023-05-19T12:06:21Z</time>
      </trkpt>
      <trkpt lat="49.92259" lon="2.25738">
        <ele>18.3</ele>
        <time>2023-05-19T12:06:22Z</time>
      </trkpt>
      <trkpt lat="49.92259" lon="2.25736">
        <ele>18.3</ele>
        <time>2023-05-19T12:06:23Z</time>
      </trkpt>
      <trkpt lat="49.92259" lon="2.25733">
        <ele>18.3</ele>
        <time>2023-05-19T12:06:24Z</time>
      </trkpt>
      <trkpt lat="49.92259" lon="2.25731">
        <ele>18.3</ele>
        <time>2023-05-19T12:06:25Z</time>
      </trkpt>
      <trkpt lat="49.9226" lon="2.25729">
        <ele>18.3</ele>
        <time>2023-05-19T12:06:26Z</time>
      </trkpt>
      <trkpt lat="49.9226" lon="2.25726">
        <ele>18.3</ele>
        <time>2023-05-19T12:06:27Z</time>
      </trkpt>
      <trkpt lat="49.9226" lon="2.25725">
        <ele>18.3</ele>
        <time>2023-05-19T12:06:29Z</time>
      </trkpt>
      <trkpt lat="49.9226" lon="2.25723">
        <ele>18.3</ele>
        <time>2023-05-19T12:06:30Z</time>
      </trkpt>
      <trkpt lat="49.9226" lon="2.25721">
        <ele>18.2</ele>
        <time>2023-05-19T12:06:31Z</time>
      </trkpt>
      <trkpt lat="49.92261" lon="2.2572">
        <ele>18.2</ele>
        <time>2023-05-19T12:06:32Z</time>
      </trkpt>
      <trkpt lat="49.92261" lon="2.25718">
        <ele>18.2</ele>
        <time>2023-05-19T12:06:33Z</time>
      </trkpt>
      <trkpt lat="49.92261" lon="2.25715">
        <ele>18.2</ele>
        <time>2023-05-19T12:06:34Z</time>
      </trkpt>
      <trkpt lat="49.92261" lon="2.25713">
        <ele>18.2</ele>
        <time>2023-05-19T12:06:36Z</time>
      </trkpt>
      <trkpt lat="49.9226" lon="2.25712">
        <ele>18.2</ele>
        <time>2023-05-19T12:06:37Z</time>
      </trkpt>
      <trkpt lat="49.9226" lon="2.25709">
        <ele>18.2</ele>
        <time>2023-05-19T12:06:38Z</time>
      </trkpt>
      <trkpt lat="49.9226" lon="2.25708">
        <ele>18.2</ele>
        <time>2023-05-19T12:06:39Z</time>
      </trkpt>
      <trkpt lat="49.9226" lon="2.25706">
        <ele>18.2</ele>
        <time>2023-05-19T12:06:40Z</time>
      </trkpt>
      <trkpt lat="49.9226" lon="2.25704">
        <ele>18.2</ele>
        <time>2023-05-19T12:06:42Z</time>
      </trkpt>
      <trkpt lat="49.92261" lon="2.25702">
        <ele>18.2</ele>
        <time>2023-05-19T12:06:43Z</time>
      </trkpt>
      <trkpt lat="49.92261" lon="2.25699">
        <ele>18.2</ele>
        <time>2023-05-19T12:06:44Z</time>
      </trkpt>
      <trkpt lat="49.92262" lon="2.25697">
        <ele>18.2</ele>
        <time>2023-05-19T12:06:45Z</time>
      </trkpt>
      <trkpt lat="49.92262" lon="2.25696">
        <ele>18.2</ele>
        <time>2023-05-19T12:06:46Z</time>
      </trkpt>
      <trkpt lat="49.92262" lon="2.25693">
        <ele>18.2</ele>
        <time>2023-05-19T12:06:47Z</time>
      </trkpt>
      <trkpt lat="49.92263" lon="2.25691">
        <ele>18.1</ele>
        <time>2023-05-19T12:06:48Z</time>
      </trkpt>
      <trkpt lat="49.92264" lon="2.25686">
        <ele>18.1</ele>
        <time>2023-05-19T12:06:50Z</time>
      </trkpt>
      <trkpt lat="49.92264" lon="2.25684">
        <ele>18.1</ele>
        <time>2023-05-19T12:06:51Z</time>
      </trkpt>
      <trkpt lat="49.92264" lon="2.25682">
        <ele>18.1</ele>
        <time>2023-05-19T12:06:53Z</time>
      </trkpt>
      <trkpt lat="49.92264" lon="2.25679">
        <ele>18.1</ele>
        <time>2023-05-19T12:06:54Z</time>
      </trkpt>
      <trkpt lat="49.92264" lon="2.25677">
        <ele>18.1</ele>
        <time>2023-05-19T12:06:55Z</time>
      </trkpt>
      <trkpt lat="49.92264" lon="2.25674">
        <ele>18.1</ele>
        <time>2023-05-19T12:06:56Z</time>
      </trkpt>
      <trkpt lat="49.92264" lon="2.25672">
        <ele>18.1</ele>
        <time>2023-05-19T12:06:57Z</time>
      </trkpt>
      <trkpt lat="49.92265" lon="2.2567">
        <ele>18.1</ele>
        <time>2023-05-19T12:06:58Z</time>
      </trkpt>
      <trkpt lat="49.92265" lon="2.25666">
        <ele>18.1</ele>
        <time>2023-05-19T12:07:00Z</time>
      </trkpt>
      <trkpt lat="49.92266" lon="2.25664">
        <ele>18.1</ele>
        <time>2023-05-19T12:07:01Z</time>
      </trkpt>
      <trkpt lat="49.92266" lon="2.25662">
        <ele>18.1</ele>
        <time>2023-05-19T12:07:02Z</time>
      </trkpt>
      <trkpt lat="49.92266" lon="2.2566">
        <ele>18.1</ele>
        <time>2023-05-19T12:07:03Z</time>
      </trkpt>
      <trkpt lat="49.92266" lon="2.25657">
        <ele>18.1</ele>
        <time>2023-05-19T12:07:04Z</time>
      </trkpt>
      <trkpt lat="49.92266" lon="2.25655">
        <ele>18.1</ele>
        <time>2023-05-19T12:07:05Z</time>
      </trkpt>
      <trkpt lat="49.92267" lon="2.25651">
        <ele>18.1</ele>
        <time>2023-05-19T12:07:06Z</time>
      </trkpt>
      <trkpt lat="49.92267" lon="2.25649">
        <ele>18.1</ele>
        <time>2023-05-19T12:07:08Z</time>
      </trkpt>
      <trkpt lat="49.92267" lon="2.25647">
        <ele>18.1</ele>
        <time>2023-05-19T12:07:09Z</time>
      </trkpt>
      <trkpt lat="49.92267" lon="2.25646">
        <ele>18.1</ele>
        <time>2023-05-19T12:07:10Z</time>
      </trkpt>
      <trkpt lat="49.92267" lon="2.25644">
        <ele>18.1</ele>
        <time>2023-05-19T12:07:11Z</time>
      </trkpt>
      <trkpt lat="49.92268" lon="2.25641">
        <ele>18.1</ele>
        <time>2023-05-19T12:07:13Z</time>
      </trkpt>
      <trkpt lat="49.92268" lon="2.25639">
        <ele>18.1</ele>
        <time>2023-05-19T12:07:14Z</time>
      </trkpt>
      <trkpt lat="49.92268" lon="2.25638">
        <ele>18.1</ele>
        <time>2023-05-19T12:07:15Z</time>
      </trkpt>
      <trkpt lat="49.92269" lon="2.25635">
        <ele>18.1</ele>
        <time>2023-05-19T12:07:16Z</time>
      </trkpt>
      <trkpt lat="49.92269" lon="2.25634">
        <ele>18.1</ele>
        <time>2023-05-19T12:07:17Z</time>
      </trkpt>
      <trkpt lat="49.92269" lon="2.25633">
        <ele>18.1</ele>
        <time>2023-05-19T12:07:18Z</time>
      </trkpt>
      <trkpt lat="49.9227" lon="2.2563">
        <ele>18.1</ele>
        <time>2023-05-19T12:07:20Z</time>
      </trkpt>
      <trkpt lat="49.9227" lon="2.25628">
        <ele>18.1</ele>
        <time>2023-05-19T12:07:22Z</time>
      </trkpt>
      <trkpt lat="49.9227" lon="2.25627">
        <ele>18.1</ele>
        <time>2023-05-19T12:07:23Z</time>
      </trkpt>
      <trkpt lat="49.9227" lon="2.25625">
        <ele>18.1</ele>
        <time>2023-05-19T12:07:24Z</time>
      </trkpt>
      <trkpt lat="49.9227" lon="2.25626">
        <ele>18.1</ele>
        <time>2023-05-19T12:07:25Z</time>
      </trkpt>
      <trkpt lat="49.9227" lon="2.25626">
        <ele>18.1</ele>
        <time>2023-05-19T12:07:27Z</time>
      </trkpt>
      <trkpt lat="49.9227" lon="2.25625">
        <ele>18.1</ele>
        <time>2023-05-19T12:07:28Z</time>
      </trkpt>
      <trkpt lat="49.9227" lon="2.25625">
        <ele>18.1</ele>
        <time>2023-05-19T12:07:29Z</time>
      </trkpt>
      <trkpt lat="49.9227" lon="2.25624">
        <ele>18.1</ele>
        <time>2023-05-19T12:07:30Z</time>
      </trkpt>
      <trkpt lat="49.92271" lon="2.25622">
        <ele>18.1</ele>
        <time>2023-05-19T12:07:32Z</time>
      </trkpt>
      <trkpt lat="49.92271" lon="2.25621">
        <ele>18.1</ele>
        <time>2023-05-19T12:07:33Z</time>
      </trkpt>
      <trkpt lat="49.92272" lon="2.25619">
        <ele>18.1</ele>
        <time>2023-05-19T12:07:34Z</time>
      </trkpt>
      <trkpt lat="49.92272" lon="2.25618">
        <ele>18.1</ele>
        <time>2023-05-19T12:07:35Z</time>
      </trkpt>
      <trkpt lat="49.92273" lon="2.25616">
        <ele>18.1</ele>
        <time>2023-05-19T12:07:36Z</time>
      </trkpt>
      <trkpt lat="49.92273" lon="2.25615">
        <ele>18.1</ele>
        <time>2023-05-19T12:07:37Z</time>
      </trkpt>
      <trkpt lat="49.92274" lon="2.25612">
        <ele>18.1</ele>
        <time>2023-05-19T12:07:39Z</time>
      </trkpt>
      <trkpt lat="49.92274" lon="2.25611">
        <ele>18.2</ele>
        <time>2023-05-19T12:07:40Z</time>
      </trkpt>
      <trkpt lat="49.92275" lon="2.2561">
        <ele>18.2</ele>
        <time>2023-05-19T12:07:41Z</time>
      </trkpt>
      <trkpt lat="49.92275" lon="2.25608">
        <ele>18.2</ele>
        <time>2023-05-19T12:07:42Z</time>
      </trkpt>
      <trkpt lat="49.92275" lon="2.25607">
        <ele>18.2</ele>
        <time>2023-05-19T12:07:43Z</time>
      </trkpt>
      <trkpt lat="49.92276" lon="2.25604">
        <ele>18.2</ele>
        <time>2023-05-19T12:07:45Z</time>
      </trkpt>
      <trkpt lat="49.92277" lon="2.25603">
        <ele>18.2</ele>
        <time>2023-05-19T12:07:47Z</time>
      </trkpt>
      <trkpt lat="49.92278" lon="2.25601">
        <ele>18.2</ele>
        <time>2023-05-19T12:07:48Z</time>
      </trkpt>
      <trkpt lat="49.92279" lon="2.25599">
        <ele>18.2</ele>
        <time>2023-05-19T12:07:49Z</time>
      </trkpt>
      <trkpt lat="49.9228" lon="2.25598">
        <ele>18.2</ele>
        <time>2023-05-19T12:07:50Z</time>
      </trkpt>
      <trkpt lat="49.9228" lon="2.25597">
        <ele>18.3</ele>
        <time>2023-05-19T12:07:51Z</time>
      </trkpt>
      <trkpt lat="49.92281" lon="2.25594">
        <ele>18.3</ele>
        <time>2023-05-19T12:07:53Z</time>
      </trkpt>
      <trkpt lat="49.92282" lon="2.25593">
        <ele>18.3</ele>
        <time>2023-05-19T12:07:54Z</time>
      </trkpt>
      <trkpt lat="49.92283" lon="2.2559">
        <ele>18.3</ele>
        <time>2023-05-19T12:07:55Z</time>
      </trkpt>
      <trkpt lat="49.92284" lon="2.25589">
        <ele>18.3</ele>
        <time>2023-05-19T12:07:56Z</time>
      </trkpt>
      <trkpt lat="49.92285" lon="2.25585">
        <ele>18.4</ele>
        <time>2023-05-19T12:07:57Z</time>
      </trkpt>
      <trkpt lat="49.92286" lon="2.25584">
        <ele>18.4</ele>
        <time>2023-05-19T12:07:58Z</time>
      </trkpt>
      <trkpt lat="49.92287" lon="2.25582">
        <ele>18.4</ele>
        <time>2023-05-19T12:07:59Z</time>
      </trkpt>
      <trkpt lat="49.92288" lon="2.25579">
        <ele>18.4</ele>
        <time>2023-05-19T12:08:00Z</time>
      </trkpt>
      <trkpt lat="49.92289" lon="2.25577">
        <ele>18.5</ele>
        <time>2023-05-19T12:08:01Z</time>
      </trkpt>
      <trkpt lat="49.9229" lon="2.25574">
        <ele>18.5</ele>
        <time>2023-05-19T12:08:03Z</time>
      </trkpt>
      <trkpt lat="49.92291" lon="2.25572">
        <ele>18.5</ele>
        <time>2023-05-19T12:08:04Z</time>
      </trkpt>
      <trkpt lat="49.92292" lon="2.2557">
        <ele>18.6</ele>
        <time>2023-05-19T12:08:05Z</time>
      </trkpt>
      <trkpt lat="49.92293" lon="2.25566">
        <ele>18.6</ele>
        <time>2023-05-19T12:08:06Z</time>
      </trkpt>
      <trkpt lat="49.92293" lon="2.25565">
        <ele>18.6</ele>
        <time>2023-05-19T12:08:07Z</time>
      </trkpt>
      <trkpt lat="49.92294" lon="2.25562">
        <ele>18.7</ele>
        <time>2023-05-19T12:08:08Z</time>
      </trkpt>
      <trkpt lat="49.92295" lon="2.2556">
        <ele>18.7</ele>
        <time>2023-05-19T12:08:09Z</time>
      </trkpt>
      <trkpt lat="49.92295" lon="2.25557">
        <ele>18.7</ele>
        <time>2023-05-19T12:08:11Z</time>
      </trkpt>
      <trkpt lat="49.92296" lon="2.25555">
        <ele>18.8</ele>
        <time>2023-05-19T12:08:12Z</time>
      </trkpt>
      <trkpt lat="49.92297" lon="2.25553">
        <ele>18.8</ele>
        <time>2023-05-19T12:08:13Z</time>
      </trkpt>
      <trkpt lat="49.92297" lon="2.25551">
        <ele>18.8</ele>
        <time>2023-05-19T12:08:14Z</time>
      </trkpt>
      <trkpt lat="49.92297" lon="2.25549">
        <ele>18.8</ele>
        <time>2023-05-19T12:08:15Z</time>
      </trkpt>
      <trkpt lat="49.92298" lon="2.25546">
        <ele>18.9</ele>
        <time>2023-05-19T12:08:16Z</time>
      </trkpt>
      <trkpt lat="49.92299" lon="2.25544">
        <ele>18.9</ele>
        <time>2023-05-19T12:08:17Z</time>
      </trkpt>
      <trkpt lat="49.923" lon="2.25542">
        <ele>18.9</ele>
        <time>2023-05-19T12:08:19Z</time>
      </trkpt>
      <trkpt lat="49.923" lon="2.25539">
        <ele>18.9</ele>
        <time>2023-05-19T12:08:20Z</time>
      </trkpt>
      <trkpt lat="49.92301" lon="2.25537">
        <ele>19</ele>
        <time>2023-05-19T12:08:21Z</time>
      </trkpt>
      <trkpt lat="49.92301" lon="2.25535">
        <ele>19</ele>
        <time>2023-05-19T12:08:22Z</time>
      </trkpt>
      <trkpt lat="49.92302" lon="2.25533">
        <ele>19</ele>
        <time>2023-05-19T12:08:23Z</time>
      </trkpt>
      <trkpt lat="49.92302" lon="2.2553">
        <ele>19</ele>
        <time>2023-05-19T12:08:24Z</time>
      </trkpt>
      <trkpt lat="49.92301" lon="2.25528">
        <ele>19.1</ele>
        <time>2023-05-19T12:08:25Z</time>
      </trkpt>
      <trkpt lat="49.92301" lon="2.25526">
        <ele>19.1</ele>
        <time>2023-05-19T12:08:27Z</time>
      </trkpt>
      <trkpt lat="49.92301" lon="2.25524">
        <ele>19.1</ele>
        <time>2023-05-19T12:08:28Z</time>
      </trkpt>
      <trkpt lat="49.923" lon="2.25522">
        <ele>19.1</ele>
        <time>2023-05-19T12:08:29Z</time>
      </trkpt>
      <trkpt lat="49.923" lon="2.2552">
        <ele>19.1</ele>
        <time>2023-05-19T12:08:30Z</time>
      </trkpt>
      <trkpt lat="49.923" lon="2.25519">
        <ele>19.2</ele>
        <time>2023-05-19T12:08:32Z</time>
      </trkpt>
      <trkpt lat="49.923" lon="2.25517">
        <ele>19.2</ele>
        <time>2023-05-19T12:08:33Z</time>
      </trkpt>
      <trkpt lat="49.923" lon="2.25515">
        <ele>19.2</ele>
        <time>2023-05-19T12:08:34Z</time>
      </trkpt>
      <trkpt lat="49.923" lon="2.25513">
        <ele>19.2</ele>
        <time>2023-05-19T12:08:35Z</time>
      </trkpt>
      <trkpt lat="49.923" lon="2.25511">
        <ele>19.2</ele>
        <time>2023-05-19T12:08:36Z</time>
      </trkpt>
      <trkpt lat="49.923" lon="2.2551">
        <ele>19.2</ele>
        <time>2023-05-19T12:08:37Z</time>
      </trkpt>
      <trkpt lat="49.923" lon="2.25508">
        <ele>19.2</ele>
        <time>2023-05-19T12:08:38Z</time>
      </trkpt>
      <trkpt lat="49.92299" lon="2.25505">
        <ele>19.3</ele>
        <time>2023-05-19T12:08:40Z</time>
      </trkpt>
      <trkpt lat="49.92299" lon="2.25503">
        <ele>19.3</ele>
        <time>2023-05-19T12:08:41Z</time>
      </trkpt>
      <trkpt lat="49.92299" lon="2.25502">
        <ele>19.3</ele>
        <time>2023-05-19T12:08:42Z</time>
      </trkpt>
      <trkpt lat="49.92299" lon="2.255">
        <ele>19.3</ele>
        <time>2023-05-19T12:08:43Z</time>
      </trkpt>
      <trkpt lat="49.92299" lon="2.25497">
        <ele>19.4</ele>
        <time>2023-05-19T12:08:44Z</time>
      </trkpt>
      <trkpt lat="49.92299" lon="2.25495">
        <ele>19.4</ele>
        <time>2023-05-19T12:08:45Z</time>
      </trkpt>
      <trkpt lat="49.923" lon="2.25492">
        <ele>19.4</ele>
        <time>2023-05-19T12:08:46Z</time>
      </trkpt>
      <trkpt lat="49.923" lon="2.2549">
        <ele>19.4</ele>
        <time>2023-05-19T12:08:47Z</time>
      </trkpt>
      <trkpt lat="49.923" lon="2.25488">
        <ele>19.4</ele>
        <time>2023-05-19T12:08:48Z</time>
      </trkpt>
      <trkpt lat="49.923" lon="2.25486">
        <ele>19.4</ele>
        <time>2023-05-19T12:08:49Z</time>
      </trkpt>
      <trkpt lat="49.923" lon="2.25482">
        <ele>19.5</ele>
        <time>2023-05-19T12:08:51Z</time>
      </trkpt>
      <trkpt lat="49.923" lon="2.25479">
        <ele>19.5</ele>
        <time>2023-05-19T12:08:52Z</time>
      </trkpt>
      <trkpt lat="49.923" lon="2.25477">
        <ele>19.5</ele>
        <time>2023-05-19T12:08:54Z</time>
      </trkpt>
      <trkpt lat="49.923" lon="2.25475">
        <ele>19.5</ele>
        <time>2023-05-19T12:08:55Z</time>
      </trkpt>
      <trkpt lat="49.923" lon="2.25474">
        <ele>19.5</ele>
        <time>2023-05-19T12:08:56Z</time>
      </trkpt>
      <trkpt lat="49.923" lon="2.25472">
        <ele>19.5</ele>
        <time>2023-05-19T12:08:57Z</time>
      </trkpt>
      <trkpt lat="49.923" lon="2.2547">
        <ele>19.6</ele>
        <time>2023-05-19T12:08:58Z</time>
      </trkpt>
      <trkpt lat="49.923" lon="2.25468">
        <ele>19.6</ele>
        <time>2023-05-19T12:08:59Z</time>
      </trkpt>
      <trkpt lat="49.923" lon="2.25466">
        <ele>19.6</ele>
        <time>2023-05-19T12:09:01Z</time>
      </trkpt>
      <trkpt lat="49.92299" lon="2.25464">
        <ele>19.6</ele>
        <time>2023-05-19T12:09:02Z</time>
      </trkpt>
      <trkpt lat="49.92299" lon="2.25462">
        <ele>19.6</ele>
        <time>2023-05-19T12:09:03Z</time>
      </trkpt>
      <trkpt lat="49.92299" lon="2.25461">
        <ele>19.6</ele>
        <time>2023-05-19T12:09:04Z</time>
      </trkpt>
      <trkpt lat="49.92299" lon="2.25458">
        <ele>19.6</ele>
        <time>2023-05-19T12:09:05Z</time>
      </trkpt>
      <trkpt lat="49.92299" lon="2.25456">
        <ele>19.6</ele>
        <time>2023-05-19T12:09:06Z</time>
      </trkpt>
      <trkpt lat="49.92299" lon="2.25455">
        <ele>19.6</ele>
        <time>2023-05-19T12:09:07Z</time>
      </trkpt>
      <trkpt lat="49.92299" lon="2.25452">
        <ele>19.7</ele>
        <time>2023-05-19T12:09:09Z</time>
      </trkpt>
      <trkpt lat="49.923" lon="2.25449">
        <ele>19.7</ele>
        <time>2023-05-19T12:09:10Z</time>
      </trkpt>
      <trkpt lat="49.923" lon="2.25447">
        <ele>19.7</ele>
        <time>2023-05-19T12:09:11Z</time>
      </trkpt>
      <trkpt lat="49.923" lon="2.25444">
        <ele>19.7</ele>
        <time>2023-05-19T12:09:12Z</time>
      </trkpt>
      <trkpt lat="49.923" lon="2.25442">
        <ele>19.7</ele>
        <time>2023-05-19T12:09:13Z</time>
      </trkpt>
      <trkpt lat="49.923" lon="2.2544">
        <ele>19.7</ele>
        <time>2023-05-19T12:09:14Z</time>
      </trkpt>
      <trkpt lat="49.923" lon="2.25438">
        <ele>19.7</ele>
        <time>2023-05-19T12:09:15Z</time>
      </trkpt>
      <trkpt lat="49.923" lon="2.25436">
        <ele>19.8</ele>
        <time>2023-05-19T12:09:16Z</time>
      </trkpt>
      <trkpt lat="49.923" lon="2.25432">
        <ele>19.8</ele>
        <time>2023-05-19T12:09:17Z</time>
      </trkpt>
      <trkpt lat="49.923" lon="2.2543">
        <ele>19.8</ele>
        <time>2023-05-19T12:09:19Z</time>
      </trkpt>
      <trkpt lat="49.923" lon="2.25428">
        <ele>19.8</ele>
        <time>2023-05-19T12:09:20Z</time>
      </trkpt>
      <trkpt lat="49.923" lon="2.25426">
        <ele>19.9</ele>
        <time>2023-05-19T12:09:21Z</time>
      </trkpt>
      <trkpt lat="49.923" lon="2.25425">
        <ele>19.9</ele>
        <time>2023-05-19T12:09:22Z</time>
      </trkpt>
      <trkpt lat="49.923" lon="2.25421">
        <ele>19.9</ele>
        <time>2023-05-19T12:09:23Z</time>
      </trkpt>
      <trkpt lat="49.923" lon="2.2542">
        <ele>19.9</ele>
        <time>2023-05-19T12:09:24Z</time>
      </trkpt>
      <trkpt lat="49.923" lon="2.25419">
        <ele>19.9</ele>
        <time>2023-05-19T12:09:25Z</time>
      </trkpt>
      <trkpt lat="49.923" lon="2.25418">
        <ele>20</ele>
        <time>2023-05-19T12:09:26Z</time>
      </trkpt>
      <trkpt lat="49.923" lon="2.25416">
        <ele>20</ele>
        <time>2023-05-19T12:09:27Z</time>
      </trkpt>
      <trkpt lat="49.923" lon="2.25413">
        <ele>20</ele>
        <time>2023-05-19T12:09:29Z</time>
      </trkpt>
      <trkpt lat="49.92301" lon="2.2541">
        <ele>20</ele>
        <time>2023-05-19T12:09:30Z</time>
      </trkpt>
      <trkpt lat="49.92301" lon="2.25409">
        <ele>20</ele>
        <time>2023-05-19T12:09:31Z</time>
      </trkpt>
      <trkpt lat="49.92302" lon="2.25407">
        <ele>20</ele>
        <time>2023-05-19T12:09:32Z</time>
      </trkpt>
      <trkpt lat="49.92302" lon="2.25406">
        <ele>20.1</ele>
        <time>2023-05-19T12:09:33Z</time>
      </trkpt>
      <trkpt lat="49.92302" lon="2.25403">
        <ele>20.1</ele>
        <time>2023-05-19T12:09:35Z</time>
      </trkpt>
      <trkpt lat="49.92303" lon="2.25401">
        <ele>20.1</ele>
        <time>2023-05-19T12:09:36Z</time>
      </trkpt>
      <trkpt lat="49.92303" lon="2.254">
        <ele>20.1</ele>
        <time>2023-05-19T12:09:37Z</time>
      </trkpt>
      <trkpt lat="49.92303" lon="2.25397">
        <ele>20.1</ele>
        <time>2023-05-19T12:09:39Z</time>
      </trkpt>
      <trkpt lat="49.92303" lon="2.25394">
        <ele>20.2</ele>
        <time>2023-05-19T12:09:41Z</time>
      </trkpt>
      <trkpt lat="49.92303" lon="2.25392">
        <ele>20.2</ele>
        <time>2023-05-19T12:09:42Z</time>
      </trkpt>
      <trkpt lat="49.92303" lon="2.25391">
        <ele>20.2</ele>
        <time>2023-05-19T12:09:43Z</time>
      </trkpt>
      <trkpt lat="49.92303" lon="2.25389">
        <ele>20.2</ele>
        <time>2023-05-19T12:09:44Z</time>
      </trkpt>
      <trkpt lat="49.92303" lon="2.25388">
        <ele>20.2</ele>
        <time>2023-05-19T12:09:45Z</time>
      </trkpt>
      <trkpt lat="49.92303" lon="2.25386">
        <ele>20.2</ele>
        <time>2023-05-19T12:09:47Z</time>
      </trkpt>
      <trkpt lat="49.92303" lon="2.25384">
        <ele>20.2</ele>
        <time>2023-05-19T12:09:48Z</time>
      </trkpt>
      <trkpt lat="49.92304" lon="2.25382">
        <ele>20.3</ele>
        <time>2023-05-19T12:09:49Z</time>
      </trkpt>
      <trkpt lat="49.92304" lon="2.25382">
        <ele>20.3</ele>
        <time>2023-05-19T12:09:50Z</time>
      </trkpt>
      <trkpt lat="49.92304" lon="2.25381">
        <ele>20.3</ele>
        <time>2023-05-19T12:09:51Z</time>
      </trkpt>
      <trkpt lat="49.92304" lon="2.25379">
        <ele>20.3</ele>
        <time>2023-05-19T12:09:52Z</time>
      </trkpt>
      <trkpt lat="49.92305" lon="2.25378">
        <ele>20.3</ele>
        <time>2023-05-19T12:09:53Z</time>
      </trkpt>
      <trkpt lat="49.92306" lon="2.25375">
        <ele>20.3</ele>
        <time>2023-05-19T12:09:55Z</time>
      </trkpt>
      <trkpt lat="49.92306" lon="2.25374">
        <ele>20.3</ele>
        <time>2023-05-19T12:09:56Z</time>
      </trkpt>
      <trkpt lat="49.92306" lon="2.25372">
        <ele>20.3</ele>
        <time>2023-05-19T12:09:57Z</time>
      </trkpt>
      <trkpt lat="49.92307" lon="2.2537">
        <ele>20.4</ele>
        <time>2023-05-19T12:09:58Z</time>
      </trkpt>
      <trkpt lat="49.92307" lon="2.25368">
        <ele>20.4</ele>
        <time>2023-05-19T12:10:00Z</time>
      </trkpt>
      <trkpt lat="49.92308" lon="2.25367">
        <ele>20.4</ele>
        <time>2023-05-19T12:10:01Z</time>
      </trkpt>
      <trkpt lat="49.92308" lon="2.25366">
        <ele>20.4</ele>
        <time>2023-05-19T12:10:02Z</time>
      </trkpt>
      <trkpt lat="49.92309" lon="2.25364">
        <ele>20.4</ele>
        <time>2023-05-19T12:10:03Z</time>
      </trkpt>
      <trkpt lat="49.9231" lon="2.25361">
        <ele>20.4</ele>
        <time>2023-05-19T12:10:04Z</time>
      </trkpt>
      <trkpt lat="49.92311" lon="2.2536">
        <ele>20.4</ele>
        <time>2023-05-19T12:10:05Z</time>
      </trkpt>
      <trkpt lat="49.92311" lon="2.25359">
        <ele>20.4</ele>
        <time>2023-05-19T12:10:06Z</time>
      </trkpt>
      <trkpt lat="49.92312" lon="2.25358">
        <ele>20.5</ele>
        <time>2023-05-19T12:10:07Z</time>
      </trkpt>
      <trkpt lat="49.92312" lon="2.25356">
        <ele>20.5</ele>
        <time>2023-05-19T12:10:08Z</time>
      </trkpt>
      <trkpt lat="49.92313" lon="2.25354">
        <ele>20.5</ele>
        <time>2023-05-19T12:10:10Z</time>
      </trkpt>
      <trkpt lat="49.92313" lon="2.25352">
        <ele>20.5</ele>
        <time>2023-05-19T12:10:11Z</time>
      </trkpt>
      <trkpt lat="49.92313" lon="2.25351">
        <ele>20.5</ele>
        <time>2023-05-19T12:10:12Z</time>
      </trkpt>
      <trkpt lat="49.92314" lon="2.25349">
        <ele>20.5</ele>
        <time>2023-05-19T12:10:13Z</time>
      </trkpt>
      <trkpt lat="49.92315" lon="2.25346">
        <ele>20.5</ele>
        <time>2023-05-19T12:10:14Z</time>
      </trkpt>
      <trkpt lat="49.92315" lon="2.25345">
        <ele>20.5</ele>
        <time>2023-05-19T12:10:15Z</time>
      </trkpt>
      <trkpt lat="49.92315" lon="2.25344">
        <ele>20.5</ele>
        <time>2023-05-19T12:10:16Z</time>
      </trkpt>
      <trkpt lat="49.92316" lon="2.25341">
        <ele>20.6</ele>
        <time>2023-05-19T12:10:17Z</time>
      </trkpt>
      <trkpt lat="49.92316" lon="2.25339">
        <ele>20.6</ele>
        <time>2023-05-19T12:10:19Z</time>
      </trkpt>
      <trkpt lat="49.92316" lon="2.25338">
        <ele>20.6</ele>
        <time>2023-05-19T12:10:20Z</time>
      </trkpt>
      <trkpt lat="49.92317" lon="2.25335">
        <ele>20.6</ele>
        <time>2023-05-19T12:10:21Z</time>
      </trkpt>
      <trkpt lat="49.92317" lon="2.25334">
        <ele>20.6</ele>
        <time>2023-05-19T12:10:22Z</time>
      </trkpt>
      <trkpt lat="49.92318" lon="2.25332">
        <ele>20.6</ele>
        <time>2023-05-19T12:10:23Z</time>
      </trkpt>
      <trkpt lat="49.92318" lon="2.2533">
        <ele>20.6</ele>
        <time>2023-05-19T12:10:25Z</time>
      </trkpt>
      <trkpt lat="49.92319" lon="2.25328">
        <ele>20.6</ele>
        <time>2023-05-19T12:10:26Z</time>
      </trkpt>
      <trkpt lat="49.9232" lon="2.25326">
        <ele>20.6</ele>
        <time>2023-05-19T12:10:27Z</time>
      </trkpt>
      <trkpt lat="49.9232" lon="2.25324">
        <ele>20.6</ele>
        <time>2023-05-19T12:10:28Z</time>
      </trkpt>
      <trkpt lat="49.92321" lon="2.25321">
        <ele>20.7</ele>
        <time>2023-05-19T12:10:30Z</time>
      </trkpt>
      <trkpt lat="49.92321" lon="2.25319">
        <ele>20.7</ele>
        <time>2023-05-19T12:10:31Z</time>
      </trkpt>
      <trkpt lat="49.92322" lon="2.25317">
        <ele>20.7</ele>
        <time>2023-05-19T12:10:32Z</time>
      </trkpt>
      <trkpt lat="49.92322" lon="2.25315">
        <ele>20.7</ele>
        <time>2023-05-19T12:10:33Z</time>
      </trkpt>
      <trkpt lat="49.92322" lon="2.25314">
        <ele>20.7</ele>
        <time>2023-05-19T12:10:34Z</time>
      </trkpt>
      <trkpt lat="49.92322" lon="2.25311">
        <ele>20.7</ele>
        <time>2023-05-19T12:10:36Z</time>
      </trkpt>
      <trkpt lat="49.92323" lon="2.2531">
        <ele>20.7</ele>
        <time>2023-05-19T12:10:38Z</time>
      </trkpt>
      <trkpt lat="49.92323" lon="2.25308">
        <ele>20.7</ele>
        <time>2023-05-19T12:10:39Z</time>
      </trkpt>
      <trkpt lat="49.92324" lon="2.25307">
        <ele>20.7</ele>
        <time>2023-05-19T12:10:40Z</time>
      </trkpt>
      <trkpt lat="49.92324" lon="2.25305">
        <ele>20.7</ele>
        <time>2023-05-19T12:10:41Z</time>
      </trkpt>
      <trkpt lat="49.92324" lon="2.25303">
        <ele>20.7</ele>
        <time>2023-05-19T12:10:42Z</time>
      </trkpt>
      <trkpt lat="49.92324" lon="2.25302">
        <ele>20.7</ele>
        <time>2023-05-19T12:10:43Z</time>
      </trkpt>
      <trkpt lat="49.92324" lon="2.253">
        <ele>20.7</ele>
        <time>2023-05-19T12:10:44Z</time>
      </trkpt>
      <trkpt lat="49.92324" lon="2.25298">
        <ele>20.7</ele>
        <time>2023-05-19T12:10:45Z</time>
      </trkpt>
      <trkpt lat="49.92324" lon="2.25296">
        <ele>20.7</ele>
        <time>2023-05-19T12:10:46Z</time>
      </trkpt>
      <trkpt lat="49.92324" lon="2.25294">
        <ele>20.7</ele>
        <time>2023-05-19T12:10:48Z</time>
      </trkpt>
      <trkpt lat="49.92325" lon="2.25292">
        <ele>20.7</ele>
        <time>2023-05-19T12:10:49Z</time>
      </trkpt>
      <trkpt lat="49.92325" lon="2.25291">
        <ele>20.7</ele>
        <time>2023-05-19T12:10:50Z</time>
      </trkpt>
      <trkpt lat="49.92325" lon="2.25289">
        <ele>20.7</ele>
        <time>2023-05-19T12:10:51Z</time>
      </trkpt>
      <trkpt lat="49.92326" lon="2.25287">
        <ele>20.7</ele>
        <time>2023-05-19T12:10:52Z</time>
      </trkpt>
      <trkpt lat="49.92326" lon="2.25286">
        <ele>20.7</ele>
        <time>2023-05-19T12:10:53Z</time>
      </trkpt>
      <trkpt lat="49.92327" lon="2.25282">
        <ele>20.7</ele>
        <time>2023-05-19T12:10:55Z</time>
      </trkpt>
      <trkpt lat="49.92328" lon="2.25278">
        <ele>20.7</ele>
        <time>2023-05-19T12:10:57Z</time>
      </trkpt>
      <trkpt lat="49.92328" lon="2.25277">
        <ele>20.7</ele>
        <time>2023-05-19T12:10:58Z</time>
      </trkpt>
      <trkpt lat="49.92328" lon="2.25276">
        <ele>20.7</ele>
        <time>2023-05-19T12:10:59Z</time>
      </trkpt>
      <trkpt lat="49.92328" lon="2.25274">
        <ele>20.7</ele>
        <time>2023-05-19T12:11:00Z</time>
      </trkpt>
      <trkpt lat="49.92329" lon="2.25272">
        <ele>20.7</ele>
        <time>2023-05-19T12:11:01Z</time>
      </trkpt>
      <trkpt lat="49.92329" lon="2.25269">
        <ele>20.7</ele>
        <time>2023-05-19T12:11:02Z</time>
      </trkpt>
      <trkpt lat="49.9233" lon="2.25268">
        <ele>20.7</ele>
        <time>2023-05-19T12:11:03Z</time>
      </trkpt>
      <trkpt lat="49.9233" lon="2.25267">
        <ele>20.7</ele>
        <time>2023-05-19T12:11:04Z</time>
      </trkpt>
      <trkpt lat="49.9233" lon="2.25265">
        <ele>20.7</ele>
        <time>2023-05-19T12:11:05Z</time>
      </trkpt>
      <trkpt lat="49.92331" lon="2.25263">
        <ele>20.7</ele>
        <time>2023-05-19T12:11:06Z</time>
      </trkpt>
      <trkpt lat="49.92331" lon="2.25261">
        <ele>20.7</ele>
        <time>2023-05-19T12:11:08Z</time>
      </trkpt>
      <trkpt lat="49.92332" lon="2.25258">
        <ele>20.7</ele>
        <time>2023-05-19T12:11:09Z</time>
      </trkpt>
      <trkpt lat="49.92332" lon="2.25257">
        <ele>20.7</ele>
        <time>2023-05-19T12:11:10Z</time>
      </trkpt>
      <trkpt lat="49.92332" lon="2.25256">
        <ele>20.7</ele>
        <time>2023-05-19T12:11:11Z</time>
      </trkpt>
      <trkpt lat="49.92333" lon="2.25254">
        <ele>20.7</ele>
        <time>2023-05-19T12:11:12Z</time>
      </trkpt>
      <trkpt lat="49.92333" lon="2.25253">
        <ele>20.7</ele>
        <time>2023-05-19T12:11:13Z</time>
      </trkpt>
      <trkpt lat="49.92333" lon="2.25251">
        <ele>20.7</ele>
        <time>2023-05-19T12:11:14Z</time>
      </trkpt>
      <trkpt lat="49.92334" lon="2.25249">
        <ele>20.7</ele>
        <time>2023-05-19T12:11:16Z</time>
      </trkpt>
      <trkpt lat="49.92334" lon="2.25248">
        <ele>20.7</ele>
        <time>2023-05-19T12:11:17Z</time>
      </trkpt>
      <trkpt lat="49.92335" lon="2.25246">
        <ele>20.7</ele>
        <time>2023-05-19T12:11:18Z</time>
      </trkpt>
      <trkpt lat="49.92336" lon="2.25244">
        <ele>20.7</ele>
        <time>2023-05-19T12:11:19Z</time>
      </trkpt>
      <trkpt lat="49.92336" lon="2.25242">
        <ele>20.7</ele>
        <time>2023-05-19T12:11:20Z</time>
      </trkpt>
      <trkpt lat="49.92337" lon="2.2524">
        <ele>20.7</ele>
        <time>2023-05-19T12:11:21Z</time>
      </trkpt>
      <trkpt lat="49.92338" lon="2.25238">
        <ele>20.7</ele>
        <time>2023-05-19T12:11:22Z</time>
      </trkpt>
      <trkpt lat="49.92338" lon="2.25237">
        <ele>20.7</ele>
        <time>2023-05-19T12:11:23Z</time>
      </trkpt>
      <trkpt lat="49.92339" lon="2.25235">
        <ele>20.7</ele>
        <time>2023-05-19T12:11:25Z</time>
      </trkpt>
      <trkpt lat="49.92339" lon="2.25233">
        <ele>20.7</ele>
        <time>2023-05-19T12:11:26Z</time>
      </trkpt>
      <trkpt lat="49.92339" lon="2.25232">
        <ele>20.7</ele>
        <time>2023-05-19T12:11:27Z</time>
      </trkpt>
      <trkpt lat="49.92339" lon="2.25231">
        <ele>20.7</ele>
        <time>2023-05-19T12:11:28Z</time>
      </trkpt>
      <trkpt lat="49.92339" lon="2.25229">
        <ele>20.8</ele>
        <time>2023-05-19T12:11:29Z</time>
      </trkpt>
      <trkpt lat="49.9234" lon="2.25226">
        <ele>20.8</ele>
        <time>2023-05-19T12:11:30Z</time>
      </trkpt>
      <trkpt lat="49.9234" lon="2.25224">
        <ele>20.8</ele>
        <time>2023-05-19T12:11:31Z</time>
      </trkpt>
      <trkpt lat="49.92341" lon="2.25222">
        <ele>20.8</ele>
        <time>2023-05-19T12:11:32Z</time>
      </trkpt>
      <trkpt lat="49.92342" lon="2.25221">
        <ele>20.8</ele>
        <time>2023-05-19T12:11:33Z</time>
      </trkpt>
      <trkpt lat="49.92342" lon="2.25219">
        <ele>20.8</ele>
        <time>2023-05-19T12:11:35Z</time>
      </trkpt>
      <trkpt lat="49.92342" lon="2.25217">
        <ele>20.8</ele>
        <time>2023-05-19T12:11:36Z</time>
      </trkpt>
      <trkpt lat="49.92342" lon="2.25216">
        <ele>20.8</ele>
        <time>2023-05-19T12:11:37Z</time>
      </trkpt>
      <trkpt lat="49.92342" lon="2.25215">
        <ele>20.8</ele>
        <time>2023-05-19T12:11:38Z</time>
      </trkpt>
      <trkpt lat="49.92343" lon="2.25212">
        <ele>20.8</ele>
        <time>2023-05-19T12:11:40Z</time>
      </trkpt>
      <trkpt lat="49.92343" lon="2.2521">
        <ele>20.8</ele>
        <time>2023-05-19T12:11:41Z</time>
      </trkpt>
      <trkpt lat="49.92343" lon="2.25208">
        <ele>20.8</ele>
        <time>2023-05-19T12:11:42Z</time>
      </trkpt>
      <trkpt lat="49.92344" lon="2.25206">
        <ele>20.8</ele>
        <time>2023-05-19T12:11:43Z</time>
      </trkpt>
      <trkpt lat="49.92344" lon="2.25204">
        <ele>20.8</ele>
        <time>2023-05-19T12:11:44Z</time>
      </trkpt>
      <trkpt lat="49.92344" lon="2.25202">
        <ele>20.8</ele>
        <time>2023-05-19T12:11:45Z</time>
      </trkpt>
      <trkpt lat="49.92344" lon="2.252">
        <ele>20.8</ele>
        <time>2023-05-19T12:11:47Z</time>
      </trkpt>
      <trkpt lat="49.92345" lon="2.25199">
        <ele>20.8</ele>
        <time>2023-05-19T12:11:48Z</time>
      </trkpt>
      <trkpt lat="49.92345" lon="2.25197">
        <ele>20.8</ele>
        <time>2023-05-19T12:11:49Z</time>
      </trkpt>
      <trkpt lat="49.92346" lon="2.25195">
        <ele>20.9</ele>
        <time>2023-05-19T12:11:51Z</time>
      </trkpt>
      <trkpt lat="49.92346" lon="2.25193">
        <ele>20.9</ele>
        <time>2023-05-19T12:11:52Z</time>
      </trkpt>
      <trkpt lat="49.92347" lon="2.25191">
        <ele>20.9</ele>
        <time>2023-05-19T12:11:53Z</time>
      </trkpt>
      <trkpt lat="49.92347" lon="2.25189">
        <ele>20.9</ele>
        <time>2023-05-19T12:11:54Z</time>
      </trkpt>
      <trkpt lat="49.92347" lon="2.25187">
        <ele>20.9</ele>
        <time>2023-05-19T12:11:55Z</time>
      </trkpt>
      <trkpt lat="49.92348" lon="2.25185">
        <ele>20.9</ele>
        <time>2023-05-19T12:11:56Z</time>
      </trkpt>
      <trkpt lat="49.92348" lon="2.25184">
        <ele>20.9</ele>
        <time>2023-05-19T12:11:57Z</time>
      </trkpt>
      <trkpt lat="49.92349" lon="2.25182">
        <ele>20.9</ele>
        <time>2023-05-19T12:11:59Z</time>
      </trkpt>
      <trkpt lat="49.92349" lon="2.2518">
        <ele>20.9</ele>
        <time>2023-05-19T12:12:00Z</time>
      </trkpt>
      <trkpt lat="49.92349" lon="2.25179">
        <ele>20.9</ele>
        <time>2023-05-19T12:12:01Z</time>
      </trkpt>
      <trkpt lat="49.9235" lon="2.25177">
        <ele>20.9</ele>
        <time>2023-05-19T12:12:02Z</time>
      </trkpt>
      <trkpt lat="49.9235" lon="2.25175">
        <ele>20.9</ele>
        <time>2023-05-19T12:12:03Z</time>
      </trkpt>
      <trkpt lat="49.92351" lon="2.25174">
        <ele>20.9</ele>
        <time>2023-05-19T12:12:04Z</time>
      </trkpt>
      <trkpt lat="49.92352" lon="2.25172">
        <ele>20.9</ele>
        <time>2023-05-19T12:12:05Z</time>
      </trkpt>
      <trkpt lat="49.92352" lon="2.25171">
        <ele>20.9</ele>
        <time>2023-05-19T12:12:07Z</time>
      </trkpt>
      <trkpt lat="49.92353" lon="2.25169">
        <ele>20.9</ele>
        <time>2023-05-19T12:12:08Z</time>
      </trkpt>
      <trkpt lat="49.92353" lon="2.25168">
        <ele>20.9</ele>
        <time>2023-05-19T12:12:09Z</time>
      </trkpt>
      <trkpt lat="49.92353" lon="2.25166">
        <ele>20.9</ele>
        <time>2023-05-19T12:12:10Z</time>
      </trkpt>
      <trkpt lat="49.92353" lon="2.25165">
        <ele>20.9</ele>
        <time>2023-05-19T12:12:11Z</time>
      </trkpt>
      <trkpt lat="49.92354" lon="2.25163">
        <ele>20.9</ele>
        <time>2023-05-19T12:12:12Z</time>
      </trkpt>
      <trkpt lat="49.92354" lon="2.25161">
        <ele>20.9</ele>
        <time>2023-05-19T12:12:13Z</time>
      </trkpt>
      <trkpt lat="49.92355" lon="2.25159">
        <ele>20.9</ele>
        <time>2023-05-19T12:12:15Z</time>
      </trkpt>
      <trkpt lat="49.92355" lon="2.25157">
        <ele>20.9</ele>
        <time>2023-05-19T12:12:16Z</time>
      </trkpt>
      <trkpt lat="49.92356" lon="2.25155">
        <ele>20.9</ele>
        <time>2023-05-19T12:12:17Z</time>
      </trkpt>
      <trkpt lat="49.92356" lon="2.25154">
        <ele>20.9</ele>
        <time>2023-05-19T12:12:18Z</time>
      </trkpt>
      <trkpt lat="49.92357" lon="2.25151">
        <ele>20.9</ele>
        <time>2023-05-19T12:12:20Z</time>
      </trkpt>
      <trkpt lat="49.92357" lon="2.25149">
        <ele>20.8</ele>
        <time>2023-05-19T12:12:21Z</time>
      </trkpt>
      <trkpt lat="49.92358" lon="2.25147">
        <ele>20.8</ele>
        <time>2023-05-19T12:12:22Z</time>
      </trkpt>
      <trkpt lat="49.92358" lon="2.25145">
        <ele>20.8</ele>
        <time>2023-05-19T12:12:23Z</time>
      </trkpt>
      <trkpt lat="49.92358" lon="2.25143">
        <ele>20.8</ele>
        <time>2023-05-19T12:12:24Z</time>
      </trkpt>
      <trkpt lat="49.92358" lon="2.2514">
        <ele>20.8</ele>
        <time>2023-05-19T12:12:25Z</time>
      </trkpt>
      <trkpt lat="49.92359" lon="2.25138">
        <ele>20.7</ele>
        <time>2023-05-19T12:12:26Z</time>
      </trkpt>
      <trkpt lat="49.92359" lon="2.25136">
        <ele>20.7</ele>
        <time>2023-05-19T12:12:27Z</time>
      </trkpt>
      <trkpt lat="49.92359" lon="2.25132">
        <ele>20.7</ele>
        <time>2023-05-19T12:12:28Z</time>
      </trkpt>
      <trkpt lat="49.92359" lon="2.2513">
        <ele>20.7</ele>
        <time>2023-05-19T12:12:30Z</time>
      </trkpt>
      <trkpt lat="49.92359" lon="2.25128">
        <ele>20.7</ele>
        <time>2023-05-19T12:12:31Z</time>
      </trkpt>
      <trkpt lat="49.92359" lon="2.25127">
        <ele>20.6</ele>
        <time>2023-05-19T12:12:32Z</time>
      </trkpt>
      <trkpt lat="49.9236" lon="2.25125">
        <ele>20.6</ele>
        <time>2023-05-19T12:12:33Z</time>
      </trkpt>
      <trkpt lat="49.9236" lon="2.25122">
        <ele>20.6</ele>
        <time>2023-05-19T12:12:34Z</time>
      </trkpt>
      <trkpt lat="49.9236" lon="2.2512">
        <ele>20.6</ele>
        <time>2023-05-19T12:12:35Z</time>
      </trkpt>
      <trkpt lat="49.9236" lon="2.25118">
        <ele>20.6</ele>
        <time>2023-05-19T12:12:36Z</time>
      </trkpt>
      <trkpt lat="49.9236" lon="2.25116">
        <ele>20.5</ele>
        <time>2023-05-19T12:12:37Z</time>
      </trkpt>
      <trkpt lat="49.92361" lon="2.25113">
        <ele>20.5</ele>
        <time>2023-05-19T12:12:39Z</time>
      </trkpt>
      <trkpt lat="49.92361" lon="2.25111">
        <ele>20.5</ele>
        <time>2023-05-19T12:12:40Z</time>
      </trkpt>
      <trkpt lat="49.92361" lon="2.25108">
        <ele>20.5</ele>
        <time>2023-05-19T12:12:41Z</time>
      </trkpt>
      <trkpt lat="49.92361" lon="2.25107">
        <ele>20.4</ele>
        <time>2023-05-19T12:12:42Z</time>
      </trkpt>
      <trkpt lat="49.92361" lon="2.25105">
        <ele>20.4</ele>
        <time>2023-05-19T12:12:43Z</time>
      </trkpt>
      <trkpt lat="49.92361" lon="2.25104">
        <ele>20.4</ele>
        <time>2023-05-19T12:12:44Z</time>
      </trkpt>
      <trkpt lat="49.92362" lon="2.25101">
        <ele>20.4</ele>
        <time>2023-05-19T12:12:46Z</time>
      </trkpt>
      <trkpt lat="49.92362" lon="2.25099">
        <ele>20.4</ele>
        <time>2023-05-19T12:12:47Z</time>
      </trkpt>
      <trkpt lat="49.92362" lon="2.25097">
        <ele>20.3</ele>
        <time>2023-05-19T12:12:48Z</time>
      </trkpt>
      <trkpt lat="49.92362" lon="2.25095">
        <ele>20.3</ele>
        <time>2023-05-19T12:12:49Z</time>
      </trkpt>
      <trkpt lat="49.92362" lon="2.25093">
        <ele>20.3</ele>
        <time>2023-05-19T12:12:50Z</time>
      </trkpt>
      <trkpt lat="49.92363" lon="2.25092">
        <ele>20.3</ele>
        <time>2023-05-19T12:12:51Z</time>
      </trkpt>
      <trkpt lat="49.92363" lon="2.2509">
        <ele>20.3</ele>
        <time>2023-05-19T12:12:52Z</time>
      </trkpt>
      <trkpt lat="49.92363" lon="2.25088">
        <ele>20.3</ele>
        <time>2023-05-19T12:12:54Z</time>
      </trkpt>
      <trkpt lat="49.92364" lon="2.25086">
        <ele>20.2</ele>
        <time>2023-05-19T12:12:55Z</time>
      </trkpt>
      <trkpt lat="49.92364" lon="2.25085">
        <ele>20.2</ele>
        <time>2023-05-19T12:12:56Z</time>
      </trkpt>
      <trkpt lat="49.92365" lon="2.25083">
        <ele>20.2</ele>
        <time>2023-05-19T12:12:57Z</time>
      </trkpt>
      <trkpt lat="49.92365" lon="2.25081">
        <ele>20.2</ele>
        <time>2023-05-19T12:12:58Z</time>
      </trkpt>
      <trkpt lat="49.92365" lon="2.25079">
        <ele>20.2</ele>
        <time>2023-05-19T12:12:59Z</time>
      </trkpt>
      <trkpt lat="49.92366" lon="2.25076">
        <ele>20.1</ele>
        <time>2023-05-19T12:13:01Z</time>
      </trkpt>
      <trkpt lat="49.92366" lon="2.25075">
        <ele>20.1</ele>
        <time>2023-05-19T12:13:02Z</time>
      </trkpt>
      <trkpt lat="49.92366" lon="2.25074">
        <ele>20.1</ele>
        <time>2023-05-19T12:13:03Z</time>
      </trkpt>
      <trkpt lat="49.92366" lon="2.25072">
        <ele>20.1</ele>
        <time>2023-05-19T12:13:04Z</time>
      </trkpt>
      <trkpt lat="49.92366" lon="2.2507">
        <ele>20.1</ele>
        <time>2023-05-19T12:13:05Z</time>
      </trkpt>
      <trkpt lat="49.92366" lon="2.25068">
        <ele>20</ele>
        <time>2023-05-19T12:13:07Z</time>
      </trkpt>
      <trkpt lat="49.92366" lon="2.25065">
        <ele>20</ele>
        <time>2023-05-19T12:13:08Z</time>
      </trkpt>
      <trkpt lat="49.92366" lon="2.25063">
        <ele>20</ele>
        <time>2023-05-19T12:13:09Z</time>
      </trkpt>
      <trkpt lat="49.92366" lon="2.25062">
        <ele>20</ele>
        <time>2023-05-19T12:13:10Z</time>
      </trkpt>
      <trkpt lat="49.92366" lon="2.2506">
        <ele>20</ele>
        <time>2023-05-19T12:13:11Z</time>
      </trkpt>
      <trkpt lat="49.92366" lon="2.25057">
        <ele>19.9</ele>
        <time>2023-05-19T12:13:12Z</time>
      </trkpt>
      <trkpt lat="49.92367" lon="2.25054">
        <ele>19.9</ele>
        <time>2023-05-19T12:13:13Z</time>
      </trkpt>
      <trkpt lat="49.92367" lon="2.25052">
        <ele>19.9</ele>
        <time>2023-05-19T12:13:15Z</time>
      </trkpt>
      <trkpt lat="49.92367" lon="2.2505">
        <ele>19.9</ele>
        <time>2023-05-19T12:13:16Z</time>
      </trkpt>
      <trkpt lat="49.92367" lon="2.25047">
        <ele>19.9</ele>
        <time>2023-05-19T12:13:17Z</time>
      </trkpt>
      <trkpt lat="49.92367" lon="2.25045">
        <ele>19.8</ele>
        <time>2023-05-19T12:13:18Z</time>
      </trkpt>
      <trkpt lat="49.92367" lon="2.25043">
        <ele>19.8</ele>
        <time>2023-05-19T12:13:20Z</time>
      </trkpt>
      <trkpt lat="49.92367" lon="2.25041">
        <ele>19.8</ele>
        <time>2023-05-19T12:13:21Z</time>
      </trkpt>
      <trkpt lat="49.92368" lon="2.25039">
        <ele>19.8</ele>
        <time>2023-05-19T12:13:22Z</time>
      </trkpt>
      <trkpt lat="49.92368" lon="2.25036">
        <ele>19.8</ele>
        <time>2023-05-19T12:13:23Z</time>
      </trkpt>
      <trkpt lat="49.92368" lon="2.25034">
        <ele>19.8</ele>
        <time>2023-05-19T12:13:24Z</time>
      </trkpt>
      <trkpt lat="49.92368" lon="2.25032">
        <ele>19.8</ele>
        <time>2023-05-19T12:13:25Z</time>
      </trkpt>
      <trkpt lat="49.92368" lon="2.25031">
        <ele>19.8</ele>
        <time>2023-05-19T12:13:26Z</time>
      </trkpt>
      <trkpt lat="49.92368" lon="2.25029">
        <ele>19.7</ele>
        <time>2023-05-19T12:13:28Z</time>
      </trkpt>
      <trkpt lat="49.92368" lon="2.25027">
        <ele>19.7</ele>
        <time>2023-05-19T12:13:29Z</time>
      </trkpt>
      <trkpt lat="49.92368" lon="2.25025">
        <ele>19.7</ele>
        <time>2023-05-19T12:13:30Z</time>
      </trkpt>
      <trkpt lat="49.92367" lon="2.25024">
        <ele>19.7</ele>
        <time>2023-05-19T12:13:31Z</time>
      </trkpt>
      <trkpt lat="49.92367" lon="2.25022">
        <ele>19.7</ele>
        <time>2023-05-19T12:13:32Z</time>
      </trkpt>
      <trkpt lat="49.92367" lon="2.25021">
        <ele>19.7</ele>
        <time>2023-05-19T12:13:33Z</time>
      </trkpt>
      <trkpt lat="49.92367" lon="2.25021">
        <ele>19.7</ele>
        <time>2023-05-19T12:13:35Z</time>
      </trkpt>
      <trkpt lat="49.92367" lon="2.2502">
        <ele>19.7</ele>
        <time>2023-05-19T12:13:37Z</time>
      </trkpt>
      <trkpt lat="49.92367" lon="2.2502">
        <ele>19.7</ele>
        <time>2023-05-19T12:13:38Z</time>
      </trkpt>
      <trkpt lat="49.92367" lon="2.25019">
        <ele>19.7</ele>
        <time>2023-05-19T12:13:40Z</time>
      </trkpt>
      <trkpt lat="49.92367" lon="2.25019">
        <ele>19.7</ele>
        <time>2023-05-19T12:13:41Z</time>
      </trkpt>
      <trkpt lat="49.92366" lon="2.25018">
        <ele>19.7</ele>
        <time>2023-05-19T12:13:42Z</time>
      </trkpt>
      <trkpt lat="49.92366" lon="2.25018">
        <ele>19.7</ele>
        <time>2023-05-19T12:13:44Z</time>
      </trkpt>
      <trkpt lat="49.92366" lon="2.25017">
        <ele>19.7</ele>
        <time>2023-05-19T12:13:45Z</time>
      </trkpt>
      <trkpt lat="49.92366" lon="2.25017">
        <ele>19.7</ele>
        <time>2023-05-19T12:13:47Z</time>
      </trkpt>
      <trkpt lat="49.92366" lon="2.25016">
        <ele>19.7</ele>
        <time>2023-05-19T12:13:48Z</time>
      </trkpt>
      <trkpt lat="49.92366" lon="2.25016">
        <ele>19.7</ele>
        <time>2023-05-19T12:13:50Z</time>
      </trkpt>
      <trkpt lat="49.92366" lon="2.25015">
        <ele>19.7</ele>
        <time>2023-05-19T12:13:51Z</time>
      </trkpt>
      <trkpt lat="49.92366" lon="2.25015">
        <ele>19.7</ele>
        <time>2023-05-19T12:14:13Z</time>
      </trkpt>
      <trkpt lat="49.92366" lon="2.25015">
        <ele>19.7</ele>
        <time>2023-05-19T12:14:14Z</time>
      </trkpt>
      <trkpt lat="49.92366" lon="2.25014">
        <ele>19.7</ele>
        <time>2023-05-19T12:14:15Z</time>
      </trkpt>
      <trkpt lat="49.92366" lon="2.25014">
        <ele>19.7</ele>
        <time>2023-05-19T12:14:16Z</time>
      </trkpt>
      <trkpt lat="49.92366" lon="2.25013">
        <ele>19.7</ele>
        <time>2023-05-19T12:14:17Z</time>
      </trkpt>
      <trkpt lat="49.92365" lon="2.25013">
        <ele>19.7</ele>
        <time>2023-05-19T12:14:18Z</time>
      </trkpt>
      <trkpt lat="49.92366" lon="2.25009">
        <ele>19.7</ele>
        <time>2023-05-19T12:14:19Z</time>
      </trkpt>
      <trkpt lat="49.92366" lon="2.25008">
        <ele>19.7</ele>
        <time>2023-05-19T12:14:21Z</time>
      </trkpt>
      <trkpt lat="49.92366" lon="2.25007">
        <ele>19.7</ele>
        <time>2023-05-19T12:14:22Z</time>
      </trkpt>
      <trkpt lat="49.92367" lon="2.25004">
        <ele>19.7</ele>
        <time>2023-05-19T12:14:23Z</time>
      </trkpt>
      <trkpt lat="49.92367" lon="2.25003">
        <ele>19.7</ele>
        <time>2023-05-19T12:14:24Z</time>
      </trkpt>
      <trkpt lat="49.92368" lon="2.25002">
        <ele>19.7</ele>
        <time>2023-05-19T12:14:25Z</time>
      </trkpt>
      <trkpt lat="49.92369" lon="2.25">
        <ele>19.7</ele>
        <time>2023-05-19T12:14:26Z</time>
      </trkpt>
      <trkpt lat="49.9237" lon="2.24999">
        <ele>19.7</ele>
        <time>2023-05-19T12:14:27Z</time>
      </trkpt>
      <trkpt lat="49.92371" lon="2.24998">
        <ele>19.7</ele>
        <time>2023-05-19T12:14:29Z</time>
      </trkpt>
      <trkpt lat="49.92372" lon="2.24996">
        <ele>19.6</ele>
        <time>2023-05-19T12:14:30Z</time>
      </trkpt>
      <trkpt lat="49.92373" lon="2.24995">
        <ele>19.6</ele>
        <time>2023-05-19T12:14:31Z</time>
      </trkpt>
      <trkpt lat="49.92373" lon="2.24995">
        <ele>19.6</ele>
        <time>2023-05-19T12:14:32Z</time>
      </trkpt>
      <trkpt lat="49.92374" lon="2.24994">
        <ele>19.6</ele>
        <time>2023-05-19T12:14:33Z</time>
      </trkpt>
      <trkpt lat="49.92375" lon="2.24993">
        <ele>19.6</ele>
        <time>2023-05-19T12:14:34Z</time>
      </trkpt>
      <trkpt lat="49.92376" lon="2.24992">
        <ele>19.6</ele>
        <time>2023-05-19T12:14:36Z</time>
      </trkpt>
      <trkpt lat="49.92376" lon="2.24991">
        <ele>19.6</ele>
        <time>2023-05-19T12:14:37Z</time>
      </trkpt>
      <trkpt lat="49.92377" lon="2.24991">
        <ele>19.6</ele>
        <time>2023-05-19T12:14:38Z</time>
      </trkpt>
      <trkpt lat="49.92377" lon="2.24989">
        <ele>19.6</ele>
        <time>2023-05-19T12:14:39Z</time>
      </trkpt>
      <trkpt lat="49.92378" lon="2.24988">
        <ele>19.6</ele>
        <time>2023-05-19T12:14:40Z</time>
      </trkpt>
      <trkpt lat="49.92378" lon="2.24987">
        <ele>19.6</ele>
        <time>2023-05-19T12:14:41Z</time>
      </trkpt>
      <trkpt lat="49.92379" lon="2.24986">
        <ele>19.6</ele>
        <time>2023-05-19T12:14:42Z</time>
      </trkpt>
      <trkpt lat="49.9238" lon="2.24984">
        <ele>19.6</ele>
        <time>2023-05-19T12:14:44Z</time>
      </trkpt>
      <trkpt lat="49.9238" lon="2.24983">
        <ele>19.6</ele>
        <time>2023-05-19T12:14:45Z</time>
      </trkpt>
      <trkpt lat="49.9238" lon="2.24982">
        <ele>19.6</ele>
        <time>2023-05-19T12:14:46Z</time>
      </trkpt>
      <trkpt lat="49.9238" lon="2.24982">
        <ele>19.6</ele>
        <time>2023-05-19T12:14:47Z</time>
      </trkpt>
      <trkpt lat="49.9238" lon="2.24981">
        <ele>19.6</ele>
        <time>2023-05-19T12:14:48Z</time>
      </trkpt>
      <trkpt lat="49.92381" lon="2.2498">
        <ele>19.6</ele>
        <time>2023-05-19T12:14:49Z</time>
      </trkpt>
      <trkpt lat="49.92381" lon="2.24979">
        <ele>19.5</ele>
        <time>2023-05-19T12:14:50Z</time>
      </trkpt>
      <trkpt lat="49.92382" lon="2.24978">
        <ele>19.5</ele>
        <time>2023-05-19T12:14:52Z</time>
      </trkpt>
      <trkpt lat="49.92382" lon="2.24977">
        <ele>19.5</ele>
        <time>2023-05-19T12:14:53Z</time>
      </trkpt>
      <trkpt lat="49.92383" lon="2.24975">
        <ele>19.5</ele>
        <time>2023-05-19T12:14:54Z</time>
      </trkpt>
      <trkpt lat="49.92383" lon="2.24973">
        <ele>19.5</ele>
        <time>2023-05-19T12:14:55Z</time>
      </trkpt>
      <trkpt lat="49.92381" lon="2.24968">
        <ele>19.5</ele>
        <time>2023-05-19T12:14:57Z</time>
      </trkpt>
      <trkpt lat="49.92381" lon="2.24967">
        <ele>19.5</ele>
        <time>2023-05-19T12:14:58Z</time>
      </trkpt>
      <trkpt lat="49.92381" lon="2.24964">
        <ele>19.5</ele>
        <time>2023-05-19T12:14:59Z</time>
      </trkpt>
      <trkpt lat="49.92382" lon="2.2496">
        <ele>19.5</ele>
        <time>2023-05-19T12:15:01Z</time>
      </trkpt>
      <trkpt lat="49.92383" lon="2.24955">
        <ele>19.5</ele>
        <time>2023-05-19T12:15:02Z</time>
      </trkpt>
      <trkpt lat="49.92384" lon="2.24953">
        <ele>19.5</ele>
        <time>2023-05-19T12:15:03Z</time>
      </trkpt>
      <trkpt lat="49.92385" lon="2.24948">
        <ele>19.5</ele>
        <time>2023-05-19T12:15:04Z</time>
      </trkpt>
      <trkpt lat="49.92385" lon="2.24947">
        <ele>19.5</ele>
        <time>2023-05-19T12:15:05Z</time>
      </trkpt>
      <trkpt lat="49.92387" lon="2.24943">
        <ele>19.4</ele>
        <time>2023-05-19T12:15:06Z</time>
      </trkpt>
      <trkpt lat="49.92387" lon="2.24942">
        <ele>19.4</ele>
        <time>2023-05-19T12:15:07Z</time>
      </trkpt>
      <trkpt lat="49.92388" lon="2.24938">
        <ele>19.4</ele>
        <time>2023-05-19T12:15:08Z</time>
      </trkpt>
      <trkpt lat="49.92389" lon="2.24937">
        <ele>19.4</ele>
        <time>2023-05-19T12:15:09Z</time>
      </trkpt>
      <trkpt lat="49.9239" lon="2.24935">
        <ele>19.4</ele>
        <time>2023-05-19T12:15:11Z</time>
      </trkpt>
      <trkpt lat="49.9239" lon="2.24933">
        <ele>19.4</ele>
        <time>2023-05-19T12:15:12Z</time>
      </trkpt>
      <trkpt lat="49.92391" lon="2.24931">
        <ele>19.4</ele>
        <time>2023-05-19T12:15:13Z</time>
      </trkpt>
      <trkpt lat="49.92391" lon="2.24929">
        <ele>19.4</ele>
        <time>2023-05-19T12:15:14Z</time>
      </trkpt>
      <trkpt lat="49.92391" lon="2.24928">
        <ele>19.4</ele>
        <time>2023-05-19T12:15:15Z</time>
      </trkpt>
      <trkpt lat="49.92392" lon="2.24925">
        <ele>19.4</ele>
        <time>2023-05-19T12:15:17Z</time>
      </trkpt>
      <trkpt lat="49.92392" lon="2.24923">
        <ele>19.3</ele>
        <time>2023-05-19T12:15:18Z</time>
      </trkpt>
      <trkpt lat="49.92393" lon="2.2492">
        <ele>19.3</ele>
        <time>2023-05-19T12:15:19Z</time>
      </trkpt>
      <trkpt lat="49.92393" lon="2.24918">
        <ele>19.3</ele>
        <time>2023-05-19T12:15:20Z</time>
      </trkpt>
      <trkpt lat="49.92394" lon="2.24917">
        <ele>19.3</ele>
        <time>2023-05-19T12:15:21Z</time>
      </trkpt>
      <trkpt lat="49.92394" lon="2.24915">
        <ele>19.3</ele>
        <time>2023-05-19T12:15:22Z</time>
      </trkpt>
      <trkpt lat="49.92395" lon="2.24912">
        <ele>19.2</ele>
        <time>2023-05-19T12:15:24Z</time>
      </trkpt>
      <trkpt lat="49.92396" lon="2.24908">
        <ele>19.2</ele>
        <time>2023-05-19T12:15:26Z</time>
      </trkpt>
      <trkpt lat="49.92396" lon="2.24907">
        <ele>19.1</ele>
        <time>2023-05-19T12:15:27Z</time>
      </trkpt>
      <trkpt lat="49.92397" lon="2.24904">
        <ele>19.1</ele>
        <time>2023-05-19T12:15:28Z</time>
      </trkpt>
      <trkpt lat="49.92397" lon="2.24903">
        <ele>19.1</ele>
        <time>2023-05-19T12:15:29Z</time>
      </trkpt>
      <trkpt lat="49.92397" lon="2.24901">
        <ele>19.1</ele>
        <time>2023-05-19T12:15:30Z</time>
      </trkpt>
      <trkpt lat="49.92398" lon="2.249">
        <ele>19</ele>
        <time>2023-05-19T12:15:31Z</time>
      </trkpt>
      <trkpt lat="49.92398" lon="2.24898">
        <ele>19</ele>
        <time>2023-05-19T12:15:32Z</time>
      </trkpt>
      <trkpt lat="49.92398" lon="2.24897">
        <ele>19</ele>
        <time>2023-05-19T12:15:33Z</time>
      </trkpt>
      <trkpt lat="49.92398" lon="2.24895">
        <ele>19</ele>
        <time>2023-05-19T12:15:34Z</time>
      </trkpt>
      <trkpt lat="49.92398" lon="2.24893">
        <ele>18.9</ele>
        <time>2023-05-19T12:15:35Z</time>
      </trkpt>
      <trkpt lat="49.92398" lon="2.24891">
        <ele>18.9</ele>
        <time>2023-05-19T12:15:36Z</time>
      </trkpt>
      <trkpt lat="49.92399" lon="2.24887">
        <ele>18.9</ele>
        <time>2023-05-19T12:15:38Z</time>
      </trkpt>
      <trkpt lat="49.92399" lon="2.24886">
        <ele>18.8</ele>
        <time>2023-05-19T12:15:39Z</time>
      </trkpt>
      <trkpt lat="49.92399" lon="2.24885">
        <ele>18.8</ele>
        <time>2023-05-19T12:15:40Z</time>
      </trkpt>
      <trkpt lat="49.92399" lon="2.24883">
        <ele>18.8</ele>
        <time>2023-05-19T12:15:41Z</time>
      </trkpt>
      <trkpt lat="49.92399" lon="2.24881">
        <ele>18.8</ele>
        <time>2023-05-19T12:15:42Z</time>
      </trkpt>
      <trkpt lat="49.924" lon="2.24879">
        <ele>18.7</ele>
        <time>2023-05-19T12:15:43Z</time>
      </trkpt>
      <trkpt lat="49.924" lon="2.24877">
        <ele>18.7</ele>
        <time>2023-05-19T12:15:44Z</time>
      </trkpt>
      <trkpt lat="49.92401" lon="2.24874">
        <ele>18.7</ele>
        <time>2023-05-19T12:15:46Z</time>
      </trkpt>
      <trkpt lat="49.92401" lon="2.24872">
        <ele>18.7</ele>
        <time>2023-05-19T12:15:47Z</time>
      </trkpt>
      <trkpt lat="49.92401" lon="2.24871">
        <ele>18.6</ele>
        <time>2023-05-19T12:15:48Z</time>
      </trkpt>
      <trkpt lat="49.92402" lon="2.24869">
        <ele>18.6</ele>
        <time>2023-05-19T12:15:49Z</time>
      </trkpt>
      <trkpt lat="49.92403" lon="2.24867">
        <ele>18.6</ele>
        <time>2023-05-19T12:15:51Z</time>
      </trkpt>
      <trkpt lat="49.92404" lon="2.24865">
        <ele>18.6</ele>
        <time>2023-05-19T12:15:52Z</time>
      </trkpt>
      <trkpt lat="49.92404" lon="2.24863">
        <ele>18.6</ele>
        <time>2023-05-19T12:15:53Z</time>
      </trkpt>
      <trkpt lat="49.92405" lon="2.24861">
        <ele>18.5</ele>
        <time>2023-05-19T12:15:54Z</time>
      </trkpt>
      <trkpt lat="49.92406" lon="2.2486">
        <ele>18.5</ele>
        <time>2023-05-19T12:15:55Z</time>
      </trkpt>
      <trkpt lat="49.92407" lon="2.24858">
        <ele>18.5</ele>
        <time>2023-05-19T12:15:56Z</time>
      </trkpt>
      <trkpt lat="49.92408" lon="2.24856">
        <ele>18.5</ele>
        <time>2023-05-19T12:15:58Z</time>
      </trkpt>
      <trkpt lat="49.92409" lon="2.24854">
        <ele>18.5</ele>
        <time>2023-05-19T12:15:59Z</time>
      </trkpt>
      <trkpt lat="49.9241" lon="2.24853">
        <ele>18.4</ele>
        <time>2023-05-19T12:16:00Z</time>
      </trkpt>
      <trkpt lat="49.92411" lon="2.24851">
        <ele>18.4</ele>
        <time>2023-05-19T12:16:01Z</time>
      </trkpt>
      <trkpt lat="49.92413" lon="2.24849">
        <ele>18.4</ele>
        <time>2023-05-19T12:16:02Z</time>
      </trkpt>
      <trkpt lat="49.92414" lon="2.24847">
        <ele>18.4</ele>
        <time>2023-05-19T12:16:03Z</time>
      </trkpt>
      <trkpt lat="49.92415" lon="2.24845">
        <ele>18.4</ele>
        <time>2023-05-19T12:16:05Z</time>
      </trkpt>
      <trkpt lat="49.92416" lon="2.24843">
        <ele>18.4</ele>
        <time>2023-05-19T12:16:06Z</time>
      </trkpt>
      <trkpt lat="49.92417" lon="2.24841">
        <ele>18.3</ele>
        <time>2023-05-19T12:16:07Z</time>
      </trkpt>
      <trkpt lat="49.92418" lon="2.24839">
        <ele>18.3</ele>
        <time>2023-05-19T12:16:08Z</time>
      </trkpt>
      <trkpt lat="49.92419" lon="2.24836">
        <ele>18.3</ele>
        <time>2023-05-19T12:16:09Z</time>
      </trkpt>
      <trkpt lat="49.92419" lon="2.24834">
        <ele>18.3</ele>
        <time>2023-05-19T12:16:10Z</time>
      </trkpt>
      <trkpt lat="49.9242" lon="2.24831">
        <ele>18.3</ele>
        <time>2023-05-19T12:16:12Z</time>
      </trkpt>
      <trkpt lat="49.9242" lon="2.24828">
        <ele>18.3</ele>
        <time>2023-05-19T12:16:13Z</time>
      </trkpt>
      <trkpt lat="49.9242" lon="2.24826">
        <ele>18.3</ele>
        <time>2023-05-19T12:16:14Z</time>
      </trkpt>
      <trkpt lat="49.92421" lon="2.24823">
        <ele>18.3</ele>
        <time>2023-05-19T12:16:15Z</time>
      </trkpt>
      <trkpt lat="49.92421" lon="2.24822">
        <ele>18.3</ele>
        <time>2023-05-19T12:16:16Z</time>
      </trkpt>
      <trkpt lat="49.92421" lon="2.24821">
        <ele>18.3</ele>
        <time>2023-05-19T12:16:17Z</time>
      </trkpt>
      <trkpt lat="49.92422" lon="2.24819">
        <ele>18.3</ele>
        <time>2023-05-19T12:16:18Z</time>
      </trkpt>
      <trkpt lat="49.92423" lon="2.24816">
        <ele>18.4</ele>
        <time>2023-05-19T12:16:20Z</time>
      </trkpt>
      <trkpt lat="49.92423" lon="2.24814">
        <ele>18.4</ele>
        <time>2023-05-19T12:16:22Z</time>
      </trkpt>
      <trkpt lat="49.92424" lon="2.24812">
        <ele>18.4</ele>
        <time>2023-05-19T12:16:23Z</time>
      </trkpt>
      <trkpt lat="49.92424" lon="2.24811">
        <ele>18.4</ele>
        <time>2023-05-19T12:16:24Z</time>
      </trkpt>
      <trkpt lat="49.92425" lon="2.24809">
        <ele>18.4</ele>
        <time>2023-05-19T12:16:25Z</time>
      </trkpt>
      <trkpt lat="49.92425" lon="2.24807">
        <ele>18.4</ele>
        <time>2023-05-19T12:16:26Z</time>
      </trkpt>
      <trkpt lat="49.92425" lon="2.24806">
        <ele>18.4</ele>
        <time>2023-05-19T12:16:27Z</time>
      </trkpt>
      <trkpt lat="49.92425" lon="2.24804">
        <ele>18.4</ele>
        <time>2023-05-19T12:16:28Z</time>
      </trkpt>
      <trkpt lat="49.92425" lon="2.24802">
        <ele>18.4</ele>
        <time>2023-05-19T12:16:30Z</time>
      </trkpt>
      <trkpt lat="49.92425" lon="2.24801">
        <ele>18.4</ele>
        <time>2023-05-19T12:16:31Z</time>
      </trkpt>
      <trkpt lat="49.92425" lon="2.24799">
        <ele>18.4</ele>
        <time>2023-05-19T12:16:32Z</time>
      </trkpt>
      <trkpt lat="49.92426" lon="2.24797">
        <ele>18.4</ele>
        <time>2023-05-19T12:16:33Z</time>
      </trkpt>
      <trkpt lat="49.92427" lon="2.24794">
        <ele>18.4</ele>
        <time>2023-05-19T12:16:34Z</time>
      </trkpt>
      <trkpt lat="49.92427" lon="2.24793">
        <ele>18.4</ele>
        <time>2023-05-19T12:16:35Z</time>
      </trkpt>
      <trkpt lat="49.92427" lon="2.24792">
        <ele>18.4</ele>
        <time>2023-05-19T12:16:36Z</time>
      </trkpt>
      <trkpt lat="49.92428" lon="2.2479">
        <ele>18.4</ele>
        <time>2023-05-19T12:16:38Z</time>
      </trkpt>
      <trkpt lat="49.92429" lon="2.24788">
        <ele>18.4</ele>
        <time>2023-05-19T12:16:39Z</time>
      </trkpt>
      <trkpt lat="49.9243" lon="2.24787">
        <ele>18.4</ele>
        <time>2023-05-19T12:16:40Z</time>
      </trkpt>
      <trkpt lat="49.9243" lon="2.24785">
        <ele>18.4</ele>
        <time>2023-05-19T12:16:41Z</time>
      </trkpt>
      <trkpt lat="49.9243" lon="2.24783">
        <ele>18.4</ele>
        <time>2023-05-19T12:16:43Z</time>
      </trkpt>
      <trkpt lat="49.92431" lon="2.24781">
        <ele>18.4</ele>
        <time>2023-05-19T12:16:44Z</time>
      </trkpt>
      <trkpt lat="49.92431" lon="2.2478">
        <ele>18.4</ele>
        <time>2023-05-19T12:16:45Z</time>
      </trkpt>
      <trkpt lat="49.92431" lon="2.24778">
        <ele>18.4</ele>
        <time>2023-05-19T12:16:46Z</time>
      </trkpt>
      <trkpt lat="49.92431" lon="2.24777">
        <ele>18.4</ele>
        <time>2023-05-19T12:16:47Z</time>
      </trkpt>
      <trkpt lat="49.92432" lon="2.24776">
        <ele>18.4</ele>
        <time>2023-05-19T12:16:48Z</time>
      </trkpt>
      <trkpt lat="49.92433" lon="2.24774">
        <ele>18.5</ele>
        <time>2023-05-19T12:16:49Z</time>
      </trkpt>
      <trkpt lat="49.92433" lon="2.24772">
        <ele>18.5</ele>
        <time>2023-05-19T12:16:50Z</time>
      </trkpt>
      <trkpt lat="49.92434" lon="2.2477">
        <ele>18.5</ele>
        <time>2023-05-19T12:16:52Z</time>
      </trkpt>
      <trkpt lat="49.92434" lon="2.24768">
        <ele>18.5</ele>
        <time>2023-05-19T12:16:53Z</time>
      </trkpt>
      <trkpt lat="49.92434" lon="2.24766">
        <ele>18.5</ele>
        <time>2023-05-19T12:16:54Z</time>
      </trkpt>
      <trkpt lat="49.92435" lon="2.24763">
        <ele>18.5</ele>
        <time>2023-05-19T12:16:55Z</time>
      </trkpt>
      <trkpt lat="49.92435" lon="2.24761">
        <ele>18.5</ele>
        <time>2023-05-19T12:16:56Z</time>
      </trkpt>
      <trkpt lat="49.92436" lon="2.24758">
        <ele>18.5</ele>
        <time>2023-05-19T12:16:57Z</time>
      </trkpt>
      <trkpt lat="49.92436" lon="2.24756">
        <ele>18.5</ele>
        <time>2023-05-19T12:16:59Z</time>
      </trkpt>
      <trkpt lat="49.92437" lon="2.24755">
        <ele>18.5</ele>
        <time>2023-05-19T12:17:01Z</time>
      </trkpt>
      <trkpt lat="49.92437" lon="2.24753">
        <ele>18.5</ele>
        <time>2023-05-19T12:17:02Z</time>
      </trkpt>
      <trkpt lat="49.92438" lon="2.24751">
        <ele>18.5</ele>
        <time>2023-05-19T12:17:03Z</time>
      </trkpt>
      <trkpt lat="49.92438" lon="2.2475">
        <ele>18.5</ele>
        <time>2023-05-19T12:17:04Z</time>
      </trkpt>
      <trkpt lat="49.92438" lon="2.24749">
        <ele>18.5</ele>
        <time>2023-05-19T12:17:05Z</time>
      </trkpt>
      <trkpt lat="49.92439" lon="2.24747">
        <ele>18.5</ele>
        <time>2023-05-19T12:17:06Z</time>
      </trkpt>
      <trkpt lat="49.9244" lon="2.24745">
        <ele>18.5</ele>
        <time>2023-05-19T12:17:07Z</time>
      </trkpt>
      <trkpt lat="49.9244" lon="2.24742">
        <ele>18.5</ele>
        <time>2023-05-19T12:17:09Z</time>
      </trkpt>
      <trkpt lat="49.92441" lon="2.2474">
        <ele>18.5</ele>
        <time>2023-05-19T12:17:10Z</time>
      </trkpt>
      <trkpt lat="49.92442" lon="2.24738">
        <ele>18.6</ele>
        <time>2023-05-19T12:17:11Z</time>
      </trkpt>
      <trkpt lat="49.92442" lon="2.24736">
        <ele>18.6</ele>
        <time>2023-05-19T12:17:12Z</time>
      </trkpt>
      <trkpt lat="49.92443" lon="2.24734">
        <ele>18.6</ele>
        <time>2023-05-19T12:17:13Z</time>
      </trkpt>
      <trkpt lat="49.92444" lon="2.24732">
        <ele>18.6</ele>
        <time>2023-05-19T12:17:15Z</time>
      </trkpt>
      <trkpt lat="49.92444" lon="2.24729">
        <ele>18.6</ele>
        <time>2023-05-19T12:17:16Z</time>
      </trkpt>
      <trkpt lat="49.92445" lon="2.24728">
        <ele>18.6</ele>
        <time>2023-05-19T12:17:17Z</time>
      </trkpt>
      <trkpt lat="49.92445" lon="2.24726">
        <ele>18.6</ele>
        <time>2023-05-19T12:17:18Z</time>
      </trkpt>
      <trkpt lat="49.92446" lon="2.24725">
        <ele>18.6</ele>
        <time>2023-05-19T12:17:19Z</time>
      </trkpt>
      <trkpt lat="49.92446" lon="2.24723">
        <ele>18.6</ele>
        <time>2023-05-19T12:17:20Z</time>
      </trkpt>
      <trkpt lat="49.92446" lon="2.24721">
        <ele>18.6</ele>
        <time>2023-05-19T12:17:21Z</time>
      </trkpt>
      <trkpt lat="49.92447" lon="2.24718">
        <ele>18.6</ele>
        <time>2023-05-19T12:17:22Z</time>
      </trkpt>
      <trkpt lat="49.92447" lon="2.24717">
        <ele>18.6</ele>
        <time>2023-05-19T12:17:23Z</time>
      </trkpt>
      <trkpt lat="49.92447" lon="2.24716">
        <ele>18.6</ele>
        <time>2023-05-19T12:17:24Z</time>
      </trkpt>
      <trkpt lat="49.92447" lon="2.24714">
        <ele>18.6</ele>
        <time>2023-05-19T12:17:26Z</time>
      </trkpt>
      <trkpt lat="49.92447" lon="2.24712">
        <ele>18.6</ele>
        <time>2023-05-19T12:17:27Z</time>
      </trkpt>
      <trkpt lat="49.92447" lon="2.2471">
        <ele>18.6</ele>
        <time>2023-05-19T12:17:28Z</time>
      </trkpt>
      <trkpt lat="49.92448" lon="2.24708">
        <ele>18.6</ele>
        <time>2023-05-19T12:17:29Z</time>
      </trkpt>
      <trkpt lat="49.92448" lon="2.24704">
        <ele>18.6</ele>
        <time>2023-05-19T12:17:31Z</time>
      </trkpt>
      <trkpt lat="49.92449" lon="2.24702">
        <ele>18.6</ele>
        <time>2023-05-19T12:17:32Z</time>
      </trkpt>
      <trkpt lat="49.92449" lon="2.24699">
        <ele>18.6</ele>
        <time>2023-05-19T12:17:33Z</time>
      </trkpt>
      <trkpt lat="49.92449" lon="2.24697">
        <ele>18.6</ele>
        <time>2023-05-19T12:17:34Z</time>
      </trkpt>
      <trkpt lat="49.92449" lon="2.24695">
        <ele>18.6</ele>
        <time>2023-05-19T12:17:35Z</time>
      </trkpt>
      <trkpt lat="49.92449" lon="2.24692">
        <ele>18.6</ele>
        <time>2023-05-19T12:17:36Z</time>
      </trkpt>
      <trkpt lat="49.92449" lon="2.2469">
        <ele>18.6</ele>
        <time>2023-05-19T12:17:38Z</time>
      </trkpt>
      <trkpt lat="49.92449" lon="2.24689">
        <ele>18.6</ele>
        <time>2023-05-19T12:17:39Z</time>
      </trkpt>
      <trkpt lat="49.92449" lon="2.24687">
        <ele>18.6</ele>
        <time>2023-05-19T12:17:40Z</time>
      </trkpt>
      <trkpt lat="49.92449" lon="2.24685">
        <ele>18.7</ele>
        <time>2023-05-19T12:17:41Z</time>
      </trkpt>
      <trkpt lat="49.9245" lon="2.2468">
        <ele>18.7</ele>
        <time>2023-05-19T12:17:42Z</time>
      </trkpt>
      <trkpt lat="49.9245" lon="2.24678">
        <ele>18.7</ele>
        <time>2023-05-19T12:17:44Z</time>
      </trkpt>
      <trkpt lat="49.9245" lon="2.24676">
        <ele>18.7</ele>
        <time>2023-05-19T12:17:45Z</time>
      </trkpt>
      <trkpt lat="49.9245" lon="2.24674">
        <ele>18.7</ele>
        <time>2023-05-19T12:17:46Z</time>
      </trkpt>
      <trkpt lat="49.9245" lon="2.24669">
        <ele>18.8</ele>
        <time>2023-05-19T12:17:47Z</time>
      </trkpt>
      <trkpt lat="49.9245" lon="2.24667">
        <ele>18.8</ele>
        <time>2023-05-19T12:17:48Z</time>
      </trkpt>
      <trkpt lat="49.9245" lon="2.24664">
        <ele>18.8</ele>
        <time>2023-05-19T12:17:50Z</time>
      </trkpt>
      <trkpt lat="49.9245" lon="2.24662">
        <ele>18.8</ele>
        <time>2023-05-19T12:17:51Z</time>
      </trkpt>
      <trkpt lat="49.9245" lon="2.2466">
        <ele>18.9</ele>
        <time>2023-05-19T12:17:52Z</time>
      </trkpt>
      <trkpt lat="49.9245" lon="2.24658">
        <ele>18.9</ele>
        <time>2023-05-19T12:17:53Z</time>
      </trkpt>
      <trkpt lat="49.9245" lon="2.24656">
        <ele>18.9</ele>
        <time>2023-05-19T12:17:54Z</time>
      </trkpt>
      <trkpt lat="49.9245" lon="2.24653">
        <ele>18.9</ele>
        <time>2023-05-19T12:17:56Z</time>
      </trkpt>
      <trkpt lat="49.9245" lon="2.24653">
        <ele>18.9</ele>
        <time>2023-05-19T12:17:57Z</time>
      </trkpt>
      <trkpt lat="49.92449" lon="2.24651">
        <ele>19</ele>
        <time>2023-05-19T12:17:58Z</time>
      </trkpt>
      <trkpt lat="49.92449" lon="2.2465">
        <ele>19</ele>
        <time>2023-05-19T12:17:59Z</time>
      </trkpt>
      <trkpt lat="49.92448" lon="2.24649">
        <ele>19</ele>
        <time>2023-05-19T12:18:01Z</time>
      </trkpt>
      <trkpt lat="49.92448" lon="2.24647">
        <ele>19</ele>
        <time>2023-05-19T12:18:02Z</time>
      </trkpt>
      <trkpt lat="49.92448" lon="2.24644">
        <ele>19.1</ele>
        <time>2023-05-19T12:18:03Z</time>
      </trkpt>
      <trkpt lat="49.92448" lon="2.24642">
        <ele>19.1</ele>
        <time>2023-05-19T12:18:04Z</time>
      </trkpt>
      <trkpt lat="49.92448" lon="2.2464">
        <ele>19.1</ele>
        <time>2023-05-19T12:18:05Z</time>
      </trkpt>
      <trkpt lat="49.92448" lon="2.24638">
        <ele>19.2</ele>
        <time>2023-05-19T12:18:06Z</time>
      </trkpt>
      <trkpt lat="49.92448" lon="2.24636">
        <ele>19.2</ele>
        <time>2023-05-19T12:18:07Z</time>
      </trkpt>
      <trkpt lat="49.92448" lon="2.24633">
        <ele>19.2</ele>
        <time>2023-05-19T12:18:09Z</time>
      </trkpt>
      <trkpt lat="49.92447" lon="2.2463">
        <ele>19.3</ele>
        <time>2023-05-19T12:18:10Z</time>
      </trkpt>
      <trkpt lat="49.92447" lon="2.24628">
        <ele>19.3</ele>
        <time>2023-05-19T12:18:11Z</time>
      </trkpt>
      <trkpt lat="49.92447" lon="2.24627">
        <ele>19.3</ele>
        <time>2023-05-19T12:18:12Z</time>
      </trkpt>
      <trkpt lat="49.92446" lon="2.24623">
        <ele>19.4</ele>
        <time>2023-05-19T12:18:13Z</time>
      </trkpt>
      <trkpt lat="49.92446" lon="2.24622">
        <ele>19.4</ele>
        <time>2023-05-19T12:18:15Z</time>
      </trkpt>
      <trkpt lat="49.92446" lon="2.2462">
        <ele>19.4</ele>
        <time>2023-05-19T12:18:16Z</time>
      </trkpt>
      <trkpt lat="49.92446" lon="2.24618">
        <ele>19.4</ele>
        <time>2023-05-19T12:18:17Z</time>
      </trkpt>
      <trkpt lat="49.92446" lon="2.24617">
        <ele>19.4</ele>
        <time>2023-05-19T12:18:18Z</time>
      </trkpt>
      <trkpt lat="49.92446" lon="2.24614">
        <ele>19.4</ele>
        <time>2023-05-19T12:18:19Z</time>
      </trkpt>
      <trkpt lat="49.92446" lon="2.24612">
        <ele>19.5</ele>
        <time>2023-05-19T12:18:20Z</time>
      </trkpt>
      <trkpt lat="49.92446" lon="2.24611">
        <ele>19.5</ele>
        <time>2023-05-19T12:18:21Z</time>
      </trkpt>
      <trkpt lat="49.92446" lon="2.24609">
        <ele>19.5</ele>
        <time>2023-05-19T12:18:22Z</time>
      </trkpt>
      <trkpt lat="49.92446" lon="2.24607">
        <ele>19.5</ele>
        <time>2023-05-19T12:18:23Z</time>
      </trkpt>
      <trkpt lat="49.92446" lon="2.24605">
        <ele>19.5</ele>
        <time>2023-05-19T12:18:25Z</time>
      </trkpt>
      <trkpt lat="49.92446" lon="2.24602">
        <ele>19.5</ele>
        <time>2023-05-19T12:18:26Z</time>
      </trkpt>
      <trkpt lat="49.92446" lon="2.246">
        <ele>19.5</ele>
        <time>2023-05-19T12:18:27Z</time>
      </trkpt>
      <trkpt lat="49.92446" lon="2.24599">
        <ele>19.5</ele>
        <time>2023-05-19T12:18:28Z</time>
      </trkpt>
      <trkpt lat="49.92446" lon="2.24597">
        <ele>19.6</ele>
        <time>2023-05-19T12:18:29Z</time>
      </trkpt>
      <trkpt lat="49.92446" lon="2.24595">
        <ele>19.6</ele>
        <time>2023-05-19T12:18:30Z</time>
      </trkpt>
      <trkpt lat="49.92446" lon="2.24594">
        <ele>19.6</ele>
        <time>2023-05-19T12:18:31Z</time>
      </trkpt>
      <trkpt lat="49.92446" lon="2.24593">
        <ele>19.6</ele>
        <time>2023-05-19T12:18:32Z</time>
      </trkpt>
      <trkpt lat="49.92447" lon="2.24593">
        <ele>19.6</ele>
        <time>2023-05-19T12:18:34Z</time>
      </trkpt>
      <trkpt lat="49.92447" lon="2.24592">
        <ele>19.6</ele>
        <time>2023-05-19T12:18:35Z</time>
      </trkpt>
      <trkpt lat="49.92448" lon="2.2459">
        <ele>19.6</ele>
        <time>2023-05-19T12:18:36Z</time>
      </trkpt>
      <trkpt lat="49.92448" lon="2.24588">
        <ele>19.6</ele>
        <time>2023-05-19T12:18:37Z</time>
      </trkpt>
      <trkpt lat="49.92448" lon="2.24587">
        <ele>19.6</ele>
        <time>2023-05-19T12:18:38Z</time>
      </trkpt>
      <trkpt lat="49.92449" lon="2.24586">
        <ele>19.6</ele>
        <time>2023-05-19T12:18:39Z</time>
      </trkpt>
      <trkpt lat="49.92449" lon="2.24585">
        <ele>19.6</ele>
        <time>2023-05-19T12:18:40Z</time>
      </trkpt>
      <trkpt lat="49.9245" lon="2.24582">
        <ele>19.7</ele>
        <time>2023-05-19T12:18:42Z</time>
      </trkpt>
      <trkpt lat="49.9245" lon="2.24581">
        <ele>19.7</ele>
        <time>2023-05-19T12:18:43Z</time>
      </trkpt>
      <trkpt lat="49.9245" lon="2.24579">
        <ele>19.7</ele>
        <time>2023-05-19T12:18:44Z</time>
      </trkpt>
      <trkpt lat="49.92451" lon="2.24577">
        <ele>19.7</ele>
        <time>2023-05-19T12:18:45Z</time>
      </trkpt>
      <trkpt lat="49.92452" lon="2.24574">
        <ele>19.7</ele>
        <time>2023-05-19T12:18:46Z</time>
      </trkpt>
      <trkpt lat="49.92453" lon="2.2457">
        <ele>19.8</ele>
        <time>2023-05-19T12:18:47Z</time>
      </trkpt>
      <trkpt lat="49.92453" lon="2.24569">
        <ele>19.8</ele>
        <time>2023-05-19T12:18:48Z</time>
      </trkpt>
      <trkpt lat="49.92454" lon="2.24563">
        <ele>19.8</ele>
        <time>2023-05-19T12:18:49Z</time>
      </trkpt>
      <trkpt lat="49.92454" lon="2.24562">
        <ele>19.8</ele>
        <time>2023-05-19T12:18:50Z</time>
      </trkpt>
      <trkpt lat="49.92454" lon="2.24558">
        <ele>19.8</ele>
        <time>2023-05-19T12:18:51Z</time>
      </trkpt>
      <trkpt lat="49.92454" lon="2.24554">
        <ele>19.9</ele>
        <time>2023-05-19T12:18:53Z</time>
      </trkpt>
      <trkpt lat="49.92455" lon="2.24549">
        <ele>19.9</ele>
        <time>2023-05-19T12:18:54Z</time>
      </trkpt>
      <trkpt lat="49.92455" lon="2.24548">
        <ele>19.9</ele>
        <time>2023-05-19T12:18:55Z</time>
      </trkpt>
      <trkpt lat="49.92455" lon="2.24545">
        <ele>19.9</ele>
        <time>2023-05-19T12:18:56Z</time>
      </trkpt>
      <trkpt lat="49.92455" lon="2.24543">
        <ele>20</ele>
        <time>2023-05-19T12:18:57Z</time>
      </trkpt>
      <trkpt lat="49.92456" lon="2.24541">
        <ele>20</ele>
        <time>2023-05-19T12:18:58Z</time>
      </trkpt>
      <trkpt lat="49.92456" lon="2.2454">
        <ele>20</ele>
        <time>2023-05-19T12:18:59Z</time>
      </trkpt>
      <trkpt lat="49.92457" lon="2.24538">
        <ele>20</ele>
        <time>2023-05-19T12:19:00Z</time>
      </trkpt>
      <trkpt lat="49.92458" lon="2.24536">
        <ele>20.1</ele>
        <time>2023-05-19T12:19:01Z</time>
      </trkpt>
      <trkpt lat="49.92459" lon="2.24535">
        <ele>20.1</ele>
        <time>2023-05-19T12:19:03Z</time>
      </trkpt>
      <trkpt lat="49.9246" lon="2.24534">
        <ele>20.1</ele>
        <time>2023-05-19T12:19:04Z</time>
      </trkpt>
      <trkpt lat="49.92461" lon="2.24532">
        <ele>20.1</ele>
        <time>2023-05-19T12:19:06Z</time>
      </trkpt>
      <trkpt lat="49.92462" lon="2.2453">
        <ele>20.1</ele>
        <time>2023-05-19T12:19:07Z</time>
      </trkpt>
      <trkpt lat="49.92463" lon="2.24528">
        <ele>20.2</ele>
        <time>2023-05-19T12:19:08Z</time>
      </trkpt>
      <trkpt lat="49.92463" lon="2.24526">
        <ele>20.2</ele>
        <time>2023-05-19T12:19:10Z</time>
      </trkpt>
      <trkpt lat="49.92464" lon="2.24525">
        <ele>20.2</ele>
        <time>2023-05-19T12:19:11Z</time>
      </trkpt>
      <trkpt lat="49.92465" lon="2.24523">
        <ele>20.2</ele>
        <time>2023-05-19T12:19:12Z</time>
      </trkpt>
      <trkpt lat="49.92465" lon="2.24522">
        <ele>20.2</ele>
        <time>2023-05-19T12:19:13Z</time>
      </trkpt>
      <trkpt lat="49.92466" lon="2.2452">
        <ele>20.2</ele>
        <time>2023-05-19T12:19:14Z</time>
      </trkpt>
      <trkpt lat="49.92467" lon="2.24518">
        <ele>20.3</ele>
        <time>2023-05-19T12:19:16Z</time>
      </trkpt>
      <trkpt lat="49.92468" lon="2.24516">
        <ele>20.3</ele>
        <time>2023-05-19T12:19:17Z</time>
      </trkpt>
      <trkpt lat="49.92468" lon="2.24515">
        <ele>20.3</ele>
        <time>2023-05-19T12:19:18Z</time>
      </trkpt>
      <trkpt lat="49.92469" lon="2.24514">
        <ele>20.3</ele>
        <time>2023-05-19T12:19:19Z</time>
      </trkpt>
      <trkpt lat="49.9247" lon="2.24512">
        <ele>20.3</ele>
        <time>2023-05-19T12:19:21Z</time>
      </trkpt>
      <trkpt lat="49.92471" lon="2.24512">
        <ele>20.3</ele>
        <time>2023-05-19T12:19:22Z</time>
      </trkpt>
      <trkpt lat="49.92471" lon="2.24514">
        <ele>20.4</ele>
        <time>2023-05-19T12:19:23Z</time>
      </trkpt>
      <trkpt lat="49.92471" lon="2.24517">
        <ele>20.4</ele>
        <time>2023-05-19T12:19:24Z</time>
      </trkpt>
      <trkpt lat="49.92471" lon="2.24516">
        <ele>20.4</ele>
        <time>2023-05-19T12:19:25Z</time>
      </trkpt>
      <trkpt lat="49.92471" lon="2.24514">
        <ele>20.4</ele>
        <time>2023-05-19T12:19:26Z</time>
      </trkpt>
      <trkpt lat="49.92471" lon="2.24512">
        <ele>20.4</ele>
        <time>2023-05-19T12:19:27Z</time>
      </trkpt>
      <trkpt lat="49.9247" lon="2.2451">
        <ele>20.4</ele>
        <time>2023-05-19T12:19:28Z</time>
      </trkpt>
      <trkpt lat="49.9247" lon="2.24508">
        <ele>20.4</ele>
        <time>2023-05-19T12:19:30Z</time>
      </trkpt>
      <trkpt lat="49.9247" lon="2.24508">
        <ele>20.4</ele>
        <time>2023-05-19T12:19:31Z</time>
      </trkpt>
      <trkpt lat="49.92469" lon="2.24507">
        <ele>20.4</ele>
        <time>2023-05-19T12:19:32Z</time>
      </trkpt>
      <trkpt lat="49.92469" lon="2.24506">
        <ele>20.4</ele>
        <time>2023-05-19T12:19:33Z</time>
      </trkpt>
      <trkpt lat="49.9247" lon="2.24504">
        <ele>20.5</ele>
        <time>2023-05-19T12:19:34Z</time>
      </trkpt>
      <trkpt lat="49.9247" lon="2.24502">
        <ele>20.5</ele>
        <time>2023-05-19T12:19:35Z</time>
      </trkpt>
      <trkpt lat="49.92471" lon="2.245">
        <ele>20.5</ele>
        <time>2023-05-19T12:19:36Z</time>
      </trkpt>
      <trkpt lat="49.92471" lon="2.24498">
        <ele>20.5</ele>
        <time>2023-05-19T12:19:37Z</time>
      </trkpt>
      <trkpt lat="49.92472" lon="2.24496">
        <ele>20.5</ele>
        <time>2023-05-19T12:19:39Z</time>
      </trkpt>
      <trkpt lat="49.92472" lon="2.24495">
        <ele>20.5</ele>
        <time>2023-05-19T12:19:40Z</time>
      </trkpt>
      <trkpt lat="49.92472" lon="2.24494">
        <ele>20.5</ele>
        <time>2023-05-19T12:19:41Z</time>
      </trkpt>
      <trkpt lat="49.92473" lon="2.24493">
        <ele>20.5</ele>
        <time>2023-05-19T12:19:42Z</time>
      </trkpt>
      <trkpt lat="49.92473" lon="2.24492">
        <ele>20.5</ele>
        <time>2023-05-19T12:19:44Z</time>
      </trkpt>
      <trkpt lat="49.92473" lon="2.24491">
        <ele>20.6</ele>
        <time>2023-05-19T12:19:45Z</time>
      </trkpt>
      <trkpt lat="49.92474" lon="2.2449">
        <ele>20.6</ele>
        <time>2023-05-19T12:19:46Z</time>
      </trkpt>
      <trkpt lat="49.92475" lon="2.24487">
        <ele>20.6</ele>
        <time>2023-05-19T12:19:47Z</time>
      </trkpt>
      <trkpt lat="49.92475" lon="2.24485">
        <ele>20.6</ele>
        <time>2023-05-19T12:19:48Z</time>
      </trkpt>
      <trkpt lat="49.92475" lon="2.24484">
        <ele>20.6</ele>
        <time>2023-05-19T12:19:49Z</time>
      </trkpt>
      <trkpt lat="49.92477" lon="2.2448">
        <ele>20.7</ele>
        <time>2023-05-19T12:19:50Z</time>
      </trkpt>
      <trkpt lat="49.92477" lon="2.24478">
        <ele>20.7</ele>
        <time>2023-05-19T12:19:51Z</time>
      </trkpt>
      <trkpt lat="49.92479" lon="2.24474">
        <ele>20.7</ele>
        <time>2023-05-19T12:19:53Z</time>
      </trkpt>
      <trkpt lat="49.9248" lon="2.24471">
        <ele>20.8</ele>
        <time>2023-05-19T12:19:54Z</time>
      </trkpt>
      <trkpt lat="49.9248" lon="2.24468">
        <ele>20.8</ele>
        <time>2023-05-19T12:19:56Z</time>
      </trkpt>
      <trkpt lat="49.92481" lon="2.24465">
        <ele>20.8</ele>
        <time>2023-05-19T12:19:57Z</time>
      </trkpt>
      <trkpt lat="49.92481" lon="2.24463">
        <ele>20.8</ele>
        <time>2023-05-19T12:19:58Z</time>
      </trkpt>
      <trkpt lat="49.92482" lon="2.2446">
        <ele>20.9</ele>
        <time>2023-05-19T12:19:59Z</time>
      </trkpt>
      <trkpt lat="49.92482" lon="2.24459">
        <ele>20.9</ele>
        <time>2023-05-19T12:20:00Z</time>
      </trkpt>
      <trkpt lat="49.92482" lon="2.24457">
        <ele>20.9</ele>
        <time>2023-05-19T12:20:01Z</time>
      </trkpt>
      <trkpt lat="49.92483" lon="2.24455">
        <ele>20.9</ele>
        <time>2023-05-19T12:20:02Z</time>
      </trkpt>
      <trkpt lat="49.92484" lon="2.24452">
        <ele>20.9</ele>
        <time>2023-05-19T12:20:04Z</time>
      </trkpt>
      <trkpt lat="49.92485" lon="2.24451">
        <ele>21</ele>
        <time>2023-05-19T12:20:05Z</time>
      </trkpt>
      <trkpt lat="49.92485" lon="2.24449">
        <ele>21</ele>
        <time>2023-05-19T12:20:06Z</time>
      </trkpt>
      <trkpt lat="49.92486" lon="2.24446">
        <ele>21</ele>
        <time>2023-05-19T12:20:08Z</time>
      </trkpt>
      <trkpt lat="49.92487" lon="2.24445">
        <ele>21</ele>
        <time>2023-05-19T12:20:09Z</time>
      </trkpt>
      <trkpt lat="49.92487" lon="2.24443">
        <ele>21</ele>
        <time>2023-05-19T12:20:10Z</time>
      </trkpt>
      <trkpt lat="49.92488" lon="2.24442">
        <ele>21</ele>
        <time>2023-05-19T12:20:11Z</time>
      </trkpt>
      <trkpt lat="49.92488" lon="2.2444">
        <ele>21.1</ele>
        <time>2023-05-19T12:20:12Z</time>
      </trkpt>
      <trkpt lat="49.92489" lon="2.24439">
        <ele>21.1</ele>
        <time>2023-05-19T12:20:13Z</time>
      </trkpt>
      <trkpt lat="49.92489" lon="2.24437">
        <ele>21.1</ele>
        <time>2023-05-19T12:20:14Z</time>
      </trkpt>
      <trkpt lat="49.9249" lon="2.24435">
        <ele>21.1</ele>
        <time>2023-05-19T12:20:15Z</time>
      </trkpt>
      <trkpt lat="49.92491" lon="2.24433">
        <ele>21.1</ele>
        <time>2023-05-19T12:20:17Z</time>
      </trkpt>
      <trkpt lat="49.92492" lon="2.24431">
        <ele>21.2</ele>
        <time>2023-05-19T12:20:18Z</time>
      </trkpt>
      <trkpt lat="49.92493" lon="2.2443">
        <ele>21.2</ele>
        <time>2023-05-19T12:20:19Z</time>
      </trkpt>
      <trkpt lat="49.92493" lon="2.24428">
        <ele>21.2</ele>
        <time>2023-05-19T12:20:20Z</time>
      </trkpt>
      <trkpt lat="49.92494" lon="2.24426">
        <ele>21.2</ele>
        <time>2023-05-19T12:20:22Z</time>
      </trkpt>
      <trkpt lat="49.92495" lon="2.24425">
        <ele>21.2</ele>
        <time>2023-05-19T12:20:23Z</time>
      </trkpt>
      <trkpt lat="49.92496" lon="2.24424">
        <ele>21.3</ele>
        <time>2023-05-19T12:20:24Z</time>
      </trkpt>
      <trkpt lat="49.92498" lon="2.24422">
        <ele>21.3</ele>
        <time>2023-05-19T12:20:25Z</time>
      </trkpt>
      <trkpt lat="49.92499" lon="2.2442">
        <ele>21.3</ele>
        <time>2023-05-19T12:20:27Z</time>
      </trkpt>
      <trkpt lat="49.925" lon="2.24419">
        <ele>21.3</ele>
        <time>2023-05-19T12:20:28Z</time>
      </trkpt>
      <trkpt lat="49.92501" lon="2.24416">
        <ele>21.3</ele>
        <time>2023-05-19T12:20:29Z</time>
      </trkpt>
      <trkpt lat="49.92502" lon="2.24415">
        <ele>21.4</ele>
        <time>2023-05-19T12:20:30Z</time>
      </trkpt>
      <trkpt lat="49.92502" lon="2.24414">
        <ele>21.4</ele>
        <time>2023-05-19T12:20:31Z</time>
      </trkpt>
      <trkpt lat="49.92503" lon="2.24413">
        <ele>21.4</ele>
        <time>2023-05-19T12:20:32Z</time>
      </trkpt>
      <trkpt lat="49.92504" lon="2.2441">
        <ele>21.4</ele>
        <time>2023-05-19T12:20:33Z</time>
      </trkpt>
      <trkpt lat="49.92504" lon="2.24408">
        <ele>21.4</ele>
        <time>2023-05-19T12:20:34Z</time>
      </trkpt>
      <trkpt lat="49.92505" lon="2.24406">
        <ele>21.4</ele>
        <time>2023-05-19T12:20:35Z</time>
      </trkpt>
      <trkpt lat="49.92506" lon="2.24404">
        <ele>21.4</ele>
        <time>2023-05-19T12:20:36Z</time>
      </trkpt>
      <trkpt lat="49.92507" lon="2.24401">
        <ele>21.4</ele>
        <time>2023-05-19T12:20:38Z</time>
      </trkpt>
      <trkpt lat="49.92508" lon="2.24398">
        <ele>21.5</ele>
        <time>2023-05-19T12:20:39Z</time>
      </trkpt>
      <trkpt lat="49.92508" lon="2.24397">
        <ele>21.5</ele>
        <time>2023-05-19T12:20:40Z</time>
      </trkpt>
      <trkpt lat="49.92509" lon="2.24395">
        <ele>21.5</ele>
        <time>2023-05-19T12:20:41Z</time>
      </trkpt>
      <trkpt lat="49.9251" lon="2.24393">
        <ele>21.5</ele>
        <time>2023-05-19T12:20:42Z</time>
      </trkpt>
      <trkpt lat="49.9251" lon="2.24391">
        <ele>21.5</ele>
        <time>2023-05-19T12:20:43Z</time>
      </trkpt>
      <trkpt lat="49.92511" lon="2.24389">
        <ele>21.5</ele>
        <time>2023-05-19T12:20:44Z</time>
      </trkpt>
      <trkpt lat="49.92512" lon="2.24388">
        <ele>21.5</ele>
        <time>2023-05-19T12:20:45Z</time>
      </trkpt>
      <trkpt lat="49.92512" lon="2.24386">
        <ele>21.5</ele>
        <time>2023-05-19T12:20:46Z</time>
      </trkpt>
      <trkpt lat="49.92513" lon="2.24385">
        <ele>21.5</ele>
        <time>2023-05-19T12:20:47Z</time>
      </trkpt>
      <trkpt lat="49.92514" lon="2.24383">
        <ele>21.5</ele>
        <time>2023-05-19T12:20:48Z</time>
      </trkpt>
      <trkpt lat="49.92515" lon="2.24381">
        <ele>21.5</ele>
        <time>2023-05-19T12:20:50Z</time>
      </trkpt>
      <trkpt lat="49.92515" lon="2.2438">
        <ele>21.5</ele>
        <time>2023-05-19T12:20:51Z</time>
      </trkpt>
      <trkpt lat="49.92516" lon="2.24379">
        <ele>21.6</ele>
        <time>2023-05-19T12:20:52Z</time>
      </trkpt>
      <trkpt lat="49.92516" lon="2.24377">
        <ele>21.6</ele>
        <time>2023-05-19T12:20:53Z</time>
      </trkpt>
      <trkpt lat="49.92518" lon="2.24372">
        <ele>21.6</ele>
        <time>2023-05-19T12:20:55Z</time>
      </trkpt>
      <trkpt lat="49.92519" lon="2.24372">
        <ele>21.6</ele>
        <time>2023-05-19T12:20:56Z</time>
      </trkpt>
      <trkpt lat="49.92519" lon="2.24369">
        <ele>21.6</ele>
        <time>2023-05-19T12:20:57Z</time>
      </trkpt>
      <trkpt lat="49.9252" lon="2.24367">
        <ele>21.5</ele>
        <time>2023-05-19T12:20:59Z</time>
      </trkpt>
      <trkpt lat="49.92521" lon="2.24365">
        <ele>21.5</ele>
        <time>2023-05-19T12:21:00Z</time>
      </trkpt>
      <trkpt lat="49.92522" lon="2.24364">
        <ele>21.5</ele>
        <time>2023-05-19T12:21:01Z</time>
      </trkpt>
      <trkpt lat="49.92523" lon="2.24363">
        <ele>21.5</ele>
        <time>2023-05-19T12:21:02Z</time>
      </trkpt>
      <trkpt lat="49.92523" lon="2.24361">
        <ele>21.5</ele>
        <time>2023-05-19T12:21:03Z</time>
      </trkpt>
      <trkpt lat="49.92524" lon="2.24359">
        <ele>21.5</ele>
        <time>2023-05-19T12:21:04Z</time>
      </trkpt>
      <trkpt lat="49.92524" lon="2.24358">
        <ele>21.5</ele>
        <time>2023-05-19T12:21:05Z</time>
      </trkpt>
      <trkpt lat="49.92524" lon="2.24357">
        <ele>21.5</ele>
        <time>2023-05-19T12:21:06Z</time>
      </trkpt>
      <trkpt lat="49.92525" lon="2.24355">
        <ele>21.5</ele>
        <time>2023-05-19T12:21:08Z</time>
      </trkpt>
      <trkpt lat="49.92525" lon="2.24353">
        <ele>21.5</ele>
        <time>2023-05-19T12:21:09Z</time>
      </trkpt>
      <trkpt lat="49.92525" lon="2.24352">
        <ele>21.5</ele>
        <time>2023-05-19T12:21:10Z</time>
      </trkpt>
      <trkpt lat="49.92525" lon="2.2435">
        <ele>21.4</ele>
        <time>2023-05-19T12:21:11Z</time>
      </trkpt>
      <trkpt lat="49.92525" lon="2.24349">
        <ele>21.4</ele>
        <time>2023-05-19T12:21:12Z</time>
      </trkpt>
      <trkpt lat="49.92525" lon="2.24348">
        <ele>21.4</ele>
        <time>2023-05-19T12:21:13Z</time>
      </trkpt>
      <trkpt lat="49.92524" lon="2.24346">
        <ele>21.4</ele>
        <time>2023-05-19T12:21:14Z</time>
      </trkpt>
      <trkpt lat="49.92525" lon="2.24343">
        <ele>21.4</ele>
        <time>2023-05-19T12:21:16Z</time>
      </trkpt>
      <trkpt lat="49.92525" lon="2.24341">
        <ele>21.4</ele>
        <time>2023-05-19T12:21:17Z</time>
      </trkpt>
      <trkpt lat="49.92526" lon="2.24339">
        <ele>21.3</ele>
        <time>2023-05-19T12:21:18Z</time>
      </trkpt>
      <trkpt lat="49.92526" lon="2.24337">
        <ele>21.3</ele>
        <time>2023-05-19T12:21:19Z</time>
      </trkpt>
      <trkpt lat="49.92526" lon="2.24335">
        <ele>21.3</ele>
        <time>2023-05-19T12:21:20Z</time>
      </trkpt>
      <trkpt lat="49.92526" lon="2.24333">
        <ele>21.3</ele>
        <time>2023-05-19T12:21:21Z</time>
      </trkpt>
      <trkpt lat="49.92526" lon="2.24331">
        <ele>21.3</ele>
        <time>2023-05-19T12:21:22Z</time>
      </trkpt>
      <trkpt lat="49.92526" lon="2.24329">
        <ele>21.2</ele>
        <time>2023-05-19T12:21:23Z</time>
      </trkpt>
      <trkpt lat="49.92526" lon="2.24327">
        <ele>21.2</ele>
        <time>2023-05-19T12:21:24Z</time>
      </trkpt>
      <trkpt lat="49.92527" lon="2.24325">
        <ele>21.2</ele>
        <time>2023-05-19T12:21:26Z</time>
      </trkpt>
      <trkpt lat="49.92527" lon="2.24323">
        <ele>21.2</ele>
        <time>2023-05-19T12:21:27Z</time>
      </trkpt>
      <trkpt lat="49.92527" lon="2.24322">
        <ele>21.2</ele>
        <time>2023-05-19T12:21:28Z</time>
      </trkpt>
      <trkpt lat="49.92527" lon="2.2432">
        <ele>21.2</ele>
        <time>2023-05-19T12:21:29Z</time>
      </trkpt>
      <trkpt lat="49.92528" lon="2.24316">
        <ele>21.1</ele>
        <time>2023-05-19T12:21:30Z</time>
      </trkpt>
      <trkpt lat="49.92528" lon="2.24315">
        <ele>21.1</ele>
        <time>2023-05-19T12:21:32Z</time>
      </trkpt>
      <trkpt lat="49.92529" lon="2.24313">
        <ele>21.1</ele>
        <time>2023-05-19T12:21:33Z</time>
      </trkpt>
      <trkpt lat="49.92529" lon="2.24311">
        <ele>21.1</ele>
        <time>2023-05-19T12:21:34Z</time>
      </trkpt>
      <trkpt lat="49.92529" lon="2.2431">
        <ele>21.1</ele>
        <time>2023-05-19T12:21:35Z</time>
      </trkpt>
      <trkpt lat="49.92529" lon="2.24307">
        <ele>21</ele>
        <time>2023-05-19T12:21:36Z</time>
      </trkpt>
      <trkpt lat="49.9253" lon="2.24305">
        <ele>21</ele>
        <time>2023-05-19T12:21:37Z</time>
      </trkpt>
      <trkpt lat="49.9253" lon="2.24303">
        <ele>21</ele>
        <time>2023-05-19T12:21:38Z</time>
      </trkpt>
      <trkpt lat="49.92531" lon="2.243">
        <ele>20.9</ele>
        <time>2023-05-19T12:21:40Z</time>
      </trkpt>
      <trkpt lat="49.92532" lon="2.24297">
        <ele>20.9</ele>
        <time>2023-05-19T12:21:42Z</time>
      </trkpt>
      <trkpt lat="49.92533" lon="2.24295">
        <ele>20.9</ele>
        <time>2023-05-19T12:21:43Z</time>
      </trkpt>
      <trkpt lat="49.92534" lon="2.24293">
        <ele>20.9</ele>
        <time>2023-05-19T12:21:44Z</time>
      </trkpt>
      <trkpt lat="49.92535" lon="2.24291">
        <ele>20.8</ele>
        <time>2023-05-19T12:21:45Z</time>
      </trkpt>
      <trkpt lat="49.92535" lon="2.2429">
        <ele>20.8</ele>
        <time>2023-05-19T12:21:46Z</time>
      </trkpt>
      <trkpt lat="49.92536" lon="2.24288">
        <ele>20.8</ele>
        <time>2023-05-19T12:21:47Z</time>
      </trkpt>
      <trkpt lat="49.92537" lon="2.24286">
        <ele>20.8</ele>
        <time>2023-05-19T12:21:49Z</time>
      </trkpt>
      <trkpt lat="49.92538" lon="2.24283">
        <ele>20.7</ele>
        <time>2023-05-19T12:21:50Z</time>
      </trkpt>
      <trkpt lat="49.92538" lon="2.24281">
        <ele>20.7</ele>
        <time>2023-05-19T12:21:51Z</time>
      </trkpt>
      <trkpt lat="49.92538" lon="2.2428">
        <ele>20.7</ele>
        <time>2023-05-19T12:21:52Z</time>
      </trkpt>
      <trkpt lat="49.92539" lon="2.24278">
        <ele>20.7</ele>
        <time>2023-05-19T12:21:54Z</time>
      </trkpt>
      <trkpt lat="49.92539" lon="2.24276">
        <ele>20.7</ele>
        <time>2023-05-19T12:21:55Z</time>
      </trkpt>
      <trkpt lat="49.9254" lon="2.24275">
        <ele>20.6</ele>
        <time>2023-05-19T12:21:56Z</time>
      </trkpt>
      <trkpt lat="49.92541" lon="2.24273">
        <ele>20.6</ele>
        <time>2023-05-19T12:21:57Z</time>
      </trkpt>
      <trkpt lat="49.92541" lon="2.24272">
        <ele>20.6</ele>
        <time>2023-05-19T12:21:58Z</time>
      </trkpt>
      <trkpt lat="49.92542" lon="2.2427">
        <ele>20.6</ele>
        <time>2023-05-19T12:21:59Z</time>
      </trkpt>
      <trkpt lat="49.92543" lon="2.24269">
        <ele>20.6</ele>
        <time>2023-05-19T12:22:00Z</time>
      </trkpt>
      <trkpt lat="49.92544" lon="2.24268">
        <ele>20.6</ele>
        <time>2023-05-19T12:22:01Z</time>
      </trkpt>
      <trkpt lat="49.92544" lon="2.24266">
        <ele>20.6</ele>
        <time>2023-05-19T12:22:03Z</time>
      </trkpt>
      <trkpt lat="49.92545" lon="2.24266">
        <ele>20.6</ele>
        <time>2023-05-19T12:22:04Z</time>
      </trkpt>
      <trkpt lat="49.92545" lon="2.24266">
        <ele>20.6</ele>
        <time>2023-05-19T12:22:05Z</time>
      </trkpt>
      <trkpt lat="49.92545" lon="2.24265">
        <ele>20.5</ele>
        <time>2023-05-19T12:22:06Z</time>
      </trkpt>
      <trkpt lat="49.92545" lon="2.24263">
        <ele>20.5</ele>
        <time>2023-05-19T12:22:07Z</time>
      </trkpt>
      <trkpt lat="49.92546" lon="2.2426">
        <ele>20.5</ele>
        <time>2023-05-19T12:22:08Z</time>
      </trkpt>
      <trkpt lat="49.92547" lon="2.24259">
        <ele>20.5</ele>
        <time>2023-05-19T12:22:09Z</time>
      </trkpt>
      <trkpt lat="49.92547" lon="2.24257">
        <ele>20.5</ele>
        <time>2023-05-19T12:22:10Z</time>
      </trkpt>
      <trkpt lat="49.92548" lon="2.24255">
        <ele>20.5</ele>
        <time>2023-05-19T12:22:11Z</time>
      </trkpt>
      <trkpt lat="49.92548" lon="2.24253">
        <ele>20.5</ele>
        <time>2023-05-19T12:22:13Z</time>
      </trkpt>
      <trkpt lat="49.92549" lon="2.24251">
        <ele>20.4</ele>
        <time>2023-05-19T12:22:14Z</time>
      </trkpt>
      <trkpt lat="49.92549" lon="2.2425">
        <ele>20.4</ele>
        <time>2023-05-19T12:22:15Z</time>
      </trkpt>
      <trkpt lat="49.92549" lon="2.24248">
        <ele>20.4</ele>
        <time>2023-05-19T12:22:16Z</time>
      </trkpt>
      <trkpt lat="49.92549" lon="2.24245">
        <ele>20.4</ele>
        <time>2023-05-19T12:22:18Z</time>
      </trkpt>
      <trkpt lat="49.9255" lon="2.24243">
        <ele>20.4</ele>
        <time>2023-05-19T12:22:19Z</time>
      </trkpt>
      <trkpt lat="49.9255" lon="2.24239">
        <ele>20.4</ele>
        <time>2023-05-19T12:22:20Z</time>
      </trkpt>
      <trkpt lat="49.9255" lon="2.24238">
        <ele>20.4</ele>
        <time>2023-05-19T12:22:21Z</time>
      </trkpt>
      <trkpt lat="49.9255" lon="2.24236">
        <ele>20.4</ele>
        <time>2023-05-19T12:22:22Z</time>
      </trkpt>
      <trkpt lat="49.9255" lon="2.24234">
        <ele>20.4</ele>
        <time>2023-05-19T12:22:24Z</time>
      </trkpt>
      <trkpt lat="49.9255" lon="2.24232">
        <ele>20.4</ele>
        <time>2023-05-19T12:22:25Z</time>
      </trkpt>
      <trkpt lat="49.9255" lon="2.2423">
        <ele>20.4</ele>
        <time>2023-05-19T12:22:26Z</time>
      </trkpt>
      <trkpt lat="49.9255" lon="2.24227">
        <ele>20.3</ele>
        <time>2023-05-19T12:22:27Z</time>
      </trkpt>
      <trkpt lat="49.92549" lon="2.24224">
        <ele>20.3</ele>
        <time>2023-05-19T12:22:28Z</time>
      </trkpt>
      <trkpt lat="49.92549" lon="2.24222">
        <ele>20.3</ele>
        <time>2023-05-19T12:22:29Z</time>
      </trkpt>
      <trkpt lat="49.92549" lon="2.24221">
        <ele>20.3</ele>
        <time>2023-05-19T12:22:30Z</time>
      </trkpt>
      <trkpt lat="49.92549" lon="2.24218">
        <ele>20.3</ele>
        <time>2023-05-19T12:22:31Z</time>
      </trkpt>
      <trkpt lat="49.9255" lon="2.24216">
        <ele>20.3</ele>
        <time>2023-05-19T12:22:32Z</time>
      </trkpt>
      <trkpt lat="49.9255" lon="2.24214">
        <ele>20.3</ele>
        <time>2023-05-19T12:22:34Z</time>
      </trkpt>
      <trkpt lat="49.9255" lon="2.24211">
        <ele>20.3</ele>
        <time>2023-05-19T12:22:35Z</time>
      </trkpt>
      <trkpt lat="49.92551" lon="2.24209">
        <ele>20.2</ele>
        <time>2023-05-19T12:22:36Z</time>
      </trkpt>
      <trkpt lat="49.92551" lon="2.24207">
        <ele>20.2</ele>
        <time>2023-05-19T12:22:37Z</time>
      </trkpt>
      <trkpt lat="49.92552" lon="2.24206">
        <ele>20.2</ele>
        <time>2023-05-19T12:22:38Z</time>
      </trkpt>
      <trkpt lat="49.92552" lon="2.24204">
        <ele>20.2</ele>
        <time>2023-05-19T12:22:39Z</time>
      </trkpt>
      <trkpt lat="49.92553" lon="2.24202">
        <ele>20.2</ele>
        <time>2023-05-19T12:22:40Z</time>
      </trkpt>
      <trkpt lat="49.92554" lon="2.24201">
        <ele>20.2</ele>
        <time>2023-05-19T12:22:41Z</time>
      </trkpt>
      <trkpt lat="49.92554" lon="2.24199">
        <ele>20.2</ele>
        <time>2023-05-19T12:22:42Z</time>
      </trkpt>
      <trkpt lat="49.92555" lon="2.24197">
        <ele>20.1</ele>
        <time>2023-05-19T12:22:44Z</time>
      </trkpt>
      <trkpt lat="49.92555" lon="2.24195">
        <ele>20.1</ele>
        <time>2023-05-19T12:22:45Z</time>
      </trkpt>
      <trkpt lat="49.92555" lon="2.24193">
        <ele>20.1</ele>
        <time>2023-05-19T12:22:46Z</time>
      </trkpt>
      <trkpt lat="49.92556" lon="2.24192">
        <ele>20.1</ele>
        <time>2023-05-19T12:22:47Z</time>
      </trkpt>
      <trkpt lat="49.92555" lon="2.24191">
        <ele>20.1</ele>
        <time>2023-05-19T12:22:48Z</time>
      </trkpt>
      <trkpt lat="49.92556" lon="2.24191">
        <ele>20.1</ele>
        <time>2023-05-19T12:22:49Z</time>
      </trkpt>
      <trkpt lat="49.92556" lon="2.2419">
        <ele>20.1</ele>
        <time>2023-05-19T12:22:50Z</time>
      </trkpt>
      <trkpt lat="49.92556" lon="2.24189">
        <ele>20.1</ele>
        <time>2023-05-19T12:22:52Z</time>
      </trkpt>
      <trkpt lat="49.92557" lon="2.24189">
        <ele>20.1</ele>
        <time>2023-05-19T12:22:53Z</time>
      </trkpt>
      <trkpt lat="49.92558" lon="2.24188">
        <ele>20.1</ele>
        <time>2023-05-19T12:22:54Z</time>
      </trkpt>
      <trkpt lat="49.92558" lon="2.24187">
        <ele>20</ele>
        <time>2023-05-19T12:22:55Z</time>
      </trkpt>
      <trkpt lat="49.92559" lon="2.24186">
        <ele>20</ele>
        <time>2023-05-19T12:22:56Z</time>
      </trkpt>
      <trkpt lat="49.92559" lon="2.24185">
        <ele>20</ele>
        <time>2023-05-19T12:22:57Z</time>
      </trkpt>
      <trkpt lat="49.92559" lon="2.24184">
        <ele>20</ele>
        <time>2023-05-19T12:22:58Z</time>
      </trkpt>
      <trkpt lat="49.92559" lon="2.24181">
        <ele>20</ele>
        <time>2023-05-19T12:22:59Z</time>
      </trkpt>
      <trkpt lat="49.9256" lon="2.2418">
        <ele>20</ele>
        <time>2023-05-19T12:23:01Z</time>
      </trkpt>
      <trkpt lat="49.9256" lon="2.24178">
        <ele>20</ele>
        <time>2023-05-19T12:23:02Z</time>
      </trkpt>
      <trkpt lat="49.92561" lon="2.24175">
        <ele>19.9</ele>
        <time>2023-05-19T12:23:03Z</time>
      </trkpt>
      <trkpt lat="49.92561" lon="2.24174">
        <ele>19.9</ele>
        <time>2023-05-19T12:23:04Z</time>
      </trkpt>
      <trkpt lat="49.92561" lon="2.24173">
        <ele>19.9</ele>
        <time>2023-05-19T12:23:05Z</time>
      </trkpt>
      <trkpt lat="49.9256" lon="2.24168">
        <ele>19.9</ele>
        <time>2023-05-19T12:23:06Z</time>
      </trkpt>
      <trkpt lat="49.9256" lon="2.24166">
        <ele>19.9</ele>
        <time>2023-05-19T12:23:08Z</time>
      </trkpt>
      <trkpt lat="49.9256" lon="2.24164">
        <ele>19.9</ele>
        <time>2023-05-19T12:23:10Z</time>
      </trkpt>
      <trkpt lat="49.9256" lon="2.24162">
        <ele>19.8</ele>
        <time>2023-05-19T12:23:11Z</time>
      </trkpt>
      <trkpt lat="49.9256" lon="2.2416">
        <ele>19.8</ele>
        <time>2023-05-19T12:23:12Z</time>
      </trkpt>
      <trkpt lat="49.9256" lon="2.24157">
        <ele>19.8</ele>
        <time>2023-05-19T12:23:13Z</time>
      </trkpt>
      <trkpt lat="49.92561" lon="2.24153">
        <ele>19.8</ele>
        <time>2023-05-19T12:23:15Z</time>
      </trkpt>
      <trkpt lat="49.92561" lon="2.24152">
        <ele>19.7</ele>
        <time>2023-05-19T12:23:16Z</time>
      </trkpt>
      <trkpt lat="49.92561" lon="2.24149">
        <ele>19.7</ele>
        <time>2023-05-19T12:23:17Z</time>
      </trkpt>
      <trkpt lat="49.92561" lon="2.24147">
        <ele>19.7</ele>
        <time>2023-05-19T12:23:19Z</time>
      </trkpt>
      <trkpt lat="49.92562" lon="2.24144">
        <ele>19.7</ele>
        <time>2023-05-19T12:23:20Z</time>
      </trkpt>
      <trkpt lat="49.92562" lon="2.24142">
        <ele>19.7</ele>
        <time>2023-05-19T12:23:21Z</time>
      </trkpt>
      <trkpt lat="49.92562" lon="2.24139">
        <ele>19.6</ele>
        <time>2023-05-19T12:23:22Z</time>
      </trkpt>
      <trkpt lat="49.92563" lon="2.24138">
        <ele>19.6</ele>
        <time>2023-05-19T12:23:23Z</time>
      </trkpt>
      <trkpt lat="49.92563" lon="2.24136">
        <ele>19.6</ele>
        <time>2023-05-19T12:23:24Z</time>
      </trkpt>
      <trkpt lat="49.92563" lon="2.24134">
        <ele>19.6</ele>
        <time>2023-05-19T12:23:25Z</time>
      </trkpt>
      <trkpt lat="49.92563" lon="2.24132">
        <ele>19.6</ele>
        <time>2023-05-19T12:23:27Z</time>
      </trkpt>
      <trkpt lat="49.92564" lon="2.24129">
        <ele>19.5</ele>
        <time>2023-05-19T12:23:28Z</time>
      </trkpt>
      <trkpt lat="49.92564" lon="2.24128">
        <ele>19.5</ele>
        <time>2023-05-19T12:23:29Z</time>
      </trkpt>
      <trkpt lat="49.92564" lon="2.24125">
        <ele>19.5</ele>
        <time>2023-05-19T12:23:30Z</time>
      </trkpt>
      <trkpt lat="49.92565" lon="2.24122">
        <ele>19.5</ele>
        <time>2023-05-19T12:23:32Z</time>
      </trkpt>
      <trkpt lat="49.92565" lon="2.2412">
        <ele>19.4</ele>
        <time>2023-05-19T12:23:33Z</time>
      </trkpt>
      <trkpt lat="49.92565" lon="2.24118">
        <ele>19.4</ele>
        <time>2023-05-19T12:23:34Z</time>
      </trkpt>
      <trkpt lat="49.92566" lon="2.24116">
        <ele>19.4</ele>
        <time>2023-05-19T12:23:36Z</time>
      </trkpt>
      <trkpt lat="49.92566" lon="2.24114">
        <ele>19.4</ele>
        <time>2023-05-19T12:23:37Z</time>
      </trkpt>
      <trkpt lat="49.92567" lon="2.24112">
        <ele>19.4</ele>
        <time>2023-05-19T12:23:38Z</time>
      </trkpt>
      <trkpt lat="49.92568" lon="2.24111">
        <ele>19.4</ele>
        <time>2023-05-19T12:23:39Z</time>
      </trkpt>
      <trkpt lat="49.92569" lon="2.2411">
        <ele>19.4</ele>
        <time>2023-05-19T12:23:40Z</time>
      </trkpt>
      <trkpt lat="49.92569" lon="2.24108">
        <ele>19.3</ele>
        <time>2023-05-19T12:23:41Z</time>
      </trkpt>
      <trkpt lat="49.9257" lon="2.24106">
        <ele>19.3</ele>
        <time>2023-05-19T12:23:43Z</time>
      </trkpt>
      <trkpt lat="49.92571" lon="2.24104">
        <ele>19.3</ele>
        <time>2023-05-19T12:23:44Z</time>
      </trkpt>
      <trkpt lat="49.92571" lon="2.24101">
        <ele>19.3</ele>
        <time>2023-05-19T12:23:45Z</time>
      </trkpt>
      <trkpt lat="49.92572" lon="2.241">
        <ele>19.3</ele>
        <time>2023-05-19T12:23:46Z</time>
      </trkpt>
      <trkpt lat="49.92572" lon="2.24099">
        <ele>19.3</ele>
        <time>2023-05-19T12:23:47Z</time>
      </trkpt>
      <trkpt lat="49.92572" lon="2.24096">
        <ele>19.3</ele>
        <time>2023-05-19T12:23:48Z</time>
      </trkpt>
      <trkpt lat="49.92572" lon="2.24094">
        <ele>19.3</ele>
        <time>2023-05-19T12:23:50Z</time>
      </trkpt>
      <trkpt lat="49.92572" lon="2.24091">
        <ele>19.3</ele>
        <time>2023-05-19T12:23:51Z</time>
      </trkpt>
      <trkpt lat="49.92572" lon="2.24089">
        <ele>19.3</ele>
        <time>2023-05-19T12:23:52Z</time>
      </trkpt>
      <trkpt lat="49.92573" lon="2.24086">
        <ele>19.3</ele>
        <time>2023-05-19T12:23:53Z</time>
      </trkpt>
      <trkpt lat="49.92572" lon="2.24085">
        <ele>19.3</ele>
        <time>2023-05-19T12:23:54Z</time>
      </trkpt>
      <trkpt lat="49.92572" lon="2.24083">
        <ele>19.3</ele>
        <time>2023-05-19T12:23:55Z</time>
      </trkpt>
      <trkpt lat="49.92572" lon="2.24081">
        <ele>19.3</ele>
        <time>2023-05-19T12:23:57Z</time>
      </trkpt>
      <trkpt lat="49.92572" lon="2.24079">
        <ele>19.3</ele>
        <time>2023-05-19T12:23:58Z</time>
      </trkpt>
      <trkpt lat="49.92573" lon="2.24077">
        <ele>19.3</ele>
        <time>2023-05-19T12:23:59Z</time>
      </trkpt>
      <trkpt lat="49.92573" lon="2.24074">
        <ele>19.3</ele>
        <time>2023-05-19T12:24:00Z</time>
      </trkpt>
      <trkpt lat="49.92573" lon="2.24072">
        <ele>19.3</ele>
        <time>2023-05-19T12:24:01Z</time>
      </trkpt>
      <trkpt lat="49.92573" lon="2.24071">
        <ele>19.3</ele>
        <time>2023-05-19T12:24:02Z</time>
      </trkpt>
      <trkpt lat="49.92573" lon="2.24068">
        <ele>19.3</ele>
        <time>2023-05-19T12:24:04Z</time>
      </trkpt>
      <trkpt lat="49.92573" lon="2.24066">
        <ele>19.3</ele>
        <time>2023-05-19T12:24:05Z</time>
      </trkpt>
      <trkpt lat="49.92574" lon="2.24064">
        <ele>19.3</ele>
        <time>2023-05-19T12:24:06Z</time>
      </trkpt>
      <trkpt lat="49.92574" lon="2.24062">
        <ele>19.3</ele>
        <time>2023-05-19T12:24:07Z</time>
      </trkpt>
      <trkpt lat="49.92575" lon="2.2406">
        <ele>19.3</ele>
        <time>2023-05-19T12:24:08Z</time>
      </trkpt>
      <trkpt lat="49.92576" lon="2.24058">
        <ele>19.3</ele>
        <time>2023-05-19T12:24:09Z</time>
      </trkpt>
      <trkpt lat="49.92576" lon="2.24056">
        <ele>19.4</ele>
        <time>2023-05-19T12:24:10Z</time>
      </trkpt>
      <trkpt lat="49.92577" lon="2.24054">
        <ele>19.4</ele>
        <time>2023-05-19T12:24:11Z</time>
      </trkpt>
      <trkpt lat="49.92578" lon="2.24052">
        <ele>19.4</ele>
        <time>2023-05-19T12:24:12Z</time>
      </trkpt>
      <trkpt lat="49.92578" lon="2.24051">
        <ele>19.4</ele>
        <time>2023-05-19T12:24:14Z</time>
      </trkpt>
      <trkpt lat="49.92579" lon="2.24049">
        <ele>19.4</ele>
        <time>2023-05-19T12:24:15Z</time>
      </trkpt>
      <trkpt lat="49.92579" lon="2.24048">
        <ele>19.4</ele>
        <time>2023-05-19T12:24:16Z</time>
      </trkpt>
      <trkpt lat="49.9258" lon="2.24047">
        <ele>19.5</ele>
        <time>2023-05-19T12:24:17Z</time>
      </trkpt>
      <trkpt lat="49.92581" lon="2.24045">
        <ele>19.5</ele>
        <time>2023-05-19T12:24:18Z</time>
      </trkpt>
      <trkpt lat="49.92581" lon="2.24044">
        <ele>19.5</ele>
        <time>2023-05-19T12:24:19Z</time>
      </trkpt>
      <trkpt lat="49.92583" lon="2.24042">
        <ele>19.5</ele>
        <time>2023-05-19T12:24:20Z</time>
      </trkpt>
      <trkpt lat="49.92583" lon="2.24041">
        <ele>19.5</ele>
        <time>2023-05-19T12:24:22Z</time>
      </trkpt>
      <trkpt lat="49.92584" lon="2.2404">
        <ele>19.6</ele>
        <time>2023-05-19T12:24:23Z</time>
      </trkpt>
      <trkpt lat="49.92585" lon="2.24038">
        <ele>19.6</ele>
        <time>2023-05-19T12:24:25Z</time>
      </trkpt>
      <trkpt lat="49.92586" lon="2.24036">
        <ele>19.6</ele>
        <time>2023-05-19T12:24:26Z</time>
      </trkpt>
      <trkpt lat="49.92587" lon="2.24034">
        <ele>19.7</ele>
        <time>2023-05-19T12:24:27Z</time>
      </trkpt>
      <trkpt lat="49.92588" lon="2.24032">
        <ele>19.7</ele>
        <time>2023-05-19T12:24:28Z</time>
      </trkpt>
      <trkpt lat="49.92588" lon="2.24031">
        <ele>19.7</ele>
        <time>2023-05-19T12:24:30Z</time>
      </trkpt>
      <trkpt lat="49.92588" lon="2.2403">
        <ele>19.8</ele>
        <time>2023-05-19T12:24:31Z</time>
      </trkpt>
      <trkpt lat="49.92589" lon="2.24029">
        <ele>19.8</ele>
        <time>2023-05-19T12:24:32Z</time>
      </trkpt>
      <trkpt lat="49.92589" lon="2.24027">
        <ele>19.8</ele>
        <time>2023-05-19T12:24:33Z</time>
      </trkpt>
      <trkpt lat="49.92589" lon="2.24026">
        <ele>19.8</ele>
        <time>2023-05-19T12:24:34Z</time>
      </trkpt>
      <trkpt lat="49.92589" lon="2.24025">
        <ele>19.8</ele>
        <time>2023-05-19T12:24:35Z</time>
      </trkpt>
      <trkpt lat="49.92589" lon="2.24023">
        <ele>19.9</ele>
        <time>2023-05-19T12:24:36Z</time>
      </trkpt>
      <trkpt lat="49.9259" lon="2.2402">
        <ele>19.9</ele>
        <time>2023-05-19T12:24:38Z</time>
      </trkpt>
      <trkpt lat="49.9259" lon="2.24018">
        <ele>20</ele>
        <time>2023-05-19T12:24:39Z</time>
      </trkpt>
      <trkpt lat="49.9259" lon="2.24016">
        <ele>20</ele>
        <time>2023-05-19T12:24:40Z</time>
      </trkpt>
      <trkpt lat="49.9259" lon="2.24014">
        <ele>20</ele>
        <time>2023-05-19T12:24:41Z</time>
      </trkpt>
      <trkpt lat="49.9259" lon="2.24012">
        <ele>20.1</ele>
        <time>2023-05-19T12:24:42Z</time>
      </trkpt>
      <trkpt lat="49.9259" lon="2.2401">
        <ele>20.1</ele>
        <time>2023-05-19T12:24:43Z</time>
      </trkpt>
      <trkpt lat="49.9259" lon="2.24008">
        <ele>20.1</ele>
        <time>2023-05-19T12:24:44Z</time>
      </trkpt>
      <trkpt lat="49.9259" lon="2.24007">
        <ele>20.1</ele>
        <time>2023-05-19T12:24:45Z</time>
      </trkpt>
      <trkpt lat="49.9259" lon="2.24005">
        <ele>20.2</ele>
        <time>2023-05-19T12:24:47Z</time>
      </trkpt>
      <trkpt lat="49.92589" lon="2.24003">
        <ele>20.2</ele>
        <time>2023-05-19T12:24:48Z</time>
      </trkpt>
      <trkpt lat="49.92589" lon="2.24002">
        <ele>20.2</ele>
        <time>2023-05-19T12:24:49Z</time>
      </trkpt>
      <trkpt lat="49.92589" lon="2.24">
        <ele>20.2</ele>
        <time>2023-05-19T12:24:50Z</time>
      </trkpt>
      <trkpt lat="49.92589" lon="2.23998">
        <ele>20.2</ele>
        <time>2023-05-19T12:24:51Z</time>
      </trkpt>
      <trkpt lat="49.92588" lon="2.23996">
        <ele>20.2</ele>
        <time>2023-05-19T12:24:52Z</time>
      </trkpt>
      <trkpt lat="49.92588" lon="2.23994">
        <ele>20.3</ele>
        <time>2023-05-19T12:24:53Z</time>
      </trkpt>
      <trkpt lat="49.92588" lon="2.23993">
        <ele>20.3</ele>
        <time>2023-05-19T12:24:54Z</time>
      </trkpt>
      <trkpt lat="49.92588" lon="2.23991">
        <ele>20.3</ele>
        <time>2023-05-19T12:24:55Z</time>
      </trkpt>
      <trkpt lat="49.92588" lon="2.23989">
        <ele>20.3</ele>
        <time>2023-05-19T12:24:57Z</time>
      </trkpt>
      <trkpt lat="49.92587" lon="2.23988">
        <ele>20.3</ele>
        <time>2023-05-19T12:24:58Z</time>
      </trkpt>
      <trkpt lat="49.92587" lon="2.23987">
        <ele>20.3</ele>
        <time>2023-05-19T12:24:59Z</time>
      </trkpt>
      <trkpt lat="49.92586" lon="2.23985">
        <ele>20.3</ele>
        <time>2023-05-19T12:25:00Z</time>
      </trkpt>
      <trkpt lat="49.92586" lon="2.23984">
        <ele>20.3</ele>
        <time>2023-05-19T12:25:01Z</time>
      </trkpt>
      <trkpt lat="49.92585" lon="2.23982">
        <ele>20.3</ele>
        <time>2023-05-19T12:25:02Z</time>
      </trkpt>
      <trkpt lat="49.92585" lon="2.23981">
        <ele>20.3</ele>
        <time>2023-05-19T12:25:03Z</time>
      </trkpt>
      <trkpt lat="49.92585" lon="2.2398">
        <ele>20.2</ele>
        <time>2023-05-19T12:25:04Z</time>
      </trkpt>
      <trkpt lat="49.92585" lon="2.23979">
        <ele>20.2</ele>
        <time>2023-05-19T12:25:05Z</time>
      </trkpt>
      <trkpt lat="49.92584" lon="2.23976">
        <ele>20.2</ele>
        <time>2023-05-19T12:25:06Z</time>
      </trkpt>
      <trkpt lat="49.92584" lon="2.23974">
        <ele>20.2</ele>
        <time>2023-05-19T12:25:08Z</time>
      </trkpt>
      <trkpt lat="49.92584" lon="2.23973">
        <ele>20.2</ele>
        <time>2023-05-19T12:25:09Z</time>
      </trkpt>
      <trkpt lat="49.92583" lon="2.2397">
        <ele>20.1</ele>
        <time>2023-05-19T12:25:10Z</time>
      </trkpt>
      <trkpt lat="49.92583" lon="2.23968">
        <ele>20.1</ele>
        <time>2023-05-19T12:25:11Z</time>
      </trkpt>
      <trkpt lat="49.92582" lon="2.23967">
        <ele>20.1</ele>
        <time>2023-05-19T12:25:12Z</time>
      </trkpt>
      <trkpt lat="49.92582" lon="2.23965">
        <ele>20.1</ele>
        <time>2023-05-19T12:25:13Z</time>
      </trkpt>
      <trkpt lat="49.92582" lon="2.23962">
        <ele>20</ele>
        <time>2023-05-19T12:25:15Z</time>
      </trkpt>
      <trkpt lat="49.92582" lon="2.2396">
        <ele>20</ele>
        <time>2023-05-19T12:25:16Z</time>
      </trkpt>
      <trkpt lat="49.92582" lon="2.23957">
        <ele>19.9</ele>
        <time>2023-05-19T12:25:17Z</time>
      </trkpt>
      <trkpt lat="49.92582" lon="2.23955">
        <ele>19.9</ele>
        <time>2023-05-19T12:25:18Z</time>
      </trkpt>
      <trkpt lat="49.92582" lon="2.23952">
        <ele>19.8</ele>
        <time>2023-05-19T12:25:19Z</time>
      </trkpt>
      <trkpt lat="49.92582" lon="2.23947">
        <ele>19.7</ele>
        <time>2023-05-19T12:25:21Z</time>
      </trkpt>
      <trkpt lat="49.92582" lon="2.23946">
        <ele>19.7</ele>
        <time>2023-05-19T12:25:22Z</time>
      </trkpt>
      <trkpt lat="49.92582" lon="2.23944">
        <ele>19.7</ele>
        <time>2023-05-19T12:25:23Z</time>
      </trkpt>
      <trkpt lat="49.92583" lon="2.23943">
        <ele>19.7</ele>
        <time>2023-05-19T12:25:24Z</time>
      </trkpt>
      <trkpt lat="49.92584" lon="2.23942">
        <ele>19.6</ele>
        <time>2023-05-19T12:25:25Z</time>
      </trkpt>
      <trkpt lat="49.92585" lon="2.23942">
        <ele>19.6</ele>
        <time>2023-05-19T12:25:26Z</time>
      </trkpt>
      <trkpt lat="49.92586" lon="2.23941">
        <ele>19.6</ele>
        <time>2023-05-19T12:25:28Z</time>
      </trkpt>
      <trkpt lat="49.92586" lon="2.23941">
        <ele>19.5</ele>
        <time>2023-05-19T12:25:30Z</time>
      </trkpt>
      <trkpt lat="49.92586" lon="2.23942">
        <ele>19.5</ele>
        <time>2023-05-19T12:25:31Z</time>
      </trkpt>
      <trkpt lat="49.92586" lon="2.23942">
        <ele>19.5</ele>
        <time>2023-05-19T12:25:32Z</time>
      </trkpt>
      <trkpt lat="49.92586" lon="2.23942">
        <ele>19.5</ele>
        <time>2023-05-19T12:25:34Z</time>
      </trkpt>
      <trkpt lat="49.92586" lon="2.23942">
        <ele>19.5</ele>
        <time>2023-05-19T12:25:35Z</time>
      </trkpt>
      <trkpt lat="49.92586" lon="2.23942">
        <ele>19.5</ele>
        <time>2023-05-19T12:25:36Z</time>
      </trkpt>
      <trkpt lat="49.92586" lon="2.23942">
        <ele>19.5</ele>
        <time>2023-05-19T12:25:37Z</time>
      </trkpt>
      <trkpt lat="49.92586" lon="2.23942">
        <ele>19.5</ele>
        <time>2023-05-19T12:25:38Z</time>
      </trkpt>
      <trkpt lat="49.92586" lon="2.23943">
        <ele>19.5</ele>
        <time>2023-05-19T12:25:40Z</time>
      </trkpt>
      <trkpt lat="49.92586" lon="2.23943">
        <ele>19.5</ele>
        <time>2023-05-19T12:25:41Z</time>
      </trkpt>
      <trkpt lat="49.92586" lon="2.23944">
        <ele>19.5</ele>
        <time>2023-05-19T12:25:43Z</time>
      </trkpt>
      <trkpt lat="49.92586" lon="2.23944">
        <ele>19.5</ele>
        <time>2023-05-19T12:25:44Z</time>
      </trkpt>
      <trkpt lat="49.92585" lon="2.23945">
        <ele>19.5</ele>
        <time>2023-05-19T12:25:46Z</time>
      </trkpt>
      <trkpt lat="49.92585" lon="2.23945">
        <ele>19.4</ele>
        <time>2023-05-19T12:25:47Z</time>
      </trkpt>
      <trkpt lat="49.92585" lon="2.23945">
        <ele>19.4</ele>
        <time>2023-05-19T12:25:48Z</time>
      </trkpt>
      <trkpt lat="49.92584" lon="2.23946">
        <ele>19.4</ele>
        <time>2023-05-19T12:25:49Z</time>
      </trkpt>
      <trkpt lat="49.92584" lon="2.23946">
        <ele>19.4</ele>
        <time>2023-05-19T12:25:50Z</time>
      </trkpt>
      <trkpt lat="49.92584" lon="2.23946">
        <ele>19.4</ele>
        <time>2023-05-19T12:25:51Z</time>
      </trkpt>
      <trkpt lat="49.92584" lon="2.23946">
        <ele>19.4</ele>
        <time>2023-05-19T12:25:52Z</time>
      </trkpt>
      <trkpt lat="49.92584" lon="2.23946">
        <ele>19.4</ele>
        <time>2023-05-19T12:25:53Z</time>
      </trkpt>
      <trkpt lat="49.92579" lon="2.23948">
        <ele>19.3</ele>
        <time>2023-05-19T12:26:23Z</time>
      </trkpt>
      <trkpt lat="49.92578" lon="2.23949">
        <ele>19.3</ele>
        <time>2023-05-19T12:26:24Z</time>
      </trkpt>
      <trkpt lat="49.92578" lon="2.23949">
        <ele>19.3</ele>
        <time>2023-05-19T12:26:25Z</time>
      </trkpt>
      <trkpt lat="49.92578" lon="2.23949">
        <ele>19.3</ele>
        <time>2023-05-19T12:26:26Z</time>
      </trkpt>
      <trkpt lat="49.92578" lon="2.23949">
        <ele>19.3</ele>
        <time>2023-05-19T12:26:27Z</time>
      </trkpt>
      <trkpt lat="49.92578" lon="2.23949">
        <ele>19.3</ele>
        <time>2023-05-19T12:26:28Z</time>
      </trkpt>
      <trkpt lat="49.92578" lon="2.23949">
        <ele>19.3</ele>
        <time>2023-05-19T12:26:29Z</time>
      </trkpt>
      <trkpt lat="49.92578" lon="2.23949">
        <ele>19.3</ele>
        <time>2023-05-19T12:26:30Z</time>
      </trkpt>
      <trkpt lat="49.92578" lon="2.23949">
        <ele>19.3</ele>
        <time>2023-05-19T12:26:31Z</time>
      </trkpt>
      <trkpt lat="49.92578" lon="2.23949">
        <ele>19.3</ele>
        <time>2023-05-19T12:26:32Z</time>
      </trkpt>
      <trkpt lat="49.92578" lon="2.23949">
        <ele>19.3</ele>
        <time>2023-05-19T12:26:33Z</time>
      </trkpt>
      <trkpt lat="49.92578" lon="2.23949">
        <ele>19.3</ele>
        <time>2023-05-19T12:26:34Z</time>
      </trkpt>
      <trkpt lat="49.92578" lon="2.23949">
        <ele>19.3</ele>
        <time>2023-05-19T12:26:35Z</time>
      </trkpt>
      <trkpt lat="49.92583" lon="2.23945">
        <ele>19.2</ele>
        <time>2023-05-19T12:29:01Z</time>
      </trkpt>
      <trkpt lat="49.92583" lon="2.23943">
        <ele>19.1</ele>
        <time>2023-05-19T12:29:02Z</time>
      </trkpt>
      <trkpt lat="49.92583" lon="2.23941">
        <ele>19.1</ele>
        <time>2023-05-19T12:29:03Z</time>
      </trkpt>
      <trkpt lat="49.92583" lon="2.23939">
        <ele>19.1</ele>
        <time>2023-05-19T12:29:04Z</time>
      </trkpt>
      <trkpt lat="49.92583" lon="2.23935">
        <ele>19.1</ele>
        <time>2023-05-19T12:29:05Z</time>
      </trkpt>
      <trkpt lat="49.92583" lon="2.23933">
        <ele>19</ele>
        <time>2023-05-19T12:29:06Z</time>
      </trkpt>
      <trkpt lat="49.92583" lon="2.2393">
        <ele>19</ele>
        <time>2023-05-19T12:29:07Z</time>
      </trkpt>
      <trkpt lat="49.92582" lon="2.23927">
        <ele>19</ele>
        <time>2023-05-19T12:29:09Z</time>
      </trkpt>
      <trkpt lat="49.92582" lon="2.23925">
        <ele>19</ele>
        <time>2023-05-19T12:29:10Z</time>
      </trkpt>
      <trkpt lat="49.92582" lon="2.23923">
        <ele>18.9</ele>
        <time>2023-05-19T12:29:11Z</time>
      </trkpt>
      <trkpt lat="49.92582" lon="2.2392">
        <ele>18.9</ele>
        <time>2023-05-19T12:29:12Z</time>
      </trkpt>
      <trkpt lat="49.92581" lon="2.23918">
        <ele>18.9</ele>
        <time>2023-05-19T12:29:14Z</time>
      </trkpt>
      <trkpt lat="49.92581" lon="2.23915">
        <ele>18.9</ele>
        <time>2023-05-19T12:29:15Z</time>
      </trkpt>
      <trkpt lat="49.92582" lon="2.23912">
        <ele>18.9</ele>
        <time>2023-05-19T12:29:16Z</time>
      </trkpt>
      <trkpt lat="49.92582" lon="2.23907">
        <ele>18.8</ele>
        <time>2023-05-19T12:29:17Z</time>
      </trkpt>
      <trkpt lat="49.92582" lon="2.23905">
        <ele>18.8</ele>
        <time>2023-05-19T12:29:18Z</time>
      </trkpt>
      <trkpt lat="49.92582" lon="2.23903">
        <ele>18.8</ele>
        <time>2023-05-19T12:29:19Z</time>
      </trkpt>
      <trkpt lat="49.92582" lon="2.23901">
        <ele>18.8</ele>
        <time>2023-05-19T12:29:20Z</time>
      </trkpt>
      <trkpt lat="49.92582" lon="2.23899">
        <ele>18.8</ele>
        <time>2023-05-19T12:29:22Z</time>
      </trkpt>
      <trkpt lat="49.92582" lon="2.23897">
        <ele>18.8</ele>
        <time>2023-05-19T12:29:23Z</time>
      </trkpt>
      <trkpt lat="49.92582" lon="2.23896">
        <ele>18.8</ele>
        <time>2023-05-19T12:29:24Z</time>
      </trkpt>
      <trkpt lat="49.92582" lon="2.23895">
        <ele>18.8</ele>
        <time>2023-05-19T12:29:25Z</time>
      </trkpt>
      <trkpt lat="49.92582" lon="2.23894">
        <ele>18.8</ele>
        <time>2023-05-19T12:29:26Z</time>
      </trkpt>
      <trkpt lat="49.92583" lon="2.23893">
        <ele>18.8</ele>
        <time>2023-05-19T12:29:27Z</time>
      </trkpt>
      <trkpt lat="49.92583" lon="2.2389">
        <ele>18.8</ele>
        <time>2023-05-19T12:29:29Z</time>
      </trkpt>
      <trkpt lat="49.92583" lon="2.23888">
        <ele>18.8</ele>
        <time>2023-05-19T12:29:30Z</time>
      </trkpt>
      <trkpt lat="49.92583" lon="2.23886">
        <ele>18.8</ele>
        <time>2023-05-19T12:29:31Z</time>
      </trkpt>
      <trkpt lat="49.92583" lon="2.23881">
        <ele>18.8</ele>
        <time>2023-05-19T12:29:33Z</time>
      </trkpt>
      <trkpt lat="49.92583" lon="2.23877">
        <ele>18.8</ele>
        <time>2023-05-19T12:29:35Z</time>
      </trkpt>
      <trkpt lat="49.92583" lon="2.23872">
        <ele>18.8</ele>
        <time>2023-05-19T12:29:36Z</time>
      </trkpt>
      <trkpt lat="49.92583" lon="2.23871">
        <ele>18.8</ele>
        <time>2023-05-19T12:29:37Z</time>
      </trkpt>
      <trkpt lat="49.92583" lon="2.23869">
        <ele>18.8</ele>
        <time>2023-05-19T12:29:38Z</time>
      </trkpt>
      <trkpt lat="49.92583" lon="2.23867">
        <ele>18.8</ele>
        <time>2023-05-19T12:29:39Z</time>
      </trkpt>
      <trkpt lat="49.92584" lon="2.23864">
        <ele>18.8</ele>
        <time>2023-05-19T12:29:40Z</time>
      </trkpt>
      <trkpt lat="49.92584" lon="2.23862">
        <ele>18.8</ele>
        <time>2023-05-19T12:29:41Z</time>
      </trkpt>
      <trkpt lat="49.92584" lon="2.2386">
        <ele>18.8</ele>
        <time>2023-05-19T12:29:42Z</time>
      </trkpt>
      <trkpt lat="49.92585" lon="2.23857">
        <ele>18.8</ele>
        <time>2023-05-19T12:29:43Z</time>
      </trkpt>
      <trkpt lat="49.92585" lon="2.23853">
        <ele>18.8</ele>
        <time>2023-05-19T12:29:45Z</time>
      </trkpt>
      <trkpt lat="49.92586" lon="2.23848">
        <ele>18.8</ele>
        <time>2023-05-19T12:29:46Z</time>
      </trkpt>
      <trkpt lat="49.92586" lon="2.23847">
        <ele>18.8</ele>
        <time>2023-05-19T12:29:47Z</time>
      </trkpt>
      <trkpt lat="49.92587" lon="2.23845">
        <ele>18.8</ele>
        <time>2023-05-19T12:29:48Z</time>
      </trkpt>
      <trkpt lat="49.92587" lon="2.23843">
        <ele>18.8</ele>
        <time>2023-05-19T12:29:49Z</time>
      </trkpt>
      <trkpt lat="49.92587" lon="2.2384">
        <ele>18.8</ele>
        <time>2023-05-19T12:29:50Z</time>
      </trkpt>
      <trkpt lat="49.92587" lon="2.23837">
        <ele>18.8</ele>
        <time>2023-05-19T12:29:51Z</time>
      </trkpt>
      <trkpt lat="49.92587" lon="2.23835">
        <ele>18.8</ele>
        <time>2023-05-19T12:29:52Z</time>
      </trkpt>
      <trkpt lat="49.92587" lon="2.23832">
        <ele>18.8</ele>
        <time>2023-05-19T12:29:54Z</time>
      </trkpt>
      <trkpt lat="49.92587" lon="2.23831">
        <ele>18.8</ele>
        <time>2023-05-19T12:29:55Z</time>
      </trkpt>
      <trkpt lat="49.92587" lon="2.23829">
        <ele>18.8</ele>
        <time>2023-05-19T12:29:56Z</time>
      </trkpt>
      <trkpt lat="49.92588" lon="2.23827">
        <ele>18.8</ele>
        <time>2023-05-19T12:29:57Z</time>
      </trkpt>
      <trkpt lat="49.92588" lon="2.23826">
        <ele>18.8</ele>
        <time>2023-05-19T12:29:58Z</time>
      </trkpt>
      <trkpt lat="49.92588" lon="2.23825">
        <ele>18.7</ele>
        <time>2023-05-19T12:29:59Z</time>
      </trkpt>
      <trkpt lat="49.92588" lon="2.23823">
        <ele>18.7</ele>
        <time>2023-05-19T12:30:00Z</time>
      </trkpt>
      <trkpt lat="49.92588" lon="2.23822">
        <ele>18.7</ele>
        <time>2023-05-19T12:30:02Z</time>
      </trkpt>
      <trkpt lat="49.92589" lon="2.2382">
        <ele>18.7</ele>
        <time>2023-05-19T12:30:03Z</time>
      </trkpt>
      <trkpt lat="49.92589" lon="2.23819">
        <ele>18.7</ele>
        <time>2023-05-19T12:30:04Z</time>
      </trkpt>
      <trkpt lat="49.92589" lon="2.23817">
        <ele>18.7</ele>
        <time>2023-05-19T12:30:05Z</time>
      </trkpt>
      <trkpt lat="49.9259" lon="2.23815">
        <ele>18.7</ele>
        <time>2023-05-19T12:30:06Z</time>
      </trkpt>
      <trkpt lat="49.9259" lon="2.23813">
        <ele>18.7</ele>
        <time>2023-05-19T12:30:07Z</time>
      </trkpt>
      <trkpt lat="49.9259" lon="2.23812">
        <ele>18.7</ele>
        <time>2023-05-19T12:30:08Z</time>
      </trkpt>
      <trkpt lat="49.9259" lon="2.2381">
        <ele>18.7</ele>
        <time>2023-05-19T12:30:09Z</time>
      </trkpt>
      <trkpt lat="49.9259" lon="2.23808">
        <ele>18.6</ele>
        <time>2023-05-19T12:30:11Z</time>
      </trkpt>
      <trkpt lat="49.9259" lon="2.23806">
        <ele>18.6</ele>
        <time>2023-05-19T12:30:12Z</time>
      </trkpt>
      <trkpt lat="49.9259" lon="2.23804">
        <ele>18.6</ele>
        <time>2023-05-19T12:30:13Z</time>
      </trkpt>
      <trkpt lat="49.9259" lon="2.23803">
        <ele>18.6</ele>
        <time>2023-05-19T12:30:14Z</time>
      </trkpt>
      <trkpt lat="49.92591" lon="2.23799">
        <ele>18.6</ele>
        <time>2023-05-19T12:30:15Z</time>
      </trkpt>
      <trkpt lat="49.92591" lon="2.23798">
        <ele>18.6</ele>
        <time>2023-05-19T12:30:16Z</time>
      </trkpt>
      <trkpt lat="49.92591" lon="2.23797">
        <ele>18.6</ele>
        <time>2023-05-19T12:30:17Z</time>
      </trkpt>
      <trkpt lat="49.92592" lon="2.23794">
        <ele>18.6</ele>
        <time>2023-05-19T12:30:18Z</time>
      </trkpt>
      <trkpt lat="49.92592" lon="2.2379">
        <ele>18.6</ele>
        <time>2023-05-19T12:30:20Z</time>
      </trkpt>
      <trkpt lat="49.92592" lon="2.23786">
        <ele>18.5</ele>
        <time>2023-05-19T12:30:21Z</time>
      </trkpt>
      <trkpt lat="49.92592" lon="2.23785">
        <ele>18.5</ele>
        <time>2023-05-19T12:30:22Z</time>
      </trkpt>
      <trkpt lat="49.92592" lon="2.23782">
        <ele>18.5</ele>
        <time>2023-05-19T12:30:23Z</time>
      </trkpt>
      <trkpt lat="49.92592" lon="2.2378">
        <ele>18.5</ele>
        <time>2023-05-19T12:30:24Z</time>
      </trkpt>
      <trkpt lat="49.92593" lon="2.23778">
        <ele>18.5</ele>
        <time>2023-05-19T12:30:25Z</time>
      </trkpt>
      <trkpt lat="49.92593" lon="2.23774">
        <ele>18.5</ele>
        <time>2023-05-19T12:30:27Z</time>
      </trkpt>
      <trkpt lat="49.92593" lon="2.23771">
        <ele>18.5</ele>
        <time>2023-05-19T12:30:28Z</time>
      </trkpt>
      <trkpt lat="49.92593" lon="2.2377">
        <ele>18.5</ele>
        <time>2023-05-19T12:30:29Z</time>
      </trkpt>
      <trkpt lat="49.92593" lon="2.23769">
        <ele>18.5</ele>
        <time>2023-05-19T12:30:30Z</time>
      </trkpt>
      <trkpt lat="49.92593" lon="2.23768">
        <ele>18.5</ele>
        <time>2023-05-19T12:30:31Z</time>
      </trkpt>
      <trkpt lat="49.92592" lon="2.23767">
        <ele>18.5</ele>
        <time>2023-05-19T12:30:33Z</time>
      </trkpt>
      <trkpt lat="49.92591" lon="2.23767">
        <ele>18.5</ele>
        <time>2023-05-19T12:30:34Z</time>
      </trkpt>
      <trkpt lat="49.92591" lon="2.23767">
        <ele>18.5</ele>
        <time>2023-05-19T12:30:35Z</time>
      </trkpt>
      <trkpt lat="49.92591" lon="2.23766">
        <ele>18.5</ele>
        <time>2023-05-19T12:30:36Z</time>
      </trkpt>
      <trkpt lat="49.92591" lon="2.23765">
        <ele>18.5</ele>
        <time>2023-05-19T12:30:37Z</time>
      </trkpt>
      <trkpt lat="49.92592" lon="2.23763">
        <ele>18.5</ele>
        <time>2023-05-19T12:30:38Z</time>
      </trkpt>
      <trkpt lat="49.92593" lon="2.2376">
        <ele>18.5</ele>
        <time>2023-05-19T12:30:39Z</time>
      </trkpt>
      <trkpt lat="49.92593" lon="2.23758">
        <ele>18.5</ele>
        <time>2023-05-19T12:30:40Z</time>
      </trkpt>
      <trkpt lat="49.92595" lon="2.23757">
        <ele>18.5</ele>
        <time>2023-05-19T12:30:42Z</time>
      </trkpt>
      <trkpt lat="49.92597" lon="2.23755">
        <ele>18.5</ele>
        <time>2023-05-19T12:30:43Z</time>
      </trkpt>
      <trkpt lat="49.92598" lon="2.23753">
        <ele>18.5</ele>
        <time>2023-05-19T12:30:44Z</time>
      </trkpt>
      <trkpt lat="49.92599" lon="2.23752">
        <ele>18.5</ele>
        <time>2023-05-19T12:30:45Z</time>
      </trkpt>
      <trkpt lat="49.926" lon="2.23751">
        <ele>18.5</ele>
        <time>2023-05-19T12:30:46Z</time>
      </trkpt>
      <trkpt lat="49.926" lon="2.2375">
        <ele>18.5</ele>
        <time>2023-05-19T12:30:47Z</time>
      </trkpt>
      <trkpt lat="49.92601" lon="2.23749">
        <ele>18.5</ele>
        <time>2023-05-19T12:30:48Z</time>
      </trkpt>
      <trkpt lat="49.92601" lon="2.23748">
        <ele>18.5</ele>
        <time>2023-05-19T12:30:50Z</time>
      </trkpt>
      <trkpt lat="49.92602" lon="2.23747">
        <ele>18.5</ele>
        <time>2023-05-19T12:30:51Z</time>
      </trkpt>
      <trkpt lat="49.92602" lon="2.23746">
        <ele>18.5</ele>
        <time>2023-05-19T12:30:52Z</time>
      </trkpt>
      <trkpt lat="49.92603" lon="2.23743">
        <ele>18.6</ele>
        <time>2023-05-19T12:30:53Z</time>
      </trkpt>
      <trkpt lat="49.92603" lon="2.2374">
        <ele>18.6</ele>
        <time>2023-05-19T12:30:54Z</time>
      </trkpt>
      <trkpt lat="49.92604" lon="2.23735">
        <ele>18.6</ele>
        <time>2023-05-19T12:30:55Z</time>
      </trkpt>
      <trkpt lat="49.92604" lon="2.23733">
        <ele>18.6</ele>
        <time>2023-05-19T12:30:56Z</time>
      </trkpt>
      <trkpt lat="49.92604" lon="2.2373">
        <ele>18.6</ele>
        <time>2023-05-19T12:30:57Z</time>
      </trkpt>
      <trkpt lat="49.92605" lon="2.23728">
        <ele>18.6</ele>
        <time>2023-05-19T12:30:59Z</time>
      </trkpt>
      <trkpt lat="49.92605" lon="2.23726">
        <ele>18.6</ele>
        <time>2023-05-19T12:31:00Z</time>
      </trkpt>
      <trkpt lat="49.92605" lon="2.23724">
        <ele>18.6</ele>
        <time>2023-05-19T12:31:01Z</time>
      </trkpt>
      <trkpt lat="49.92604" lon="2.23722">
        <ele>18.6</ele>
        <time>2023-05-19T12:31:02Z</time>
      </trkpt>
      <trkpt lat="49.92604" lon="2.23721">
        <ele>18.6</ele>
        <time>2023-05-19T12:31:03Z</time>
      </trkpt>
      <trkpt lat="49.92604" lon="2.2372">
        <ele>18.6</ele>
        <time>2023-05-19T12:31:04Z</time>
      </trkpt>
      <trkpt lat="49.92604" lon="2.23718">
        <ele>18.6</ele>
        <time>2023-05-19T12:31:05Z</time>
      </trkpt>
      <trkpt lat="49.92604" lon="2.23716">
        <ele>18.6</ele>
        <time>2023-05-19T12:31:06Z</time>
      </trkpt>
      <trkpt lat="49.92604" lon="2.23714">
        <ele>18.6</ele>
        <time>2023-05-19T12:31:08Z</time>
      </trkpt>
      <trkpt lat="49.92604" lon="2.23713">
        <ele>18.6</ele>
        <time>2023-05-19T12:31:09Z</time>
      </trkpt>
      <trkpt lat="49.92604" lon="2.23712">
        <ele>18.6</ele>
        <time>2023-05-19T12:31:10Z</time>
      </trkpt>
      <trkpt lat="49.92604" lon="2.23711">
        <ele>18.6</ele>
        <time>2023-05-19T12:31:11Z</time>
      </trkpt>
      <trkpt lat="49.92604" lon="2.23711">
        <ele>18.6</ele>
        <time>2023-05-19T12:31:12Z</time>
      </trkpt>
      <trkpt lat="49.92604" lon="2.23711">
        <ele>18.6</ele>
        <time>2023-05-19T12:31:13Z</time>
      </trkpt>
      <trkpt lat="49.92604" lon="2.2371">
        <ele>18.6</ele>
        <time>2023-05-19T12:31:14Z</time>
      </trkpt>
      <trkpt lat="49.92604" lon="2.23708">
        <ele>18.6</ele>
        <time>2023-05-19T12:31:16Z</time>
      </trkpt>
      <trkpt lat="49.92605" lon="2.23702">
        <ele>18.7</ele>
        <time>2023-05-19T12:31:17Z</time>
      </trkpt>
      <trkpt lat="49.92605" lon="2.23701">
        <ele>18.7</ele>
        <time>2023-05-19T12:31:18Z</time>
      </trkpt>
      <trkpt lat="49.92606" lon="2.23695">
        <ele>18.7</ele>
        <time>2023-05-19T12:31:19Z</time>
      </trkpt>
      <trkpt lat="49.92606" lon="2.23694">
        <ele>18.7</ele>
        <time>2023-05-19T12:31:20Z</time>
      </trkpt>
      <trkpt lat="49.92607" lon="2.23691">
        <ele>18.7</ele>
        <time>2023-05-19T12:31:21Z</time>
      </trkpt>
      <trkpt lat="49.92607" lon="2.23688">
        <ele>18.7</ele>
        <time>2023-05-19T12:31:23Z</time>
      </trkpt>
      <trkpt lat="49.92608" lon="2.23686">
        <ele>18.7</ele>
        <time>2023-05-19T12:31:24Z</time>
      </trkpt>
      <trkpt lat="49.92608" lon="2.23684">
        <ele>18.7</ele>
        <time>2023-05-19T12:31:25Z</time>
      </trkpt>
      <trkpt lat="49.92608" lon="2.23682">
        <ele>18.7</ele>
        <time>2023-05-19T12:31:26Z</time>
      </trkpt>
      <trkpt lat="49.92609" lon="2.2368">
        <ele>18.7</ele>
        <time>2023-05-19T12:31:27Z</time>
      </trkpt>
      <trkpt lat="49.92609" lon="2.23678">
        <ele>18.7</ele>
        <time>2023-05-19T12:31:28Z</time>
      </trkpt>
      <trkpt lat="49.9261" lon="2.23676">
        <ele>18.7</ele>
        <time>2023-05-19T12:31:29Z</time>
      </trkpt>
      <trkpt lat="49.9261" lon="2.23674">
        <ele>18.7</ele>
        <time>2023-05-19T12:31:31Z</time>
      </trkpt>
      <trkpt lat="49.9261" lon="2.23672">
        <ele>18.7</ele>
        <time>2023-05-19T12:31:32Z</time>
      </trkpt>
      <trkpt lat="49.92611" lon="2.23669">
        <ele>18.7</ele>
        <time>2023-05-19T12:31:33Z</time>
      </trkpt>
      <trkpt lat="49.92612" lon="2.23667">
        <ele>18.7</ele>
        <time>2023-05-19T12:31:34Z</time>
      </trkpt>
      <trkpt lat="49.92612" lon="2.23665">
        <ele>18.7</ele>
        <time>2023-05-19T12:31:35Z</time>
      </trkpt>
      <trkpt lat="49.92613" lon="2.23663">
        <ele>18.7</ele>
        <time>2023-05-19T12:31:36Z</time>
      </trkpt>
      <trkpt lat="49.92613" lon="2.2366">
        <ele>18.8</ele>
        <time>2023-05-19T12:31:38Z</time>
      </trkpt>
      <trkpt lat="49.92614" lon="2.23658">
        <ele>18.8</ele>
        <time>2023-05-19T12:31:39Z</time>
      </trkpt>
      <trkpt lat="49.92613" lon="2.23654">
        <ele>18.8</ele>
        <time>2023-05-19T12:31:40Z</time>
      </trkpt>
      <trkpt lat="49.92613" lon="2.23653">
        <ele>18.8</ele>
        <time>2023-05-19T12:31:41Z</time>
      </trkpt>
      <trkpt lat="49.92613" lon="2.23652">
        <ele>18.8</ele>
        <time>2023-05-19T12:31:42Z</time>
      </trkpt>
      <trkpt lat="49.92613" lon="2.2365">
        <ele>18.8</ele>
        <time>2023-05-19T12:31:43Z</time>
      </trkpt>
      <trkpt lat="49.92613" lon="2.23649">
        <ele>18.8</ele>
        <time>2023-05-19T12:31:44Z</time>
      </trkpt>
      <trkpt lat="49.92613" lon="2.23647">
        <ele>18.8</ele>
        <time>2023-05-19T12:31:45Z</time>
      </trkpt>
      <trkpt lat="49.92613" lon="2.23645">
        <ele>18.8</ele>
        <time>2023-05-19T12:31:46Z</time>
      </trkpt>
      <trkpt lat="49.92614" lon="2.23643">
        <ele>18.8</ele>
        <time>2023-05-19T12:31:48Z</time>
      </trkpt>
      <trkpt lat="49.92614" lon="2.23642">
        <ele>18.8</ele>
        <time>2023-05-19T12:31:49Z</time>
      </trkpt>
      <trkpt lat="49.92615" lon="2.23641">
        <ele>18.8</ele>
        <time>2023-05-19T12:31:50Z</time>
      </trkpt>
      <trkpt lat="49.92615" lon="2.23641">
        <ele>18.8</ele>
        <time>2023-05-19T12:31:51Z</time>
      </trkpt>
      <trkpt lat="49.92616" lon="2.2364">
        <ele>18.8</ele>
        <time>2023-05-19T12:31:52Z</time>
      </trkpt>
      <trkpt lat="49.92617" lon="2.23639">
        <ele>18.8</ele>
        <time>2023-05-19T12:31:53Z</time>
      </trkpt>
      <trkpt lat="49.92617" lon="2.23638">
        <ele>18.8</ele>
        <time>2023-05-19T12:31:55Z</time>
      </trkpt>
      <trkpt lat="49.92617" lon="2.23636">
        <ele>18.8</ele>
        <time>2023-05-19T12:31:56Z</time>
      </trkpt>
      <trkpt lat="49.92617" lon="2.23634">
        <ele>18.8</ele>
        <time>2023-05-19T12:31:58Z</time>
      </trkpt>
      <trkpt lat="49.92618" lon="2.23632">
        <ele>18.8</ele>
        <time>2023-05-19T12:31:59Z</time>
      </trkpt>
      <trkpt lat="49.92618" lon="2.2363">
        <ele>18.8</ele>
        <time>2023-05-19T12:32:00Z</time>
      </trkpt>
      <trkpt lat="49.92618" lon="2.23629">
        <ele>18.8</ele>
        <time>2023-05-19T12:32:01Z</time>
      </trkpt>
      <trkpt lat="49.92619" lon="2.23628">
        <ele>18.8</ele>
        <time>2023-05-19T12:32:02Z</time>
      </trkpt>
      <trkpt lat="49.9262" lon="2.23627">
        <ele>18.8</ele>
        <time>2023-05-19T12:32:04Z</time>
      </trkpt>
      <trkpt lat="49.9262" lon="2.23625">
        <ele>18.8</ele>
        <time>2023-05-19T12:32:05Z</time>
      </trkpt>
      <trkpt lat="49.92621" lon="2.23624">
        <ele>18.8</ele>
        <time>2023-05-19T12:32:06Z</time>
      </trkpt>
      <trkpt lat="49.92622" lon="2.23623">
        <ele>18.8</ele>
        <time>2023-05-19T12:32:07Z</time>
      </trkpt>
      <trkpt lat="49.92623" lon="2.23622">
        <ele>18.8</ele>
        <time>2023-05-19T12:32:08Z</time>
      </trkpt>
      <trkpt lat="49.92623" lon="2.23621">
        <ele>18.9</ele>
        <time>2023-05-19T12:32:09Z</time>
      </trkpt>
      <trkpt lat="49.92624" lon="2.23619">
        <ele>18.9</ele>
        <time>2023-05-19T12:32:11Z</time>
      </trkpt>
      <trkpt lat="49.92624" lon="2.23617">
        <ele>18.9</ele>
        <time>2023-05-19T12:32:12Z</time>
      </trkpt>
      <trkpt lat="49.92625" lon="2.23616">
        <ele>18.9</ele>
        <time>2023-05-19T12:32:13Z</time>
      </trkpt>
      <trkpt lat="49.92625" lon="2.23614">
        <ele>18.9</ele>
        <time>2023-05-19T12:32:14Z</time>
      </trkpt>
      <trkpt lat="49.92625" lon="2.23613">
        <ele>18.9</ele>
        <time>2023-05-19T12:32:15Z</time>
      </trkpt>
      <trkpt lat="49.92624" lon="2.23611">
        <ele>19</ele>
        <time>2023-05-19T12:32:16Z</time>
      </trkpt>
      <trkpt lat="49.92624" lon="2.23609">
        <ele>19</ele>
        <time>2023-05-19T12:32:17Z</time>
      </trkpt>
      <trkpt lat="49.92623" lon="2.23607">
        <ele>19</ele>
        <time>2023-05-19T12:32:18Z</time>
      </trkpt>
      <trkpt lat="49.92623" lon="2.23605">
        <ele>19</ele>
        <time>2023-05-19T12:32:20Z</time>
      </trkpt>
      <trkpt lat="49.92623" lon="2.23604">
        <ele>19.1</ele>
        <time>2023-05-19T12:32:21Z</time>
      </trkpt>
      <trkpt lat="49.92623" lon="2.23602">
        <ele>19.1</ele>
        <time>2023-05-19T12:32:22Z</time>
      </trkpt>
      <trkpt lat="49.92623" lon="2.236">
        <ele>19.1</ele>
        <time>2023-05-19T12:32:24Z</time>
      </trkpt>
      <trkpt lat="49.92623" lon="2.23598">
        <ele>19.1</ele>
        <time>2023-05-19T12:32:25Z</time>
      </trkpt>
      <trkpt lat="49.92623" lon="2.23597">
        <ele>19.2</ele>
        <time>2023-05-19T12:32:26Z</time>
      </trkpt>
      <trkpt lat="49.92624" lon="2.23595">
        <ele>19.2</ele>
        <time>2023-05-19T12:32:27Z</time>
      </trkpt>
      <trkpt lat="49.92624" lon="2.23594">
        <ele>19.2</ele>
        <time>2023-05-19T12:32:28Z</time>
      </trkpt>
      <trkpt lat="49.92624" lon="2.23592">
        <ele>19.3</ele>
        <time>2023-05-19T12:32:29Z</time>
      </trkpt>
      <trkpt lat="49.92624" lon="2.2359">
        <ele>19.3</ele>
        <time>2023-05-19T12:32:31Z</time>
      </trkpt>
      <trkpt lat="49.92624" lon="2.23588">
        <ele>19.3</ele>
        <time>2023-05-19T12:32:32Z</time>
      </trkpt>
      <trkpt lat="49.92624" lon="2.23587">
        <ele>19.4</ele>
        <time>2023-05-19T12:32:33Z</time>
      </trkpt>
      <trkpt lat="49.92625" lon="2.23585">
        <ele>19.4</ele>
        <time>2023-05-19T12:32:34Z</time>
      </trkpt>
      <trkpt lat="49.92625" lon="2.23585">
        <ele>19.4</ele>
        <time>2023-05-19T12:32:35Z</time>
      </trkpt>
      <trkpt lat="49.92626" lon="2.23584">
        <ele>19.4</ele>
        <time>2023-05-19T12:32:36Z</time>
      </trkpt>
      <trkpt lat="49.92626" lon="2.23584">
        <ele>19.5</ele>
        <time>2023-05-19T12:32:37Z</time>
      </trkpt>
      <trkpt lat="49.92627" lon="2.23582">
        <ele>19.5</ele>
        <time>2023-05-19T12:32:38Z</time>
      </trkpt>
      <trkpt lat="49.92627" lon="2.2358">
        <ele>19.5</ele>
        <time>2023-05-19T12:32:39Z</time>
      </trkpt>
      <trkpt lat="49.92627" lon="2.23578">
        <ele>19.6</ele>
        <time>2023-05-19T12:32:40Z</time>
      </trkpt>
      <trkpt lat="49.92628" lon="2.23576">
        <ele>19.6</ele>
        <time>2023-05-19T12:32:42Z</time>
      </trkpt>
      <trkpt lat="49.92628" lon="2.23575">
        <ele>19.6</ele>
        <time>2023-05-19T12:32:43Z</time>
      </trkpt>
      <trkpt lat="49.92628" lon="2.23572">
        <ele>19.7</ele>
        <time>2023-05-19T12:32:44Z</time>
      </trkpt>
      <trkpt lat="49.92629" lon="2.23571">
        <ele>19.7</ele>
        <time>2023-05-19T12:32:45Z</time>
      </trkpt>
      <trkpt lat="49.92629" lon="2.23566">
        <ele>19.8</ele>
        <time>2023-05-19T12:32:47Z</time>
      </trkpt>
      <trkpt lat="49.92629" lon="2.23565">
        <ele>19.8</ele>
        <time>2023-05-19T12:32:48Z</time>
      </trkpt>
      <trkpt lat="49.9263" lon="2.23563">
        <ele>19.9</ele>
        <time>2023-05-19T12:32:49Z</time>
      </trkpt>
      <trkpt lat="49.9263" lon="2.23561">
        <ele>19.9</ele>
        <time>2023-05-19T12:32:50Z</time>
      </trkpt>
      <trkpt lat="49.92631" lon="2.23558">
        <ele>19.9</ele>
        <time>2023-05-19T12:32:52Z</time>
      </trkpt>
      <trkpt lat="49.92631" lon="2.23556">
        <ele>20</ele>
        <time>2023-05-19T12:32:53Z</time>
      </trkpt>
      <trkpt lat="49.92632" lon="2.23554">
        <ele>20</ele>
        <time>2023-05-19T12:32:54Z</time>
      </trkpt>
      <trkpt lat="49.92632" lon="2.23552">
        <ele>20</ele>
        <time>2023-05-19T12:32:56Z</time>
      </trkpt>
      <trkpt lat="49.92632" lon="2.23549">
        <ele>20</ele>
        <time>2023-05-19T12:32:57Z</time>
      </trkpt>
      <trkpt lat="49.92633" lon="2.23548">
        <ele>20.1</ele>
        <time>2023-05-19T12:32:58Z</time>
      </trkpt>
      <trkpt lat="49.92633" lon="2.23546">
        <ele>20.1</ele>
        <time>2023-05-19T12:32:59Z</time>
      </trkpt>
      <trkpt lat="49.92634" lon="2.23544">
        <ele>20.1</ele>
        <time>2023-05-19T12:33:00Z</time>
      </trkpt>
      <trkpt lat="49.92634" lon="2.23543">
        <ele>20.1</ele>
        <time>2023-05-19T12:33:01Z</time>
      </trkpt>
      <trkpt lat="49.92634" lon="2.23542">
        <ele>20.1</ele>
        <time>2023-05-19T12:33:02Z</time>
      </trkpt>
      <trkpt lat="49.92635" lon="2.23541">
        <ele>20.1</ele>
        <time>2023-05-19T12:33:03Z</time>
      </trkpt>
      <trkpt lat="49.92635" lon="2.23538">
        <ele>20.2</ele>
        <time>2023-05-19T12:33:05Z</time>
      </trkpt>
      <trkpt lat="49.92635" lon="2.23536">
        <ele>20.2</ele>
        <time>2023-05-19T12:33:06Z</time>
      </trkpt>
      <trkpt lat="49.92636" lon="2.23535">
        <ele>20.2</ele>
        <time>2023-05-19T12:33:07Z</time>
      </trkpt>
      <trkpt lat="49.92636" lon="2.23533">
        <ele>20.2</ele>
        <time>2023-05-19T12:33:08Z</time>
      </trkpt>
      <trkpt lat="49.92637" lon="2.23529">
        <ele>20.2</ele>
        <time>2023-05-19T12:33:10Z</time>
      </trkpt>
      <trkpt lat="49.92638" lon="2.23526">
        <ele>20.2</ele>
        <time>2023-05-19T12:33:11Z</time>
      </trkpt>
      <trkpt lat="49.92639" lon="2.23525">
        <ele>20.3</ele>
        <time>2023-05-19T12:33:13Z</time>
      </trkpt>
      <trkpt lat="49.92639" lon="2.23523">
        <ele>20.3</ele>
        <time>2023-05-19T12:33:14Z</time>
      </trkpt>
      <trkpt lat="49.92639" lon="2.23521">
        <ele>20.3</ele>
        <time>2023-05-19T12:33:15Z</time>
      </trkpt>
      <trkpt lat="49.92639" lon="2.2352">
        <ele>20.3</ele>
        <time>2023-05-19T12:33:16Z</time>
      </trkpt>
      <trkpt lat="49.9264" lon="2.23517">
        <ele>20.3</ele>
        <time>2023-05-19T12:33:17Z</time>
      </trkpt>
      <trkpt lat="49.9264" lon="2.23514">
        <ele>20.3</ele>
        <time>2023-05-19T12:33:19Z</time>
      </trkpt>
      <trkpt lat="49.92641" lon="2.23512">
        <ele>20.3</ele>
        <time>2023-05-19T12:33:20Z</time>
      </trkpt>
      <trkpt lat="49.92641" lon="2.23511">
        <ele>20.3</ele>
        <time>2023-05-19T12:33:21Z</time>
      </trkpt>
      <trkpt lat="49.92642" lon="2.23509">
        <ele>20.3</ele>
        <time>2023-05-19T12:33:22Z</time>
      </trkpt>
      <trkpt lat="49.92642" lon="2.23506">
        <ele>20.3</ele>
        <time>2023-05-19T12:33:23Z</time>
      </trkpt>
      <trkpt lat="49.92643" lon="2.23505">
        <ele>20.3</ele>
        <time>2023-05-19T12:33:24Z</time>
      </trkpt>
      <trkpt lat="49.92643" lon="2.23504">
        <ele>20.3</ele>
        <time>2023-05-19T12:33:25Z</time>
      </trkpt>
      <trkpt lat="49.92643" lon="2.23502">
        <ele>20.3</ele>
        <time>2023-05-19T12:33:26Z</time>
      </trkpt>
      <trkpt lat="49.92644" lon="2.235">
        <ele>20.3</ele>
        <time>2023-05-19T12:33:27Z</time>
      </trkpt>
      <trkpt lat="49.92644" lon="2.23498">
        <ele>20.3</ele>
        <time>2023-05-19T12:33:28Z</time>
      </trkpt>
      <trkpt lat="49.92644" lon="2.23497">
        <ele>20.3</ele>
        <time>2023-05-19T12:33:30Z</time>
      </trkpt>
      <trkpt lat="49.92645" lon="2.23497">
        <ele>20.3</ele>
        <time>2023-05-19T12:33:31Z</time>
      </trkpt>
      <trkpt lat="49.92645" lon="2.23496">
        <ele>20.3</ele>
        <time>2023-05-19T12:33:32Z</time>
      </trkpt>
      <trkpt lat="49.92645" lon="2.23494">
        <ele>20.3</ele>
        <time>2023-05-19T12:33:33Z</time>
      </trkpt>
      <trkpt lat="49.92645" lon="2.23493">
        <ele>20.3</ele>
        <time>2023-05-19T12:33:34Z</time>
      </trkpt>
      <trkpt lat="49.92646" lon="2.23491">
        <ele>20.3</ele>
        <time>2023-05-19T12:33:36Z</time>
      </trkpt>
      <trkpt lat="49.92646" lon="2.2349">
        <ele>20.4</ele>
        <time>2023-05-19T12:33:37Z</time>
      </trkpt>
      <trkpt lat="49.92647" lon="2.23487">
        <ele>20.4</ele>
        <time>2023-05-19T12:33:38Z</time>
      </trkpt>
      <trkpt lat="49.92648" lon="2.23486">
        <ele>20.4</ele>
        <time>2023-05-19T12:33:39Z</time>
      </trkpt>
      <trkpt lat="49.92648" lon="2.23485">
        <ele>20.4</ele>
        <time>2023-05-19T12:33:40Z</time>
      </trkpt>
      <trkpt lat="49.9265" lon="2.23481">
        <ele>20.4</ele>
        <time>2023-05-19T12:33:41Z</time>
      </trkpt>
      <trkpt lat="49.9265" lon="2.2348">
        <ele>20.4</ele>
        <time>2023-05-19T12:33:42Z</time>
      </trkpt>
      <trkpt lat="49.9265" lon="2.23479">
        <ele>20.4</ele>
        <time>2023-05-19T12:33:43Z</time>
      </trkpt>
      <trkpt lat="49.92652" lon="2.23476">
        <ele>20.4</ele>
        <time>2023-05-19T12:33:45Z</time>
      </trkpt>
      <trkpt lat="49.92652" lon="2.23474">
        <ele>20.4</ele>
        <time>2023-05-19T12:33:46Z</time>
      </trkpt>
      <trkpt lat="49.92652" lon="2.23472">
        <ele>20.4</ele>
        <time>2023-05-19T12:33:47Z</time>
      </trkpt>
      <trkpt lat="49.92653" lon="2.2347">
        <ele>20.4</ele>
        <time>2023-05-19T12:33:48Z</time>
      </trkpt>
      <trkpt lat="49.92653" lon="2.23468">
        <ele>20.4</ele>
        <time>2023-05-19T12:33:49Z</time>
      </trkpt>
      <trkpt lat="49.92653" lon="2.23465">
        <ele>20.5</ele>
        <time>2023-05-19T12:33:50Z</time>
      </trkpt>
      <trkpt lat="49.92653" lon="2.23463">
        <ele>20.5</ele>
        <time>2023-05-19T12:33:51Z</time>
      </trkpt>
      <trkpt lat="49.92654" lon="2.2346">
        <ele>20.5</ele>
        <time>2023-05-19T12:33:52Z</time>
      </trkpt>
      <trkpt lat="49.92654" lon="2.23457">
        <ele>20.5</ele>
        <time>2023-05-19T12:33:54Z</time>
      </trkpt>
      <trkpt lat="49.92654" lon="2.23455">
        <ele>20.5</ele>
        <time>2023-05-19T12:33:55Z</time>
      </trkpt>
      <trkpt lat="49.92654" lon="2.23454">
        <ele>20.5</ele>
        <time>2023-05-19T12:33:56Z</time>
      </trkpt>
      <trkpt lat="49.92654" lon="2.23452">
        <ele>20.5</ele>
        <time>2023-05-19T12:33:57Z</time>
      </trkpt>
      <trkpt lat="49.92654" lon="2.2345">
        <ele>20.6</ele>
        <time>2023-05-19T12:33:58Z</time>
      </trkpt>
      <trkpt lat="49.92654" lon="2.23449">
        <ele>20.6</ele>
        <time>2023-05-19T12:33:59Z</time>
      </trkpt>
      <trkpt lat="49.92655" lon="2.23447">
        <ele>20.6</ele>
        <time>2023-05-19T12:34:00Z</time>
      </trkpt>
      <trkpt lat="49.92655" lon="2.23446">
        <ele>20.6</ele>
        <time>2023-05-19T12:34:01Z</time>
      </trkpt>
      <trkpt lat="49.92656" lon="2.23444">
        <ele>20.6</ele>
        <time>2023-05-19T12:34:02Z</time>
      </trkpt>
      <trkpt lat="49.92657" lon="2.23441">
        <ele>20.6</ele>
        <time>2023-05-19T12:34:04Z</time>
      </trkpt>
      <trkpt lat="49.92657" lon="2.23439">
        <ele>20.6</ele>
        <time>2023-05-19T12:34:06Z</time>
      </trkpt>
      <trkpt lat="49.92657" lon="2.23438">
        <ele>20.6</ele>
        <time>2023-05-19T12:34:07Z</time>
      </trkpt>
      <trkpt lat="49.92658" lon="2.23436">
        <ele>20.6</ele>
        <time>2023-05-19T12:34:08Z</time>
      </trkpt>
      <trkpt lat="49.92658" lon="2.23436">
        <ele>20.6</ele>
        <time>2023-05-19T12:34:09Z</time>
      </trkpt>
      <trkpt lat="49.92658" lon="2.23433">
        <ele>20.7</ele>
        <time>2023-05-19T12:34:11Z</time>
      </trkpt>
      <trkpt lat="49.92658" lon="2.23431">
        <ele>20.7</ele>
        <time>2023-05-19T12:34:12Z</time>
      </trkpt>
      <trkpt lat="49.92658" lon="2.2343">
        <ele>20.7</ele>
        <time>2023-05-19T12:34:13Z</time>
      </trkpt>
      <trkpt lat="49.92658" lon="2.23428">
        <ele>20.7</ele>
        <time>2023-05-19T12:34:14Z</time>
      </trkpt>
      <trkpt lat="49.92659" lon="2.23425">
        <ele>20.7</ele>
        <time>2023-05-19T12:34:15Z</time>
      </trkpt>
      <trkpt lat="49.92659" lon="2.23424">
        <ele>20.7</ele>
        <time>2023-05-19T12:34:17Z</time>
      </trkpt>
      <trkpt lat="49.92659" lon="2.23422">
        <ele>20.7</ele>
        <time>2023-05-19T12:34:18Z</time>
      </trkpt>
      <trkpt lat="49.92659" lon="2.23421">
        <ele>20.7</ele>
        <time>2023-05-19T12:34:19Z</time>
      </trkpt>
      <trkpt lat="49.92659" lon="2.23419">
        <ele>20.7</ele>
        <time>2023-05-19T12:34:20Z</time>
      </trkpt>
      <trkpt lat="49.9266" lon="2.23417">
        <ele>20.7</ele>
        <time>2023-05-19T12:34:21Z</time>
      </trkpt>
      <trkpt lat="49.9266" lon="2.23416">
        <ele>20.7</ele>
        <time>2023-05-19T12:34:22Z</time>
      </trkpt>
      <trkpt lat="49.92661" lon="2.23414">
        <ele>20.7</ele>
        <time>2023-05-19T12:34:24Z</time>
      </trkpt>
      <trkpt lat="49.92661" lon="2.23413">
        <ele>20.7</ele>
        <time>2023-05-19T12:34:25Z</time>
      </trkpt>
      <trkpt lat="49.92661" lon="2.23412">
        <ele>20.7</ele>
        <time>2023-05-19T12:34:26Z</time>
      </trkpt>
      <trkpt lat="49.9266" lon="2.2341">
        <ele>20.7</ele>
        <time>2023-05-19T12:34:27Z</time>
      </trkpt>
      <trkpt lat="49.9266" lon="2.23408">
        <ele>20.7</ele>
        <time>2023-05-19T12:34:28Z</time>
      </trkpt>
      <trkpt lat="49.9266" lon="2.23406">
        <ele>20.7</ele>
        <time>2023-05-19T12:34:29Z</time>
      </trkpt>
      <trkpt lat="49.9266" lon="2.23404">
        <ele>20.7</ele>
        <time>2023-05-19T12:34:31Z</time>
      </trkpt>
      <trkpt lat="49.9266" lon="2.23403">
        <ele>20.7</ele>
        <time>2023-05-19T12:34:32Z</time>
      </trkpt>
      <trkpt lat="49.9266" lon="2.23402">
        <ele>20.7</ele>
        <time>2023-05-19T12:34:33Z</time>
      </trkpt>
      <trkpt lat="49.9266" lon="2.23401">
        <ele>20.7</ele>
        <time>2023-05-19T12:34:34Z</time>
      </trkpt>
      <trkpt lat="49.9266" lon="2.23399">
        <ele>20.7</ele>
        <time>2023-05-19T12:34:36Z</time>
      </trkpt>
      <trkpt lat="49.92659" lon="2.23398">
        <ele>20.7</ele>
        <time>2023-05-19T12:34:37Z</time>
      </trkpt>
      <trkpt lat="49.92659" lon="2.23398">
        <ele>20.7</ele>
        <time>2023-05-19T12:34:38Z</time>
      </trkpt>
      <trkpt lat="49.92659" lon="2.23398">
        <ele>20.7</ele>
        <time>2023-05-19T12:34:39Z</time>
      </trkpt>
      <trkpt lat="49.92659" lon="2.23397">
        <ele>20.7</ele>
        <time>2023-05-19T12:34:40Z</time>
      </trkpt>
      <trkpt lat="49.9266" lon="2.23395">
        <ele>20.7</ele>
        <time>2023-05-19T12:34:42Z</time>
      </trkpt>
      <trkpt lat="49.9266" lon="2.23393">
        <ele>20.7</ele>
        <time>2023-05-19T12:34:44Z</time>
      </trkpt>
      <trkpt lat="49.9266" lon="2.23392">
        <ele>20.7</ele>
        <time>2023-05-19T12:34:45Z</time>
      </trkpt>
      <trkpt lat="49.9266" lon="2.23391">
        <ele>20.7</ele>
        <time>2023-05-19T12:34:46Z</time>
      </trkpt>
      <trkpt lat="49.92661" lon="2.23389">
        <ele>20.7</ele>
        <time>2023-05-19T12:34:47Z</time>
      </trkpt>
      <trkpt lat="49.92661" lon="2.23388">
        <ele>20.7</ele>
        <time>2023-05-19T12:34:49Z</time>
      </trkpt>
      <trkpt lat="49.92661" lon="2.23384">
        <ele>20.7</ele>
        <time>2023-05-19T12:34:50Z</time>
      </trkpt>
      <trkpt lat="49.92661" lon="2.23383">
        <ele>20.7</ele>
        <time>2023-05-19T12:34:51Z</time>
      </trkpt>
      <trkpt lat="49.92661" lon="2.23382">
        <ele>20.7</ele>
        <time>2023-05-19T12:34:52Z</time>
      </trkpt>
      <trkpt lat="49.92661" lon="2.2338">
        <ele>20.7</ele>
        <time>2023-05-19T12:34:53Z</time>
      </trkpt>
      <trkpt lat="49.9266" lon="2.23379">
        <ele>20.7</ele>
        <time>2023-05-19T12:34:54Z</time>
      </trkpt>
      <trkpt lat="49.9266" lon="2.23377">
        <ele>20.7</ele>
        <time>2023-05-19T12:34:55Z</time>
      </trkpt>
      <trkpt lat="49.9266" lon="2.23376">
        <ele>20.7</ele>
        <time>2023-05-19T12:34:56Z</time>
      </trkpt>
      <trkpt lat="49.9266" lon="2.23374">
        <ele>20.8</ele>
        <time>2023-05-19T12:34:58Z</time>
      </trkpt>
      <trkpt lat="49.92659" lon="2.23372">
        <ele>20.8</ele>
        <time>2023-05-19T12:34:59Z</time>
      </trkpt>
      <trkpt lat="49.92659" lon="2.2337">
        <ele>20.8</ele>
        <time>2023-05-19T12:35:00Z</time>
      </trkpt>
      <trkpt lat="49.92659" lon="2.23367">
        <ele>20.8</ele>
        <time>2023-05-19T12:35:01Z</time>
      </trkpt>
      <trkpt lat="49.92659" lon="2.23362">
        <ele>20.8</ele>
        <time>2023-05-19T12:35:02Z</time>
      </trkpt>
      <trkpt lat="49.92658" lon="2.2336">
        <ele>20.8</ele>
        <time>2023-05-19T12:35:03Z</time>
      </trkpt>
      <trkpt lat="49.92658" lon="2.23356">
        <ele>20.8</ele>
        <time>2023-05-19T12:35:04Z</time>
      </trkpt>
      <trkpt lat="49.92658" lon="2.23351">
        <ele>20.9</ele>
        <time>2023-05-19T12:35:06Z</time>
      </trkpt>
      <trkpt lat="49.92658" lon="2.23349">
        <ele>20.9</ele>
        <time>2023-05-19T12:35:07Z</time>
      </trkpt>
      <trkpt lat="49.92659" lon="2.23346">
        <ele>20.9</ele>
        <time>2023-05-19T12:35:08Z</time>
      </trkpt>
      <trkpt lat="49.92659" lon="2.23345">
        <ele>20.9</ele>
        <time>2023-05-19T12:35:09Z</time>
      </trkpt>
      <trkpt lat="49.92659" lon="2.23344">
        <ele>20.9</ele>
        <time>2023-05-19T12:35:10Z</time>
      </trkpt>
      <trkpt lat="49.92659" lon="2.23342">
        <ele>20.9</ele>
        <time>2023-05-19T12:35:11Z</time>
      </trkpt>
      <trkpt lat="49.9266" lon="2.2334">
        <ele>20.9</ele>
        <time>2023-05-19T12:35:12Z</time>
      </trkpt>
      <trkpt lat="49.9266" lon="2.23338">
        <ele>21</ele>
        <time>2023-05-19T12:35:14Z</time>
      </trkpt>
      <trkpt lat="49.92661" lon="2.23335">
        <ele>21</ele>
        <time>2023-05-19T12:35:15Z</time>
      </trkpt>
      <trkpt lat="49.92661" lon="2.23333">
        <ele>21</ele>
        <time>2023-05-19T12:35:16Z</time>
      </trkpt>
      <trkpt lat="49.92662" lon="2.23331">
        <ele>21</ele>
        <time>2023-05-19T12:35:17Z</time>
      </trkpt>
      <trkpt lat="49.92662" lon="2.23328">
        <ele>21</ele>
        <time>2023-05-19T12:35:18Z</time>
      </trkpt>
      <trkpt lat="49.92662" lon="2.23323">
        <ele>21.1</ele>
        <time>2023-05-19T12:35:19Z</time>
      </trkpt>
      <trkpt lat="49.92663" lon="2.23322">
        <ele>21.1</ele>
        <time>2023-05-19T12:35:20Z</time>
      </trkpt>
      <trkpt lat="49.92663" lon="2.2332">
        <ele>21.1</ele>
        <time>2023-05-19T12:35:21Z</time>
      </trkpt>
      <trkpt lat="49.92664" lon="2.23316">
        <ele>21.1</ele>
        <time>2023-05-19T12:35:23Z</time>
      </trkpt>
      <trkpt lat="49.92664" lon="2.23313">
        <ele>21.1</ele>
        <time>2023-05-19T12:35:24Z</time>
      </trkpt>
      <trkpt lat="49.92665" lon="2.23311">
        <ele>21.1</ele>
        <time>2023-05-19T12:35:25Z</time>
      </trkpt>
      <trkpt lat="49.92665" lon="2.23308">
        <ele>21.1</ele>
        <time>2023-05-19T12:35:27Z</time>
      </trkpt>
      <trkpt lat="49.92666" lon="2.23306">
        <ele>21.2</ele>
        <time>2023-05-19T12:35:28Z</time>
      </trkpt>
      <trkpt lat="49.92666" lon="2.23303">
        <ele>21.2</ele>
        <time>2023-05-19T12:35:29Z</time>
      </trkpt>
      <trkpt lat="49.92666" lon="2.233">
        <ele>21.2</ele>
        <time>2023-05-19T12:35:30Z</time>
      </trkpt>
      <trkpt lat="49.92666" lon="2.23298">
        <ele>21.2</ele>
        <time>2023-05-19T12:35:31Z</time>
      </trkpt>
      <trkpt lat="49.92666" lon="2.23295">
        <ele>21.2</ele>
        <time>2023-05-19T12:35:32Z</time>
      </trkpt>
      <trkpt lat="49.92667" lon="2.2329">
        <ele>21.2</ele>
        <time>2023-05-19T12:35:34Z</time>
      </trkpt>
      <trkpt lat="49.92667" lon="2.23289">
        <ele>21.2</ele>
        <time>2023-05-19T12:35:35Z</time>
      </trkpt>
      <trkpt lat="49.92668" lon="2.23287">
        <ele>21.2</ele>
        <time>2023-05-19T12:35:36Z</time>
      </trkpt>
      <trkpt lat="49.92668" lon="2.23285">
        <ele>21.3</ele>
        <time>2023-05-19T12:35:38Z</time>
      </trkpt>
      <trkpt lat="49.92669" lon="2.23283">
        <ele>21.3</ele>
        <time>2023-05-19T12:35:39Z</time>
      </trkpt>
      <trkpt lat="49.92669" lon="2.2328">
        <ele>21.3</ele>
        <time>2023-05-19T12:35:40Z</time>
      </trkpt>
      <trkpt lat="49.92669" lon="2.23278">
        <ele>21.3</ele>
        <time>2023-05-19T12:35:41Z</time>
      </trkpt>
      <trkpt lat="49.9267" lon="2.23277">
        <ele>21.3</ele>
        <time>2023-05-19T12:35:42Z</time>
      </trkpt>
      <trkpt lat="49.9267" lon="2.23276">
        <ele>21.3</ele>
        <time>2023-05-19T12:35:43Z</time>
      </trkpt>
      <trkpt lat="49.9267" lon="2.23274">
        <ele>21.3</ele>
        <time>2023-05-19T12:35:45Z</time>
      </trkpt>
      <trkpt lat="49.9267" lon="2.23273">
        <ele>21.3</ele>
        <time>2023-05-19T12:35:46Z</time>
      </trkpt>
      <trkpt lat="49.9267" lon="2.23271">
        <ele>21.3</ele>
        <time>2023-05-19T12:35:47Z</time>
      </trkpt>
      <trkpt lat="49.9267" lon="2.2327">
        <ele>21.3</ele>
        <time>2023-05-19T12:35:48Z</time>
      </trkpt>
      <trkpt lat="49.9267" lon="2.23268">
        <ele>21.4</ele>
        <time>2023-05-19T12:35:49Z</time>
      </trkpt>
      <trkpt lat="49.9267" lon="2.23266">
        <ele>21.4</ele>
        <time>2023-05-19T12:35:50Z</time>
      </trkpt>
      <trkpt lat="49.92671" lon="2.23265">
        <ele>21.4</ele>
        <time>2023-05-19T12:35:51Z</time>
      </trkpt>
      <trkpt lat="49.92671" lon="2.23263">
        <ele>21.4</ele>
        <time>2023-05-19T12:35:52Z</time>
      </trkpt>
      <trkpt lat="49.92671" lon="2.23262">
        <ele>21.4</ele>
        <time>2023-05-19T12:35:53Z</time>
      </trkpt>
      <trkpt lat="49.92671" lon="2.23261">
        <ele>21.4</ele>
        <time>2023-05-19T12:35:54Z</time>
      </trkpt>
      <trkpt lat="49.92671" lon="2.23259">
        <ele>21.4</ele>
        <time>2023-05-19T12:35:55Z</time>
      </trkpt>
      <trkpt lat="49.92671" lon="2.23256">
        <ele>21.4</ele>
        <time>2023-05-19T12:35:56Z</time>
      </trkpt>
      <trkpt lat="49.92671" lon="2.23251">
        <ele>21.5</ele>
        <time>2023-05-19T12:35:58Z</time>
      </trkpt>
      <trkpt lat="49.92672" lon="2.2325">
        <ele>21.5</ele>
        <time>2023-05-19T12:36:00Z</time>
      </trkpt>
      <trkpt lat="49.92672" lon="2.23248">
        <ele>21.5</ele>
        <time>2023-05-19T12:36:01Z</time>
      </trkpt>
      <trkpt lat="49.92672" lon="2.23247">
        <ele>21.5</ele>
        <time>2023-05-19T12:36:02Z</time>
      </trkpt>
      <trkpt lat="49.92672" lon="2.23245">
        <ele>21.5</ele>
        <time>2023-05-19T12:36:03Z</time>
      </trkpt>
      <trkpt lat="49.92672" lon="2.23243">
        <ele>21.5</ele>
        <time>2023-05-19T12:36:04Z</time>
      </trkpt>
      <trkpt lat="49.92672" lon="2.23241">
        <ele>21.5</ele>
        <time>2023-05-19T12:36:05Z</time>
      </trkpt>
      <trkpt lat="49.92673" lon="2.23239">
        <ele>21.6</ele>
        <time>2023-05-19T12:36:06Z</time>
      </trkpt>
      <trkpt lat="49.92673" lon="2.23237">
        <ele>21.6</ele>
        <time>2023-05-19T12:36:07Z</time>
      </trkpt>
      <trkpt lat="49.92674" lon="2.23235">
        <ele>21.6</ele>
        <time>2023-05-19T12:36:08Z</time>
      </trkpt>
      <trkpt lat="49.92675" lon="2.23233">
        <ele>21.6</ele>
        <time>2023-05-19T12:36:10Z</time>
      </trkpt>
      <trkpt lat="49.92676" lon="2.23232">
        <ele>21.6</ele>
        <time>2023-05-19T12:36:11Z</time>
      </trkpt>
      <trkpt lat="49.92677" lon="2.23231">
        <ele>21.6</ele>
        <time>2023-05-19T12:36:12Z</time>
      </trkpt>
      <trkpt lat="49.92677" lon="2.23229">
        <ele>21.6</ele>
        <time>2023-05-19T12:36:13Z</time>
      </trkpt>
      <trkpt lat="49.92677" lon="2.23227">
        <ele>21.7</ele>
        <time>2023-05-19T12:36:15Z</time>
      </trkpt>
      <trkpt lat="49.92677" lon="2.23226">
        <ele>21.7</ele>
        <time>2023-05-19T12:36:16Z</time>
      </trkpt>
      <trkpt lat="49.92676" lon="2.23226">
        <ele>21.7</ele>
        <time>2023-05-19T12:36:17Z</time>
      </trkpt>
      <trkpt lat="49.92676" lon="2.23225">
        <ele>21.7</ele>
        <time>2023-05-19T12:36:18Z</time>
      </trkpt>
      <trkpt lat="49.92676" lon="2.23225">
        <ele>21.7</ele>
        <time>2023-05-19T12:36:19Z</time>
      </trkpt>
      <trkpt lat="49.92675" lon="2.23225">
        <ele>21.7</ele>
        <time>2023-05-19T12:36:20Z</time>
      </trkpt>
      <trkpt lat="49.92676" lon="2.23225">
        <ele>21.7</ele>
        <time>2023-05-19T12:36:22Z</time>
      </trkpt>
      <trkpt lat="49.92676" lon="2.23224">
        <ele>21.7</ele>
        <time>2023-05-19T12:36:23Z</time>
      </trkpt>
      <trkpt lat="49.92676" lon="2.23224">
        <ele>21.7</ele>
        <time>2023-05-19T12:36:24Z</time>
      </trkpt>
      <trkpt lat="49.92676" lon="2.23223">
        <ele>21.7</ele>
        <time>2023-05-19T12:36:25Z</time>
      </trkpt>
      <trkpt lat="49.92676" lon="2.23221">
        <ele>21.7</ele>
        <time>2023-05-19T12:36:26Z</time>
      </trkpt>
      <trkpt lat="49.92677" lon="2.23218">
        <ele>21.7</ele>
        <time>2023-05-19T12:36:27Z</time>
      </trkpt>
      <trkpt lat="49.92678" lon="2.23215">
        <ele>21.7</ele>
        <time>2023-05-19T12:36:29Z</time>
      </trkpt>
      <trkpt lat="49.92679" lon="2.23213">
        <ele>21.8</ele>
        <time>2023-05-19T12:36:30Z</time>
      </trkpt>
      <trkpt lat="49.9268" lon="2.2321">
        <ele>21.8</ele>
        <time>2023-05-19T12:36:31Z</time>
      </trkpt>
      <trkpt lat="49.92681" lon="2.23208">
        <ele>21.8</ele>
        <time>2023-05-19T12:36:32Z</time>
      </trkpt>
      <trkpt lat="49.92682" lon="2.23206">
        <ele>21.8</ele>
        <time>2023-05-19T12:36:33Z</time>
      </trkpt>
      <trkpt lat="49.92683" lon="2.23204">
        <ele>21.8</ele>
        <time>2023-05-19T12:36:34Z</time>
      </trkpt>
      <trkpt lat="49.92684" lon="2.23202">
        <ele>21.8</ele>
        <time>2023-05-19T12:36:35Z</time>
      </trkpt>
      <trkpt lat="49.92686" lon="2.23198">
        <ele>21.8</ele>
        <time>2023-05-19T12:36:36Z</time>
      </trkpt>
      <trkpt lat="49.92687" lon="2.23196">
        <ele>21.9</ele>
        <time>2023-05-19T12:36:38Z</time>
      </trkpt>
      <trkpt lat="49.92688" lon="2.23194">
        <ele>21.9</ele>
        <time>2023-05-19T12:36:39Z</time>
      </trkpt>
      <trkpt lat="49.92688" lon="2.23192">
        <ele>21.9</ele>
        <time>2023-05-19T12:36:40Z</time>
      </trkpt>
      <trkpt lat="49.9269" lon="2.23187">
        <ele>21.9</ele>
        <time>2023-05-19T12:36:41Z</time>
      </trkpt>
      <trkpt lat="49.92691" lon="2.23185">
        <ele>21.9</ele>
        <time>2023-05-19T12:36:42Z</time>
      </trkpt>
      <trkpt lat="49.92692" lon="2.2318">
        <ele>21.9</ele>
        <time>2023-05-19T12:36:44Z</time>
      </trkpt>
      <trkpt lat="49.92692" lon="2.23179">
        <ele>21.9</ele>
        <time>2023-05-19T12:36:45Z</time>
      </trkpt>
      <trkpt lat="49.92693" lon="2.23176">
        <ele>21.9</ele>
        <time>2023-05-19T12:36:46Z</time>
      </trkpt>
      <trkpt lat="49.92694" lon="2.23174">
        <ele>21.9</ele>
        <time>2023-05-19T12:36:47Z</time>
      </trkpt>
      <trkpt lat="49.92694" lon="2.23172">
        <ele>21.9</ele>
        <time>2023-05-19T12:36:48Z</time>
      </trkpt>
      <trkpt lat="49.92694" lon="2.2317">
        <ele>21.9</ele>
        <time>2023-05-19T12:36:49Z</time>
      </trkpt>
      <trkpt lat="49.92695" lon="2.23168">
        <ele>22</ele>
        <time>2023-05-19T12:36:50Z</time>
      </trkpt>
      <trkpt lat="49.92696" lon="2.23166">
        <ele>22</ele>
        <time>2023-05-19T12:36:51Z</time>
      </trkpt>
      <trkpt lat="49.92697" lon="2.23163">
        <ele>22</ele>
        <time>2023-05-19T12:36:52Z</time>
      </trkpt>
      <trkpt lat="49.92698" lon="2.23162">
        <ele>22</ele>
        <time>2023-05-19T12:36:54Z</time>
      </trkpt>
      <trkpt lat="49.92698" lon="2.23162">
        <ele>22</ele>
        <time>2023-05-19T12:36:55Z</time>
      </trkpt>
      <trkpt lat="49.92699" lon="2.23161">
        <ele>22</ele>
        <time>2023-05-19T12:36:56Z</time>
      </trkpt>
      <trkpt lat="49.927" lon="2.23159">
        <ele>22</ele>
        <time>2023-05-19T12:36:57Z</time>
      </trkpt>
      <trkpt lat="49.92701" lon="2.23156">
        <ele>22</ele>
        <time>2023-05-19T12:36:59Z</time>
      </trkpt>
      <trkpt lat="49.92702" lon="2.23155">
        <ele>21.9</ele>
        <time>2023-05-19T12:37:00Z</time>
      </trkpt>
      <trkpt lat="49.92702" lon="2.23154">
        <ele>21.8</ele>
        <time>2023-05-19T12:37:01Z</time>
      </trkpt>
      <trkpt lat="49.92701" lon="2.23152">
        <ele>21.8</ele>
        <time>2023-05-19T12:37:03Z</time>
      </trkpt>
      <trkpt lat="49.927" lon="2.23152">
        <ele>21.7</ele>
        <time>2023-05-19T12:37:04Z</time>
      </trkpt>
      <trkpt lat="49.92699" lon="2.23152">
        <ele>21.6</ele>
        <time>2023-05-19T12:37:06Z</time>
      </trkpt>
      <trkpt lat="49.92698" lon="2.23151">
        <ele>21.6</ele>
        <time>2023-05-19T12:37:07Z</time>
      </trkpt>
      <trkpt lat="49.92697" lon="2.23151">
        <ele>21.5</ele>
        <time>2023-05-19T12:37:09Z</time>
      </trkpt>
      <trkpt lat="49.92696" lon="2.2315">
        <ele>21.5</ele>
        <time>2023-05-19T12:37:10Z</time>
      </trkpt>
      <trkpt lat="49.92696" lon="2.23149">
        <ele>21.4</ele>
        <time>2023-05-19T12:37:11Z</time>
      </trkpt>
      <trkpt lat="49.92695" lon="2.23149">
        <ele>21.3</ele>
        <time>2023-05-19T12:37:13Z</time>
      </trkpt>
      <trkpt lat="49.92694" lon="2.23148">
        <ele>21.3</ele>
        <time>2023-05-19T12:37:14Z</time>
      </trkpt>
      <trkpt lat="49.92693" lon="2.23148">
        <ele>21.2</ele>
        <time>2023-05-19T12:37:16Z</time>
      </trkpt>
      <trkpt lat="49.92692" lon="2.23147">
        <ele>21.1</ele>
        <time>2023-05-19T12:37:17Z</time>
      </trkpt>
      <trkpt lat="49.92691" lon="2.23147">
        <ele>21.1</ele>
        <time>2023-05-19T12:38:05Z</time>
      </trkpt>
      <trkpt lat="49.92691" lon="2.23146">
        <ele>21</ele>
        <time>2023-05-19T12:38:06Z</time>
      </trkpt>
      <trkpt lat="49.92688" lon="2.23143">
        <ele>20.8</ele>
        <time>2023-05-19T12:38:07Z</time>
      </trkpt>
      <trkpt lat="49.92687" lon="2.23141">
        <ele>20.6</ele>
        <time>2023-05-19T12:38:08Z</time>
      </trkpt>
      <trkpt lat="49.92686" lon="2.2314">
        <ele>20.5</ele>
        <time>2023-05-19T12:38:09Z</time>
      </trkpt>
      <trkpt lat="49.92685" lon="2.23139">
        <ele>20.4</ele>
        <time>2023-05-19T12:38:10Z</time>
      </trkpt>
      <trkpt lat="49.92686" lon="2.23138">
        <ele>20.4</ele>
        <time>2023-05-19T12:38:12Z</time>
      </trkpt>
      <trkpt lat="49.92686" lon="2.23138">
        <ele>20.4</ele>
        <time>2023-05-19T12:38:13Z</time>
      </trkpt>
      <trkpt lat="49.92686" lon="2.23139">
        <ele>20.4</ele>
        <time>2023-05-19T12:38:15Z</time>
      </trkpt>
      <trkpt lat="49.92686" lon="2.23139">
        <ele>20.3</ele>
        <time>2023-05-19T12:38:16Z</time>
      </trkpt>
      <trkpt lat="49.92685" lon="2.23139">
        <ele>20.3</ele>
        <time>2023-05-19T12:38:17Z</time>
      </trkpt>
      <trkpt lat="49.92685" lon="2.23139">
        <ele>20.3</ele>
        <time>2023-05-19T12:38:19Z</time>
      </trkpt>
      <trkpt lat="49.92685" lon="2.23139">
        <ele>20.3</ele>
        <time>2023-05-19T12:38:20Z</time>
      </trkpt>
      <trkpt lat="49.92685" lon="2.23139">
        <ele>20.3</ele>
        <time>2023-05-19T12:38:22Z</time>
      </trkpt>
      <trkpt lat="49.92685" lon="2.23139">
        <ele>20.3</ele>
        <time>2023-05-19T12:38:23Z</time>
      </trkpt>
      <trkpt lat="49.92685" lon="2.23139">
        <ele>20.3</ele>
        <time>2023-05-19T12:38:25Z</time>
      </trkpt>
      <trkpt lat="49.92687" lon="2.23144">
        <ele>20</ele>
        <time>2023-05-19T12:42:26Z</time>
      </trkpt>
      <trkpt lat="49.92687" lon="2.23143">
        <ele>20</ele>
        <time>2023-05-19T12:42:27Z</time>
      </trkpt>
      <trkpt lat="49.92687" lon="2.23142">
        <ele>19.9</ele>
        <time>2023-05-19T12:42:28Z</time>
      </trkpt>
      <trkpt lat="49.92686" lon="2.23142">
        <ele>19.9</ele>
        <time>2023-05-19T12:42:29Z</time>
      </trkpt>
      <trkpt lat="49.92686" lon="2.23141">
        <ele>19.8</ele>
        <time>2023-05-19T12:42:30Z</time>
      </trkpt>
      <trkpt lat="49.92685" lon="2.23141">
        <ele>19.8</ele>
        <time>2023-05-19T12:42:31Z</time>
      </trkpt>
      <trkpt lat="49.92685" lon="2.23141">
        <ele>19.7</ele>
        <time>2023-05-19T12:42:33Z</time>
      </trkpt>
      <trkpt lat="49.92684" lon="2.23141">
        <ele>19.7</ele>
        <time>2023-05-19T12:42:34Z</time>
      </trkpt>
      <trkpt lat="49.92683" lon="2.23141">
        <ele>19.6</ele>
        <time>2023-05-19T12:42:35Z</time>
      </trkpt>
      <trkpt lat="49.92682" lon="2.23142">
        <ele>19.5</ele>
        <time>2023-05-19T12:42:36Z</time>
      </trkpt>
      <trkpt lat="49.92681" lon="2.23142">
        <ele>19.4</ele>
        <time>2023-05-19T12:42:37Z</time>
      </trkpt>
      <trkpt lat="49.92679" lon="2.23142">
        <ele>19.3</ele>
        <time>2023-05-19T12:42:38Z</time>
      </trkpt>
      <trkpt lat="49.92678" lon="2.23142">
        <ele>19.2</ele>
        <time>2023-05-19T12:42:39Z</time>
      </trkpt>
      <trkpt lat="49.92676" lon="2.23141">
        <ele>19</ele>
        <time>2023-05-19T12:42:40Z</time>
      </trkpt>
      <trkpt lat="49.92675" lon="2.23141">
        <ele>18.9</ele>
        <time>2023-05-19T12:42:42Z</time>
      </trkpt>
      <trkpt lat="49.92674" lon="2.23141">
        <ele>18.9</ele>
        <time>2023-05-19T12:42:43Z</time>
      </trkpt>
      <trkpt lat="49.92672" lon="2.2314">
        <ele>18.7</ele>
        <time>2023-05-19T12:42:44Z</time>
      </trkpt>
      <trkpt lat="49.92671" lon="2.2314">
        <ele>18.6</ele>
        <time>2023-05-19T12:42:45Z</time>
      </trkpt>
      <trkpt lat="49.9267" lon="2.2314">
        <ele>18.6</ele>
        <time>2023-05-19T12:42:46Z</time>
      </trkpt>
      <trkpt lat="49.92669" lon="2.2314">
        <ele>18.5</ele>
        <time>2023-05-19T12:42:48Z</time>
      </trkpt>
      <trkpt lat="49.92667" lon="2.23139">
        <ele>18.4</ele>
        <time>2023-05-19T12:42:49Z</time>
      </trkpt>
      <trkpt lat="49.92665" lon="2.23139">
        <ele>18.3</ele>
        <time>2023-05-19T12:42:50Z</time>
      </trkpt>
      <trkpt lat="49.92665" lon="2.23138">
        <ele>18.2</ele>
        <time>2023-05-19T12:42:51Z</time>
      </trkpt>
      <trkpt lat="49.92664" lon="2.23138">
        <ele>18.2</ele>
        <time>2023-05-19T12:42:52Z</time>
      </trkpt>
      <trkpt lat="49.92662" lon="2.23137">
        <ele>18</ele>
        <time>2023-05-19T12:42:53Z</time>
      </trkpt>
      <trkpt lat="49.92661" lon="2.23136">
        <ele>18</ele>
        <time>2023-05-19T12:42:54Z</time>
      </trkpt>
      <trkpt lat="49.92661" lon="2.23135">
        <ele>17.9</ele>
        <time>2023-05-19T12:42:55Z</time>
      </trkpt>
      <trkpt lat="49.9266" lon="2.23133">
        <ele>17.9</ele>
        <time>2023-05-19T12:42:56Z</time>
      </trkpt>
      <trkpt lat="49.92659" lon="2.23131">
        <ele>17.8</ele>
        <time>2023-05-19T12:42:57Z</time>
      </trkpt>
      <trkpt lat="49.92658" lon="2.23129">
        <ele>17.7</ele>
        <time>2023-05-19T12:42:59Z</time>
      </trkpt>
      <trkpt lat="49.92656" lon="2.23128">
        <ele>17.6</ele>
        <time>2023-05-19T12:43:00Z</time>
      </trkpt>
      <trkpt lat="49.92655" lon="2.23126">
        <ele>17.6</ele>
        <time>2023-05-19T12:43:01Z</time>
      </trkpt>
      <trkpt lat="49.92654" lon="2.23125">
        <ele>17.3</ele>
        <time>2023-05-19T12:43:02Z</time>
      </trkpt>
      <trkpt lat="49.92653" lon="2.23123">
        <ele>17.3</ele>
        <time>2023-05-19T12:43:03Z</time>
      </trkpt>
      <trkpt lat="49.92652" lon="2.23122">
        <ele>17.2</ele>
        <time>2023-05-19T12:43:04Z</time>
      </trkpt>
      <trkpt lat="49.9265" lon="2.23121">
        <ele>17.1</ele>
        <time>2023-05-19T12:43:06Z</time>
      </trkpt>
      <trkpt lat="49.92649" lon="2.23121">
        <ele>17.1</ele>
        <time>2023-05-19T12:43:07Z</time>
      </trkpt>
      <trkpt lat="49.92648" lon="2.2312">
        <ele>17</ele>
        <time>2023-05-19T12:43:08Z</time>
      </trkpt>
      <trkpt lat="49.92647" lon="2.23119">
        <ele>17</ele>
        <time>2023-05-19T12:43:09Z</time>
      </trkpt>
      <trkpt lat="49.92647" lon="2.23118">
        <ele>16.9</ele>
        <time>2023-05-19T12:43:10Z</time>
      </trkpt>
      <trkpt lat="49.92646" lon="2.23117">
        <ele>16.9</ele>
        <time>2023-05-19T12:43:11Z</time>
      </trkpt>
      <trkpt lat="49.92644" lon="2.23115">
        <ele>16.8</ele>
        <time>2023-05-19T12:43:13Z</time>
      </trkpt>
      <trkpt lat="49.92644" lon="2.23114">
        <ele>16.8</ele>
        <time>2023-05-19T12:43:14Z</time>
      </trkpt>
      <trkpt lat="49.92643" lon="2.23113">
        <ele>16.7</ele>
        <time>2023-05-19T12:43:15Z</time>
      </trkpt>
      <trkpt lat="49.92643" lon="2.23111">
        <ele>16.7</ele>
        <time>2023-05-19T12:43:16Z</time>
      </trkpt>
      <trkpt lat="49.92642" lon="2.2311">
        <ele>16.6</ele>
        <time>2023-05-19T12:43:17Z</time>
      </trkpt>
      <trkpt lat="49.92641" lon="2.23107">
        <ele>16.6</ele>
        <time>2023-05-19T12:43:19Z</time>
      </trkpt>
      <trkpt lat="49.92641" lon="2.23104">
        <ele>16.5</ele>
        <time>2023-05-19T12:43:20Z</time>
      </trkpt>
      <trkpt lat="49.92642" lon="2.23102">
        <ele>16.5</ele>
        <time>2023-05-19T12:43:21Z</time>
      </trkpt>
      <trkpt lat="49.92642" lon="2.231">
        <ele>16.4</ele>
        <time>2023-05-19T12:43:22Z</time>
      </trkpt>
      <trkpt lat="49.92642" lon="2.23098">
        <ele>16.4</ele>
        <time>2023-05-19T12:43:23Z</time>
      </trkpt>
      <trkpt lat="49.92643" lon="2.23093">
        <ele>16.3</ele>
        <time>2023-05-19T12:43:25Z</time>
      </trkpt>
      <trkpt lat="49.92644" lon="2.23092">
        <ele>16.3</ele>
        <time>2023-05-19T12:43:26Z</time>
      </trkpt>
      <trkpt lat="49.92645" lon="2.23088">
        <ele>16.2</ele>
        <time>2023-05-19T12:43:28Z</time>
      </trkpt>
      <trkpt lat="49.92645" lon="2.23086">
        <ele>16.2</ele>
        <time>2023-05-19T12:43:29Z</time>
      </trkpt>
      <trkpt lat="49.92646" lon="2.23083">
        <ele>16.1</ele>
        <time>2023-05-19T12:43:30Z</time>
      </trkpt>
      <trkpt lat="49.92647" lon="2.23081">
        <ele>16.1</ele>
        <time>2023-05-19T12:43:31Z</time>
      </trkpt>
      <trkpt lat="49.92648" lon="2.23079">
        <ele>16.1</ele>
        <time>2023-05-19T12:43:32Z</time>
      </trkpt>
      <trkpt lat="49.92649" lon="2.23077">
        <ele>16.1</ele>
        <time>2023-05-19T12:43:33Z</time>
      </trkpt>
      <trkpt lat="49.9265" lon="2.23075">
        <ele>16.1</ele>
        <time>2023-05-19T12:43:35Z</time>
      </trkpt>
      <trkpt lat="49.92651" lon="2.23073">
        <ele>16</ele>
        <time>2023-05-19T12:43:36Z</time>
      </trkpt>
      <trkpt lat="49.92651" lon="2.23069">
        <ele>16</ele>
        <time>2023-05-19T12:43:37Z</time>
      </trkpt>
      <trkpt lat="49.92652" lon="2.23068">
        <ele>16</ele>
        <time>2023-05-19T12:43:38Z</time>
      </trkpt>
      <trkpt lat="49.92652" lon="2.23066">
        <ele>16</ele>
        <time>2023-05-19T12:43:39Z</time>
      </trkpt>
      <trkpt lat="49.92653" lon="2.23063">
        <ele>16</ele>
        <time>2023-05-19T12:43:40Z</time>
      </trkpt>
      <trkpt lat="49.92653" lon="2.23062">
        <ele>16</ele>
        <time>2023-05-19T12:43:41Z</time>
      </trkpt>
      <trkpt lat="49.92653" lon="2.2306">
        <ele>16</ele>
        <time>2023-05-19T12:43:42Z</time>
      </trkpt>
      <trkpt lat="49.92654" lon="2.23058">
        <ele>16</ele>
        <time>2023-05-19T12:43:44Z</time>
      </trkpt>
      <trkpt lat="49.92655" lon="2.23057">
        <ele>15.9</ele>
        <time>2023-05-19T12:43:45Z</time>
      </trkpt>
      <trkpt lat="49.92656" lon="2.23055">
        <ele>15.9</ele>
        <time>2023-05-19T12:43:46Z</time>
      </trkpt>
      <trkpt lat="49.92656" lon="2.23054">
        <ele>15.9</ele>
        <time>2023-05-19T12:43:47Z</time>
      </trkpt>
      <trkpt lat="49.92656" lon="2.23052">
        <ele>15.9</ele>
        <time>2023-05-19T12:43:48Z</time>
      </trkpt>
      <trkpt lat="49.92657" lon="2.23051">
        <ele>15.9</ele>
        <time>2023-05-19T12:43:49Z</time>
      </trkpt>
      <trkpt lat="49.92657" lon="2.23049">
        <ele>15.9</ele>
        <time>2023-05-19T12:43:50Z</time>
      </trkpt>
      <trkpt lat="49.92658" lon="2.23048">
        <ele>15.9</ele>
        <time>2023-05-19T12:43:51Z</time>
      </trkpt>
      <trkpt lat="49.9266" lon="2.23046">
        <ele>15.9</ele>
        <time>2023-05-19T12:43:53Z</time>
      </trkpt>
      <trkpt lat="49.92661" lon="2.23047">
        <ele>15.9</ele>
        <time>2023-05-19T12:43:54Z</time>
      </trkpt>
      <trkpt lat="49.92662" lon="2.23047">
        <ele>15.9</ele>
        <time>2023-05-19T12:43:55Z</time>
      </trkpt>
      <trkpt lat="49.92664" lon="2.23049">
        <ele>15.9</ele>
        <time>2023-05-19T12:43:56Z</time>
      </trkpt>
      <trkpt lat="49.92665" lon="2.23049">
        <ele>15.9</ele>
        <time>2023-05-19T12:43:57Z</time>
      </trkpt>
      <trkpt lat="49.92666" lon="2.23049">
        <ele>15.9</ele>
        <time>2023-05-19T12:43:58Z</time>
      </trkpt>
      <trkpt lat="49.92666" lon="2.23048">
        <ele>15.9</ele>
        <time>2023-05-19T12:43:59Z</time>
      </trkpt>
      <trkpt lat="49.92667" lon="2.23047">
        <ele>15.9</ele>
        <time>2023-05-19T12:44:00Z</time>
      </trkpt>
      <trkpt lat="49.92667" lon="2.23045">
        <ele>15.9</ele>
        <time>2023-05-19T12:44:02Z</time>
      </trkpt>
      <trkpt lat="49.92667" lon="2.23045">
        <ele>15.9</ele>
        <time>2023-05-19T12:44:03Z</time>
      </trkpt>
      <trkpt lat="49.92668" lon="2.23044">
        <ele>15.9</ele>
        <time>2023-05-19T12:44:04Z</time>
      </trkpt>
      <trkpt lat="49.92668" lon="2.23042">
        <ele>16</ele>
        <time>2023-05-19T12:44:06Z</time>
      </trkpt>
      <trkpt lat="49.92668" lon="2.23041">
        <ele>16</ele>
        <time>2023-05-19T12:44:07Z</time>
      </trkpt>
      <trkpt lat="49.92669" lon="2.23038">
        <ele>16</ele>
        <time>2023-05-19T12:44:08Z</time>
      </trkpt>
      <trkpt lat="49.9267" lon="2.23037">
        <ele>16</ele>
        <time>2023-05-19T12:44:09Z</time>
      </trkpt>
      <trkpt lat="49.9267" lon="2.23035">
        <ele>16</ele>
        <time>2023-05-19T12:44:10Z</time>
      </trkpt>
      <trkpt lat="49.92671" lon="2.23033">
        <ele>16</ele>
        <time>2023-05-19T12:44:11Z</time>
      </trkpt>
      <trkpt lat="49.92672" lon="2.23031">
        <ele>16</ele>
        <time>2023-05-19T12:44:12Z</time>
      </trkpt>
      <trkpt lat="49.92672" lon="2.23029">
        <ele>16</ele>
        <time>2023-05-19T12:44:13Z</time>
      </trkpt>
      <trkpt lat="49.92672" lon="2.23026">
        <ele>16</ele>
        <time>2023-05-19T12:44:15Z</time>
      </trkpt>
      <trkpt lat="49.92673" lon="2.23024">
        <ele>16</ele>
        <time>2023-05-19T12:44:16Z</time>
      </trkpt>
      <trkpt lat="49.92673" lon="2.23022">
        <ele>16</ele>
        <time>2023-05-19T12:44:17Z</time>
      </trkpt>
      <trkpt lat="49.92674" lon="2.23019">
        <ele>16</ele>
        <time>2023-05-19T12:44:18Z</time>
      </trkpt>
      <trkpt lat="49.92674" lon="2.23017">
        <ele>16</ele>
        <time>2023-05-19T12:44:20Z</time>
      </trkpt>
      <trkpt lat="49.92672" lon="2.23016">
        <ele>16.1</ele>
        <time>2023-05-19T12:44:21Z</time>
      </trkpt>
      <trkpt lat="49.92671" lon="2.23015">
        <ele>16.1</ele>
        <time>2023-05-19T12:44:22Z</time>
      </trkpt>
      <trkpt lat="49.92671" lon="2.23014">
        <ele>16.1</ele>
        <time>2023-05-19T12:44:23Z</time>
      </trkpt>
      <trkpt lat="49.92671" lon="2.23013">
        <ele>16.1</ele>
        <time>2023-05-19T12:44:24Z</time>
      </trkpt>
      <trkpt lat="49.92672" lon="2.23011">
        <ele>16.1</ele>
        <time>2023-05-19T12:44:26Z</time>
      </trkpt>
      <trkpt lat="49.92672" lon="2.2301">
        <ele>16.1</ele>
        <time>2023-05-19T12:44:27Z</time>
      </trkpt>
      <trkpt lat="49.92673" lon="2.23008">
        <ele>16.1</ele>
        <time>2023-05-19T12:44:28Z</time>
      </trkpt>
      <trkpt lat="49.92673" lon="2.23006">
        <ele>16.1</ele>
        <time>2023-05-19T12:44:29Z</time>
      </trkpt>
      <trkpt lat="49.92673" lon="2.23005">
        <ele>16.1</ele>
        <time>2023-05-19T12:44:31Z</time>
      </trkpt>
      <trkpt lat="49.92673" lon="2.23003">
        <ele>16.1</ele>
        <time>2023-05-19T12:44:32Z</time>
      </trkpt>
      <trkpt lat="49.92674" lon="2.23002">
        <ele>16.2</ele>
        <time>2023-05-19T12:44:33Z</time>
      </trkpt>
      <trkpt lat="49.92674" lon="2.23">
        <ele>16.2</ele>
        <time>2023-05-19T12:44:34Z</time>
      </trkpt>
      <trkpt lat="49.92675" lon="2.22998">
        <ele>16.2</ele>
        <time>2023-05-19T12:44:35Z</time>
      </trkpt>
      <trkpt lat="49.92675" lon="2.22995">
        <ele>16.2</ele>
        <time>2023-05-19T12:44:36Z</time>
      </trkpt>
      <trkpt lat="49.92676" lon="2.22993">
        <ele>16.2</ele>
        <time>2023-05-19T12:44:38Z</time>
      </trkpt>
      <trkpt lat="49.92677" lon="2.22991">
        <ele>16.2</ele>
        <time>2023-05-19T12:44:39Z</time>
      </trkpt>
      <trkpt lat="49.92677" lon="2.2299">
        <ele>16.2</ele>
        <time>2023-05-19T12:44:40Z</time>
      </trkpt>
      <trkpt lat="49.92677" lon="2.22988">
        <ele>16.2</ele>
        <time>2023-05-19T12:44:41Z</time>
      </trkpt>
      <trkpt lat="49.92678" lon="2.22987">
        <ele>16.3</ele>
        <time>2023-05-19T12:44:42Z</time>
      </trkpt>
      <trkpt lat="49.92678" lon="2.22985">
        <ele>16.3</ele>
        <time>2023-05-19T12:44:43Z</time>
      </trkpt>
      <trkpt lat="49.92678" lon="2.22982">
        <ele>16.3</ele>
        <time>2023-05-19T12:44:45Z</time>
      </trkpt>
      <trkpt lat="49.92678" lon="2.22981">
        <ele>16.3</ele>
        <time>2023-05-19T12:44:46Z</time>
      </trkpt>
      <trkpt lat="49.92678" lon="2.2298">
        <ele>16.3</ele>
        <time>2023-05-19T12:44:47Z</time>
      </trkpt>
      <trkpt lat="49.92679" lon="2.22978">
        <ele>16.3</ele>
        <time>2023-05-19T12:44:48Z</time>
      </trkpt>
      <trkpt lat="49.92679" lon="2.22974">
        <ele>16.3</ele>
        <time>2023-05-19T12:44:49Z</time>
      </trkpt>
      <trkpt lat="49.9268" lon="2.22973">
        <ele>16.3</ele>
        <time>2023-05-19T12:44:51Z</time>
      </trkpt>
      <trkpt lat="49.9268" lon="2.22971">
        <ele>16.4</ele>
        <time>2023-05-19T12:44:52Z</time>
      </trkpt>
      <trkpt lat="49.9268" lon="2.22966">
        <ele>16.4</ele>
        <time>2023-05-19T12:44:53Z</time>
      </trkpt>
      <trkpt lat="49.9268" lon="2.22964">
        <ele>16.4</ele>
        <time>2023-05-19T12:44:54Z</time>
      </trkpt>
      <trkpt lat="49.92679" lon="2.22959">
        <ele>16.4</ele>
        <time>2023-05-19T12:44:55Z</time>
      </trkpt>
      <trkpt lat="49.92679" lon="2.22958">
        <ele>16.4</ele>
        <time>2023-05-19T12:44:56Z</time>
      </trkpt>
      <trkpt lat="49.92678" lon="2.22955">
        <ele>16.4</ele>
        <time>2023-05-19T12:44:58Z</time>
      </trkpt>
      <trkpt lat="49.92678" lon="2.22953">
        <ele>16.4</ele>
        <time>2023-05-19T12:44:59Z</time>
      </trkpt>
      <trkpt lat="49.92678" lon="2.22952">
        <ele>16.4</ele>
        <time>2023-05-19T12:45:00Z</time>
      </trkpt>
      <trkpt lat="49.92679" lon="2.22951">
        <ele>16.4</ele>
        <time>2023-05-19T12:45:01Z</time>
      </trkpt>
      <trkpt lat="49.9268" lon="2.22951">
        <ele>16.4</ele>
        <time>2023-05-19T12:45:02Z</time>
      </trkpt>
      <trkpt lat="49.92682" lon="2.22952">
        <ele>16.4</ele>
        <time>2023-05-19T12:45:03Z</time>
      </trkpt>
      <trkpt lat="49.92683" lon="2.22952">
        <ele>16.4</ele>
        <time>2023-05-19T12:45:05Z</time>
      </trkpt>
      <trkpt lat="49.92684" lon="2.2295">
        <ele>16.4</ele>
        <time>2023-05-19T12:45:06Z</time>
      </trkpt>
      <trkpt lat="49.92684" lon="2.22949">
        <ele>16.4</ele>
        <time>2023-05-19T12:45:07Z</time>
      </trkpt>
      <trkpt lat="49.92685" lon="2.22948">
        <ele>16.4</ele>
        <time>2023-05-19T12:45:08Z</time>
      </trkpt>
      <trkpt lat="49.92685" lon="2.22946">
        <ele>16.4</ele>
        <time>2023-05-19T12:45:09Z</time>
      </trkpt>
      <trkpt lat="49.92685" lon="2.22945">
        <ele>16.4</ele>
        <time>2023-05-19T12:45:10Z</time>
      </trkpt>
      <trkpt lat="49.92686" lon="2.22943">
        <ele>16.4</ele>
        <time>2023-05-19T12:45:11Z</time>
      </trkpt>
      <trkpt lat="49.92686" lon="2.22941">
        <ele>16.4</ele>
        <time>2023-05-19T12:45:12Z</time>
      </trkpt>
      <trkpt lat="49.92686" lon="2.22939">
        <ele>16.3</ele>
        <time>2023-05-19T12:45:14Z</time>
      </trkpt>
      <trkpt lat="49.92687" lon="2.22935">
        <ele>16.3</ele>
        <time>2023-05-19T12:45:15Z</time>
      </trkpt>
      <trkpt lat="49.92687" lon="2.22934">
        <ele>16.3</ele>
        <time>2023-05-19T12:45:16Z</time>
      </trkpt>
      <trkpt lat="49.92688" lon="2.22933">
        <ele>16.3</ele>
        <time>2023-05-19T12:45:17Z</time>
      </trkpt>
      <trkpt lat="49.92688" lon="2.22931">
        <ele>16.3</ele>
        <time>2023-05-19T12:45:18Z</time>
      </trkpt>
      <trkpt lat="49.92688" lon="2.22929">
        <ele>16.3</ele>
        <time>2023-05-19T12:45:19Z</time>
      </trkpt>
      <trkpt lat="49.92689" lon="2.22927">
        <ele>16.3</ele>
        <time>2023-05-19T12:45:20Z</time>
      </trkpt>
      <trkpt lat="49.92689" lon="2.22925">
        <ele>16.3</ele>
        <time>2023-05-19T12:45:22Z</time>
      </trkpt>
      <trkpt lat="49.9269" lon="2.22923">
        <ele>16.3</ele>
        <time>2023-05-19T12:45:23Z</time>
      </trkpt>
      <trkpt lat="49.92691" lon="2.22921">
        <ele>16.3</ele>
        <time>2023-05-19T12:45:24Z</time>
      </trkpt>
      <trkpt lat="49.92692" lon="2.2292">
        <ele>16.3</ele>
        <time>2023-05-19T12:45:25Z</time>
      </trkpt>
      <trkpt lat="49.92692" lon="2.22918">
        <ele>16.3</ele>
        <time>2023-05-19T12:45:26Z</time>
      </trkpt>
      <trkpt lat="49.92692" lon="2.22917">
        <ele>16.3</ele>
        <time>2023-05-19T12:45:27Z</time>
      </trkpt>
      <trkpt lat="49.92693" lon="2.22915">
        <ele>16.3</ele>
        <time>2023-05-19T12:45:28Z</time>
      </trkpt>
      <trkpt lat="49.92693" lon="2.22913">
        <ele>16.3</ele>
        <time>2023-05-19T12:45:30Z</time>
      </trkpt>
      <trkpt lat="49.92693" lon="2.22911">
        <ele>16.3</ele>
        <time>2023-05-19T12:45:31Z</time>
      </trkpt>
      <trkpt lat="49.92694" lon="2.2291">
        <ele>16.3</ele>
        <time>2023-05-19T12:45:32Z</time>
      </trkpt>
      <trkpt lat="49.92694" lon="2.22908">
        <ele>16.3</ele>
        <time>2023-05-19T12:45:33Z</time>
      </trkpt>
      <trkpt lat="49.92695" lon="2.22905">
        <ele>16.3</ele>
        <time>2023-05-19T12:45:34Z</time>
      </trkpt>
      <trkpt lat="49.92695" lon="2.22903">
        <ele>16.2</ele>
        <time>2023-05-19T12:45:36Z</time>
      </trkpt>
      <trkpt lat="49.92695" lon="2.22901">
        <ele>16.2</ele>
        <time>2023-05-19T12:45:37Z</time>
      </trkpt>
      <trkpt lat="49.92695" lon="2.22899">
        <ele>16.2</ele>
        <time>2023-05-19T12:45:38Z</time>
      </trkpt>
      <trkpt lat="49.92695" lon="2.22898">
        <ele>16.2</ele>
        <time>2023-05-19T12:45:39Z</time>
      </trkpt>
      <trkpt lat="49.92695" lon="2.22896">
        <ele>16.2</ele>
        <time>2023-05-19T12:45:40Z</time>
      </trkpt>
      <trkpt lat="49.92696" lon="2.22895">
        <ele>16.2</ele>
        <time>2023-05-19T12:45:41Z</time>
      </trkpt>
      <trkpt lat="49.92697" lon="2.22893">
        <ele>16.2</ele>
        <time>2023-05-19T12:45:42Z</time>
      </trkpt>
      <trkpt lat="49.92697" lon="2.22891">
        <ele>16.2</ele>
        <time>2023-05-19T12:45:44Z</time>
      </trkpt>
      <trkpt lat="49.92698" lon="2.22889">
        <ele>16.2</ele>
        <time>2023-05-19T12:45:45Z</time>
      </trkpt>
      <trkpt lat="49.92698" lon="2.22887">
        <ele>16.2</ele>
        <time>2023-05-19T12:45:46Z</time>
      </trkpt>
      <trkpt lat="49.92699" lon="2.22886">
        <ele>16.2</ele>
        <time>2023-05-19T12:45:47Z</time>
      </trkpt>
      <trkpt lat="49.92699" lon="2.22884">
        <ele>16.2</ele>
        <time>2023-05-19T12:45:49Z</time>
      </trkpt>
      <trkpt lat="49.92699" lon="2.22882">
        <ele>16.2</ele>
        <time>2023-05-19T12:45:50Z</time>
      </trkpt>
      <trkpt lat="49.927" lon="2.2288">
        <ele>16.2</ele>
        <time>2023-05-19T12:45:51Z</time>
      </trkpt>
      <trkpt lat="49.927" lon="2.22878">
        <ele>16.2</ele>
        <time>2023-05-19T12:45:52Z</time>
      </trkpt>
      <trkpt lat="49.927" lon="2.22875">
        <ele>16.3</ele>
        <time>2023-05-19T12:45:53Z</time>
      </trkpt>
      <trkpt lat="49.927" lon="2.22874">
        <ele>16.3</ele>
        <time>2023-05-19T12:45:54Z</time>
      </trkpt>
      <trkpt lat="49.927" lon="2.22873">
        <ele>16.3</ele>
        <time>2023-05-19T12:45:55Z</time>
      </trkpt>
      <trkpt lat="49.927" lon="2.2287">
        <ele>16.3</ele>
        <time>2023-05-19T12:45:57Z</time>
      </trkpt>
      <trkpt lat="49.927" lon="2.22868">
        <ele>16.3</ele>
        <time>2023-05-19T12:45:58Z</time>
      </trkpt>
      <trkpt lat="49.927" lon="2.22867">
        <ele>16.3</ele>
        <time>2023-05-19T12:45:59Z</time>
      </trkpt>
      <trkpt lat="49.927" lon="2.22865">
        <ele>16.3</ele>
        <time>2023-05-19T12:46:00Z</time>
      </trkpt>
      <trkpt lat="49.927" lon="2.22864">
        <ele>16.3</ele>
        <time>2023-05-19T12:46:01Z</time>
      </trkpt>
      <trkpt lat="49.927" lon="2.22863">
        <ele>16.3</ele>
        <time>2023-05-19T12:46:02Z</time>
      </trkpt>
      <trkpt lat="49.927" lon="2.2286">
        <ele>16.3</ele>
        <time>2023-05-19T12:46:03Z</time>
      </trkpt>
      <trkpt lat="49.92701" lon="2.22858">
        <ele>16.3</ele>
        <time>2023-05-19T12:46:04Z</time>
      </trkpt>
      <trkpt lat="49.92701" lon="2.22856">
        <ele>16.3</ele>
        <time>2023-05-19T12:46:05Z</time>
      </trkpt>
      <trkpt lat="49.92701" lon="2.22853">
        <ele>16.3</ele>
        <time>2023-05-19T12:46:07Z</time>
      </trkpt>
      <trkpt lat="49.92702" lon="2.22852">
        <ele>16.3</ele>
        <time>2023-05-19T12:46:08Z</time>
      </trkpt>
      <trkpt lat="49.92703" lon="2.2285">
        <ele>16.3</ele>
        <time>2023-05-19T12:46:09Z</time>
      </trkpt>
      <trkpt lat="49.92704" lon="2.22847">
        <ele>16.3</ele>
        <time>2023-05-19T12:46:10Z</time>
      </trkpt>
      <trkpt lat="49.92704" lon="2.22845">
        <ele>16.3</ele>
        <time>2023-05-19T12:46:11Z</time>
      </trkpt>
      <trkpt lat="49.92705" lon="2.22843">
        <ele>16.4</ele>
        <time>2023-05-19T12:46:12Z</time>
      </trkpt>
      <trkpt lat="49.92706" lon="2.22841">
        <ele>16.4</ele>
        <time>2023-05-19T12:46:13Z</time>
      </trkpt>
      <trkpt lat="49.92707" lon="2.22839">
        <ele>16.4</ele>
        <time>2023-05-19T12:46:15Z</time>
      </trkpt>
      <trkpt lat="49.92707" lon="2.22837">
        <ele>16.4</ele>
        <time>2023-05-19T12:46:16Z</time>
      </trkpt>
      <trkpt lat="49.92708" lon="2.22835">
        <ele>16.4</ele>
        <time>2023-05-19T12:46:17Z</time>
      </trkpt>
      <trkpt lat="49.92709" lon="2.22833">
        <ele>16.4</ele>
        <time>2023-05-19T12:46:18Z</time>
      </trkpt>
      <trkpt lat="49.9271" lon="2.22831">
        <ele>16.4</ele>
        <time>2023-05-19T12:46:19Z</time>
      </trkpt>
      <trkpt lat="49.92711" lon="2.22828">
        <ele>16.4</ele>
        <time>2023-05-19T12:46:21Z</time>
      </trkpt>
      <trkpt lat="49.92712" lon="2.22828">
        <ele>16.4</ele>
        <time>2023-05-19T12:46:22Z</time>
      </trkpt>
      <trkpt lat="49.92713" lon="2.22827">
        <ele>16.4</ele>
        <time>2023-05-19T12:46:23Z</time>
      </trkpt>
      <trkpt lat="49.92714" lon="2.22826">
        <ele>16.5</ele>
        <time>2023-05-19T12:46:25Z</time>
      </trkpt>
      <trkpt lat="49.92715" lon="2.22826">
        <ele>16.5</ele>
        <time>2023-05-19T12:46:26Z</time>
      </trkpt>
      <trkpt lat="49.92716" lon="2.22825">
        <ele>16.5</ele>
        <time>2023-05-19T12:46:27Z</time>
      </trkpt>
      <trkpt lat="49.92717" lon="2.22823">
        <ele>16.5</ele>
        <time>2023-05-19T12:46:28Z</time>
      </trkpt>
      <trkpt lat="49.92717" lon="2.22822">
        <ele>16.5</ele>
        <time>2023-05-19T12:46:30Z</time>
      </trkpt>
      <trkpt lat="49.92718" lon="2.2282">
        <ele>16.5</ele>
        <time>2023-05-19T12:46:31Z</time>
      </trkpt>
      <trkpt lat="49.92718" lon="2.22818">
        <ele>16.5</ele>
        <time>2023-05-19T12:46:32Z</time>
      </trkpt>
      <trkpt lat="49.92717" lon="2.22816">
        <ele>16.5</ele>
        <time>2023-05-19T12:46:33Z</time>
      </trkpt>
      <trkpt lat="49.92717" lon="2.22815">
        <ele>16.5</ele>
        <time>2023-05-19T12:46:34Z</time>
      </trkpt>
      <trkpt lat="49.92718" lon="2.22814">
        <ele>16.5</ele>
        <time>2023-05-19T12:46:35Z</time>
      </trkpt>
      <trkpt lat="49.92718" lon="2.22811">
        <ele>16.6</ele>
        <time>2023-05-19T12:46:37Z</time>
      </trkpt>
      <trkpt lat="49.92719" lon="2.22809">
        <ele>16.6</ele>
        <time>2023-05-19T12:46:38Z</time>
      </trkpt>
      <trkpt lat="49.9272" lon="2.22807">
        <ele>16.6</ele>
        <time>2023-05-19T12:46:39Z</time>
      </trkpt>
      <trkpt lat="49.9272" lon="2.22805">
        <ele>16.6</ele>
        <time>2023-05-19T12:46:40Z</time>
      </trkpt>
      <trkpt lat="49.92721" lon="2.22803">
        <ele>16.6</ele>
        <time>2023-05-19T12:46:41Z</time>
      </trkpt>
      <trkpt lat="49.92721" lon="2.22801">
        <ele>16.6</ele>
        <time>2023-05-19T12:46:42Z</time>
      </trkpt>
      <trkpt lat="49.92721" lon="2.228">
        <ele>16.6</ele>
        <time>2023-05-19T12:46:43Z</time>
      </trkpt>
      <trkpt lat="49.92722" lon="2.22798">
        <ele>16.6</ele>
        <time>2023-05-19T12:46:44Z</time>
      </trkpt>
      <trkpt lat="49.92722" lon="2.22796">
        <ele>16.6</ele>
        <time>2023-05-19T12:46:45Z</time>
      </trkpt>
      <trkpt lat="49.92723" lon="2.22794">
        <ele>16.6</ele>
        <time>2023-05-19T12:46:47Z</time>
      </trkpt>
      <trkpt lat="49.92724" lon="2.22791">
        <ele>16.7</ele>
        <time>2023-05-19T12:46:48Z</time>
      </trkpt>
      <trkpt lat="49.92724" lon="2.2279">
        <ele>16.7</ele>
        <time>2023-05-19T12:46:49Z</time>
      </trkpt>
      <trkpt lat="49.92724" lon="2.22788">
        <ele>16.7</ele>
        <time>2023-05-19T12:46:50Z</time>
      </trkpt>
      <trkpt lat="49.92725" lon="2.22786">
        <ele>16.7</ele>
        <time>2023-05-19T12:46:51Z</time>
      </trkpt>
      <trkpt lat="49.92725" lon="2.22783">
        <ele>16.7</ele>
        <time>2023-05-19T12:46:52Z</time>
      </trkpt>
      <trkpt lat="49.92725" lon="2.22781">
        <ele>16.7</ele>
        <time>2023-05-19T12:46:53Z</time>
      </trkpt>
      <trkpt lat="49.92726" lon="2.2278">
        <ele>16.8</ele>
        <time>2023-05-19T12:46:54Z</time>
      </trkpt>
      <trkpt lat="49.92727" lon="2.22776">
        <ele>16.8</ele>
        <time>2023-05-19T12:46:56Z</time>
      </trkpt>
      <trkpt lat="49.92728" lon="2.22774">
        <ele>16.8</ele>
        <time>2023-05-19T12:46:57Z</time>
      </trkpt>
      <trkpt lat="49.92729" lon="2.22773">
        <ele>16.8</ele>
        <time>2023-05-19T12:46:58Z</time>
      </trkpt>
      <trkpt lat="49.92731" lon="2.22769">
        <ele>16.9</ele>
        <time>2023-05-19T12:47:00Z</time>
      </trkpt>
      <trkpt lat="49.92732" lon="2.22769">
        <ele>16.9</ele>
        <time>2023-05-19T12:47:01Z</time>
      </trkpt>
      <trkpt lat="49.92733" lon="2.22766">
        <ele>16.9</ele>
        <time>2023-05-19T12:47:02Z</time>
      </trkpt>
      <trkpt lat="49.92734" lon="2.22765">
        <ele>16.9</ele>
        <time>2023-05-19T12:47:03Z</time>
      </trkpt>
      <trkpt lat="49.92735" lon="2.22763">
        <ele>17</ele>
        <time>2023-05-19T12:47:04Z</time>
      </trkpt>
      <trkpt lat="49.92736" lon="2.22761">
        <ele>17</ele>
        <time>2023-05-19T12:47:05Z</time>
      </trkpt>
      <trkpt lat="49.92737" lon="2.2276">
        <ele>17</ele>
        <time>2023-05-19T12:47:06Z</time>
      </trkpt>
      <trkpt lat="49.92737" lon="2.22758">
        <ele>17</ele>
        <time>2023-05-19T12:47:07Z</time>
      </trkpt>
      <trkpt lat="49.92738" lon="2.22754">
        <ele>17</ele>
        <time>2023-05-19T12:47:09Z</time>
      </trkpt>
      <trkpt lat="49.92739" lon="2.22752">
        <ele>17</ele>
        <time>2023-05-19T12:47:10Z</time>
      </trkpt>
      <trkpt lat="49.92739" lon="2.22751">
        <ele>17</ele>
        <time>2023-05-19T12:47:11Z</time>
      </trkpt>
      <trkpt lat="49.9274" lon="2.22749">
        <ele>17.1</ele>
        <time>2023-05-19T12:47:12Z</time>
      </trkpt>
      <trkpt lat="49.9274" lon="2.22748">
        <ele>17.1</ele>
        <time>2023-05-19T12:47:14Z</time>
      </trkpt>
      <trkpt lat="49.92741" lon="2.22747">
        <ele>17.1</ele>
        <time>2023-05-19T12:47:15Z</time>
      </trkpt>
      <trkpt lat="49.92742" lon="2.22745">
        <ele>17.1</ele>
        <time>2023-05-19T12:47:16Z</time>
      </trkpt>
      <trkpt lat="49.92743" lon="2.22743">
        <ele>17.1</ele>
        <time>2023-05-19T12:47:17Z</time>
      </trkpt>
      <trkpt lat="49.92743" lon="2.22741">
        <ele>17.1</ele>
        <time>2023-05-19T12:47:18Z</time>
      </trkpt>
      <trkpt lat="49.92744" lon="2.2274">
        <ele>17.1</ele>
        <time>2023-05-19T12:47:19Z</time>
      </trkpt>
      <trkpt lat="49.92744" lon="2.22739">
        <ele>17.1</ele>
        <time>2023-05-19T12:47:20Z</time>
      </trkpt>
      <trkpt lat="49.92745" lon="2.22738">
        <ele>17.1</ele>
        <time>2023-05-19T12:47:21Z</time>
      </trkpt>
      <trkpt lat="49.92745" lon="2.22736">
        <ele>17.1</ele>
        <time>2023-05-19T12:47:22Z</time>
      </trkpt>
      <trkpt lat="49.92746" lon="2.22735">
        <ele>17.1</ele>
        <time>2023-05-19T12:47:23Z</time>
      </trkpt>
      <trkpt lat="49.92747" lon="2.22733">
        <ele>17.1</ele>
        <time>2023-05-19T12:47:25Z</time>
      </trkpt>
      <trkpt lat="49.92747" lon="2.22732">
        <ele>17.1</ele>
        <time>2023-05-19T12:47:26Z</time>
      </trkpt>
      <trkpt lat="49.92748" lon="2.2273">
        <ele>17.1</ele>
        <time>2023-05-19T12:47:27Z</time>
      </trkpt>
      <trkpt lat="49.92748" lon="2.22728">
        <ele>17.2</ele>
        <time>2023-05-19T12:47:28Z</time>
      </trkpt>
      <trkpt lat="49.92749" lon="2.22726">
        <ele>17.2</ele>
        <time>2023-05-19T12:47:29Z</time>
      </trkpt>
      <trkpt lat="49.9275" lon="2.22724">
        <ele>17.2</ele>
        <time>2023-05-19T12:47:30Z</time>
      </trkpt>
      <trkpt lat="49.92751" lon="2.22722">
        <ele>17.2</ele>
        <time>2023-05-19T12:47:31Z</time>
      </trkpt>
      <trkpt lat="49.92752" lon="2.2272">
        <ele>17.2</ele>
        <time>2023-05-19T12:47:32Z</time>
      </trkpt>
      <trkpt lat="49.92753" lon="2.22718">
        <ele>17.3</ele>
        <time>2023-05-19T12:47:34Z</time>
      </trkpt>
      <trkpt lat="49.92754" lon="2.22716">
        <ele>17.3</ele>
        <time>2023-05-19T12:47:35Z</time>
      </trkpt>
      <trkpt lat="49.92754" lon="2.22714">
        <ele>17.3</ele>
        <time>2023-05-19T12:47:36Z</time>
      </trkpt>
      <trkpt lat="49.92755" lon="2.22713">
        <ele>17.3</ele>
        <time>2023-05-19T12:47:37Z</time>
      </trkpt>
      <trkpt lat="49.92756" lon="2.22711">
        <ele>17.3</ele>
        <time>2023-05-19T12:47:38Z</time>
      </trkpt>
      <trkpt lat="49.92757" lon="2.2271">
        <ele>17.3</ele>
        <time>2023-05-19T12:47:39Z</time>
      </trkpt>
      <trkpt lat="49.92758" lon="2.22708">
        <ele>17.3</ele>
        <time>2023-05-19T12:47:40Z</time>
      </trkpt>
      <trkpt lat="49.92758" lon="2.22706">
        <ele>17.3</ele>
        <time>2023-05-19T12:47:42Z</time>
      </trkpt>
      <trkpt lat="49.92758" lon="2.22705">
        <ele>17.3</ele>
        <time>2023-05-19T12:47:43Z</time>
      </trkpt>
      <trkpt lat="49.92759" lon="2.22703">
        <ele>17.3</ele>
        <time>2023-05-19T12:47:44Z</time>
      </trkpt>
      <trkpt lat="49.92758" lon="2.22702">
        <ele>17.3</ele>
        <time>2023-05-19T12:47:45Z</time>
      </trkpt>
      <trkpt lat="49.92758" lon="2.22702">
        <ele>17.3</ele>
        <time>2023-05-19T12:47:46Z</time>
      </trkpt>
      <trkpt lat="49.92757" lon="2.22702">
        <ele>17.2</ele>
        <time>2023-05-19T12:47:48Z</time>
      </trkpt>
      <trkpt lat="49.92757" lon="2.22702">
        <ele>17.2</ele>
        <time>2023-05-19T12:47:49Z</time>
      </trkpt>
      <trkpt lat="49.92757" lon="2.22702">
        <ele>17.2</ele>
        <time>2023-05-19T12:47:51Z</time>
      </trkpt>
      <trkpt lat="49.92757" lon="2.22701">
        <ele>17.2</ele>
        <time>2023-05-19T12:47:52Z</time>
      </trkpt>
      <trkpt lat="49.92757" lon="2.22701">
        <ele>17.2</ele>
        <time>2023-05-19T12:47:54Z</time>
      </trkpt>
      <trkpt lat="49.92757" lon="2.22701">
        <ele>17.2</ele>
        <time>2023-05-19T12:47:55Z</time>
      </trkpt>
      <trkpt lat="49.92757" lon="2.22701">
        <ele>17.2</ele>
        <time>2023-05-19T12:47:56Z</time>
      </trkpt>
      <trkpt lat="49.92757" lon="2.22701">
        <ele>17.2</ele>
        <time>2023-05-19T12:47:58Z</time>
      </trkpt>
      <trkpt lat="49.92757" lon="2.227">
        <ele>17.2</ele>
        <time>2023-05-19T12:47:59Z</time>
      </trkpt>
      <trkpt lat="49.92757" lon="2.227">
        <ele>17.2</ele>
        <time>2023-05-19T12:48:01Z</time>
      </trkpt>
      <trkpt lat="49.92758" lon="2.227">
        <ele>17.2</ele>
        <time>2023-05-19T12:48:02Z</time>
      </trkpt>
      <trkpt lat="49.92759" lon="2.22709">
        <ele>17.1</ele>
        <time>2023-05-19T12:51:02Z</time>
      </trkpt>
      <trkpt lat="49.9276" lon="2.22712">
        <ele>17.1</ele>
        <time>2023-05-19T12:51:03Z</time>
      </trkpt>
      <trkpt lat="49.9276" lon="2.22712">
        <ele>17.1</ele>
        <time>2023-05-19T12:51:04Z</time>
      </trkpt>
      <trkpt lat="49.9276" lon="2.22712">
        <ele>17.1</ele>
        <time>2023-05-19T12:51:05Z</time>
      </trkpt>
      <trkpt lat="49.9276" lon="2.22711">
        <ele>17.1</ele>
        <time>2023-05-19T12:51:06Z</time>
      </trkpt>
      <trkpt lat="49.92759" lon="2.2271">
        <ele>17.1</ele>
        <time>2023-05-19T12:51:07Z</time>
      </trkpt>
      <trkpt lat="49.92759" lon="2.2271">
        <ele>17.1</ele>
        <time>2023-05-19T12:51:08Z</time>
      </trkpt>
      <trkpt lat="49.92758" lon="2.22709">
        <ele>17.1</ele>
        <time>2023-05-19T12:51:09Z</time>
      </trkpt>
      <trkpt lat="49.92755" lon="2.22703">
        <ele>17.1</ele>
        <time>2023-05-19T12:51:11Z</time>
      </trkpt>
      <trkpt lat="49.92752" lon="2.227">
        <ele>17</ele>
        <time>2023-05-19T12:51:12Z</time>
      </trkpt>
      <trkpt lat="49.92751" lon="2.22699">
        <ele>17</ele>
        <time>2023-05-19T12:51:14Z</time>
      </trkpt>
      <trkpt lat="49.92749" lon="2.22697">
        <ele>17</ele>
        <time>2023-05-19T12:51:15Z</time>
      </trkpt>
      <trkpt lat="49.92748" lon="2.22696">
        <ele>17</ele>
        <time>2023-05-19T12:51:16Z</time>
      </trkpt>
      <trkpt lat="49.92746" lon="2.22694">
        <ele>17</ele>
        <time>2023-05-19T12:51:17Z</time>
      </trkpt>
      <trkpt lat="49.92745" lon="2.22693">
        <ele>17</ele>
        <time>2023-05-19T12:51:18Z</time>
      </trkpt>
      <trkpt lat="49.92744" lon="2.22692">
        <ele>17</ele>
        <time>2023-05-19T12:51:19Z</time>
      </trkpt>
      <trkpt lat="49.92743" lon="2.22691">
        <ele>17</ele>
        <time>2023-05-19T12:51:20Z</time>
      </trkpt>
      <trkpt lat="49.92742" lon="2.2269">
        <ele>17</ele>
        <time>2023-05-19T12:51:21Z</time>
      </trkpt>
      <trkpt lat="49.92741" lon="2.22689">
        <ele>17</ele>
        <time>2023-05-19T12:51:23Z</time>
      </trkpt>
      <trkpt lat="49.9274" lon="2.22688">
        <ele>17</ele>
        <time>2023-05-19T12:51:24Z</time>
      </trkpt>
      <trkpt lat="49.92739" lon="2.22687">
        <ele>16.9</ele>
        <time>2023-05-19T12:51:25Z</time>
      </trkpt>
      <trkpt lat="49.92738" lon="2.22686">
        <ele>16.9</ele>
        <time>2023-05-19T12:51:26Z</time>
      </trkpt>
      <trkpt lat="49.92737" lon="2.22685">
        <ele>16.9</ele>
        <time>2023-05-19T12:51:27Z</time>
      </trkpt>
      <trkpt lat="49.92736" lon="2.22684">
        <ele>16.9</ele>
        <time>2023-05-19T12:51:28Z</time>
      </trkpt>
      <trkpt lat="49.92733" lon="2.22683">
        <ele>16.9</ele>
        <time>2023-05-19T12:51:30Z</time>
      </trkpt>
      <trkpt lat="49.9273" lon="2.22681">
        <ele>16.9</ele>
        <time>2023-05-19T12:51:31Z</time>
      </trkpt>
      <trkpt lat="49.92729" lon="2.2268">
        <ele>16.9</ele>
        <time>2023-05-19T12:51:32Z</time>
      </trkpt>
      <trkpt lat="49.92729" lon="2.22679">
        <ele>16.9</ele>
        <time>2023-05-19T12:51:33Z</time>
      </trkpt>
      <trkpt lat="49.92728" lon="2.22678">
        <ele>16.9</ele>
        <time>2023-05-19T12:51:34Z</time>
      </trkpt>
      <trkpt lat="49.92726" lon="2.22677">
        <ele>16.9</ele>
        <time>2023-05-19T12:51:35Z</time>
      </trkpt>
      <trkpt lat="49.92725" lon="2.22676">
        <ele>16.9</ele>
        <time>2023-05-19T12:51:36Z</time>
      </trkpt>
      <trkpt lat="49.92724" lon="2.22676">
        <ele>16.9</ele>
        <time>2023-05-19T12:51:38Z</time>
      </trkpt>
      <trkpt lat="49.92724" lon="2.22677">
        <ele>16.9</ele>
        <time>2023-05-19T12:51:39Z</time>
      </trkpt>
      <trkpt lat="49.92724" lon="2.22678">
        <ele>16.9</ele>
        <time>2023-05-19T12:51:40Z</time>
      </trkpt>
      <trkpt lat="49.92724" lon="2.22679">
        <ele>16.9</ele>
        <time>2023-05-19T12:51:41Z</time>
      </trkpt>
      <trkpt lat="49.92723" lon="2.22679">
        <ele>16.9</ele>
        <time>2023-05-19T12:51:42Z</time>
      </trkpt>
      <trkpt lat="49.92722" lon="2.22678">
        <ele>16.9</ele>
        <time>2023-05-19T12:51:44Z</time>
      </trkpt>
      <trkpt lat="49.92721" lon="2.22678">
        <ele>16.9</ele>
        <time>2023-05-19T12:51:45Z</time>
      </trkpt>
      <trkpt lat="49.9272" lon="2.22677">
        <ele>16.9</ele>
        <time>2023-05-19T12:51:46Z</time>
      </trkpt>
      <trkpt lat="49.92719" lon="2.22676">
        <ele>16.9</ele>
        <time>2023-05-19T12:51:47Z</time>
      </trkpt>
      <trkpt lat="49.92717" lon="2.22674">
        <ele>16.9</ele>
        <time>2023-05-19T12:51:48Z</time>
      </trkpt>
      <trkpt lat="49.92716" lon="2.22671">
        <ele>16.9</ele>
        <time>2023-05-19T12:51:49Z</time>
      </trkpt>
      <trkpt lat="49.92715" lon="2.2267">
        <ele>16.9</ele>
        <time>2023-05-19T12:51:50Z</time>
      </trkpt>
      <trkpt lat="49.92714" lon="2.22669">
        <ele>16.9</ele>
        <time>2023-05-19T12:51:51Z</time>
      </trkpt>
      <trkpt lat="49.92712" lon="2.22668">
        <ele>16.9</ele>
        <time>2023-05-19T12:51:52Z</time>
      </trkpt>
      <trkpt lat="49.92711" lon="2.22666">
        <ele>16.9</ele>
        <time>2023-05-19T12:51:54Z</time>
      </trkpt>
      <trkpt lat="49.9271" lon="2.22665">
        <ele>16.9</ele>
        <time>2023-05-19T12:51:55Z</time>
      </trkpt>
      <trkpt lat="49.92709" lon="2.22664">
        <ele>16.9</ele>
        <time>2023-05-19T12:51:56Z</time>
      </trkpt>
      <trkpt lat="49.92707" lon="2.22661">
        <ele>16.9</ele>
        <time>2023-05-19T12:51:57Z</time>
      </trkpt>
      <trkpt lat="49.92706" lon="2.2266">
        <ele>16.9</ele>
        <time>2023-05-19T12:51:58Z</time>
      </trkpt>
      <trkpt lat="49.92704" lon="2.22658">
        <ele>16.9</ele>
        <time>2023-05-19T12:51:59Z</time>
      </trkpt>
      <trkpt lat="49.92703" lon="2.22657">
        <ele>16.9</ele>
        <time>2023-05-19T12:52:00Z</time>
      </trkpt>
      <trkpt lat="49.92702" lon="2.22655">
        <ele>16.9</ele>
        <time>2023-05-19T12:52:02Z</time>
      </trkpt>
      <trkpt lat="49.92701" lon="2.22654">
        <ele>16.9</ele>
        <time>2023-05-19T12:52:03Z</time>
      </trkpt>
      <trkpt lat="49.927" lon="2.22653">
        <ele>16.9</ele>
        <time>2023-05-19T12:52:04Z</time>
      </trkpt>
      <trkpt lat="49.92699" lon="2.22652">
        <ele>16.9</ele>
        <time>2023-05-19T12:52:06Z</time>
      </trkpt>
      <trkpt lat="49.92698" lon="2.22651">
        <ele>16.9</ele>
        <time>2023-05-19T12:52:07Z</time>
      </trkpt>
      <trkpt lat="49.92695" lon="2.22648">
        <ele>16.9</ele>
        <time>2023-05-19T12:52:08Z</time>
      </trkpt>
      <trkpt lat="49.92694" lon="2.22647">
        <ele>16.9</ele>
        <time>2023-05-19T12:52:09Z</time>
      </trkpt>
      <trkpt lat="49.92691" lon="2.22645">
        <ele>16.9</ele>
        <time>2023-05-19T12:52:10Z</time>
      </trkpt>
      <trkpt lat="49.92688" lon="2.22642">
        <ele>16.8</ele>
        <time>2023-05-19T12:52:11Z</time>
      </trkpt>
      <trkpt lat="49.92687" lon="2.22641">
        <ele>16.8</ele>
        <time>2023-05-19T12:52:12Z</time>
      </trkpt>
      <trkpt lat="49.92685" lon="2.2264">
        <ele>16.8</ele>
        <time>2023-05-19T12:52:13Z</time>
      </trkpt>
      <trkpt lat="49.92684" lon="2.22639">
        <ele>16.8</ele>
        <time>2023-05-19T12:52:15Z</time>
      </trkpt>
      <trkpt lat="49.92683" lon="2.22638">
        <ele>16.8</ele>
        <time>2023-05-19T12:52:16Z</time>
      </trkpt>
      <trkpt lat="49.92682" lon="2.22637">
        <ele>16.8</ele>
        <time>2023-05-19T12:52:17Z</time>
      </trkpt>
      <trkpt lat="49.92682" lon="2.22636">
        <ele>16.8</ele>
        <time>2023-05-19T12:52:18Z</time>
      </trkpt>
      <trkpt lat="49.92681" lon="2.22635">
        <ele>16.7</ele>
        <time>2023-05-19T12:52:19Z</time>
      </trkpt>
      <trkpt lat="49.92679" lon="2.22634">
        <ele>16.7</ele>
        <time>2023-05-19T12:52:21Z</time>
      </trkpt>
      <trkpt lat="49.92678" lon="2.22633">
        <ele>16.7</ele>
        <time>2023-05-19T12:52:22Z</time>
      </trkpt>
      <trkpt lat="49.92677" lon="2.22633">
        <ele>16.7</ele>
        <time>2023-05-19T12:52:23Z</time>
      </trkpt>
      <trkpt lat="49.92676" lon="2.22633">
        <ele>16.7</ele>
        <time>2023-05-19T12:52:24Z</time>
      </trkpt>
      <trkpt lat="49.92674" lon="2.22633">
        <ele>16.7</ele>
        <time>2023-05-19T12:52:25Z</time>
      </trkpt>
      <trkpt lat="49.92673" lon="2.22633">
        <ele>16.7</ele>
        <time>2023-05-19T12:52:27Z</time>
      </trkpt>
      <trkpt lat="49.92672" lon="2.22633">
        <ele>16.7</ele>
        <time>2023-05-19T12:52:28Z</time>
      </trkpt>
      <trkpt lat="49.92671" lon="2.22633">
        <ele>16.7</ele>
        <time>2023-05-19T12:52:29Z</time>
      </trkpt>
      <trkpt lat="49.9267" lon="2.22633">
        <ele>16.7</ele>
        <time>2023-05-19T12:52:30Z</time>
      </trkpt>
      <trkpt lat="49.92669" lon="2.22632">
        <ele>16.6</ele>
        <time>2023-05-19T12:52:31Z</time>
      </trkpt>
      <trkpt lat="49.92668" lon="2.22632">
        <ele>16.6</ele>
        <time>2023-05-19T12:52:32Z</time>
      </trkpt>
      <trkpt lat="49.92666" lon="2.22631">
        <ele>16.6</ele>
        <time>2023-05-19T12:52:34Z</time>
      </trkpt>
      <trkpt lat="49.92665" lon="2.22631">
        <ele>16.6</ele>
        <time>2023-05-19T12:52:35Z</time>
      </trkpt>
      <trkpt lat="49.92664" lon="2.22631">
        <ele>16.6</ele>
        <time>2023-05-19T12:52:36Z</time>
      </trkpt>
      <trkpt lat="49.92663" lon="2.22631">
        <ele>16.6</ele>
        <time>2023-05-19T12:52:37Z</time>
      </trkpt>
      <trkpt lat="49.92662" lon="2.2263">
        <ele>16.6</ele>
        <time>2023-05-19T12:52:38Z</time>
      </trkpt>
      <trkpt lat="49.92661" lon="2.2263">
        <ele>16.6</ele>
        <time>2023-05-19T12:52:39Z</time>
      </trkpt>
      <trkpt lat="49.9266" lon="2.2263">
        <ele>16.6</ele>
        <time>2023-05-19T12:52:41Z</time>
      </trkpt>
      <trkpt lat="49.92659" lon="2.22629">
        <ele>16.6</ele>
        <time>2023-05-19T12:52:42Z</time>
      </trkpt>
      <trkpt lat="49.92658" lon="2.22628">
        <ele>16.6</ele>
        <time>2023-05-19T12:52:43Z</time>
      </trkpt>
      <trkpt lat="49.92657" lon="2.22628">
        <ele>16.5</ele>
        <time>2023-05-19T12:52:44Z</time>
      </trkpt>
      <trkpt lat="49.92656" lon="2.22627">
        <ele>16.5</ele>
        <time>2023-05-19T12:52:46Z</time>
      </trkpt>
      <trkpt lat="49.92655" lon="2.22626">
        <ele>16.5</ele>
        <time>2023-05-19T12:52:47Z</time>
      </trkpt>
      <trkpt lat="49.92654" lon="2.22626">
        <ele>16.5</ele>
        <time>2023-05-19T12:52:48Z</time>
      </trkpt>
      <trkpt lat="49.92653" lon="2.22625">
        <ele>16.4</ele>
        <time>2023-05-19T12:52:49Z</time>
      </trkpt>
      <trkpt lat="49.92652" lon="2.22624">
        <ele>16.4</ele>
        <time>2023-05-19T12:52:50Z</time>
      </trkpt>
      <trkpt lat="49.92651" lon="2.22623">
        <ele>16.3</ele>
        <time>2023-05-19T12:52:52Z</time>
      </trkpt>
      <trkpt lat="49.9265" lon="2.22622">
        <ele>16.3</ele>
        <time>2023-05-19T12:52:53Z</time>
      </trkpt>
      <trkpt lat="49.92649" lon="2.22621">
        <ele>16.2</ele>
        <time>2023-05-19T12:52:54Z</time>
      </trkpt>
      <trkpt lat="49.92648" lon="2.22621">
        <ele>16.2</ele>
        <time>2023-05-19T12:52:56Z</time>
      </trkpt>
      <trkpt lat="49.92647" lon="2.2262">
        <ele>16.1</ele>
        <time>2023-05-19T12:52:57Z</time>
      </trkpt>
      <trkpt lat="49.92646" lon="2.22619">
        <ele>16.1</ele>
        <time>2023-05-19T12:52:58Z</time>
      </trkpt>
      <trkpt lat="49.92645" lon="2.22618">
        <ele>16</ele>
        <time>2023-05-19T12:52:59Z</time>
      </trkpt>
      <trkpt lat="49.92644" lon="2.22618">
        <ele>16</ele>
        <time>2023-05-19T12:53:00Z</time>
      </trkpt>
      <trkpt lat="49.92643" lon="2.22617">
        <ele>16</ele>
        <time>2023-05-19T12:53:01Z</time>
      </trkpt>
      <trkpt lat="49.92642" lon="2.22617">
        <ele>15.9</ele>
        <time>2023-05-19T12:53:02Z</time>
      </trkpt>
      <trkpt lat="49.92641" lon="2.22616">
        <ele>15.9</ele>
        <time>2023-05-19T12:53:03Z</time>
      </trkpt>
      <trkpt lat="49.92639" lon="2.22616">
        <ele>15.8</ele>
        <time>2023-05-19T12:53:05Z</time>
      </trkpt>
      <trkpt lat="49.92638" lon="2.22615">
        <ele>15.7</ele>
        <time>2023-05-19T12:53:06Z</time>
      </trkpt>
      <trkpt lat="49.92636" lon="2.22615">
        <ele>15.6</ele>
        <time>2023-05-19T12:53:07Z</time>
      </trkpt>
      <trkpt lat="49.92634" lon="2.22615">
        <ele>15.6</ele>
        <time>2023-05-19T12:53:08Z</time>
      </trkpt>
      <trkpt lat="49.92633" lon="2.22614">
        <ele>15.5</ele>
        <time>2023-05-19T12:53:09Z</time>
      </trkpt>
      <trkpt lat="49.92631" lon="2.22613">
        <ele>15.4</ele>
        <time>2023-05-19T12:53:11Z</time>
      </trkpt>
      <trkpt lat="49.9263" lon="2.22612">
        <ele>15.3</ele>
        <time>2023-05-19T12:53:12Z</time>
      </trkpt>
      <trkpt lat="49.92628" lon="2.22611">
        <ele>15.3</ele>
        <time>2023-05-19T12:53:13Z</time>
      </trkpt>
      <trkpt lat="49.92627" lon="2.22611">
        <ele>15.2</ele>
        <time>2023-05-19T12:53:14Z</time>
      </trkpt>
      <trkpt lat="49.92626" lon="2.2261">
        <ele>15.1</ele>
        <time>2023-05-19T12:53:15Z</time>
      </trkpt>
      <trkpt lat="49.92625" lon="2.22609">
        <ele>15.1</ele>
        <time>2023-05-19T12:53:16Z</time>
      </trkpt>
      <trkpt lat="49.92623" lon="2.22608">
        <ele>15</ele>
        <time>2023-05-19T12:53:17Z</time>
      </trkpt>
      <trkpt lat="49.92622" lon="2.22607">
        <ele>15</ele>
        <time>2023-05-19T12:53:18Z</time>
      </trkpt>
      <trkpt lat="49.92621" lon="2.22606">
        <ele>14.9</ele>
        <time>2023-05-19T12:53:19Z</time>
      </trkpt>
      <trkpt lat="49.9262" lon="2.22606">
        <ele>14.9</ele>
        <time>2023-05-19T12:53:21Z</time>
      </trkpt>
      <trkpt lat="49.92619" lon="2.22605">
        <ele>14.8</ele>
        <time>2023-05-19T12:53:22Z</time>
      </trkpt>
      <trkpt lat="49.92618" lon="2.22604">
        <ele>14.8</ele>
        <time>2023-05-19T12:53:23Z</time>
      </trkpt>
      <trkpt lat="49.92617" lon="2.22602">
        <ele>14.7</ele>
        <time>2023-05-19T12:53:24Z</time>
      </trkpt>
      <trkpt lat="49.92617" lon="2.22601">
        <ele>14.7</ele>
        <time>2023-05-19T12:53:25Z</time>
      </trkpt>
      <trkpt lat="49.92615" lon="2.22598">
        <ele>14.6</ele>
        <time>2023-05-19T12:53:26Z</time>
      </trkpt>
      <trkpt lat="49.92614" lon="2.22597">
        <ele>14.6</ele>
        <time>2023-05-19T12:53:28Z</time>
      </trkpt>
      <trkpt lat="49.92613" lon="2.22596">
        <ele>14.5</ele>
        <time>2023-05-19T12:53:29Z</time>
      </trkpt>
      <trkpt lat="49.92613" lon="2.22595">
        <ele>14.5</ele>
        <time>2023-05-19T12:53:30Z</time>
      </trkpt>
      <trkpt lat="49.92612" lon="2.22593">
        <ele>14.4</ele>
        <time>2023-05-19T12:53:31Z</time>
      </trkpt>
      <trkpt lat="49.92611" lon="2.2259">
        <ele>14.4</ele>
        <time>2023-05-19T12:53:32Z</time>
      </trkpt>
      <trkpt lat="49.9261" lon="2.22589">
        <ele>14.3</ele>
        <time>2023-05-19T12:53:34Z</time>
      </trkpt>
      <trkpt lat="49.92609" lon="2.22587">
        <ele>14.3</ele>
        <time>2023-05-19T12:53:35Z</time>
      </trkpt>
      <trkpt lat="49.92609" lon="2.22586">
        <ele>14.2</ele>
        <time>2023-05-19T12:53:36Z</time>
      </trkpt>
      <trkpt lat="49.92608" lon="2.22584">
        <ele>14.2</ele>
        <time>2023-05-19T12:53:37Z</time>
      </trkpt>
      <trkpt lat="49.92606" lon="2.22582">
        <ele>14.1</ele>
        <time>2023-05-19T12:53:38Z</time>
      </trkpt>
      <trkpt lat="49.92606" lon="2.22581">
        <ele>14.1</ele>
        <time>2023-05-19T12:53:40Z</time>
      </trkpt>
      <trkpt lat="49.92605" lon="2.2258">
        <ele>14.1</ele>
        <time>2023-05-19T12:53:41Z</time>
      </trkpt>
      <trkpt lat="49.92604" lon="2.22579">
        <ele>14</ele>
        <time>2023-05-19T12:53:42Z</time>
      </trkpt>
      <trkpt lat="49.92603" lon="2.22578">
        <ele>14</ele>
        <time>2023-05-19T12:53:43Z</time>
      </trkpt>
      <trkpt lat="49.92602" lon="2.22576">
        <ele>13.9</ele>
        <time>2023-05-19T12:53:45Z</time>
      </trkpt>
      <trkpt lat="49.92601" lon="2.22575">
        <ele>13.9</ele>
        <time>2023-05-19T12:53:46Z</time>
      </trkpt>
      <trkpt lat="49.926" lon="2.22573">
        <ele>13.8</ele>
        <time>2023-05-19T12:53:47Z</time>
      </trkpt>
      <trkpt lat="49.92599" lon="2.22572">
        <ele>13.8</ele>
        <time>2023-05-19T12:53:48Z</time>
      </trkpt>
      <trkpt lat="49.92599" lon="2.22571">
        <ele>14</ele>
        <time>2023-05-19T12:53:50Z</time>
      </trkpt>
      <trkpt lat="49.92599" lon="2.2257">
        <ele>14</ele>
        <time>2023-05-19T12:53:51Z</time>
      </trkpt>
      <trkpt lat="49.92599" lon="2.22569">
        <ele>14</ele>
        <time>2023-05-19T12:53:52Z</time>
      </trkpt>
      <trkpt lat="49.92599" lon="2.22568">
        <ele>14</ele>
        <time>2023-05-19T12:53:53Z</time>
      </trkpt>
      <trkpt lat="49.92599" lon="2.22567">
        <ele>14.2</ele>
        <time>2023-05-19T12:53:54Z</time>
      </trkpt>
      <trkpt lat="49.92599" lon="2.22566">
        <ele>14.2</ele>
        <time>2023-05-19T12:53:56Z</time>
      </trkpt>
      <trkpt lat="49.92599" lon="2.22565">
        <ele>14.2</ele>
        <time>2023-05-19T12:53:57Z</time>
      </trkpt>
      <trkpt lat="49.92599" lon="2.22564">
        <ele>14.2</ele>
        <time>2023-05-19T12:53:58Z</time>
      </trkpt>
      <trkpt lat="49.92599" lon="2.22563">
        <ele>14.2</ele>
        <time>2023-05-19T12:53:59Z</time>
      </trkpt>
      <trkpt lat="49.92599" lon="2.22562">
        <ele>14.4</ele>
        <time>2023-05-19T12:54:00Z</time>
      </trkpt>
      <trkpt lat="49.92599" lon="2.22561">
        <ele>14.4</ele>
        <time>2023-05-19T12:54:01Z</time>
      </trkpt>
      <trkpt lat="49.92598" lon="2.22559">
        <ele>14.7</ele>
        <time>2023-05-19T12:54:03Z</time>
      </trkpt>
      <trkpt lat="49.92598" lon="2.22558">
        <ele>14.7</ele>
        <time>2023-05-19T12:54:04Z</time>
      </trkpt>
      <trkpt lat="49.92598" lon="2.22556">
        <ele>14.7</ele>
        <time>2023-05-19T12:54:06Z</time>
      </trkpt>
      <trkpt lat="49.92598" lon="2.22555">
        <ele>14.7</ele>
        <time>2023-05-19T12:54:07Z</time>
      </trkpt>
      <trkpt lat="49.92598" lon="2.22554">
        <ele>15</ele>
        <time>2023-05-19T12:54:09Z</time>
      </trkpt>
      <trkpt lat="49.92598" lon="2.22553">
        <ele>15</ele>
        <time>2023-05-19T12:54:10Z</time>
      </trkpt>
      <trkpt lat="49.92598" lon="2.22551">
        <ele>15</ele>
        <time>2023-05-19T12:54:11Z</time>
      </trkpt>
      <trkpt lat="49.92598" lon="2.2255">
        <ele>15</ele>
        <time>2023-05-19T12:54:12Z</time>
      </trkpt>
      <trkpt lat="49.92598" lon="2.22549">
        <ele>15.2</ele>
        <time>2023-05-19T12:54:13Z</time>
      </trkpt>
      <trkpt lat="49.92598" lon="2.22548">
        <ele>15.2</ele>
        <time>2023-05-19T12:54:14Z</time>
      </trkpt>
      <trkpt lat="49.92597" lon="2.22546">
        <ele>15.3</ele>
        <time>2023-05-19T12:54:15Z</time>
      </trkpt>
      <trkpt lat="49.92597" lon="2.22545">
        <ele>15.3</ele>
        <time>2023-05-19T12:54:16Z</time>
      </trkpt>
      <trkpt lat="49.92597" lon="2.22544">
        <ele>15.3</ele>
        <time>2023-05-19T12:54:17Z</time>
      </trkpt>
      <trkpt lat="49.92597" lon="2.22542">
        <ele>15.3</ele>
        <time>2023-05-19T12:54:19Z</time>
      </trkpt>
      <trkpt lat="49.92596" lon="2.2254">
        <ele>15.5</ele>
        <time>2023-05-19T12:54:20Z</time>
      </trkpt>
      <trkpt lat="49.92595" lon="2.22538">
        <ele>15.5</ele>
        <time>2023-05-19T12:54:21Z</time>
      </trkpt>
      <trkpt lat="49.92594" lon="2.22536">
        <ele>15.5</ele>
        <time>2023-05-19T12:54:22Z</time>
      </trkpt>
      <trkpt lat="49.92593" lon="2.22532">
        <ele>15.6</ele>
        <time>2023-05-19T12:54:23Z</time>
      </trkpt>
      <trkpt lat="49.92592" lon="2.22531">
        <ele>15.4</ele>
        <time>2023-05-19T12:54:24Z</time>
      </trkpt>
      <trkpt lat="49.92591" lon="2.22529">
        <ele>15.4</ele>
        <time>2023-05-19T12:54:25Z</time>
      </trkpt>
      <trkpt lat="49.92589" lon="2.22526">
        <ele>15.3</ele>
        <time>2023-05-19T12:54:27Z</time>
      </trkpt>
      <trkpt lat="49.92587" lon="2.22525">
        <ele>15.3</ele>
        <time>2023-05-19T12:54:28Z</time>
      </trkpt>
      <trkpt lat="49.92586" lon="2.22523">
        <ele>15.1</ele>
        <time>2023-05-19T12:54:30Z</time>
      </trkpt>
      <trkpt lat="49.92585" lon="2.22521">
        <ele>15.1</ele>
        <time>2023-05-19T12:54:31Z</time>
      </trkpt>
      <trkpt lat="49.92584" lon="2.22519">
        <ele>15.3</ele>
        <time>2023-05-19T12:54:32Z</time>
      </trkpt>
      <trkpt lat="49.92583" lon="2.22518">
        <ele>15</ele>
        <time>2023-05-19T12:54:33Z</time>
      </trkpt>
      <trkpt lat="49.92582" lon="2.22516">
        <ele>15.2</ele>
        <time>2023-05-19T12:54:34Z</time>
      </trkpt>
      <trkpt lat="49.92581" lon="2.22514">
        <ele>15</ele>
        <time>2023-05-19T12:54:35Z</time>
      </trkpt>
      <trkpt lat="49.9258" lon="2.22512">
        <ele>15</ele>
        <time>2023-05-19T12:54:37Z</time>
      </trkpt>
      <trkpt lat="49.92579" lon="2.2251">
        <ele>15.3</ele>
        <time>2023-05-19T12:54:38Z</time>
      </trkpt>
      <trkpt lat="49.92578" lon="2.22509">
        <ele>15</ele>
        <time>2023-05-19T12:54:39Z</time>
      </trkpt>
      <trkpt lat="49.92576" lon="2.22506">
        <ele>15.4</ele>
        <time>2023-05-19T12:54:40Z</time>
      </trkpt>
      <trkpt lat="49.92575" lon="2.22505">
        <ele>15.1</ele>
        <time>2023-05-19T12:54:41Z</time>
      </trkpt>
      <trkpt lat="49.92575" lon="2.22504">
        <ele>15.1</ele>
        <time>2023-05-19T12:54:42Z</time>
      </trkpt>
      <trkpt lat="49.92573" lon="2.22503">
        <ele>15.5</ele>
        <time>2023-05-19T12:54:44Z</time>
      </trkpt>
      <trkpt lat="49.92573" lon="2.22501">
        <ele>15.3</ele>
        <time>2023-05-19T12:54:45Z</time>
      </trkpt>
      <trkpt lat="49.92572" lon="2.225">
        <ele>15.3</ele>
        <time>2023-05-19T12:54:46Z</time>
      </trkpt>
      <trkpt lat="49.92571" lon="2.22498">
        <ele>15.7</ele>
        <time>2023-05-19T12:54:47Z</time>
      </trkpt>
      <trkpt lat="49.9257" lon="2.22497">
        <ele>15.7</ele>
        <time>2023-05-19T12:54:48Z</time>
      </trkpt>
      <trkpt lat="49.9257" lon="2.22497">
        <ele>15.5</ele>
        <time>2023-05-19T12:54:49Z</time>
      </trkpt>
      <trkpt lat="49.92569" lon="2.22496">
        <ele>15.5</ele>
        <time>2023-05-19T12:54:51Z</time>
      </trkpt>
      <trkpt lat="49.92569" lon="2.22495">
        <ele>15.5</ele>
        <time>2023-05-19T12:54:52Z</time>
      </trkpt>
      <trkpt lat="49.92568" lon="2.22494">
        <ele>15.9</ele>
        <time>2023-05-19T12:54:53Z</time>
      </trkpt>
      <trkpt lat="49.92568" lon="2.22493">
        <ele>15.9</ele>
        <time>2023-05-19T12:54:55Z</time>
      </trkpt>
      <trkpt lat="49.92567" lon="2.22491">
        <ele>15.9</ele>
        <time>2023-05-19T12:54:56Z</time>
      </trkpt>
      <trkpt lat="49.92567" lon="2.2249">
        <ele>16.1</ele>
        <time>2023-05-19T12:54:57Z</time>
      </trkpt>
      <trkpt lat="49.92566" lon="2.22489">
        <ele>16.1</ele>
        <time>2023-05-19T12:54:58Z</time>
      </trkpt>
      <trkpt lat="49.92566" lon="2.22488">
        <ele>16.1</ele>
        <time>2023-05-19T12:54:59Z</time>
      </trkpt>
      <trkpt lat="49.92565" lon="2.22487">
        <ele>16.1</ele>
        <time>2023-05-19T12:55:01Z</time>
      </trkpt>
      <trkpt lat="49.92565" lon="2.22486">
        <ele>16.4</ele>
        <time>2023-05-19T12:55:02Z</time>
      </trkpt>
      <trkpt lat="49.92564" lon="2.22485">
        <ele>16.2</ele>
        <time>2023-05-19T12:55:03Z</time>
      </trkpt>
      <trkpt lat="49.92564" lon="2.22484">
        <ele>16.2</ele>
        <time>2023-05-19T12:55:04Z</time>
      </trkpt>
      <trkpt lat="49.92563" lon="2.22483">
        <ele>16.3</ele>
        <time>2023-05-19T12:55:05Z</time>
      </trkpt>
      <trkpt lat="49.92562" lon="2.22483">
        <ele>16.3</ele>
        <time>2023-05-19T12:55:06Z</time>
      </trkpt>
      <trkpt lat="49.92561" lon="2.22482">
        <ele>16.4</ele>
        <time>2023-05-19T12:55:08Z</time>
      </trkpt>
      <trkpt lat="49.9256" lon="2.22481">
        <ele>16.4</ele>
        <time>2023-05-19T12:55:09Z</time>
      </trkpt>
      <trkpt lat="49.92558" lon="2.22479">
        <ele>16.2</ele>
        <time>2023-05-19T12:55:10Z</time>
      </trkpt>
      <trkpt lat="49.92557" lon="2.22478">
        <ele>16.2</ele>
        <time>2023-05-19T12:55:11Z</time>
      </trkpt>
      <trkpt lat="49.92556" lon="2.22478">
        <ele>16</ele>
        <time>2023-05-19T12:55:12Z</time>
      </trkpt>
      <trkpt lat="49.92554" lon="2.22477">
        <ele>16.4</ele>
        <time>2023-05-19T12:55:13Z</time>
      </trkpt>
      <trkpt lat="49.92553" lon="2.22476">
        <ele>16.1</ele>
        <time>2023-05-19T12:55:15Z</time>
      </trkpt>
      <trkpt lat="49.92551" lon="2.22475">
        <ele>16.2</ele>
        <time>2023-05-19T12:55:16Z</time>
      </trkpt>
      <trkpt lat="49.92549" lon="2.22473">
        <ele>16.4</ele>
        <time>2023-05-19T12:55:17Z</time>
      </trkpt>
      <trkpt lat="49.92548" lon="2.22472">
        <ele>16.4</ele>
        <time>2023-05-19T12:55:18Z</time>
      </trkpt>
      <trkpt lat="49.92546" lon="2.2247">
        <ele>16.2</ele>
        <time>2023-05-19T12:55:19Z</time>
      </trkpt>
      <trkpt lat="49.92545" lon="2.22469">
        <ele>16</ele>
        <time>2023-05-19T12:55:20Z</time>
      </trkpt>
      <trkpt lat="49.92543" lon="2.22468">
        <ele>16.4</ele>
        <time>2023-05-19T12:55:21Z</time>
      </trkpt>
      <trkpt lat="49.92542" lon="2.22466">
        <ele>16.1</ele>
        <time>2023-05-19T12:55:22Z</time>
      </trkpt>
      <trkpt lat="49.9254" lon="2.22464">
        <ele>16.5</ele>
        <time>2023-05-19T12:55:23Z</time>
      </trkpt>
      <trkpt lat="49.92539" lon="2.22463">
        <ele>16.3</ele>
        <time>2023-05-19T12:55:25Z</time>
      </trkpt>
      <trkpt lat="49.92538" lon="2.22463">
        <ele>16.3</ele>
        <time>2023-05-19T12:55:26Z</time>
      </trkpt>
      <trkpt lat="49.92537" lon="2.22462">
        <ele>16.1</ele>
        <time>2023-05-19T12:55:27Z</time>
      </trkpt>
      <trkpt lat="49.92536" lon="2.22461">
        <ele>16.1</ele>
        <time>2023-05-19T12:55:28Z</time>
      </trkpt>
      <trkpt lat="49.92535" lon="2.2246">
        <ele>16.4</ele>
        <time>2023-05-19T12:55:29Z</time>
      </trkpt>
      <trkpt lat="49.92534" lon="2.22458">
        <ele>16.2</ele>
        <time>2023-05-19T12:55:30Z</time>
      </trkpt>
      <trkpt lat="49.92533" lon="2.22456">
        <ele>16.2</ele>
        <time>2023-05-19T12:55:32Z</time>
      </trkpt>
      <trkpt lat="49.92532" lon="2.22454">
        <ele>16.5</ele>
        <time>2023-05-19T12:55:33Z</time>
      </trkpt>
      <trkpt lat="49.92531" lon="2.22451">
        <ele>16.6</ele>
        <time>2023-05-19T12:55:34Z</time>
      </trkpt>
      <trkpt lat="49.92529" lon="2.22449">
        <ele>16.6</ele>
        <time>2023-05-19T12:55:35Z</time>
      </trkpt>
      <trkpt lat="49.92528" lon="2.22448">
        <ele>16.4</ele>
        <time>2023-05-19T12:55:36Z</time>
      </trkpt>
      <trkpt lat="49.92527" lon="2.22446">
        <ele>16.7</ele>
        <time>2023-05-19T12:55:37Z</time>
      </trkpt>
      <trkpt lat="49.92526" lon="2.22444">
        <ele>16.6</ele>
        <time>2023-05-19T12:55:39Z</time>
      </trkpt>
      <trkpt lat="49.92525" lon="2.22443">
        <ele>16.9</ele>
        <time>2023-05-19T12:55:40Z</time>
      </trkpt>
      <trkpt lat="49.92524" lon="2.22442">
        <ele>16.9</ele>
        <time>2023-05-19T12:55:41Z</time>
      </trkpt>
      <trkpt lat="49.92522" lon="2.2244">
        <ele>16.7</ele>
        <time>2023-05-19T12:55:42Z</time>
      </trkpt>
      <trkpt lat="49.92522" lon="2.2244">
        <ele>16.7</ele>
        <time>2023-05-19T12:55:43Z</time>
      </trkpt>
      <trkpt lat="49.92521" lon="2.22439">
        <ele>16.7</ele>
        <time>2023-05-19T12:55:44Z</time>
      </trkpt>
      <trkpt lat="49.9252" lon="2.22438">
        <ele>16.9</ele>
        <time>2023-05-19T12:55:45Z</time>
      </trkpt>
      <trkpt lat="49.92519" lon="2.22438">
        <ele>16.9</ele>
        <time>2023-05-19T12:55:47Z</time>
      </trkpt>
      <trkpt lat="49.92518" lon="2.22437">
        <ele>16.9</ele>
        <time>2023-05-19T12:55:48Z</time>
      </trkpt>
      <trkpt lat="49.92517" lon="2.22437">
        <ele>16.9</ele>
        <time>2023-05-19T12:55:49Z</time>
      </trkpt>
      <trkpt lat="49.92516" lon="2.22436">
        <ele>16.9</ele>
        <time>2023-05-19T12:55:50Z</time>
      </trkpt>
      <trkpt lat="49.92514" lon="2.22436">
        <ele>16.8</ele>
        <time>2023-05-19T12:55:51Z</time>
      </trkpt>
      <trkpt lat="49.92513" lon="2.22436">
        <ele>16.8</ele>
        <time>2023-05-19T12:55:52Z</time>
      </trkpt>
      <trkpt lat="49.92511" lon="2.22435">
        <ele>16.8</ele>
        <time>2023-05-19T12:55:54Z</time>
      </trkpt>
      <trkpt lat="49.9251" lon="2.22434">
        <ele>17</ele>
        <time>2023-05-19T12:55:55Z</time>
      </trkpt>
      <trkpt lat="49.92508" lon="2.22434">
        <ele>17</ele>
        <time>2023-05-19T12:55:56Z</time>
      </trkpt>
      <trkpt lat="49.92507" lon="2.22433">
        <ele>17</ele>
        <time>2023-05-19T12:55:57Z</time>
      </trkpt>
      <trkpt lat="49.92505" lon="2.22433">
        <ele>16.9</ele>
        <time>2023-05-19T12:55:59Z</time>
      </trkpt>
      <trkpt lat="49.92504" lon="2.22432">
        <ele>17</ele>
        <time>2023-05-19T12:56:00Z</time>
      </trkpt>
      <trkpt lat="49.92502" lon="2.22431">
        <ele>16.9</ele>
        <time>2023-05-19T12:56:01Z</time>
      </trkpt>
      <trkpt lat="49.925" lon="2.2243">
        <ele>17</ele>
        <time>2023-05-19T12:56:03Z</time>
      </trkpt>
      <trkpt lat="49.92499" lon="2.22429">
        <ele>17</ele>
        <time>2023-05-19T12:56:04Z</time>
      </trkpt>
      <trkpt lat="49.92498" lon="2.22428">
        <ele>17</ele>
        <time>2023-05-19T12:56:05Z</time>
      </trkpt>
      <trkpt lat="49.92497" lon="2.22427">
        <ele>17</ele>
        <time>2023-05-19T12:56:06Z</time>
      </trkpt>
      <trkpt lat="49.92496" lon="2.22425">
        <ele>17</ele>
        <time>2023-05-19T12:56:07Z</time>
      </trkpt>
      <trkpt lat="49.92495" lon="2.22424">
        <ele>16.9</ele>
        <time>2023-05-19T12:56:09Z</time>
      </trkpt>
      <trkpt lat="49.92494" lon="2.22423">
        <ele>16.9</ele>
        <time>2023-05-19T12:56:10Z</time>
      </trkpt>
      <trkpt lat="49.92492" lon="2.22421">
        <ele>16.8</ele>
        <time>2023-05-19T12:56:11Z</time>
      </trkpt>
      <trkpt lat="49.92491" lon="2.22421">
        <ele>16.8</ele>
        <time>2023-05-19T12:56:12Z</time>
      </trkpt>
      <trkpt lat="49.92491" lon="2.2242">
        <ele>16.8</ele>
        <time>2023-05-19T12:56:13Z</time>
      </trkpt>
      <trkpt lat="49.92489" lon="2.2242">
        <ele>16.7</ele>
        <time>2023-05-19T12:56:15Z</time>
      </trkpt>
      <trkpt lat="49.92488" lon="2.2242">
        <ele>16.7</ele>
        <time>2023-05-19T12:56:16Z</time>
      </trkpt>
      <trkpt lat="49.92487" lon="2.2242">
        <ele>16.7</ele>
        <time>2023-05-19T12:56:17Z</time>
      </trkpt>
      <trkpt lat="49.92487" lon="2.2242">
        <ele>16.5</ele>
        <time>2023-05-19T12:56:18Z</time>
      </trkpt>
      <trkpt lat="49.92486" lon="2.2242">
        <ele>16.5</ele>
        <time>2023-05-19T12:56:20Z</time>
      </trkpt>
      <trkpt lat="49.92485" lon="2.22419">
        <ele>16.5</ele>
        <time>2023-05-19T12:56:21Z</time>
      </trkpt>
      <trkpt lat="49.92483" lon="2.22418">
        <ele>16.3</ele>
        <time>2023-05-19T12:56:22Z</time>
      </trkpt>
      <trkpt lat="49.92482" lon="2.22417">
        <ele>16.2</ele>
        <time>2023-05-19T12:56:23Z</time>
      </trkpt>
      <trkpt lat="49.92481" lon="2.22416">
        <ele>16</ele>
        <time>2023-05-19T12:56:24Z</time>
      </trkpt>
      <trkpt lat="49.9248" lon="2.22415">
        <ele>16</ele>
        <time>2023-05-19T12:56:25Z</time>
      </trkpt>
      <trkpt lat="49.92479" lon="2.22414">
        <ele>16</ele>
        <time>2023-05-19T12:56:27Z</time>
      </trkpt>
      <trkpt lat="49.92477" lon="2.22413">
        <ele>16</ele>
        <time>2023-05-19T12:56:28Z</time>
      </trkpt>
      <trkpt lat="49.92476" lon="2.22413">
        <ele>16</ele>
        <time>2023-05-19T12:56:29Z</time>
      </trkpt>
      <trkpt lat="49.92475" lon="2.22413">
        <ele>16</ele>
        <time>2023-05-19T12:56:30Z</time>
      </trkpt>
      <trkpt lat="49.92474" lon="2.22414">
        <ele>16</ele>
        <time>2023-05-19T12:56:31Z</time>
      </trkpt>
      <trkpt lat="49.92474" lon="2.22415">
        <ele>16</ele>
        <time>2023-05-19T12:56:32Z</time>
      </trkpt>
      <trkpt lat="49.92474" lon="2.22417">
        <ele>16</ele>
        <time>2023-05-19T12:56:33Z</time>
      </trkpt>
      <trkpt lat="49.92473" lon="2.22418">
        <ele>16</ele>
        <time>2023-05-19T12:56:35Z</time>
      </trkpt>
      <trkpt lat="49.92474" lon="2.22419">
        <ele>16</ele>
        <time>2023-05-19T12:56:36Z</time>
      </trkpt>
      <trkpt lat="49.92474" lon="2.22421">
        <ele>16</ele>
        <time>2023-05-19T12:56:37Z</time>
      </trkpt>
      <trkpt lat="49.92474" lon="2.22422">
        <ele>16</ele>
        <time>2023-05-19T12:56:38Z</time>
      </trkpt>
      <trkpt lat="49.92474" lon="2.22424">
        <ele>16.1</ele>
        <time>2023-05-19T12:56:40Z</time>
      </trkpt>
      <trkpt lat="49.92475" lon="2.22426">
        <ele>16.1</ele>
        <time>2023-05-19T12:56:41Z</time>
      </trkpt>
      <trkpt lat="49.92475" lon="2.22428">
        <ele>16.1</ele>
        <time>2023-05-19T12:56:42Z</time>
      </trkpt>
      <trkpt lat="49.92475" lon="2.22429">
        <ele>16.1</ele>
        <time>2023-05-19T12:56:43Z</time>
      </trkpt>
      <trkpt lat="49.92475" lon="2.22431">
        <ele>16.1</ele>
        <time>2023-05-19T12:56:44Z</time>
      </trkpt>
      <trkpt lat="49.92475" lon="2.22432">
        <ele>16.1</ele>
        <time>2023-05-19T12:56:45Z</time>
      </trkpt>
      <trkpt lat="49.92474" lon="2.22432">
        <ele>16.1</ele>
        <time>2023-05-19T12:56:46Z</time>
      </trkpt>
      <trkpt lat="49.92473" lon="2.22432">
        <ele>16.1</ele>
        <time>2023-05-19T12:56:48Z</time>
      </trkpt>
      <trkpt lat="49.92472" lon="2.22432">
        <ele>16.1</ele>
        <time>2023-05-19T12:56:50Z</time>
      </trkpt>
      <trkpt lat="49.92472" lon="2.22432">
        <ele>16.1</ele>
        <time>2023-05-19T12:56:51Z</time>
      </trkpt>
      <trkpt lat="49.92472" lon="2.22431">
        <ele>16.1</ele>
        <time>2023-05-19T12:56:52Z</time>
      </trkpt>
      <trkpt lat="49.92473" lon="2.22431">
        <ele>16.1</ele>
        <time>2023-05-19T12:56:53Z</time>
      </trkpt>
      <trkpt lat="49.92472" lon="2.22431">
        <ele>16.1</ele>
        <time>2023-05-19T12:56:55Z</time>
      </trkpt>
      <trkpt lat="49.92472" lon="2.22431">
        <ele>16.1</ele>
        <time>2023-05-19T12:56:56Z</time>
      </trkpt>
      <trkpt lat="49.92471" lon="2.22432">
        <ele>16.1</ele>
        <time>2023-05-19T12:56:57Z</time>
      </trkpt>
      <trkpt lat="49.9247" lon="2.22432">
        <ele>16.1</ele>
        <time>2023-05-19T12:56:58Z</time>
      </trkpt>
      <trkpt lat="49.92469" lon="2.22434">
        <ele>16.1</ele>
        <time>2023-05-19T12:57:00Z</time>
      </trkpt>
      <trkpt lat="49.92469" lon="2.22435">
        <ele>16.1</ele>
        <time>2023-05-19T12:57:01Z</time>
      </trkpt>
      <trkpt lat="49.92468" lon="2.22436">
        <ele>16.1</ele>
        <time>2023-05-19T12:57:03Z</time>
      </trkpt>
      <trkpt lat="49.92468" lon="2.22436">
        <ele>16.1</ele>
        <time>2023-05-19T12:57:04Z</time>
      </trkpt>
      <trkpt lat="49.92469" lon="2.22437">
        <ele>16.1</ele>
        <time>2023-05-19T12:57:06Z</time>
      </trkpt>
      <trkpt lat="49.92469" lon="2.22437">
        <ele>16.1</ele>
        <time>2023-05-19T12:57:07Z</time>
      </trkpt>
      <trkpt lat="49.92469" lon="2.22437">
        <ele>16.1</ele>
        <time>2023-05-19T12:57:08Z</time>
      </trkpt>
      <trkpt lat="49.92469" lon="2.22437">
        <ele>16.1</ele>
        <time>2023-05-19T12:57:10Z</time>
      </trkpt>
      <trkpt lat="49.92469" lon="2.22437">
        <ele>16.1</ele>
        <time>2023-05-19T12:57:11Z</time>
      </trkpt>
      <trkpt lat="49.92469" lon="2.22437">
        <ele>16.1</ele>
        <time>2023-05-19T12:57:13Z</time>
      </trkpt>
      <trkpt lat="49.92469" lon="2.22437">
        <ele>16.1</ele>
        <time>2023-05-19T12:57:14Z</time>
      </trkpt>
      <trkpt lat="49.92469" lon="2.22437">
        <ele>16.1</ele>
        <time>2023-05-19T12:57:16Z</time>
      </trkpt>
      <trkpt lat="49.92469" lon="2.22437">
        <ele>16.1</ele>
        <time>2023-05-19T12:57:17Z</time>
      </trkpt>
      <trkpt lat="49.9247" lon="2.22436">
        <ele>16.1</ele>
        <time>2023-05-19T12:57:18Z</time>
      </trkpt>
      <trkpt lat="49.9247" lon="2.22436">
        <ele>16.1</ele>
        <time>2023-05-19T12:57:19Z</time>
      </trkpt>
      <trkpt lat="49.9247" lon="2.22436">
        <ele>16.1</ele>
        <time>2023-05-19T12:57:20Z</time>
      </trkpt>
      <trkpt lat="49.9247" lon="2.22436">
        <ele>16.1</ele>
        <time>2023-05-19T12:57:21Z</time>
      </trkpt>
      <trkpt lat="49.9247" lon="2.22436">
        <ele>16.1</ele>
        <time>2023-05-19T12:57:22Z</time>
      </trkpt>
      <trkpt lat="49.9247" lon="2.22436">
        <ele>16.1</ele>
        <time>2023-05-19T12:57:23Z</time>
      </trkpt>
      <trkpt lat="49.92473" lon="2.22443">
        <ele>16.2</ele>
        <time>2023-05-19T12:59:06Z</time>
      </trkpt>
      <trkpt lat="49.92475" lon="2.22444">
        <ele>16.2</ele>
        <time>2023-05-19T12:59:07Z</time>
      </trkpt>
      <trkpt lat="49.92476" lon="2.22446">
        <ele>16.2</ele>
        <time>2023-05-19T12:59:08Z</time>
      </trkpt>
      <trkpt lat="49.92477" lon="2.22447">
        <ele>16.1</ele>
        <time>2023-05-19T12:59:09Z</time>
      </trkpt>
      <trkpt lat="49.92478" lon="2.22447">
        <ele>16.1</ele>
        <time>2023-05-19T12:59:10Z</time>
      </trkpt>
      <trkpt lat="49.92479" lon="2.22448">
        <ele>16.1</ele>
        <time>2023-05-19T12:59:12Z</time>
      </trkpt>
      <trkpt lat="49.9248" lon="2.22448">
        <ele>16.1</ele>
        <time>2023-05-19T12:59:13Z</time>
      </trkpt>
      <trkpt lat="49.9248" lon="2.22447">
        <ele>16.1</ele>
        <time>2023-05-19T12:59:14Z</time>
      </trkpt>
      <trkpt lat="49.9248" lon="2.22447">
        <ele>16.1</ele>
        <time>2023-05-19T12:59:15Z</time>
      </trkpt>
      <trkpt lat="49.9248" lon="2.22446">
        <ele>16.1</ele>
        <time>2023-05-19T12:59:16Z</time>
      </trkpt>
      <trkpt lat="49.9248" lon="2.22446">
        <ele>16.1</ele>
        <time>2023-05-19T12:59:18Z</time>
      </trkpt>
      <trkpt lat="49.92481" lon="2.22445">
        <ele>16.1</ele>
        <time>2023-05-19T12:59:20Z</time>
      </trkpt>
      <trkpt lat="49.92481" lon="2.22445">
        <ele>16.1</ele>
        <time>2023-05-19T12:59:21Z</time>
      </trkpt>
      <trkpt lat="49.92481" lon="2.22445">
        <ele>16.1</ele>
        <time>2023-05-19T12:59:23Z</time>
      </trkpt>
      <trkpt lat="49.92481" lon="2.22444">
        <ele>16.1</ele>
        <time>2023-05-19T12:59:24Z</time>
      </trkpt>
      <trkpt lat="49.92481" lon="2.22444">
        <ele>16.1</ele>
        <time>2023-05-19T12:59:25Z</time>
      </trkpt>
      <trkpt lat="49.92481" lon="2.22443">
        <ele>16.1</ele>
        <time>2023-05-19T12:59:27Z</time>
      </trkpt>
      <trkpt lat="49.92481" lon="2.22443">
        <ele>16.1</ele>
        <time>2023-05-19T12:59:28Z</time>
      </trkpt>
      <trkpt lat="49.92481" lon="2.22442">
        <ele>16.1</ele>
        <time>2023-05-19T12:59:29Z</time>
      </trkpt>
      <trkpt lat="49.92481" lon="2.22442">
        <ele>16.1</ele>
        <time>2023-05-19T12:59:31Z</time>
      </trkpt>
      <trkpt lat="49.92481" lon="2.22442">
        <ele>16.1</ele>
        <time>2023-05-19T13:01:13Z</time>
      </trkpt>
      <trkpt lat="49.92481" lon="2.22441">
        <ele>16.1</ele>
        <time>2023-05-19T13:01:14Z</time>
      </trkpt>
      <trkpt lat="49.92481" lon="2.22441">
        <ele>16.1</ele>
        <time>2023-05-19T13:01:15Z</time>
      </trkpt>
      <trkpt lat="49.92481" lon="2.2244">
        <ele>16.1</ele>
        <time>2023-05-19T13:01:16Z</time>
      </trkpt>
      <trkpt lat="49.92481" lon="2.2244">
        <ele>16.1</ele>
        <time>2023-05-19T13:01:17Z</time>
      </trkpt>
      <trkpt lat="49.92481" lon="2.22439">
        <ele>16.1</ele>
        <time>2023-05-19T13:01:18Z</time>
      </trkpt>
      <trkpt lat="49.92481" lon="2.22439">
        <ele>16.1</ele>
        <time>2023-05-19T13:01:19Z</time>
      </trkpt>
      <trkpt lat="49.92481" lon="2.22439">
        <ele>16.1</ele>
        <time>2023-05-19T13:01:21Z</time>
      </trkpt>
      <trkpt lat="49.92481" lon="2.22438">
        <ele>16.1</ele>
        <time>2023-05-19T13:01:22Z</time>
      </trkpt>
      <trkpt lat="49.92478" lon="2.22436">
        <ele>16.1</ele>
        <time>2023-05-19T13:01:23Z</time>
      </trkpt>
      <trkpt lat="49.92475" lon="2.22434">
        <ele>16.1</ele>
        <time>2023-05-19T13:01:24Z</time>
      </trkpt>
      <trkpt lat="49.92474" lon="2.22433">
        <ele>16.1</ele>
        <time>2023-05-19T13:01:25Z</time>
      </trkpt>
      <trkpt lat="49.92473" lon="2.22432">
        <ele>16.1</ele>
        <time>2023-05-19T13:01:26Z</time>
      </trkpt>
      <trkpt lat="49.9247" lon="2.22432">
        <ele>16.1</ele>
        <time>2023-05-19T13:01:28Z</time>
      </trkpt>
      <trkpt lat="49.92469" lon="2.22431">
        <ele>16.1</ele>
        <time>2023-05-19T13:01:30Z</time>
      </trkpt>
      <trkpt lat="49.92469" lon="2.2243">
        <ele>16.1</ele>
        <time>2023-05-19T13:01:31Z</time>
      </trkpt>
      <trkpt lat="49.92469" lon="2.2243">
        <ele>16.1</ele>
        <time>2023-05-19T13:01:32Z</time>
      </trkpt>
      <trkpt lat="49.9247" lon="2.22429">
        <ele>16.1</ele>
        <time>2023-05-19T13:01:33Z</time>
      </trkpt>
      <trkpt lat="49.92471" lon="2.22428">
        <ele>16.1</ele>
        <time>2023-05-19T13:01:34Z</time>
      </trkpt>
      <trkpt lat="49.92472" lon="2.22431">
        <ele>16.1</ele>
        <time>2023-05-19T13:01:36Z</time>
      </trkpt>
      <trkpt lat="49.92472" lon="2.22432">
        <ele>16.1</ele>
        <time>2023-05-19T13:01:37Z</time>
      </trkpt>
      <trkpt lat="49.92471" lon="2.22432">
        <ele>16.1</ele>
        <time>2023-05-19T13:01:39Z</time>
      </trkpt>
      <trkpt lat="49.92471" lon="2.22432">
        <ele>16.1</ele>
        <time>2023-05-19T13:01:40Z</time>
      </trkpt>
      <trkpt lat="49.9247" lon="2.22432">
        <ele>16.1</ele>
        <time>2023-05-19T13:01:42Z</time>
      </trkpt>
      <trkpt lat="49.9247" lon="2.22432">
        <ele>16.1</ele>
        <time>2023-05-19T13:01:43Z</time>
      </trkpt>
      <trkpt lat="49.9247" lon="2.22432">
        <ele>16.1</ele>
        <time>2023-05-19T13:01:45Z</time>
      </trkpt>
      <trkpt lat="49.9247" lon="2.22432">
        <ele>16.1</ele>
        <time>2023-05-19T13:01:46Z</time>
      </trkpt>
      <trkpt lat="49.9247" lon="2.22432">
        <ele>16.1</ele>
        <time>2023-05-19T13:01:47Z</time>
      </trkpt>
      <trkpt lat="49.92468" lon="2.22431">
        <ele>16.1</ele>
        <time>2023-05-19T13:02:16Z</time>
      </trkpt>
      <trkpt lat="49.92468" lon="2.22431">
        <ele>16.1</ele>
        <time>2023-05-19T13:02:17Z</time>
      </trkpt>
      <trkpt lat="49.92467" lon="2.2243">
        <ele>16.1</ele>
        <time>2023-05-19T13:02:18Z</time>
      </trkpt>
      <trkpt lat="49.92467" lon="2.2243">
        <ele>16.1</ele>
        <time>2023-05-19T13:02:19Z</time>
      </trkpt>
      <trkpt lat="49.92467" lon="2.2243">
        <ele>16.1</ele>
        <time>2023-05-19T13:02:20Z</time>
      </trkpt>
      <trkpt lat="49.92467" lon="2.2243">
        <ele>16.1</ele>
        <time>2023-05-19T13:02:21Z</time>
      </trkpt>
      <trkpt lat="49.92467" lon="2.22431">
        <ele>16.1</ele>
        <time>2023-05-19T13:02:22Z</time>
      </trkpt>
      <trkpt lat="49.92468" lon="2.22431">
        <ele>16.1</ele>
        <time>2023-05-19T13:02:23Z</time>
      </trkpt>
      <trkpt lat="49.92468" lon="2.22431">
        <ele>16.1</ele>
        <time>2023-05-19T13:02:24Z</time>
      </trkpt>
      <trkpt lat="49.92468" lon="2.22431">
        <ele>16.1</ele>
        <time>2023-05-19T13:02:25Z</time>
      </trkpt>
      <trkpt lat="49.92468" lon="2.22431">
        <ele>16.1</ele>
        <time>2023-05-19T13:02:26Z</time>
      </trkpt>
      <trkpt lat="49.92468" lon="2.22431">
        <ele>16.1</ele>
        <time>2023-05-19T13:02:27Z</time>
      </trkpt>
      <trkpt lat="49.92468" lon="2.22431">
        <ele>16.1</ele>
        <time>2023-05-19T13:02:28Z</time>
      </trkpt>
      <trkpt lat="49.92468" lon="2.22431">
        <ele>16.1</ele>
        <time>2023-05-19T13:02:29Z</time>
      </trkpt>
      <trkpt lat="49.92468" lon="2.22431">
        <ele>16.1</ele>
        <time>2023-05-19T13:02:30Z</time>
      </trkpt>
      <trkpt lat="49.92466" lon="2.22428">
        <ele>16.1</ele>
        <time>2023-05-19T13:02:54Z</time>
      </trkpt>
      <trkpt lat="49.92466" lon="2.22427">
        <ele>16.1</ele>
        <time>2023-05-19T13:02:55Z</time>
      </trkpt>
      <trkpt lat="49.92466" lon="2.22426">
        <ele>16.1</ele>
        <time>2023-05-19T13:02:56Z</time>
      </trkpt>
      <trkpt lat="49.92465" lon="2.22425">
        <ele>16.1</ele>
        <time>2023-05-19T13:02:58Z</time>
      </trkpt>
      <trkpt lat="49.92465" lon="2.22425">
        <ele>16.1</ele>
        <time>2023-05-19T13:02:59Z</time>
      </trkpt>
      <trkpt lat="49.92465" lon="2.22425">
        <ele>16.1</ele>
        <time>2023-05-19T13:03:00Z</time>
      </trkpt>
      <trkpt lat="49.92465" lon="2.22424">
        <ele>16.1</ele>
        <time>2023-05-19T13:03:02Z</time>
      </trkpt>
      <trkpt lat="49.92464" lon="2.22424">
        <ele>16.1</ele>
        <time>2023-05-19T13:03:03Z</time>
      </trkpt>
      <trkpt lat="49.92463" lon="2.22423">
        <ele>16.1</ele>
        <time>2023-05-19T13:03:04Z</time>
      </trkpt>
      <trkpt lat="49.92463" lon="2.22422">
        <ele>16</ele>
        <time>2023-05-19T13:03:05Z</time>
      </trkpt>
      <trkpt lat="49.92462" lon="2.22421">
        <ele>16</ele>
        <time>2023-05-19T13:03:07Z</time>
      </trkpt>
      <trkpt lat="49.9246" lon="2.22419">
        <ele>16</ele>
        <time>2023-05-19T13:03:08Z</time>
      </trkpt>
      <trkpt lat="49.92459" lon="2.22418">
        <ele>16</ele>
        <time>2023-05-19T13:03:09Z</time>
      </trkpt>
      <trkpt lat="49.92458" lon="2.22417">
        <ele>15.9</ele>
        <time>2023-05-19T13:03:10Z</time>
      </trkpt>
      <trkpt lat="49.92457" lon="2.22415">
        <ele>15.9</ele>
        <time>2023-05-19T13:03:11Z</time>
      </trkpt>
      <trkpt lat="49.92456" lon="2.22414">
        <ele>15.9</ele>
        <time>2023-05-19T13:03:12Z</time>
      </trkpt>
      <trkpt lat="49.92455" lon="2.22412">
        <ele>15.9</ele>
        <time>2023-05-19T13:03:13Z</time>
      </trkpt>
      <trkpt lat="49.92454" lon="2.22411">
        <ele>15.8</ele>
        <time>2023-05-19T13:03:14Z</time>
      </trkpt>
      <trkpt lat="49.92452" lon="2.22411">
        <ele>15.8</ele>
        <time>2023-05-19T13:03:16Z</time>
      </trkpt>
      <trkpt lat="49.92452" lon="2.22413">
        <ele>15.8</ele>
        <time>2023-05-19T13:03:17Z</time>
      </trkpt>
      <trkpt lat="49.92452" lon="2.22414">
        <ele>15.8</ele>
        <time>2023-05-19T13:03:18Z</time>
      </trkpt>
      <trkpt lat="49.92452" lon="2.22416">
        <ele>15.7</ele>
        <time>2023-05-19T13:03:19Z</time>
      </trkpt>
      <trkpt lat="49.92452" lon="2.22417">
        <ele>15.7</ele>
        <time>2023-05-19T13:03:20Z</time>
      </trkpt>
      <trkpt lat="49.92452" lon="2.22416">
        <ele>15.7</ele>
        <time>2023-05-19T13:03:22Z</time>
      </trkpt>
      <trkpt lat="49.92452" lon="2.22415">
        <ele>15.7</ele>
        <time>2023-05-19T13:03:23Z</time>
      </trkpt>
      <trkpt lat="49.92452" lon="2.22414">
        <ele>15.7</ele>
        <time>2023-05-19T13:03:25Z</time>
      </trkpt>
      <trkpt lat="49.92452" lon="2.22413">
        <ele>15.7</ele>
        <time>2023-05-19T13:03:26Z</time>
      </trkpt>
      <trkpt lat="49.92453" lon="2.22412">
        <ele>15.7</ele>
        <time>2023-05-19T13:03:27Z</time>
      </trkpt>
      <trkpt lat="49.92453" lon="2.2241">
        <ele>15.7</ele>
        <time>2023-05-19T13:03:29Z</time>
      </trkpt>
      <trkpt lat="49.92453" lon="2.2241">
        <ele>15.7</ele>
        <time>2023-05-19T13:03:30Z</time>
      </trkpt>
      <trkpt lat="49.92452" lon="2.22411">
        <ele>15.7</ele>
        <time>2023-05-19T13:03:31Z</time>
      </trkpt>
      <trkpt lat="49.92452" lon="2.22412">
        <ele>15.6</ele>
        <time>2023-05-19T13:03:32Z</time>
      </trkpt>
      <trkpt lat="49.92451" lon="2.22411">
        <ele>15.6</ele>
        <time>2023-05-19T13:03:33Z</time>
      </trkpt>
      <trkpt lat="49.9245" lon="2.2241">
        <ele>15.6</ele>
        <time>2023-05-19T13:03:34Z</time>
      </trkpt>
      <trkpt lat="49.92449" lon="2.2241">
        <ele>15.6</ele>
        <time>2023-05-19T13:03:35Z</time>
      </trkpt>
      <trkpt lat="49.92448" lon="2.22409">
        <ele>15.6</ele>
        <time>2023-05-19T13:03:36Z</time>
      </trkpt>
      <trkpt lat="49.92447" lon="2.22408">
        <ele>15.6</ele>
        <time>2023-05-19T13:03:38Z</time>
      </trkpt>
      <trkpt lat="49.92446" lon="2.22406">
        <ele>15.5</ele>
        <time>2023-05-19T13:03:39Z</time>
      </trkpt>
      <trkpt lat="49.92444" lon="2.22405">
        <ele>15.5</ele>
        <time>2023-05-19T13:03:40Z</time>
      </trkpt>
      <trkpt lat="49.92443" lon="2.22404">
        <ele>15.5</ele>
        <time>2023-05-19T13:03:41Z</time>
      </trkpt>
      <trkpt lat="49.92442" lon="2.22403">
        <ele>15.5</ele>
        <time>2023-05-19T13:03:42Z</time>
      </trkpt>
      <trkpt lat="49.92439" lon="2.224">
        <ele>15.5</ele>
        <time>2023-05-19T13:03:43Z</time>
      </trkpt>
      <trkpt lat="49.92439" lon="2.22398">
        <ele>15.5</ele>
        <time>2023-05-19T13:03:44Z</time>
      </trkpt>
      <trkpt lat="49.92436" lon="2.22396">
        <ele>15.4</ele>
        <time>2023-05-19T13:03:46Z</time>
      </trkpt>
      <trkpt lat="49.92435" lon="2.22394">
        <ele>15.4</ele>
        <time>2023-05-19T13:03:47Z</time>
      </trkpt>
      <trkpt lat="49.92433" lon="2.22393">
        <ele>15.4</ele>
        <time>2023-05-19T13:03:48Z</time>
      </trkpt>
      <trkpt lat="49.92432" lon="2.22391">
        <ele>15.4</ele>
        <time>2023-05-19T13:03:49Z</time>
      </trkpt>
      <trkpt lat="49.92431" lon="2.22389">
        <ele>15.4</ele>
        <time>2023-05-19T13:03:50Z</time>
      </trkpt>
      <trkpt lat="49.92429" lon="2.22386">
        <ele>15.4</ele>
        <time>2023-05-19T13:03:51Z</time>
      </trkpt>
      <trkpt lat="49.92428" lon="2.22385">
        <ele>15.4</ele>
        <time>2023-05-19T13:03:52Z</time>
      </trkpt>
      <trkpt lat="49.92426" lon="2.22384">
        <ele>15.4</ele>
        <time>2023-05-19T13:03:53Z</time>
      </trkpt>
      <trkpt lat="49.92424" lon="2.22382">
        <ele>15.3</ele>
        <time>2023-05-19T13:03:55Z</time>
      </trkpt>
      <trkpt lat="49.92423" lon="2.22381">
        <ele>15.3</ele>
        <time>2023-05-19T13:03:56Z</time>
      </trkpt>
      <trkpt lat="49.92422" lon="2.2238">
        <ele>15.3</ele>
        <time>2023-05-19T13:03:57Z</time>
      </trkpt>
      <trkpt lat="49.9242" lon="2.22379">
        <ele>15.3</ele>
        <time>2023-05-19T13:03:58Z</time>
      </trkpt>
      <trkpt lat="49.92419" lon="2.22377">
        <ele>15.3</ele>
        <time>2023-05-19T13:03:59Z</time>
      </trkpt>
      <trkpt lat="49.92418" lon="2.22377">
        <ele>15.3</ele>
        <time>2023-05-19T13:04:00Z</time>
      </trkpt>
      <trkpt lat="49.92416" lon="2.22376">
        <ele>15.2</ele>
        <time>2023-05-19T13:04:02Z</time>
      </trkpt>
      <trkpt lat="49.92415" lon="2.22375">
        <ele>15.2</ele>
        <time>2023-05-19T13:04:03Z</time>
      </trkpt>
      <trkpt lat="49.92413" lon="2.22374">
        <ele>15.2</ele>
        <time>2023-05-19T13:04:04Z</time>
      </trkpt>
      <trkpt lat="49.9241" lon="2.22371">
        <ele>15.2</ele>
        <time>2023-05-19T13:04:05Z</time>
      </trkpt>
      <trkpt lat="49.92409" lon="2.2237">
        <ele>15.2</ele>
        <time>2023-05-19T13:04:07Z</time>
      </trkpt>
      <trkpt lat="49.92408" lon="2.22369">
        <ele>15.2</ele>
        <time>2023-05-19T13:04:09Z</time>
      </trkpt>
      <trkpt lat="49.92407" lon="2.22368">
        <ele>15.1</ele>
        <time>2023-05-19T13:04:10Z</time>
      </trkpt>
      <trkpt lat="49.92405" lon="2.22367">
        <ele>15.1</ele>
        <time>2023-05-19T13:04:11Z</time>
      </trkpt>
      <trkpt lat="49.92404" lon="2.22366">
        <ele>15.1</ele>
        <time>2023-05-19T13:04:12Z</time>
      </trkpt>
      <trkpt lat="49.92403" lon="2.22365">
        <ele>15.1</ele>
        <time>2023-05-19T13:04:14Z</time>
      </trkpt>
      <trkpt lat="49.92402" lon="2.22363">
        <ele>15.1</ele>
        <time>2023-05-19T13:04:15Z</time>
      </trkpt>
      <trkpt lat="49.924" lon="2.22363">
        <ele>15.1</ele>
        <time>2023-05-19T13:04:16Z</time>
      </trkpt>
      <trkpt lat="49.92399" lon="2.22362">
        <ele>15.1</ele>
        <time>2023-05-19T13:04:17Z</time>
      </trkpt>
      <trkpt lat="49.92398" lon="2.22362">
        <ele>15.1</ele>
        <time>2023-05-19T13:04:18Z</time>
      </trkpt>
      <trkpt lat="49.92397" lon="2.22361">
        <ele>15.1</ele>
        <time>2023-05-19T13:04:19Z</time>
      </trkpt>
      <trkpt lat="49.92396" lon="2.2236">
        <ele>15.1</ele>
        <time>2023-05-19T13:04:20Z</time>
      </trkpt>
      <trkpt lat="49.92395" lon="2.2236">
        <ele>15.1</ele>
        <time>2023-05-19T13:04:21Z</time>
      </trkpt>
      <trkpt lat="49.92394" lon="2.22359">
        <ele>15.1</ele>
        <time>2023-05-19T13:04:23Z</time>
      </trkpt>
      <trkpt lat="49.92393" lon="2.22359">
        <ele>15.1</ele>
        <time>2023-05-19T13:04:24Z</time>
      </trkpt>
      <trkpt lat="49.92392" lon="2.22359">
        <ele>15</ele>
        <time>2023-05-19T13:04:25Z</time>
      </trkpt>
      <trkpt lat="49.92391" lon="2.22358">
        <ele>15</ele>
        <time>2023-05-19T13:04:26Z</time>
      </trkpt>
      <trkpt lat="49.92391" lon="2.22358">
        <ele>15</ele>
        <time>2023-05-19T13:04:27Z</time>
      </trkpt>
      <trkpt lat="49.92389" lon="2.22357">
        <ele>15</ele>
        <time>2023-05-19T13:04:29Z</time>
      </trkpt>
      <trkpt lat="49.92388" lon="2.22357">
        <ele>15</ele>
        <time>2023-05-19T13:04:30Z</time>
      </trkpt>
      <trkpt lat="49.92387" lon="2.22356">
        <ele>15</ele>
        <time>2023-05-19T13:04:31Z</time>
      </trkpt>
      <trkpt lat="49.92387" lon="2.22356">
        <ele>15</ele>
        <time>2023-05-19T13:04:32Z</time>
      </trkpt>
      <trkpt lat="49.92386" lon="2.22355">
        <ele>15</ele>
        <time>2023-05-19T13:04:33Z</time>
      </trkpt>
      <trkpt lat="49.92385" lon="2.22354">
        <ele>15</ele>
        <time>2023-05-19T13:04:34Z</time>
      </trkpt>
      <trkpt lat="49.92384" lon="2.22354">
        <ele>15</ele>
        <time>2023-05-19T13:04:35Z</time>
      </trkpt>
      <trkpt lat="49.92383" lon="2.22353">
        <ele>15</ele>
        <time>2023-05-19T13:04:37Z</time>
      </trkpt>
      <trkpt lat="49.92382" lon="2.22352">
        <ele>15</ele>
        <time>2023-05-19T13:04:38Z</time>
      </trkpt>
      <trkpt lat="49.92382" lon="2.22351">
        <ele>15</ele>
        <time>2023-05-19T13:04:39Z</time>
      </trkpt>
      <trkpt lat="49.92381" lon="2.22351">
        <ele>15</ele>
        <time>2023-05-19T13:04:40Z</time>
      </trkpt>
      <trkpt lat="49.9238" lon="2.2235">
        <ele>15</ele>
        <time>2023-05-19T13:04:42Z</time>
      </trkpt>
      <trkpt lat="49.92379" lon="2.22349">
        <ele>15</ele>
        <time>2023-05-19T13:04:43Z</time>
      </trkpt>
      <trkpt lat="49.92378" lon="2.22349">
        <ele>15</ele>
        <time>2023-05-19T13:04:44Z</time>
      </trkpt>
      <trkpt lat="49.92378" lon="2.22349">
        <ele>15</ele>
        <time>2023-05-19T13:04:45Z</time>
      </trkpt>
      <trkpt lat="49.92377" lon="2.22348">
        <ele>14.9</ele>
        <time>2023-05-19T13:04:46Z</time>
      </trkpt>
      <trkpt lat="49.92376" lon="2.22348">
        <ele>14.9</ele>
        <time>2023-05-19T13:04:47Z</time>
      </trkpt>
      <trkpt lat="49.92375" lon="2.22348">
        <ele>14.9</ele>
        <time>2023-05-19T13:04:48Z</time>
      </trkpt>
      <trkpt lat="49.92374" lon="2.22347">
        <ele>14.9</ele>
        <time>2023-05-19T13:04:49Z</time>
      </trkpt>
      <trkpt lat="49.92373" lon="2.22347">
        <ele>14.9</ele>
        <time>2023-05-19T13:04:50Z</time>
      </trkpt>
      <trkpt lat="49.92372" lon="2.22347">
        <ele>14.9</ele>
        <time>2023-05-19T13:04:52Z</time>
      </trkpt>
      <trkpt lat="49.92372" lon="2.22346">
        <ele>14.9</ele>
        <time>2023-05-19T13:04:53Z</time>
      </trkpt>
      <trkpt lat="49.92371" lon="2.22345">
        <ele>14.9</ele>
        <time>2023-05-19T13:04:54Z</time>
      </trkpt>
      <trkpt lat="49.9237" lon="2.22345">
        <ele>14.9</ele>
        <time>2023-05-19T13:04:55Z</time>
      </trkpt>
      <trkpt lat="49.9237" lon="2.22344">
        <ele>14.9</ele>
        <time>2023-05-19T13:04:56Z</time>
      </trkpt>
      <trkpt lat="49.92368" lon="2.22343">
        <ele>14.8</ele>
        <time>2023-05-19T13:04:57Z</time>
      </trkpt>
      <trkpt lat="49.92367" lon="2.22342">
        <ele>14.8</ele>
        <time>2023-05-19T13:04:59Z</time>
      </trkpt>
      <trkpt lat="49.92366" lon="2.22342">
        <ele>14.8</ele>
        <time>2023-05-19T13:05:00Z</time>
      </trkpt>
      <trkpt lat="49.92364" lon="2.22341">
        <ele>14.8</ele>
        <time>2023-05-19T13:05:01Z</time>
      </trkpt>
      <trkpt lat="49.92363" lon="2.22341">
        <ele>14.8</ele>
        <time>2023-05-19T13:05:02Z</time>
      </trkpt>
      <trkpt lat="49.92362" lon="2.22341">
        <ele>14.8</ele>
        <time>2023-05-19T13:05:03Z</time>
      </trkpt>
      <trkpt lat="49.92361" lon="2.2234">
        <ele>14.7</ele>
        <time>2023-05-19T13:05:04Z</time>
      </trkpt>
      <trkpt lat="49.9236" lon="2.2234">
        <ele>14.7</ele>
        <time>2023-05-19T13:05:05Z</time>
      </trkpt>
      <trkpt lat="49.92358" lon="2.22338">
        <ele>14.7</ele>
        <time>2023-05-19T13:05:07Z</time>
      </trkpt>
      <trkpt lat="49.92358" lon="2.22337">
        <ele>14.7</ele>
        <time>2023-05-19T13:05:08Z</time>
      </trkpt>
      <trkpt lat="49.92357" lon="2.22336">
        <ele>14.7</ele>
        <time>2023-05-19T13:05:09Z</time>
      </trkpt>
      <trkpt lat="49.92357" lon="2.22336">
        <ele>14.7</ele>
        <time>2023-05-19T13:05:10Z</time>
      </trkpt>
      <trkpt lat="49.92357" lon="2.22336">
        <ele>14.6</ele>
        <time>2023-05-19T13:05:11Z</time>
      </trkpt>
      <trkpt lat="49.92357" lon="2.22335">
        <ele>14.6</ele>
        <time>2023-05-19T13:05:12Z</time>
      </trkpt>
      <trkpt lat="49.92356" lon="2.22335">
        <ele>14.6</ele>
        <time>2023-05-19T13:05:14Z</time>
      </trkpt>
      <trkpt lat="49.92355" lon="2.22334">
        <ele>14.6</ele>
        <time>2023-05-19T13:05:15Z</time>
      </trkpt>
      <trkpt lat="49.92354" lon="2.22333">
        <ele>14.6</ele>
        <time>2023-05-19T13:05:16Z</time>
      </trkpt>
      <trkpt lat="49.92354" lon="2.22333">
        <ele>14.6</ele>
        <time>2023-05-19T13:05:17Z</time>
      </trkpt>
      <trkpt lat="49.92353" lon="2.22333">
        <ele>14.6</ele>
        <time>2023-05-19T13:05:18Z</time>
      </trkpt>
      <trkpt lat="49.92351" lon="2.22331">
        <ele>14.5</ele>
        <time>2023-05-19T13:05:19Z</time>
      </trkpt>
      <trkpt lat="49.9235" lon="2.2233">
        <ele>14.5</ele>
        <time>2023-05-19T13:05:21Z</time>
      </trkpt>
      <trkpt lat="49.92349" lon="2.2233">
        <ele>14.5</ele>
        <time>2023-05-19T13:05:22Z</time>
      </trkpt>
      <trkpt lat="49.92346" lon="2.22327">
        <ele>14.4</ele>
        <time>2023-05-19T13:05:23Z</time>
      </trkpt>
      <trkpt lat="49.92345" lon="2.22327">
        <ele>14.4</ele>
        <time>2023-05-19T13:05:24Z</time>
      </trkpt>
      <trkpt lat="49.92344" lon="2.22326">
        <ele>14.4</ele>
        <time>2023-05-19T13:05:25Z</time>
      </trkpt>
      <trkpt lat="49.92342" lon="2.22325">
        <ele>14.4</ele>
        <time>2023-05-19T13:05:26Z</time>
      </trkpt>
      <trkpt lat="49.92341" lon="2.22324">
        <ele>14.3</ele>
        <time>2023-05-19T13:05:27Z</time>
      </trkpt>
      <trkpt lat="49.92339" lon="2.22322">
        <ele>14.3</ele>
        <time>2023-05-19T13:05:28Z</time>
      </trkpt>
      <trkpt lat="49.92338" lon="2.22321">
        <ele>14.3</ele>
        <time>2023-05-19T13:05:29Z</time>
      </trkpt>
      <trkpt lat="49.92337" lon="2.22319">
        <ele>14.3</ele>
        <time>2023-05-19T13:05:30Z</time>
      </trkpt>
      <trkpt lat="49.92336" lon="2.22318">
        <ele>14.2</ele>
        <time>2023-05-19T13:05:32Z</time>
      </trkpt>
      <trkpt lat="49.92335" lon="2.22316">
        <ele>14.2</ele>
        <time>2023-05-19T13:05:33Z</time>
      </trkpt>
      <trkpt lat="49.92334" lon="2.22314">
        <ele>14.2</ele>
        <time>2023-05-19T13:05:34Z</time>
      </trkpt>
      <trkpt lat="49.92332" lon="2.22313">
        <ele>14.2</ele>
        <time>2023-05-19T13:05:35Z</time>
      </trkpt>
      <trkpt lat="49.92329" lon="2.22311">
        <ele>14.1</ele>
        <time>2023-05-19T13:05:36Z</time>
      </trkpt>
      <trkpt lat="49.92329" lon="2.2231">
        <ele>14.1</ele>
        <time>2023-05-19T13:05:37Z</time>
      </trkpt>
      <trkpt lat="49.92327" lon="2.22309">
        <ele>14.1</ele>
        <time>2023-05-19T13:05:38Z</time>
      </trkpt>
      <trkpt lat="49.92326" lon="2.22308">
        <ele>14</ele>
        <time>2023-05-19T13:05:39Z</time>
      </trkpt>
      <trkpt lat="49.92324" lon="2.22307">
        <ele>14</ele>
        <time>2023-05-19T13:05:40Z</time>
      </trkpt>
      <trkpt lat="49.92322" lon="2.22305">
        <ele>14</ele>
        <time>2023-05-19T13:05:42Z</time>
      </trkpt>
      <trkpt lat="49.92321" lon="2.22305">
        <ele>14</ele>
        <time>2023-05-19T13:05:43Z</time>
      </trkpt>
      <trkpt lat="49.9232" lon="2.22303">
        <ele>13.9</ele>
        <time>2023-05-19T13:05:44Z</time>
      </trkpt>
      <trkpt lat="49.92318" lon="2.22302">
        <ele>13.9</ele>
        <time>2023-05-19T13:05:45Z</time>
      </trkpt>
      <trkpt lat="49.92318" lon="2.22302">
        <ele>13.9</ele>
        <time>2023-05-19T13:05:46Z</time>
      </trkpt>
      <trkpt lat="49.92317" lon="2.22302">
        <ele>13.9</ele>
        <time>2023-05-19T13:05:47Z</time>
      </trkpt>
      <trkpt lat="49.92316" lon="2.22302">
        <ele>13.8</ele>
        <time>2023-05-19T13:05:48Z</time>
      </trkpt>
      <trkpt lat="49.92315" lon="2.22301">
        <ele>13.8</ele>
        <time>2023-05-19T13:05:49Z</time>
      </trkpt>
      <trkpt lat="49.92314" lon="2.223">
        <ele>13.8</ele>
        <time>2023-05-19T13:05:51Z</time>
      </trkpt>
      <trkpt lat="49.92313" lon="2.223">
        <ele>13.8</ele>
        <time>2023-05-19T13:05:52Z</time>
      </trkpt>
      <trkpt lat="49.92311" lon="2.22298">
        <ele>13.7</ele>
        <time>2023-05-19T13:05:53Z</time>
      </trkpt>
      <trkpt lat="49.92311" lon="2.22297">
        <ele>13.7</ele>
        <time>2023-05-19T13:05:54Z</time>
      </trkpt>
      <trkpt lat="49.9231" lon="2.22296">
        <ele>13.7</ele>
        <time>2023-05-19T13:05:55Z</time>
      </trkpt>
      <trkpt lat="49.92309" lon="2.22294">
        <ele>13.6</ele>
        <time>2023-05-19T13:05:56Z</time>
      </trkpt>
      <trkpt lat="49.92307" lon="2.22293">
        <ele>13.6</ele>
        <time>2023-05-19T13:05:57Z</time>
      </trkpt>
      <trkpt lat="49.92306" lon="2.22292">
        <ele>13.6</ele>
        <time>2023-05-19T13:05:58Z</time>
      </trkpt>
      <trkpt lat="49.92305" lon="2.2229">
        <ele>13.5</ele>
        <time>2023-05-19T13:05:59Z</time>
      </trkpt>
      <trkpt lat="49.92303" lon="2.22288">
        <ele>13.5</ele>
        <time>2023-05-19T13:06:01Z</time>
      </trkpt>
      <trkpt lat="49.92302" lon="2.22287">
        <ele>13.4</ele>
        <time>2023-05-19T13:06:02Z</time>
      </trkpt>
      <trkpt lat="49.92301" lon="2.22285">
        <ele>13.4</ele>
        <time>2023-05-19T13:06:03Z</time>
      </trkpt>
      <trkpt lat="49.923" lon="2.22283">
        <ele>13.4</ele>
        <time>2023-05-19T13:06:04Z</time>
      </trkpt>
      <trkpt lat="49.92298" lon="2.2228">
        <ele>13.3</ele>
        <time>2023-05-19T13:06:06Z</time>
      </trkpt>
      <trkpt lat="49.92297" lon="2.22279">
        <ele>13.3</ele>
        <time>2023-05-19T13:06:07Z</time>
      </trkpt>
      <trkpt lat="49.92297" lon="2.22279">
        <ele>13.3</ele>
        <time>2023-05-19T13:06:08Z</time>
      </trkpt>
      <trkpt lat="49.92296" lon="2.22279">
        <ele>13.2</ele>
        <time>2023-05-19T13:06:09Z</time>
      </trkpt>
      <trkpt lat="49.92295" lon="2.22279">
        <ele>13.2</ele>
        <time>2023-05-19T13:06:11Z</time>
      </trkpt>
      <trkpt lat="49.92294" lon="2.22278">
        <ele>13.2</ele>
        <time>2023-05-19T13:06:12Z</time>
      </trkpt>
      <trkpt lat="49.92294" lon="2.22278">
        <ele>13.2</ele>
        <time>2023-05-19T13:06:13Z</time>
      </trkpt>
      <trkpt lat="49.92293" lon="2.22279">
        <ele>13.2</ele>
        <time>2023-05-19T13:06:14Z</time>
      </trkpt>
      <trkpt lat="49.92291" lon="2.2228">
        <ele>13.1</ele>
        <time>2023-05-19T13:06:15Z</time>
      </trkpt>
      <trkpt lat="49.9229" lon="2.22281">
        <ele>12.9</ele>
        <time>2023-05-19T13:06:16Z</time>
      </trkpt>
      <trkpt lat="49.92289" lon="2.22282">
        <ele>12.9</ele>
        <time>2023-05-19T13:06:18Z</time>
      </trkpt>
      <trkpt lat="49.92288" lon="2.22284">
        <ele>12.9</ele>
        <time>2023-05-19T13:06:19Z</time>
      </trkpt>
      <trkpt lat="49.92287" lon="2.22285">
        <ele>12.6</ele>
        <time>2023-05-19T13:06:20Z</time>
      </trkpt>
      <trkpt lat="49.92286" lon="2.22287">
        <ele>12.6</ele>
        <time>2023-05-19T13:06:22Z</time>
      </trkpt>
      <trkpt lat="49.92286" lon="2.22289">
        <ele>12.6</ele>
        <time>2023-05-19T13:06:23Z</time>
      </trkpt>
      <trkpt lat="49.92285" lon="2.22291">
        <ele>12.4</ele>
        <time>2023-05-19T13:06:25Z</time>
      </trkpt>
      <trkpt lat="49.92285" lon="2.22293">
        <ele>12.4</ele>
        <time>2023-05-19T13:06:26Z</time>
      </trkpt>
      <trkpt lat="49.92285" lon="2.22295">
        <ele>12.2</ele>
        <time>2023-05-19T13:06:27Z</time>
      </trkpt>
      <trkpt lat="49.92284" lon="2.22296">
        <ele>12.2</ele>
        <time>2023-05-19T13:06:29Z</time>
      </trkpt>
      <trkpt lat="49.92284" lon="2.22298">
        <ele>12</ele>
        <time>2023-05-19T13:06:30Z</time>
      </trkpt>
      <trkpt lat="49.92284" lon="2.223">
        <ele>12.1</ele>
        <time>2023-05-19T13:06:32Z</time>
      </trkpt>
      <trkpt lat="49.92284" lon="2.22302">
        <ele>12</ele>
        <time>2023-05-19T13:06:33Z</time>
      </trkpt>
      <trkpt lat="49.92284" lon="2.22303">
        <ele>12</ele>
        <time>2023-05-19T13:06:34Z</time>
      </trkpt>
      <trkpt lat="49.92284" lon="2.22305">
        <ele>12</ele>
        <time>2023-05-19T13:06:35Z</time>
      </trkpt>
      <trkpt lat="49.92284" lon="2.22306">
        <ele>11.9</ele>
        <time>2023-05-19T13:06:36Z</time>
      </trkpt>
      <trkpt lat="49.92284" lon="2.22307">
        <ele>11.9</ele>
        <time>2023-05-19T13:06:37Z</time>
      </trkpt>
      <trkpt lat="49.92283" lon="2.22308">
        <ele>11.9</ele>
        <time>2023-05-19T13:06:39Z</time>
      </trkpt>
      <trkpt lat="49.92283" lon="2.2231">
        <ele>11.9</ele>
        <time>2023-05-19T13:06:40Z</time>
      </trkpt>
      <trkpt lat="49.92284" lon="2.22311">
        <ele>11.9</ele>
        <time>2023-05-19T13:06:41Z</time>
      </trkpt>
      <trkpt lat="49.92284" lon="2.22312">
        <ele>11.9</ele>
        <time>2023-05-19T13:06:42Z</time>
      </trkpt>
      <trkpt lat="49.92284" lon="2.22313">
        <ele>11.9</ele>
        <time>2023-05-19T13:06:43Z</time>
      </trkpt>
      <trkpt lat="49.92284" lon="2.22315">
        <ele>11.9</ele>
        <time>2023-05-19T13:06:45Z</time>
      </trkpt>
      <trkpt lat="49.92283" lon="2.22316">
        <ele>11.9</ele>
        <time>2023-05-19T13:06:46Z</time>
      </trkpt>
      <trkpt lat="49.92283" lon="2.22318">
        <ele>11.9</ele>
        <time>2023-05-19T13:06:47Z</time>
      </trkpt>
      <trkpt lat="49.92282" lon="2.22319">
        <ele>11.9</ele>
        <time>2023-05-19T13:06:48Z</time>
      </trkpt>
      <trkpt lat="49.92282" lon="2.2232">
        <ele>11.9</ele>
        <time>2023-05-19T13:06:50Z</time>
      </trkpt>
      <trkpt lat="49.92281" lon="2.22321">
        <ele>12</ele>
        <time>2023-05-19T13:06:51Z</time>
      </trkpt>
      <trkpt lat="49.9228" lon="2.22321">
        <ele>12</ele>
        <time>2023-05-19T13:06:52Z</time>
      </trkpt>
      <trkpt lat="49.9228" lon="2.22322">
        <ele>12</ele>
        <time>2023-05-19T13:06:53Z</time>
      </trkpt>
      <trkpt lat="49.92278" lon="2.22324">
        <ele>12</ele>
        <time>2023-05-19T13:06:54Z</time>
      </trkpt>
      <trkpt lat="49.92277" lon="2.22325">
        <ele>12</ele>
        <time>2023-05-19T13:06:55Z</time>
      </trkpt>
      <trkpt lat="49.92276" lon="2.22325">
        <ele>12</ele>
        <time>2023-05-19T13:06:56Z</time>
      </trkpt>
      <trkpt lat="49.92275" lon="2.22327">
        <ele>12</ele>
        <time>2023-05-19T13:06:57Z</time>
      </trkpt>
      <trkpt lat="49.92273" lon="2.22328">
        <ele>12</ele>
        <time>2023-05-19T13:06:59Z</time>
      </trkpt>
      <trkpt lat="49.92272" lon="2.22328">
        <ele>12</ele>
        <time>2023-05-19T13:07:00Z</time>
      </trkpt>
      <trkpt lat="49.92271" lon="2.2233">
        <ele>12</ele>
        <time>2023-05-19T13:07:01Z</time>
      </trkpt>
      <trkpt lat="49.92269" lon="2.22331">
        <ele>12</ele>
        <time>2023-05-19T13:07:02Z</time>
      </trkpt>
      <trkpt lat="49.92268" lon="2.22334">
        <ele>12</ele>
        <time>2023-05-19T13:07:03Z</time>
      </trkpt>
      <trkpt lat="49.92266" lon="2.22337">
        <ele>12</ele>
        <time>2023-05-19T13:07:05Z</time>
      </trkpt>
      <trkpt lat="49.92266" lon="2.22338">
        <ele>12</ele>
        <time>2023-05-19T13:07:06Z</time>
      </trkpt>
      <trkpt lat="49.92264" lon="2.2234">
        <ele>12</ele>
        <time>2023-05-19T13:07:07Z</time>
      </trkpt>
      <trkpt lat="49.92263" lon="2.22341">
        <ele>12</ele>
        <time>2023-05-19T13:07:08Z</time>
      </trkpt>
      <trkpt lat="49.92262" lon="2.22342">
        <ele>12</ele>
        <time>2023-05-19T13:07:09Z</time>
      </trkpt>
      <trkpt lat="49.92261" lon="2.22344">
        <ele>12</ele>
        <time>2023-05-19T13:07:11Z</time>
      </trkpt>
      <trkpt lat="49.9226" lon="2.22346">
        <ele>12.1</ele>
        <time>2023-05-19T13:07:12Z</time>
      </trkpt>
      <trkpt lat="49.9226" lon="2.22347">
        <ele>12.1</ele>
        <time>2023-05-19T13:07:13Z</time>
      </trkpt>
      <trkpt lat="49.92259" lon="2.22348">
        <ele>12.1</ele>
        <time>2023-05-19T13:07:14Z</time>
      </trkpt>
      <trkpt lat="49.92258" lon="2.2235">
        <ele>12.1</ele>
        <time>2023-05-19T13:07:15Z</time>
      </trkpt>
      <trkpt lat="49.92257" lon="2.22352">
        <ele>12.1</ele>
        <time>2023-05-19T13:07:16Z</time>
      </trkpt>
      <trkpt lat="49.92256" lon="2.22355">
        <ele>12.1</ele>
        <time>2023-05-19T13:07:17Z</time>
      </trkpt>
      <trkpt lat="49.92255" lon="2.22357">
        <ele>12.1</ele>
        <time>2023-05-19T13:07:19Z</time>
      </trkpt>
      <trkpt lat="49.92255" lon="2.22358">
        <ele>12.1</ele>
        <time>2023-05-19T13:07:20Z</time>
      </trkpt>
      <trkpt lat="49.92255" lon="2.2236">
        <ele>12.1</ele>
        <time>2023-05-19T13:07:21Z</time>
      </trkpt>
      <trkpt lat="49.92254" lon="2.22361">
        <ele>12.1</ele>
        <time>2023-05-19T13:07:22Z</time>
      </trkpt>
      <trkpt lat="49.92254" lon="2.22363">
        <ele>12.1</ele>
        <time>2023-05-19T13:07:23Z</time>
      </trkpt>
      <trkpt lat="49.92254" lon="2.22364">
        <ele>12.1</ele>
        <time>2023-05-19T13:07:24Z</time>
      </trkpt>
      <trkpt lat="49.92253" lon="2.22366">
        <ele>12.1</ele>
        <time>2023-05-19T13:07:25Z</time>
      </trkpt>
      <trkpt lat="49.92252" lon="2.22368">
        <ele>12.1</ele>
        <time>2023-05-19T13:07:26Z</time>
      </trkpt>
      <trkpt lat="49.92252" lon="2.22369">
        <ele>12.1</ele>
        <time>2023-05-19T13:07:27Z</time>
      </trkpt>
      <trkpt lat="49.92251" lon="2.22372">
        <ele>12.1</ele>
        <time>2023-05-19T13:07:29Z</time>
      </trkpt>
      <trkpt lat="49.9225" lon="2.22374">
        <ele>12.1</ele>
        <time>2023-05-19T13:07:30Z</time>
      </trkpt>
      <trkpt lat="49.9225" lon="2.22374">
        <ele>12.1</ele>
        <time>2023-05-19T13:07:31Z</time>
      </trkpt>
      <trkpt lat="49.9225" lon="2.22375">
        <ele>12.2</ele>
        <time>2023-05-19T13:07:32Z</time>
      </trkpt>
      <trkpt lat="49.92249" lon="2.22375">
        <ele>12.2</ele>
        <time>2023-05-19T13:07:33Z</time>
      </trkpt>
      <trkpt lat="49.9225" lon="2.22374">
        <ele>12.2</ele>
        <time>2023-05-19T13:07:34Z</time>
      </trkpt>
      <trkpt lat="49.9225" lon="2.22375">
        <ele>12.2</ele>
        <time>2023-05-19T13:07:35Z</time>
      </trkpt>
      <trkpt lat="49.92249" lon="2.22375">
        <ele>12.2</ele>
        <time>2023-05-19T13:07:36Z</time>
      </trkpt>
      <trkpt lat="49.92249" lon="2.22376">
        <ele>12.2</ele>
        <time>2023-05-19T13:07:38Z</time>
      </trkpt>
      <trkpt lat="49.92249" lon="2.22376">
        <ele>12.2</ele>
        <time>2023-05-19T13:07:39Z</time>
      </trkpt>
      <trkpt lat="49.92249" lon="2.22377">
        <ele>12.2</ele>
        <time>2023-05-19T13:07:40Z</time>
      </trkpt>
      <trkpt lat="49.92249" lon="2.22379">
        <ele>12.2</ele>
        <time>2023-05-19T13:07:41Z</time>
      </trkpt>
      <trkpt lat="49.92248" lon="2.2238">
        <ele>12.2</ele>
        <time>2023-05-19T13:07:42Z</time>
      </trkpt>
      <trkpt lat="49.92248" lon="2.22381">
        <ele>12.2</ele>
        <time>2023-05-19T13:07:43Z</time>
      </trkpt>
      <trkpt lat="49.92248" lon="2.22382">
        <ele>12.2</ele>
        <time>2023-05-19T13:07:45Z</time>
      </trkpt>
      <trkpt lat="49.92248" lon="2.22383">
        <ele>12.2</ele>
        <time>2023-05-19T13:07:46Z</time>
      </trkpt>
      <trkpt lat="49.92247" lon="2.22386">
        <ele>12.2</ele>
        <time>2023-05-19T13:07:47Z</time>
      </trkpt>
      <trkpt lat="49.92247" lon="2.22388">
        <ele>12.2</ele>
        <time>2023-05-19T13:07:48Z</time>
      </trkpt>
      <trkpt lat="49.92247" lon="2.2239">
        <ele>12.2</ele>
        <time>2023-05-19T13:07:49Z</time>
      </trkpt>
      <trkpt lat="49.92245" lon="2.22395">
        <ele>12.2</ele>
        <time>2023-05-19T13:07:50Z</time>
      </trkpt>
      <trkpt lat="49.92245" lon="2.22396">
        <ele>12.2</ele>
        <time>2023-05-19T13:07:51Z</time>
      </trkpt>
      <trkpt lat="49.92244" lon="2.224">
        <ele>12.2</ele>
        <time>2023-05-19T13:07:53Z</time>
      </trkpt>
      <trkpt lat="49.92244" lon="2.22402">
        <ele>12.3</ele>
        <time>2023-05-19T13:07:54Z</time>
      </trkpt>
      <trkpt lat="49.92244" lon="2.22405">
        <ele>12.3</ele>
        <time>2023-05-19T13:07:55Z</time>
      </trkpt>
      <trkpt lat="49.92243" lon="2.22407">
        <ele>12.3</ele>
        <time>2023-05-19T13:07:56Z</time>
      </trkpt>
      <trkpt lat="49.92243" lon="2.22409">
        <ele>12.3</ele>
        <time>2023-05-19T13:07:57Z</time>
      </trkpt>
      <trkpt lat="49.92242" lon="2.22412">
        <ele>12.3</ele>
        <time>2023-05-19T13:07:58Z</time>
      </trkpt>
      <trkpt lat="49.92242" lon="2.22415">
        <ele>12.3</ele>
        <time>2023-05-19T13:07:59Z</time>
      </trkpt>
      <trkpt lat="49.92242" lon="2.22417">
        <ele>12.3</ele>
        <time>2023-05-19T13:08:01Z</time>
      </trkpt>
      <trkpt lat="49.92242" lon="2.22421">
        <ele>12.3</ele>
        <time>2023-05-19T13:08:02Z</time>
      </trkpt>
      <trkpt lat="49.92242" lon="2.22422">
        <ele>12.3</ele>
        <time>2023-05-19T13:08:03Z</time>
      </trkpt>
      <trkpt lat="49.92242" lon="2.22423">
        <ele>12.3</ele>
        <time>2023-05-19T13:08:04Z</time>
      </trkpt>
      <trkpt lat="49.92241" lon="2.22426">
        <ele>12.3</ele>
        <time>2023-05-19T13:08:05Z</time>
      </trkpt>
      <trkpt lat="49.92241" lon="2.22428">
        <ele>12.3</ele>
        <time>2023-05-19T13:08:07Z</time>
      </trkpt>
      <trkpt lat="49.92241" lon="2.22429">
        <ele>12.3</ele>
        <time>2023-05-19T13:08:08Z</time>
      </trkpt>
      <trkpt lat="49.9224" lon="2.22431">
        <ele>12.3</ele>
        <time>2023-05-19T13:08:09Z</time>
      </trkpt>
      <trkpt lat="49.9224" lon="2.22433">
        <ele>12.3</ele>
        <time>2023-05-19T13:08:10Z</time>
      </trkpt>
      <trkpt lat="49.9224" lon="2.22437">
        <ele>12.3</ele>
        <time>2023-05-19T13:08:12Z</time>
      </trkpt>
      <trkpt lat="49.9224" lon="2.22438">
        <ele>12.3</ele>
        <time>2023-05-19T13:08:13Z</time>
      </trkpt>
      <trkpt lat="49.9224" lon="2.22439">
        <ele>12.3</ele>
        <time>2023-05-19T13:08:14Z</time>
      </trkpt>
      <trkpt lat="49.9224" lon="2.22442">
        <ele>12.3</ele>
        <time>2023-05-19T13:08:15Z</time>
      </trkpt>
      <trkpt lat="49.92239" lon="2.22443">
        <ele>12.4</ele>
        <time>2023-05-19T13:08:16Z</time>
      </trkpt>
      <trkpt lat="49.92239" lon="2.22445">
        <ele>12.4</ele>
        <time>2023-05-19T13:08:17Z</time>
      </trkpt>
      <trkpt lat="49.92239" lon="2.22447">
        <ele>12.4</ele>
        <time>2023-05-19T13:08:18Z</time>
      </trkpt>
      <trkpt lat="49.92239" lon="2.22448">
        <ele>12.4</ele>
        <time>2023-05-19T13:08:20Z</time>
      </trkpt>
      <trkpt lat="49.92238" lon="2.22448">
        <ele>12.4</ele>
        <time>2023-05-19T13:08:21Z</time>
      </trkpt>
      <trkpt lat="49.92238" lon="2.22448">
        <ele>12.4</ele>
        <time>2023-05-19T13:08:22Z</time>
      </trkpt>
      <trkpt lat="49.92237" lon="2.22448">
        <ele>12.4</ele>
        <time>2023-05-19T13:08:23Z</time>
      </trkpt>
      <trkpt lat="49.92237" lon="2.22449">
        <ele>12.4</ele>
        <time>2023-05-19T13:08:24Z</time>
      </trkpt>
      <trkpt lat="49.92236" lon="2.22451">
        <ele>12.4</ele>
        <time>2023-05-19T13:08:25Z</time>
      </trkpt>
      <trkpt lat="49.92236" lon="2.22452">
        <ele>12.4</ele>
        <time>2023-05-19T13:08:27Z</time>
      </trkpt>
      <trkpt lat="49.92236" lon="2.22453">
        <ele>12.4</ele>
        <time>2023-05-19T13:08:29Z</time>
      </trkpt>
      <trkpt lat="49.92235" lon="2.22454">
        <ele>12.4</ele>
        <time>2023-05-19T13:08:30Z</time>
      </trkpt>
      <trkpt lat="49.92235" lon="2.22456">
        <ele>12.4</ele>
        <time>2023-05-19T13:08:31Z</time>
      </trkpt>
      <trkpt lat="49.92235" lon="2.22457">
        <ele>12.4</ele>
        <time>2023-05-19T13:08:32Z</time>
      </trkpt>
      <trkpt lat="49.92235" lon="2.22458">
        <ele>12.4</ele>
        <time>2023-05-19T13:08:33Z</time>
      </trkpt>
      <trkpt lat="49.92234" lon="2.2246">
        <ele>12.4</ele>
        <time>2023-05-19T13:08:34Z</time>
      </trkpt>
      <trkpt lat="49.92233" lon="2.22462">
        <ele>12.4</ele>
        <time>2023-05-19T13:08:35Z</time>
      </trkpt>
      <trkpt lat="49.92232" lon="2.22466">
        <ele>12.4</ele>
        <time>2023-05-19T13:08:37Z</time>
      </trkpt>
      <trkpt lat="49.92231" lon="2.22467">
        <ele>12.4</ele>
        <time>2023-05-19T13:08:38Z</time>
      </trkpt>
      <trkpt lat="49.92231" lon="2.22469">
        <ele>12.5</ele>
        <time>2023-05-19T13:08:39Z</time>
      </trkpt>
      <trkpt lat="49.9223" lon="2.22471">
        <ele>12.5</ele>
        <time>2023-05-19T13:08:40Z</time>
      </trkpt>
      <trkpt lat="49.92229" lon="2.22473">
        <ele>12.5</ele>
        <time>2023-05-19T13:08:41Z</time>
      </trkpt>
      <trkpt lat="49.92229" lon="2.22475">
        <ele>12.5</ele>
        <time>2023-05-19T13:08:42Z</time>
      </trkpt>
      <trkpt lat="49.92228" lon="2.22479">
        <ele>12.5</ele>
        <time>2023-05-19T13:08:44Z</time>
      </trkpt>
      <trkpt lat="49.92228" lon="2.22481">
        <ele>12.5</ele>
        <time>2023-05-19T13:08:46Z</time>
      </trkpt>
      <trkpt lat="49.92227" lon="2.22483">
        <ele>12.5</ele>
        <time>2023-05-19T13:08:47Z</time>
      </trkpt>
      <trkpt lat="49.92227" lon="2.22485">
        <ele>12.5</ele>
        <time>2023-05-19T13:08:48Z</time>
      </trkpt>
      <trkpt lat="49.92227" lon="2.22488">
        <ele>12.5</ele>
        <time>2023-05-19T13:08:49Z</time>
      </trkpt>
      <trkpt lat="49.92227" lon="2.2249">
        <ele>12.5</ele>
        <time>2023-05-19T13:08:50Z</time>
      </trkpt>
      <trkpt lat="49.92226" lon="2.22492">
        <ele>12.5</ele>
        <time>2023-05-19T13:08:51Z</time>
      </trkpt>
      <trkpt lat="49.92225" lon="2.22494">
        <ele>12.5</ele>
        <time>2023-05-19T13:08:52Z</time>
      </trkpt>
      <trkpt lat="49.92225" lon="2.22496">
        <ele>12.5</ele>
        <time>2023-05-19T13:08:53Z</time>
      </trkpt>
      <trkpt lat="49.92224" lon="2.22499">
        <ele>12.5</ele>
        <time>2023-05-19T13:08:55Z</time>
      </trkpt>
      <trkpt lat="49.92224" lon="2.22501">
        <ele>12.5</ele>
        <time>2023-05-19T13:08:56Z</time>
      </trkpt>
      <trkpt lat="49.92224" lon="2.22504">
        <ele>12.5</ele>
        <time>2023-05-19T13:08:57Z</time>
      </trkpt>
      <trkpt lat="49.92223" lon="2.22506">
        <ele>12.5</ele>
        <time>2023-05-19T13:08:58Z</time>
      </trkpt>
      <trkpt lat="49.92221" lon="2.22508">
        <ele>12.5</ele>
        <time>2023-05-19T13:08:59Z</time>
      </trkpt>
      <trkpt lat="49.92221" lon="2.22509">
        <ele>12.6</ele>
        <time>2023-05-19T13:09:01Z</time>
      </trkpt>
      <trkpt lat="49.9222" lon="2.2251">
        <ele>12.6</ele>
        <time>2023-05-19T13:09:02Z</time>
      </trkpt>
      <trkpt lat="49.92219" lon="2.22513">
        <ele>12.6</ele>
        <time>2023-05-19T13:09:03Z</time>
      </trkpt>
      <trkpt lat="49.92218" lon="2.22514">
        <ele>12.6</ele>
        <time>2023-05-19T13:09:04Z</time>
      </trkpt>
      <trkpt lat="49.92218" lon="2.22515">
        <ele>12.6</ele>
        <time>2023-05-19T13:09:05Z</time>
      </trkpt>
      <trkpt lat="49.92217" lon="2.22516">
        <ele>12.6</ele>
        <time>2023-05-19T13:09:06Z</time>
      </trkpt>
      <trkpt lat="49.92216" lon="2.22517">
        <ele>12.6</ele>
        <time>2023-05-19T13:09:07Z</time>
      </trkpt>
      <trkpt lat="49.92216" lon="2.22519">
        <ele>12.6</ele>
        <time>2023-05-19T13:09:09Z</time>
      </trkpt>
      <trkpt lat="49.92215" lon="2.2252">
        <ele>12.6</ele>
        <time>2023-05-19T13:09:10Z</time>
      </trkpt>
      <trkpt lat="49.92216" lon="2.2252">
        <ele>12.6</ele>
        <time>2023-05-19T13:09:11Z</time>
      </trkpt>
      <trkpt lat="49.92216" lon="2.22521">
        <ele>12.6</ele>
        <time>2023-05-19T13:09:12Z</time>
      </trkpt>
      <trkpt lat="49.92216" lon="2.22522">
        <ele>12.6</ele>
        <time>2023-05-19T13:09:13Z</time>
      </trkpt>
      <trkpt lat="49.92217" lon="2.22521">
        <ele>12.6</ele>
        <time>2023-05-19T13:09:14Z</time>
      </trkpt>
      <trkpt lat="49.92217" lon="2.22522">
        <ele>12.6</ele>
        <time>2023-05-19T13:09:15Z</time>
      </trkpt>
      <trkpt lat="49.92217" lon="2.22524">
        <ele>12.6</ele>
        <time>2023-05-19T13:09:17Z</time>
      </trkpt>
      <trkpt lat="49.92218" lon="2.22524">
        <ele>12.6</ele>
        <time>2023-05-19T13:09:18Z</time>
      </trkpt>
      <trkpt lat="49.92218" lon="2.22525">
        <ele>12.6</ele>
        <time>2023-05-19T13:09:19Z</time>
      </trkpt>
      <trkpt lat="49.92218" lon="2.22526">
        <ele>12.6</ele>
        <time>2023-05-19T13:09:20Z</time>
      </trkpt>
      <trkpt lat="49.92218" lon="2.22528">
        <ele>12.6</ele>
        <time>2023-05-19T13:09:21Z</time>
      </trkpt>
      <trkpt lat="49.92217" lon="2.22531">
        <ele>12.7</ele>
        <time>2023-05-19T13:09:23Z</time>
      </trkpt>
      <trkpt lat="49.92217" lon="2.22532">
        <ele>12.7</ele>
        <time>2023-05-19T13:09:24Z</time>
      </trkpt>
      <trkpt lat="49.92217" lon="2.22533">
        <ele>12.7</ele>
        <time>2023-05-19T13:09:25Z</time>
      </trkpt>
      <trkpt lat="49.92215" lon="2.22535">
        <ele>12.7</ele>
        <time>2023-05-19T13:09:26Z</time>
      </trkpt>
      <trkpt lat="49.92214" lon="2.22539">
        <ele>12.7</ele>
        <time>2023-05-19T13:09:28Z</time>
      </trkpt>
      <trkpt lat="49.92213" lon="2.22544">
        <ele>12.7</ele>
        <time>2023-05-19T13:09:29Z</time>
      </trkpt>
      <trkpt lat="49.92212" lon="2.22546">
        <ele>12.7</ele>
        <time>2023-05-19T13:09:30Z</time>
      </trkpt>
      <trkpt lat="49.92211" lon="2.2255">
        <ele>12.7</ele>
        <time>2023-05-19T13:09:31Z</time>
      </trkpt>
      <trkpt lat="49.9221" lon="2.22551">
        <ele>12.7</ele>
        <time>2023-05-19T13:09:32Z</time>
      </trkpt>
      <trkpt lat="49.92209" lon="2.22554">
        <ele>12.7</ele>
        <time>2023-05-19T13:09:33Z</time>
      </trkpt>
      <trkpt lat="49.92209" lon="2.22556">
        <ele>12.7</ele>
        <time>2023-05-19T13:09:34Z</time>
      </trkpt>
      <trkpt lat="49.92208" lon="2.22558">
        <ele>12.7</ele>
        <time>2023-05-19T13:09:35Z</time>
      </trkpt>
      <trkpt lat="49.92208" lon="2.22559">
        <ele>12.7</ele>
        <time>2023-05-19T13:09:37Z</time>
      </trkpt>
      <trkpt lat="49.92208" lon="2.22561">
        <ele>12.7</ele>
        <time>2023-05-19T13:09:38Z</time>
      </trkpt>
      <trkpt lat="49.92208" lon="2.22563">
        <ele>12.7</ele>
        <time>2023-05-19T13:09:39Z</time>
      </trkpt>
      <trkpt lat="49.92207" lon="2.22565">
        <ele>12.7</ele>
        <time>2023-05-19T13:09:40Z</time>
      </trkpt>
      <trkpt lat="49.92207" lon="2.22566">
        <ele>12.7</ele>
        <time>2023-05-19T13:09:41Z</time>
      </trkpt>
      <trkpt lat="49.92206" lon="2.22568">
        <ele>12.7</ele>
        <time>2023-05-19T13:09:42Z</time>
      </trkpt>
      <trkpt lat="49.92205" lon="2.22569">
        <ele>12.8</ele>
        <time>2023-05-19T13:09:44Z</time>
      </trkpt>
      <trkpt lat="49.92204" lon="2.2257">
        <ele>12.8</ele>
        <time>2023-05-19T13:09:45Z</time>
      </trkpt>
      <trkpt lat="49.92204" lon="2.2257">
        <ele>12.8</ele>
        <time>2023-05-19T13:09:46Z</time>
      </trkpt>
      <trkpt lat="49.92203" lon="2.22571">
        <ele>12.8</ele>
        <time>2023-05-19T13:09:47Z</time>
      </trkpt>
      <trkpt lat="49.92202" lon="2.22571">
        <ele>12.8</ele>
        <time>2023-05-19T13:09:48Z</time>
      </trkpt>
      <trkpt lat="49.92201" lon="2.22572">
        <ele>12.8</ele>
        <time>2023-05-19T13:09:50Z</time>
      </trkpt>
      <trkpt lat="49.92201" lon="2.22574">
        <ele>12.8</ele>
        <time>2023-05-19T13:09:51Z</time>
      </trkpt>
      <trkpt lat="49.922" lon="2.22575">
        <ele>12.8</ele>
        <time>2023-05-19T13:09:52Z</time>
      </trkpt>
      <trkpt lat="49.92199" lon="2.22576">
        <ele>12.8</ele>
        <time>2023-05-19T13:09:53Z</time>
      </trkpt>
      <trkpt lat="49.92199" lon="2.22578">
        <ele>12.8</ele>
        <time>2023-05-19T13:09:54Z</time>
      </trkpt>
      <trkpt lat="49.92198" lon="2.2258">
        <ele>12.8</ele>
        <time>2023-05-19T13:09:55Z</time>
      </trkpt>
      <trkpt lat="49.92198" lon="2.22582">
        <ele>12.8</ele>
        <time>2023-05-19T13:09:57Z</time>
      </trkpt>
      <trkpt lat="49.92197" lon="2.22584">
        <ele>12.8</ele>
        <time>2023-05-19T13:09:58Z</time>
      </trkpt>
      <trkpt lat="49.92197" lon="2.22586">
        <ele>12.9</ele>
        <time>2023-05-19T13:09:59Z</time>
      </trkpt>
      <trkpt lat="49.92198" lon="2.22586">
        <ele>12.9</ele>
        <time>2023-05-19T13:10:00Z</time>
      </trkpt>
      <trkpt lat="49.92198" lon="2.22587">
        <ele>12.9</ele>
        <time>2023-05-19T13:10:01Z</time>
      </trkpt>
      <trkpt lat="49.92197" lon="2.22589">
        <ele>12.9</ele>
        <time>2023-05-19T13:10:03Z</time>
      </trkpt>
      <trkpt lat="49.92197" lon="2.22591">
        <ele>12.9</ele>
        <time>2023-05-19T13:10:04Z</time>
      </trkpt>
      <trkpt lat="49.92197" lon="2.22592">
        <ele>13</ele>
        <time>2023-05-19T13:10:05Z</time>
      </trkpt>
      <trkpt lat="49.92196" lon="2.22595">
        <ele>13.1</ele>
        <time>2023-05-19T13:10:06Z</time>
      </trkpt>
      <trkpt lat="49.92196" lon="2.22598">
        <ele>13.2</ele>
        <time>2023-05-19T13:10:07Z</time>
      </trkpt>
      <trkpt lat="49.92195" lon="2.22602">
        <ele>13.3</ele>
        <time>2023-05-19T13:10:08Z</time>
      </trkpt>
      <trkpt lat="49.92195" lon="2.22604">
        <ele>13.3</ele>
        <time>2023-05-19T13:10:09Z</time>
      </trkpt>
      <trkpt lat="49.92193" lon="2.22609">
        <ele>13.6</ele>
        <time>2023-05-19T13:10:11Z</time>
      </trkpt>
      <trkpt lat="49.92193" lon="2.22611">
        <ele>13.8</ele>
        <time>2023-05-19T13:10:12Z</time>
      </trkpt>
      <trkpt lat="49.92191" lon="2.22615">
        <ele>13.9</ele>
        <time>2023-05-19T13:10:13Z</time>
      </trkpt>
      <trkpt lat="49.92191" lon="2.22616">
        <ele>14.1</ele>
        <time>2023-05-19T13:10:14Z</time>
      </trkpt>
      <trkpt lat="49.9219" lon="2.22618">
        <ele>14.1</ele>
        <time>2023-05-19T13:10:15Z</time>
      </trkpt>
      <trkpt lat="49.92189" lon="2.2262">
        <ele>14.3</ele>
        <time>2023-05-19T13:10:16Z</time>
      </trkpt>
      <trkpt lat="49.92189" lon="2.22621">
        <ele>14.4</ele>
        <time>2023-05-19T13:10:17Z</time>
      </trkpt>
      <trkpt lat="49.92188" lon="2.22623">
        <ele>14.4</ele>
        <time>2023-05-19T13:10:18Z</time>
      </trkpt>
      <trkpt lat="49.92188" lon="2.22624">
        <ele>14.6</ele>
        <time>2023-05-19T13:10:20Z</time>
      </trkpt>
      <trkpt lat="49.92188" lon="2.22624">
        <ele>14.6</ele>
        <time>2023-05-19T13:10:21Z</time>
      </trkpt>
      <trkpt lat="49.92188" lon="2.22626">
        <ele>14.6</ele>
        <time>2023-05-19T13:10:22Z</time>
      </trkpt>
      <trkpt lat="49.92187" lon="2.22628">
        <ele>14.8</ele>
        <time>2023-05-19T13:10:23Z</time>
      </trkpt>
      <trkpt lat="49.92188" lon="2.2263">
        <ele>14.8</ele>
        <time>2023-05-19T13:10:24Z</time>
      </trkpt>
      <trkpt lat="49.92188" lon="2.22633">
        <ele>14.9</ele>
        <time>2023-05-19T13:10:25Z</time>
      </trkpt>
      <trkpt lat="49.92187" lon="2.22635">
        <ele>14.9</ele>
        <time>2023-05-19T13:10:27Z</time>
      </trkpt>
      <trkpt lat="49.92187" lon="2.22637">
        <ele>15</ele>
        <time>2023-05-19T13:10:28Z</time>
      </trkpt>
      <trkpt lat="49.92186" lon="2.22639">
        <ele>15</ele>
        <time>2023-05-19T13:10:29Z</time>
      </trkpt>
      <trkpt lat="49.92186" lon="2.22641">
        <ele>15</ele>
        <time>2023-05-19T13:10:30Z</time>
      </trkpt>
      <trkpt lat="49.92185" lon="2.22644">
        <ele>15.2</ele>
        <time>2023-05-19T13:10:31Z</time>
      </trkpt>
      <trkpt lat="49.92185" lon="2.22646">
        <ele>15.3</ele>
        <time>2023-05-19T13:10:32Z</time>
      </trkpt>
      <trkpt lat="49.92184" lon="2.22648">
        <ele>15.3</ele>
        <time>2023-05-19T13:10:33Z</time>
      </trkpt>
      <trkpt lat="49.92183" lon="2.2265">
        <ele>15.3</ele>
        <time>2023-05-19T13:10:35Z</time>
      </trkpt>
      <trkpt lat="49.92182" lon="2.22653">
        <ele>15.5</ele>
        <time>2023-05-19T13:10:36Z</time>
      </trkpt>
      <trkpt lat="49.92182" lon="2.22656">
        <ele>15.5</ele>
        <time>2023-05-19T13:10:37Z</time>
      </trkpt>
      <trkpt lat="49.92181" lon="2.22657">
        <ele>15.5</ele>
        <time>2023-05-19T13:10:38Z</time>
      </trkpt>
      <trkpt lat="49.92182" lon="2.22658">
        <ele>15.5</ele>
        <time>2023-05-19T13:10:39Z</time>
      </trkpt>
      <trkpt lat="49.92182" lon="2.22657">
        <ele>15.5</ele>
        <time>2023-05-19T13:10:40Z</time>
      </trkpt>
      <trkpt lat="49.92182" lon="2.22656">
        <ele>15.5</ele>
        <time>2023-05-19T13:10:41Z</time>
      </trkpt>
      <trkpt lat="49.92181" lon="2.22657">
        <ele>15.5</ele>
        <time>2023-05-19T13:10:43Z</time>
      </trkpt>
      <trkpt lat="49.92181" lon="2.22656">
        <ele>15.5</ele>
        <time>2023-05-19T13:10:44Z</time>
      </trkpt>
      <trkpt lat="49.92181" lon="2.22656">
        <ele>15.6</ele>
        <time>2023-05-19T13:10:45Z</time>
      </trkpt>
      <trkpt lat="49.9218" lon="2.22657">
        <ele>15.6</ele>
        <time>2023-05-19T13:10:46Z</time>
      </trkpt>
      <trkpt lat="49.9218" lon="2.22657">
        <ele>15.7</ele>
        <time>2023-05-19T13:10:47Z</time>
      </trkpt>
      <trkpt lat="49.92179" lon="2.22657">
        <ele>15.7</ele>
        <time>2023-05-19T13:10:48Z</time>
      </trkpt>
      <trkpt lat="49.92179" lon="2.22657">
        <ele>15.7</ele>
        <time>2023-05-19T13:10:49Z</time>
      </trkpt>
      <trkpt lat="49.92178" lon="2.2266">
        <ele>15.8</ele>
        <time>2023-05-19T13:10:50Z</time>
      </trkpt>
      <trkpt lat="49.92177" lon="2.22661">
        <ele>15.9</ele>
        <time>2023-05-19T13:10:52Z</time>
      </trkpt>
      <trkpt lat="49.92177" lon="2.22662">
        <ele>16</ele>
        <time>2023-05-19T13:10:53Z</time>
      </trkpt>
      <trkpt lat="49.92175" lon="2.22666">
        <ele>16.1</ele>
        <time>2023-05-19T13:10:54Z</time>
      </trkpt>
      <trkpt lat="49.92174" lon="2.22667">
        <ele>16.1</ele>
        <time>2023-05-19T13:10:55Z</time>
      </trkpt>
      <trkpt lat="49.92173" lon="2.22669">
        <ele>16.1</ele>
        <time>2023-05-19T13:10:56Z</time>
      </trkpt>
      <trkpt lat="49.92172" lon="2.2267">
        <ele>16.3</ele>
        <time>2023-05-19T13:10:57Z</time>
      </trkpt>
      <trkpt lat="49.92171" lon="2.22672">
        <ele>16.3</ele>
        <time>2023-05-19T13:10:58Z</time>
      </trkpt>
      <trkpt lat="49.9217" lon="2.22674">
        <ele>16.3</ele>
        <time>2023-05-19T13:11:00Z</time>
      </trkpt>
      <trkpt lat="49.92169" lon="2.22676">
        <ele>16.4</ele>
        <time>2023-05-19T13:11:01Z</time>
      </trkpt>
      <trkpt lat="49.92168" lon="2.22678">
        <ele>16.4</ele>
        <time>2023-05-19T13:11:02Z</time>
      </trkpt>
      <trkpt lat="49.92167" lon="2.22681">
        <ele>16.4</ele>
        <time>2023-05-19T13:11:03Z</time>
      </trkpt>
      <trkpt lat="49.92167" lon="2.22682">
        <ele>16.4</ele>
        <time>2023-05-19T13:11:04Z</time>
      </trkpt>
      <trkpt lat="49.92166" lon="2.22685">
        <ele>16.6</ele>
        <time>2023-05-19T13:11:05Z</time>
      </trkpt>
      <trkpt lat="49.92165" lon="2.22687">
        <ele>16.6</ele>
        <time>2023-05-19T13:11:06Z</time>
      </trkpt>
      <trkpt lat="49.92164" lon="2.22689">
        <ele>16.6</ele>
        <time>2023-05-19T13:11:08Z</time>
      </trkpt>
      <trkpt lat="49.92164" lon="2.22691">
        <ele>16.6</ele>
        <time>2023-05-19T13:11:09Z</time>
      </trkpt>
      <trkpt lat="49.92163" lon="2.22694">
        <ele>16.7</ele>
        <time>2023-05-19T13:11:10Z</time>
      </trkpt>
      <trkpt lat="49.92162" lon="2.22695">
        <ele>16.7</ele>
        <time>2023-05-19T13:11:11Z</time>
      </trkpt>
      <trkpt lat="49.92162" lon="2.22697">
        <ele>16.7</ele>
        <time>2023-05-19T13:11:12Z</time>
      </trkpt>
      <trkpt lat="49.92161" lon="2.22699">
        <ele>16.8</ele>
        <time>2023-05-19T13:11:14Z</time>
      </trkpt>
      <trkpt lat="49.9216" lon="2.22701">
        <ele>16.8</ele>
        <time>2023-05-19T13:11:15Z</time>
      </trkpt>
      <trkpt lat="49.92159" lon="2.22704">
        <ele>16.8</ele>
        <time>2023-05-19T13:11:16Z</time>
      </trkpt>
      <trkpt lat="49.92158" lon="2.22706">
        <ele>16.9</ele>
        <time>2023-05-19T13:11:17Z</time>
      </trkpt>
      <trkpt lat="49.92157" lon="2.22708">
        <ele>16.9</ele>
        <time>2023-05-19T13:11:18Z</time>
      </trkpt>
      <trkpt lat="49.92156" lon="2.2271">
        <ele>16.9</ele>
        <time>2023-05-19T13:11:19Z</time>
      </trkpt>
      <trkpt lat="49.92155" lon="2.22711">
        <ele>16.9</ele>
        <time>2023-05-19T13:11:21Z</time>
      </trkpt>
      <trkpt lat="49.92154" lon="2.22714">
        <ele>16.9</ele>
        <time>2023-05-19T13:11:22Z</time>
      </trkpt>
      <trkpt lat="49.92153" lon="2.22716">
        <ele>17</ele>
        <time>2023-05-19T13:11:23Z</time>
      </trkpt>
      <trkpt lat="49.92152" lon="2.22718">
        <ele>17</ele>
        <time>2023-05-19T13:11:24Z</time>
      </trkpt>
      <trkpt lat="49.92152" lon="2.22719">
        <ele>17</ele>
        <time>2023-05-19T13:11:25Z</time>
      </trkpt>
      <trkpt lat="49.92151" lon="2.2272">
        <ele>17</ele>
        <time>2023-05-19T13:11:27Z</time>
      </trkpt>
      <trkpt lat="49.9215" lon="2.22721">
        <ele>17</ele>
        <time>2023-05-19T13:11:28Z</time>
      </trkpt>
      <trkpt lat="49.92149" lon="2.22722">
        <ele>17</ele>
        <time>2023-05-19T13:11:29Z</time>
      </trkpt>
      <trkpt lat="49.92148" lon="2.22723">
        <ele>17</ele>
        <time>2023-05-19T13:11:30Z</time>
      </trkpt>
      <trkpt lat="49.92147" lon="2.22725">
        <ele>17</ele>
        <time>2023-05-19T13:11:31Z</time>
      </trkpt>
      <trkpt lat="49.92146" lon="2.22727">
        <ele>17</ele>
        <time>2023-05-19T13:11:32Z</time>
      </trkpt>
      <trkpt lat="49.92145" lon="2.22729">
        <ele>17</ele>
        <time>2023-05-19T13:11:33Z</time>
      </trkpt>
      <trkpt lat="49.92144" lon="2.22731">
        <ele>17</ele>
        <time>2023-05-19T13:11:35Z</time>
      </trkpt>
      <trkpt lat="49.92143" lon="2.22733">
        <ele>17</ele>
        <time>2023-05-19T13:11:36Z</time>
      </trkpt>
      <trkpt lat="49.92141" lon="2.22736">
        <ele>17</ele>
        <time>2023-05-19T13:11:37Z</time>
      </trkpt>
      <trkpt lat="49.9214" lon="2.22737">
        <ele>17</ele>
        <time>2023-05-19T13:11:38Z</time>
      </trkpt>
      <trkpt lat="49.92138" lon="2.2274">
        <ele>17</ele>
        <time>2023-05-19T13:11:39Z</time>
      </trkpt>
      <trkpt lat="49.92137" lon="2.22741">
        <ele>17</ele>
        <time>2023-05-19T13:11:40Z</time>
      </trkpt>
      <trkpt lat="49.92135" lon="2.22744">
        <ele>16.9</ele>
        <time>2023-05-19T13:11:41Z</time>
      </trkpt>
      <trkpt lat="49.92134" lon="2.22745">
        <ele>16.9</ele>
        <time>2023-05-19T13:11:42Z</time>
      </trkpt>
      <trkpt lat="49.92131" lon="2.22748">
        <ele>16.9</ele>
        <time>2023-05-19T13:11:44Z</time>
      </trkpt>
      <trkpt lat="49.92131" lon="2.22749">
        <ele>16.9</ele>
        <time>2023-05-19T13:11:45Z</time>
      </trkpt>
      <trkpt lat="49.92129" lon="2.22752">
        <ele>16.8</ele>
        <time>2023-05-19T13:11:46Z</time>
      </trkpt>
      <trkpt lat="49.92129" lon="2.22753">
        <ele>16.8</ele>
        <time>2023-05-19T13:11:47Z</time>
      </trkpt>
      <trkpt lat="49.92128" lon="2.22755">
        <ele>16.8</ele>
        <time>2023-05-19T13:11:48Z</time>
      </trkpt>
      <trkpt lat="49.92127" lon="2.22756">
        <ele>16.8</ele>
        <time>2023-05-19T13:11:49Z</time>
      </trkpt>
      <trkpt lat="49.92126" lon="2.22757">
        <ele>16.8</ele>
        <time>2023-05-19T13:11:51Z</time>
      </trkpt>
      <trkpt lat="49.92126" lon="2.22759">
        <ele>16.8</ele>
        <time>2023-05-19T13:11:52Z</time>
      </trkpt>
      <trkpt lat="49.92125" lon="2.2276">
        <ele>16.8</ele>
        <time>2023-05-19T13:11:53Z</time>
      </trkpt>
      <trkpt lat="49.92125" lon="2.22761">
        <ele>16.7</ele>
        <time>2023-05-19T13:11:54Z</time>
      </trkpt>
      <trkpt lat="49.92124" lon="2.22763">
        <ele>16.7</ele>
        <time>2023-05-19T13:11:55Z</time>
      </trkpt>
      <trkpt lat="49.92124" lon="2.22764">
        <ele>16.7</ele>
        <time>2023-05-19T13:11:56Z</time>
      </trkpt>
      <trkpt lat="49.92123" lon="2.22765">
        <ele>16.7</ele>
        <time>2023-05-19T13:11:57Z</time>
      </trkpt>
      <trkpt lat="49.92123" lon="2.22766">
        <ele>16.7</ele>
        <time>2023-05-19T13:11:58Z</time>
      </trkpt>
      <trkpt lat="49.92122" lon="2.22767">
        <ele>16.6</ele>
        <time>2023-05-19T13:12:00Z</time>
      </trkpt>
      <trkpt lat="49.92122" lon="2.22768">
        <ele>16.6</ele>
        <time>2023-05-19T13:12:01Z</time>
      </trkpt>
      <trkpt lat="49.92122" lon="2.22769">
        <ele>16.6</ele>
        <time>2023-05-19T13:12:02Z</time>
      </trkpt>
      <trkpt lat="49.92122" lon="2.22769">
        <ele>16.6</ele>
        <time>2023-05-19T13:12:03Z</time>
      </trkpt>
      <trkpt lat="49.92121" lon="2.2277">
        <ele>16.6</ele>
        <time>2023-05-19T13:12:04Z</time>
      </trkpt>
      <trkpt lat="49.92121" lon="2.22773">
        <ele>16.6</ele>
        <time>2023-05-19T13:12:05Z</time>
      </trkpt>
      <trkpt lat="49.92121" lon="2.22775">
        <ele>16.6</ele>
        <time>2023-05-19T13:12:06Z</time>
      </trkpt>
      <trkpt lat="49.92121" lon="2.22776">
        <ele>16.6</ele>
        <time>2023-05-19T13:12:08Z</time>
      </trkpt>
      <trkpt lat="49.92121" lon="2.22778">
        <ele>16.6</ele>
        <time>2023-05-19T13:12:09Z</time>
      </trkpt>
      <trkpt lat="49.9212" lon="2.2278">
        <ele>16.6</ele>
        <time>2023-05-19T13:12:10Z</time>
      </trkpt>
      <trkpt lat="49.9212" lon="2.22781">
        <ele>16.6</ele>
        <time>2023-05-19T13:12:11Z</time>
      </trkpt>
      <trkpt lat="49.92121" lon="2.22783">
        <ele>16.6</ele>
        <time>2023-05-19T13:12:12Z</time>
      </trkpt>
      <trkpt lat="49.92121" lon="2.22785">
        <ele>16.6</ele>
        <time>2023-05-19T13:12:13Z</time>
      </trkpt>
      <trkpt lat="49.9212" lon="2.22786">
        <ele>16.6</ele>
        <time>2023-05-19T13:12:15Z</time>
      </trkpt>
      <trkpt lat="49.9212" lon="2.22788">
        <ele>16.6</ele>
        <time>2023-05-19T13:12:16Z</time>
      </trkpt>
      <trkpt lat="49.9212" lon="2.22791">
        <ele>16.6</ele>
        <time>2023-05-19T13:12:17Z</time>
      </trkpt>
      <trkpt lat="49.92119" lon="2.22792">
        <ele>16.5</ele>
        <time>2023-05-19T13:12:18Z</time>
      </trkpt>
      <trkpt lat="49.92119" lon="2.22794">
        <ele>16.5</ele>
        <time>2023-05-19T13:12:19Z</time>
      </trkpt>
      <trkpt lat="49.92118" lon="2.22795">
        <ele>16.4</ele>
        <time>2023-05-19T13:12:20Z</time>
      </trkpt>
      <trkpt lat="49.92118" lon="2.22797">
        <ele>16.4</ele>
        <time>2023-05-19T13:12:22Z</time>
      </trkpt>
      <trkpt lat="49.92117" lon="2.22798">
        <ele>16.5</ele>
        <time>2023-05-19T13:12:23Z</time>
      </trkpt>
      <trkpt lat="49.92117" lon="2.22799">
        <ele>16.4</ele>
        <time>2023-05-19T13:12:24Z</time>
      </trkpt>
      <trkpt lat="49.92117" lon="2.228">
        <ele>16.3</ele>
        <time>2023-05-19T13:12:25Z</time>
      </trkpt>
      <trkpt lat="49.92116" lon="2.22801">
        <ele>16.3</ele>
        <time>2023-05-19T13:12:26Z</time>
      </trkpt>
      <trkpt lat="49.92115" lon="2.22802">
        <ele>16.3</ele>
        <time>2023-05-19T13:12:27Z</time>
      </trkpt>
      <trkpt lat="49.92115" lon="2.22804">
        <ele>16.3</ele>
        <time>2023-05-19T13:12:29Z</time>
      </trkpt>
      <trkpt lat="49.92114" lon="2.22806">
        <ele>16.2</ele>
        <time>2023-05-19T13:12:30Z</time>
      </trkpt>
      <trkpt lat="49.92114" lon="2.22808">
        <ele>16.2</ele>
        <time>2023-05-19T13:12:31Z</time>
      </trkpt>
      <trkpt lat="49.92112" lon="2.2281">
        <ele>16.2</ele>
        <time>2023-05-19T13:12:32Z</time>
      </trkpt>
      <trkpt lat="49.92112" lon="2.22811">
        <ele>16.2</ele>
        <time>2023-05-19T13:12:33Z</time>
      </trkpt>
      <trkpt lat="49.92111" lon="2.22812">
        <ele>16.1</ele>
        <time>2023-05-19T13:12:34Z</time>
      </trkpt>
      <trkpt lat="49.9211" lon="2.22814">
        <ele>16.1</ele>
        <time>2023-05-19T13:12:35Z</time>
      </trkpt>
      <trkpt lat="49.92109" lon="2.22815">
        <ele>16.1</ele>
        <time>2023-05-19T13:12:37Z</time>
      </trkpt>
      <trkpt lat="49.92108" lon="2.22817">
        <ele>16</ele>
        <time>2023-05-19T13:12:38Z</time>
      </trkpt>
      <trkpt lat="49.92107" lon="2.22819">
        <ele>16</ele>
        <time>2023-05-19T13:12:39Z</time>
      </trkpt>
      <trkpt lat="49.92107" lon="2.22821">
        <ele>16</ele>
        <time>2023-05-19T13:12:40Z</time>
      </trkpt>
      <trkpt lat="49.92106" lon="2.22823">
        <ele>16</ele>
        <time>2023-05-19T13:12:41Z</time>
      </trkpt>
      <trkpt lat="49.92105" lon="2.22826">
        <ele>15.9</ele>
        <time>2023-05-19T13:12:43Z</time>
      </trkpt>
      <trkpt lat="49.92105" lon="2.22827">
        <ele>15.9</ele>
        <time>2023-05-19T13:12:44Z</time>
      </trkpt>
      <trkpt lat="49.92105" lon="2.22828">
        <ele>15.9</ele>
        <time>2023-05-19T13:12:45Z</time>
      </trkpt>
      <trkpt lat="49.92104" lon="2.22829">
        <ele>15.9</ele>
        <time>2023-05-19T13:12:46Z</time>
      </trkpt>
      <trkpt lat="49.92104" lon="2.2283">
        <ele>15.9</ele>
        <time>2023-05-19T13:12:47Z</time>
      </trkpt>
      <trkpt lat="49.92104" lon="2.22831">
        <ele>15.9</ele>
        <time>2023-05-19T13:12:48Z</time>
      </trkpt>
      <trkpt lat="49.92104" lon="2.22832">
        <ele>15.9</ele>
        <time>2023-05-19T13:12:50Z</time>
      </trkpt>
      <trkpt lat="49.92103" lon="2.22833">
        <ele>15.9</ele>
        <time>2023-05-19T13:12:51Z</time>
      </trkpt>
      <trkpt lat="49.92103" lon="2.22834">
        <ele>15.9</ele>
        <time>2023-05-19T13:12:52Z</time>
      </trkpt>
      <trkpt lat="49.92102" lon="2.22835">
        <ele>15.8</ele>
        <time>2023-05-19T13:12:53Z</time>
      </trkpt>
      <trkpt lat="49.92102" lon="2.22835">
        <ele>15.8</ele>
        <time>2023-05-19T13:12:54Z</time>
      </trkpt>
      <trkpt lat="49.92102" lon="2.22835">
        <ele>15.8</ele>
        <time>2023-05-19T13:12:55Z</time>
      </trkpt>
      <trkpt lat="49.92102" lon="2.22833">
        <ele>15.8</ele>
        <time>2023-05-19T13:12:56Z</time>
      </trkpt>
      <trkpt lat="49.92101" lon="2.22833">
        <ele>15.8</ele>
        <time>2023-05-19T13:12:58Z</time>
      </trkpt>
      <trkpt lat="49.921" lon="2.22834">
        <ele>15.8</ele>
        <time>2023-05-19T13:12:59Z</time>
      </trkpt>
      <trkpt lat="49.92099" lon="2.22835">
        <ele>15.7</ele>
        <time>2023-05-19T13:13:00Z</time>
      </trkpt>
      <trkpt lat="49.92098" lon="2.22837">
        <ele>15.7</ele>
        <time>2023-05-19T13:13:01Z</time>
      </trkpt>
      <trkpt lat="49.92098" lon="2.22838">
        <ele>15.7</ele>
        <time>2023-05-19T13:13:02Z</time>
      </trkpt>
      <trkpt lat="49.92097" lon="2.2284">
        <ele>15.6</ele>
        <time>2023-05-19T13:13:04Z</time>
      </trkpt>
      <trkpt lat="49.92096" lon="2.22842">
        <ele>15.6</ele>
        <time>2023-05-19T13:13:05Z</time>
      </trkpt>
      <trkpt lat="49.92096" lon="2.22843">
        <ele>15.6</ele>
        <time>2023-05-19T13:13:06Z</time>
      </trkpt>
      <trkpt lat="49.92095" lon="2.22845">
        <ele>15.6</ele>
        <time>2023-05-19T13:13:07Z</time>
      </trkpt>
      <trkpt lat="49.92095" lon="2.22846">
        <ele>15.6</ele>
        <time>2023-05-19T13:13:08Z</time>
      </trkpt>
      <trkpt lat="49.92095" lon="2.22847">
        <ele>15.6</ele>
        <time>2023-05-19T13:13:10Z</time>
      </trkpt>
      <trkpt lat="49.92095" lon="2.22848">
        <ele>15.6</ele>
        <time>2023-05-19T13:13:11Z</time>
      </trkpt>
      <trkpt lat="49.92094" lon="2.2285">
        <ele>15.6</ele>
        <time>2023-05-19T13:13:12Z</time>
      </trkpt>
      <trkpt lat="49.92094" lon="2.22851">
        <ele>15.6</ele>
        <time>2023-05-19T13:13:13Z</time>
      </trkpt>
      <trkpt lat="49.92094" lon="2.22852">
        <ele>15.6</ele>
        <time>2023-05-19T13:13:14Z</time>
      </trkpt>
      <trkpt lat="49.92094" lon="2.22853">
        <ele>15.6</ele>
        <time>2023-05-19T13:13:16Z</time>
      </trkpt>
      <trkpt lat="49.92094" lon="2.22855">
        <ele>15.6</ele>
        <time>2023-05-19T13:13:17Z</time>
      </trkpt>
      <trkpt lat="49.92093" lon="2.22859">
        <ele>15.6</ele>
        <time>2023-05-19T13:13:18Z</time>
      </trkpt>
      <trkpt lat="49.92093" lon="2.2286">
        <ele>15.6</ele>
        <time>2023-05-19T13:13:19Z</time>
      </trkpt>
      <trkpt lat="49.92092" lon="2.22863">
        <ele>15.6</ele>
        <time>2023-05-19T13:13:21Z</time>
      </trkpt>
      <trkpt lat="49.92092" lon="2.22865">
        <ele>15.7</ele>
        <time>2023-05-19T13:13:22Z</time>
      </trkpt>
      <trkpt lat="49.92092" lon="2.22866">
        <ele>15.6</ele>
        <time>2023-05-19T13:13:23Z</time>
      </trkpt>
      <trkpt lat="49.92092" lon="2.22867">
        <ele>15.6</ele>
        <time>2023-05-19T13:13:24Z</time>
      </trkpt>
      <trkpt lat="49.92092" lon="2.22867">
        <ele>15.6</ele>
        <time>2023-05-19T13:13:26Z</time>
      </trkpt>
      <trkpt lat="49.92092" lon="2.22868">
        <ele>15.6</ele>
        <time>2023-05-19T13:13:27Z</time>
      </trkpt>
      <trkpt lat="49.92092" lon="2.22869">
        <ele>15.7</ele>
        <time>2023-05-19T13:13:28Z</time>
      </trkpt>
      <trkpt lat="49.92092" lon="2.22872">
        <ele>15.7</ele>
        <time>2023-05-19T13:13:29Z</time>
      </trkpt>
      <trkpt lat="49.92092" lon="2.22874">
        <ele>15.8</ele>
        <time>2023-05-19T13:13:30Z</time>
      </trkpt>
      <trkpt lat="49.92092" lon="2.22876">
        <ele>15.8</ele>
        <time>2023-05-19T13:13:31Z</time>
      </trkpt>
      <trkpt lat="49.92092" lon="2.22881">
        <ele>15.8</ele>
        <time>2023-05-19T13:13:33Z</time>
      </trkpt>
      <trkpt lat="49.92093" lon="2.22886">
        <ele>15.9</ele>
        <time>2023-05-19T13:13:34Z</time>
      </trkpt>
      <trkpt lat="49.92093" lon="2.2289">
        <ele>15.9</ele>
        <time>2023-05-19T13:13:35Z</time>
      </trkpt>
      <trkpt lat="49.92092" lon="2.22893">
        <ele>15.9</ele>
        <time>2023-05-19T13:13:36Z</time>
      </trkpt>
      <trkpt lat="49.92092" lon="2.22895">
        <ele>15.9</ele>
        <time>2023-05-19T13:13:37Z</time>
      </trkpt>
      <trkpt lat="49.92093" lon="2.22897">
        <ele>16</ele>
        <time>2023-05-19T13:13:38Z</time>
      </trkpt>
      <trkpt lat="49.92093" lon="2.229">
        <ele>16</ele>
        <time>2023-05-19T13:13:39Z</time>
      </trkpt>
      <trkpt lat="49.92093" lon="2.22902">
        <ele>16</ele>
        <time>2023-05-19T13:13:40Z</time>
      </trkpt>
      <trkpt lat="49.92092" lon="2.22902">
        <ele>16</ele>
        <time>2023-05-19T13:13:41Z</time>
      </trkpt>
      <trkpt lat="49.92092" lon="2.22904">
        <ele>16</ele>
        <time>2023-05-19T13:13:43Z</time>
      </trkpt>
      <trkpt lat="49.92091" lon="2.22903">
        <ele>16</ele>
        <time>2023-05-19T13:13:44Z</time>
      </trkpt>
      <trkpt lat="49.92091" lon="2.22902">
        <ele>16</ele>
        <time>2023-05-19T13:13:46Z</time>
      </trkpt>
      <trkpt lat="49.92091" lon="2.22902">
        <ele>16</ele>
        <time>2023-05-19T13:13:47Z</time>
      </trkpt>
      <trkpt lat="49.9209" lon="2.22903">
        <ele>16</ele>
        <time>2023-05-19T13:13:48Z</time>
      </trkpt>
      <trkpt lat="49.9209" lon="2.22904">
        <ele>16</ele>
        <time>2023-05-19T13:13:49Z</time>
      </trkpt>
      <trkpt lat="49.9209" lon="2.22905">
        <ele>16</ele>
        <time>2023-05-19T13:13:50Z</time>
      </trkpt>
      <trkpt lat="49.92089" lon="2.22906">
        <ele>16</ele>
        <time>2023-05-19T13:13:51Z</time>
      </trkpt>
      <trkpt lat="49.92089" lon="2.22907">
        <ele>16</ele>
        <time>2023-05-19T13:13:52Z</time>
      </trkpt>
      <trkpt lat="49.92089" lon="2.22907">
        <ele>16</ele>
        <time>2023-05-19T13:13:54Z</time>
      </trkpt>
      <trkpt lat="49.92089" lon="2.22908">
        <ele>16</ele>
        <time>2023-05-19T13:13:55Z</time>
      </trkpt>
      <trkpt lat="49.92089" lon="2.22908">
        <ele>16</ele>
        <time>2023-05-19T13:13:56Z</time>
      </trkpt>
      <trkpt lat="49.92089" lon="2.22907">
        <ele>16</ele>
        <time>2023-05-19T13:13:58Z</time>
      </trkpt>
      <trkpt lat="49.9209" lon="2.22907">
        <ele>16</ele>
        <time>2023-05-19T13:13:59Z</time>
      </trkpt>
      <trkpt lat="49.9209" lon="2.22905">
        <ele>15.9</ele>
        <time>2023-05-19T13:14:01Z</time>
      </trkpt>
      <trkpt lat="49.9209" lon="2.22905">
        <ele>15.9</ele>
        <time>2023-05-19T13:14:02Z</time>
      </trkpt>
      <trkpt lat="49.9209" lon="2.22904">
        <ele>15.9</ele>
        <time>2023-05-19T13:14:04Z</time>
      </trkpt>
      <trkpt lat="49.9209" lon="2.22903">
        <ele>15.9</ele>
        <time>2023-05-19T13:14:05Z</time>
      </trkpt>
      <trkpt lat="49.9209" lon="2.22903">
        <ele>15.9</ele>
        <time>2023-05-19T13:14:06Z</time>
      </trkpt>
      <trkpt lat="49.9209" lon="2.22903">
        <ele>15.9</ele>
        <time>2023-05-19T13:14:07Z</time>
      </trkpt>
      <trkpt lat="49.9209" lon="2.22903">
        <ele>15.9</ele>
        <time>2023-05-19T13:14:09Z</time>
      </trkpt>
      <trkpt lat="49.9209" lon="2.22904">
        <ele>15.9</ele>
        <time>2023-05-19T13:14:11Z</time>
      </trkpt>
      <trkpt lat="49.92089" lon="2.22904">
        <ele>15.9</ele>
        <time>2023-05-19T13:14:12Z</time>
      </trkpt>
      <trkpt lat="49.92089" lon="2.22904">
        <ele>15.9</ele>
        <time>2023-05-19T13:14:14Z</time>
      </trkpt>
      <trkpt lat="49.92089" lon="2.22904">
        <ele>15.9</ele>
        <time>2023-05-19T13:14:15Z</time>
      </trkpt>
      <trkpt lat="49.92089" lon="2.22904">
        <ele>15.9</ele>
        <time>2023-05-19T13:14:16Z</time>
      </trkpt>
      <trkpt lat="49.92089" lon="2.22905">
        <ele>15.9</ele>
        <time>2023-05-19T13:14:18Z</time>
      </trkpt>
      <trkpt lat="49.92089" lon="2.22905">
        <ele>15.9</ele>
        <time>2023-05-19T13:14:19Z</time>
      </trkpt>
      <trkpt lat="49.9209" lon="2.22905">
        <ele>15.9</ele>
        <time>2023-05-19T13:14:21Z</time>
      </trkpt>
      <trkpt lat="49.92089" lon="2.22905">
        <ele>15.9</ele>
        <time>2023-05-19T13:14:22Z</time>
      </trkpt>
      <trkpt lat="49.9209" lon="2.22905">
        <ele>15.9</ele>
        <time>2023-05-19T13:14:24Z</time>
      </trkpt>
      <trkpt lat="49.9209" lon="2.22905">
        <ele>15.9</ele>
        <time>2023-05-19T13:14:25Z</time>
      </trkpt>
      <trkpt lat="49.9209" lon="2.22904">
        <ele>15.9</ele>
        <time>2023-05-19T13:14:27Z</time>
      </trkpt>
      <trkpt lat="49.9209" lon="2.22903">
        <ele>15.9</ele>
        <time>2023-05-19T13:14:28Z</time>
      </trkpt>
      <trkpt lat="49.9209" lon="2.22903">
        <ele>15.9</ele>
        <time>2023-05-19T13:14:29Z</time>
      </trkpt>
      <trkpt lat="49.9209" lon="2.22903">
        <ele>15.9</ele>
        <time>2023-05-19T13:14:30Z</time>
      </trkpt>
      <trkpt lat="49.9209" lon="2.22902">
        <ele>15.9</ele>
        <time>2023-05-19T13:14:31Z</time>
      </trkpt>
      <trkpt lat="49.9209" lon="2.22902">
        <ele>15.9</ele>
        <time>2023-05-19T13:14:32Z</time>
      </trkpt>
      <trkpt lat="49.9209" lon="2.22902">
        <ele>15.9</ele>
        <time>2023-05-19T13:14:33Z</time>
      </trkpt>
      <trkpt lat="49.9209" lon="2.22902">
        <ele>15.9</ele>
        <time>2023-05-19T13:14:34Z</time>
      </trkpt>
      <trkpt lat="49.92088" lon="2.2291">
        <ele>15.9</ele>
        <time>2023-05-19T13:17:56Z</time>
      </trkpt>
      <trkpt lat="49.92088" lon="2.2291">
        <ele>15.9</ele>
        <time>2023-05-19T13:17:57Z</time>
      </trkpt>
      <trkpt lat="49.92087" lon="2.2291">
        <ele>15.9</ele>
        <time>2023-05-19T13:17:58Z</time>
      </trkpt>
      <trkpt lat="49.92087" lon="2.2291">
        <ele>15.9</ele>
        <time>2023-05-19T13:17:59Z</time>
      </trkpt>
      <trkpt lat="49.92086" lon="2.22909">
        <ele>15.9</ele>
        <time>2023-05-19T13:18:00Z</time>
      </trkpt>
      <trkpt lat="49.92084" lon="2.22908">
        <ele>15.9</ele>
        <time>2023-05-19T13:18:02Z</time>
      </trkpt>
      <trkpt lat="49.92081" lon="2.22908">
        <ele>15.9</ele>
        <time>2023-05-19T13:18:03Z</time>
      </trkpt>
      <trkpt lat="49.9208" lon="2.22908">
        <ele>15.9</ele>
        <time>2023-05-19T13:18:04Z</time>
      </trkpt>
      <trkpt lat="49.92078" lon="2.22908">
        <ele>15.9</ele>
        <time>2023-05-19T13:18:05Z</time>
      </trkpt>
      <trkpt lat="49.92077" lon="2.22907">
        <ele>15.9</ele>
        <time>2023-05-19T13:18:06Z</time>
      </trkpt>
      <trkpt lat="49.92075" lon="2.22907">
        <ele>15.9</ele>
        <time>2023-05-19T13:18:07Z</time>
      </trkpt>
      <trkpt lat="49.92074" lon="2.22907">
        <ele>15.9</ele>
        <time>2023-05-19T13:18:09Z</time>
      </trkpt>
      <trkpt lat="49.92073" lon="2.22906">
        <ele>15.9</ele>
        <time>2023-05-19T13:18:10Z</time>
      </trkpt>
      <trkpt lat="49.92071" lon="2.22906">
        <ele>15.9</ele>
        <time>2023-05-19T13:18:11Z</time>
      </trkpt>
      <trkpt lat="49.9207" lon="2.22905">
        <ele>15.9</ele>
        <time>2023-05-19T13:18:12Z</time>
      </trkpt>
      <trkpt lat="49.92067" lon="2.22903">
        <ele>15.9</ele>
        <time>2023-05-19T13:18:13Z</time>
      </trkpt>
      <trkpt lat="49.92066" lon="2.22903">
        <ele>16</ele>
        <time>2023-05-19T13:18:14Z</time>
      </trkpt>
      <trkpt lat="49.92065" lon="2.22902">
        <ele>16</ele>
        <time>2023-05-19T13:18:16Z</time>
      </trkpt>
      <trkpt lat="49.92063" lon="2.22901">
        <ele>16</ele>
        <time>2023-05-19T13:18:17Z</time>
      </trkpt>
      <trkpt lat="49.92062" lon="2.22901">
        <ele>16</ele>
        <time>2023-05-19T13:18:18Z</time>
      </trkpt>
      <trkpt lat="49.92061" lon="2.22901">
        <ele>16</ele>
        <time>2023-05-19T13:18:19Z</time>
      </trkpt>
      <trkpt lat="49.92061" lon="2.229">
        <ele>16</ele>
        <time>2023-05-19T13:18:20Z</time>
      </trkpt>
      <trkpt lat="49.9206" lon="2.229">
        <ele>16</ele>
        <time>2023-05-19T13:18:21Z</time>
      </trkpt>
      <trkpt lat="49.92059" lon="2.229">
        <ele>16</ele>
        <time>2023-05-19T13:18:22Z</time>
      </trkpt>
      <trkpt lat="49.92058" lon="2.22899">
        <ele>16</ele>
        <time>2023-05-19T13:18:24Z</time>
      </trkpt>
      <trkpt lat="49.92057" lon="2.22899">
        <ele>16</ele>
        <time>2023-05-19T13:18:25Z</time>
      </trkpt>
      <trkpt lat="49.92055" lon="2.22898">
        <ele>16</ele>
        <time>2023-05-19T13:18:26Z</time>
      </trkpt>
      <trkpt lat="49.92054" lon="2.22898">
        <ele>16</ele>
        <time>2023-05-19T13:18:27Z</time>
      </trkpt>
      <trkpt lat="49.92053" lon="2.22898">
        <ele>16</ele>
        <time>2023-05-19T13:18:28Z</time>
      </trkpt>
      <trkpt lat="49.9205" lon="2.22897">
        <ele>16</ele>
        <time>2023-05-19T13:18:29Z</time>
      </trkpt>
      <trkpt lat="49.92049" lon="2.22896">
        <ele>16</ele>
        <time>2023-05-19T13:18:30Z</time>
      </trkpt>
      <trkpt lat="49.92046" lon="2.22895">
        <ele>16</ele>
        <time>2023-05-19T13:18:32Z</time>
      </trkpt>
      <trkpt lat="49.92045" lon="2.22895">
        <ele>16</ele>
        <time>2023-05-19T13:18:33Z</time>
      </trkpt>
      <trkpt lat="49.92043" lon="2.22894">
        <ele>16.1</ele>
        <time>2023-05-19T13:18:34Z</time>
      </trkpt>
      <trkpt lat="49.92042" lon="2.22893">
        <ele>16.1</ele>
        <time>2023-05-19T13:18:35Z</time>
      </trkpt>
      <trkpt lat="49.92041" lon="2.22893">
        <ele>16.1</ele>
        <time>2023-05-19T13:18:36Z</time>
      </trkpt>
      <trkpt lat="49.92039" lon="2.22892">
        <ele>16.1</ele>
        <time>2023-05-19T13:18:37Z</time>
      </trkpt>
      <trkpt lat="49.92038" lon="2.22892">
        <ele>16.1</ele>
        <time>2023-05-19T13:18:38Z</time>
      </trkpt>
      <trkpt lat="49.92037" lon="2.22892">
        <ele>16.1</ele>
        <time>2023-05-19T13:18:39Z</time>
      </trkpt>
      <trkpt lat="49.92034" lon="2.22891">
        <ele>16.1</ele>
        <time>2023-05-19T13:18:41Z</time>
      </trkpt>
      <trkpt lat="49.92033" lon="2.22891">
        <ele>16.1</ele>
        <time>2023-05-19T13:18:42Z</time>
      </trkpt>
      <trkpt lat="49.92031" lon="2.22891">
        <ele>16.1</ele>
        <time>2023-05-19T13:18:43Z</time>
      </trkpt>
      <trkpt lat="49.9203" lon="2.22891">
        <ele>16.1</ele>
        <time>2023-05-19T13:18:44Z</time>
      </trkpt>
      <trkpt lat="49.92029" lon="2.22892">
        <ele>16.1</ele>
        <time>2023-05-19T13:18:45Z</time>
      </trkpt>
      <trkpt lat="49.92028" lon="2.22892">
        <ele>16.1</ele>
        <time>2023-05-19T13:18:46Z</time>
      </trkpt>
      <trkpt lat="49.92026" lon="2.22893">
        <ele>16.1</ele>
        <time>2023-05-19T13:18:48Z</time>
      </trkpt>
      <trkpt lat="49.92024" lon="2.22893">
        <ele>16.1</ele>
        <time>2023-05-19T13:18:49Z</time>
      </trkpt>
      <trkpt lat="49.92023" lon="2.22893">
        <ele>16.1</ele>
        <time>2023-05-19T13:18:50Z</time>
      </trkpt>
      <trkpt lat="49.92022" lon="2.22892">
        <ele>16.1</ele>
        <time>2023-05-19T13:18:51Z</time>
      </trkpt>
      <trkpt lat="49.92021" lon="2.22892">
        <ele>16.1</ele>
        <time>2023-05-19T13:18:52Z</time>
      </trkpt>
      <trkpt lat="49.92019" lon="2.22892">
        <ele>16.1</ele>
        <time>2023-05-19T13:18:53Z</time>
      </trkpt>
      <trkpt lat="49.92018" lon="2.22893">
        <ele>16.1</ele>
        <time>2023-05-19T13:18:54Z</time>
      </trkpt>
      <trkpt lat="49.92016" lon="2.22893">
        <ele>16.1</ele>
        <time>2023-05-19T13:18:55Z</time>
      </trkpt>
      <trkpt lat="49.92015" lon="2.22893">
        <ele>16.1</ele>
        <time>2023-05-19T13:18:56Z</time>
      </trkpt>
      <trkpt lat="49.92014" lon="2.22893">
        <ele>16.2</ele>
        <time>2023-05-19T13:18:58Z</time>
      </trkpt>
      <trkpt lat="49.92013" lon="2.22893">
        <ele>16.2</ele>
        <time>2023-05-19T13:18:59Z</time>
      </trkpt>
      <trkpt lat="49.92012" lon="2.22892">
        <ele>16.2</ele>
        <time>2023-05-19T13:19:00Z</time>
      </trkpt>
      <trkpt lat="49.9201" lon="2.22892">
        <ele>16.2</ele>
        <time>2023-05-19T13:19:01Z</time>
      </trkpt>
      <trkpt lat="49.92009" lon="2.22892">
        <ele>16.2</ele>
        <time>2023-05-19T13:19:02Z</time>
      </trkpt>
      <trkpt lat="49.92007" lon="2.22891">
        <ele>16.2</ele>
        <time>2023-05-19T13:19:03Z</time>
      </trkpt>
      <trkpt lat="49.92005" lon="2.22891">
        <ele>16.2</ele>
        <time>2023-05-19T13:19:05Z</time>
      </trkpt>
      <trkpt lat="49.92004" lon="2.2289">
        <ele>16.2</ele>
        <time>2023-05-19T13:19:06Z</time>
      </trkpt>
      <trkpt lat="49.92003" lon="2.2289">
        <ele>16.2</ele>
        <time>2023-05-19T13:19:07Z</time>
      </trkpt>
      <trkpt lat="49.92002" lon="2.22889">
        <ele>16.2</ele>
        <time>2023-05-19T13:19:08Z</time>
      </trkpt>
      <trkpt lat="49.92" lon="2.22889">
        <ele>16.2</ele>
        <time>2023-05-19T13:19:09Z</time>
      </trkpt>
      <trkpt lat="49.91998" lon="2.22888">
        <ele>16.2</ele>
        <time>2023-05-19T13:19:10Z</time>
      </trkpt>
      <trkpt lat="49.91996" lon="2.22887">
        <ele>16.2</ele>
        <time>2023-05-19T13:19:11Z</time>
      </trkpt>
      <trkpt lat="49.91995" lon="2.22887">
        <ele>16.2</ele>
        <time>2023-05-19T13:19:12Z</time>
      </trkpt>
      <trkpt lat="49.91992" lon="2.22886">
        <ele>16.2</ele>
        <time>2023-05-19T13:19:13Z</time>
      </trkpt>
      <trkpt lat="49.91991" lon="2.22886">
        <ele>16.2</ele>
        <time>2023-05-19T13:19:14Z</time>
      </trkpt>
      <trkpt lat="49.91989" lon="2.22886">
        <ele>16.2</ele>
        <time>2023-05-19T13:19:16Z</time>
      </trkpt>
      <trkpt lat="49.91988" lon="2.22885">
        <ele>16.2</ele>
        <time>2023-05-19T13:19:17Z</time>
      </trkpt>
      <trkpt lat="49.91986" lon="2.22885">
        <ele>16.2</ele>
        <time>2023-05-19T13:19:18Z</time>
      </trkpt>
      <trkpt lat="49.91985" lon="2.22884">
        <ele>16.3</ele>
        <time>2023-05-19T13:19:19Z</time>
      </trkpt>
      <trkpt lat="49.91983" lon="2.22883">
        <ele>16.3</ele>
        <time>2023-05-19T13:19:20Z</time>
      </trkpt>
      <trkpt lat="49.91982" lon="2.22883">
        <ele>16.3</ele>
        <time>2023-05-19T13:19:21Z</time>
      </trkpt>
      <trkpt lat="49.91981" lon="2.22882">
        <ele>16.3</ele>
        <time>2023-05-19T13:19:22Z</time>
      </trkpt>
      <trkpt lat="49.91979" lon="2.22881">
        <ele>16.3</ele>
        <time>2023-05-19T13:19:24Z</time>
      </trkpt>
      <trkpt lat="49.91979" lon="2.2288">
        <ele>16.3</ele>
        <time>2023-05-19T13:19:25Z</time>
      </trkpt>
      <trkpt lat="49.91978" lon="2.2288">
        <ele>16.3</ele>
        <time>2023-05-19T13:19:26Z</time>
      </trkpt>
      <trkpt lat="49.91977" lon="2.22879">
        <ele>16.3</ele>
        <time>2023-05-19T13:19:27Z</time>
      </trkpt>
      <trkpt lat="49.91976" lon="2.22879">
        <ele>16.3</ele>
        <time>2023-05-19T13:19:28Z</time>
      </trkpt>
      <trkpt lat="49.91975" lon="2.22878">
        <ele>16.3</ele>
        <time>2023-05-19T13:19:29Z</time>
      </trkpt>
      <trkpt lat="49.91974" lon="2.22877">
        <ele>16.3</ele>
        <time>2023-05-19T13:19:30Z</time>
      </trkpt>
      <trkpt lat="49.91974" lon="2.22876">
        <ele>16.3</ele>
        <time>2023-05-19T13:19:31Z</time>
      </trkpt>
      <trkpt lat="49.91973" lon="2.22876">
        <ele>16.3</ele>
        <time>2023-05-19T13:19:33Z</time>
      </trkpt>
      <trkpt lat="49.91972" lon="2.22875">
        <ele>16.3</ele>
        <time>2023-05-19T13:19:34Z</time>
      </trkpt>
      <trkpt lat="49.91971" lon="2.22875">
        <ele>16.3</ele>
        <time>2023-05-19T13:19:35Z</time>
      </trkpt>
      <trkpt lat="49.91971" lon="2.22875">
        <ele>16.3</ele>
        <time>2023-05-19T13:19:36Z</time>
      </trkpt>
      <trkpt lat="49.9197" lon="2.22875">
        <ele>16.3</ele>
        <time>2023-05-19T13:19:37Z</time>
      </trkpt>
      <trkpt lat="49.9197" lon="2.22875">
        <ele>16.3</ele>
        <time>2023-05-19T13:19:38Z</time>
      </trkpt>
      <trkpt lat="49.91969" lon="2.22874">
        <ele>16.3</ele>
        <time>2023-05-19T13:19:39Z</time>
      </trkpt>
      <trkpt lat="49.91967" lon="2.22873">
        <ele>16.3</ele>
        <time>2023-05-19T13:19:41Z</time>
      </trkpt>
      <trkpt lat="49.91966" lon="2.22873">
        <ele>16.3</ele>
        <time>2023-05-19T13:19:42Z</time>
      </trkpt>
      <trkpt lat="49.91964" lon="2.22873">
        <ele>16.3</ele>
        <time>2023-05-19T13:19:43Z</time>
      </trkpt>
      <trkpt lat="49.91963" lon="2.22872">
        <ele>16.4</ele>
        <time>2023-05-19T13:19:44Z</time>
      </trkpt>
      <trkpt lat="49.91961" lon="2.22872">
        <ele>16.4</ele>
        <time>2023-05-19T13:19:45Z</time>
      </trkpt>
      <trkpt lat="49.9196" lon="2.22872">
        <ele>16.4</ele>
        <time>2023-05-19T13:19:47Z</time>
      </trkpt>
      <trkpt lat="49.91959" lon="2.22872">
        <ele>16.4</ele>
        <time>2023-05-19T13:19:48Z</time>
      </trkpt>
      <trkpt lat="49.91958" lon="2.22871">
        <ele>16.4</ele>
        <time>2023-05-19T13:19:49Z</time>
      </trkpt>
      <trkpt lat="49.91957" lon="2.22871">
        <ele>16.4</ele>
        <time>2023-05-19T13:19:50Z</time>
      </trkpt>
      <trkpt lat="49.91955" lon="2.22871">
        <ele>16.4</ele>
        <time>2023-05-19T13:19:51Z</time>
      </trkpt>
      <trkpt lat="49.91954" lon="2.2287">
        <ele>16.4</ele>
        <time>2023-05-19T13:19:52Z</time>
      </trkpt>
      <trkpt lat="49.9195" lon="2.22869">
        <ele>16.4</ele>
        <time>2023-05-19T13:19:54Z</time>
      </trkpt>
      <trkpt lat="49.9195" lon="2.22869">
        <ele>16.4</ele>
        <time>2023-05-19T13:19:55Z</time>
      </trkpt>
      <trkpt lat="49.91948" lon="2.22869">
        <ele>16.4</ele>
        <time>2023-05-19T13:19:56Z</time>
      </trkpt>
      <trkpt lat="49.91946" lon="2.22869">
        <ele>16.4</ele>
        <time>2023-05-19T13:19:57Z</time>
      </trkpt>
      <trkpt lat="49.91943" lon="2.2287">
        <ele>16.4</ele>
        <time>2023-05-19T13:19:58Z</time>
      </trkpt>
      <trkpt lat="49.91942" lon="2.2287">
        <ele>16.5</ele>
        <time>2023-05-19T13:19:59Z</time>
      </trkpt>
      <trkpt lat="49.91939" lon="2.22871">
        <ele>16.5</ele>
        <time>2023-05-19T13:20:01Z</time>
      </trkpt>
      <trkpt lat="49.91938" lon="2.22871">
        <ele>16.5</ele>
        <time>2023-05-19T13:20:02Z</time>
      </trkpt>
      <trkpt lat="49.91936" lon="2.22873">
        <ele>16.5</ele>
        <time>2023-05-19T13:20:03Z</time>
      </trkpt>
      <trkpt lat="49.91935" lon="2.22873">
        <ele>16.5</ele>
        <time>2023-05-19T13:20:04Z</time>
      </trkpt>
      <trkpt lat="49.91934" lon="2.22873">
        <ele>16.5</ele>
        <time>2023-05-19T13:20:05Z</time>
      </trkpt>
      <trkpt lat="49.91932" lon="2.22873">
        <ele>16.5</ele>
        <time>2023-05-19T13:20:07Z</time>
      </trkpt>
      <trkpt lat="49.91931" lon="2.22872">
        <ele>16.5</ele>
        <time>2023-05-19T13:20:08Z</time>
      </trkpt>
      <trkpt lat="49.9193" lon="2.22871">
        <ele>16.5</ele>
        <time>2023-05-19T13:20:09Z</time>
      </trkpt>
      <trkpt lat="49.91928" lon="2.22871">
        <ele>16.5</ele>
        <time>2023-05-19T13:20:10Z</time>
      </trkpt>
      <trkpt lat="49.91927" lon="2.2287">
        <ele>16.5</ele>
        <time>2023-05-19T13:20:11Z</time>
      </trkpt>
      <trkpt lat="49.91926" lon="2.2287">
        <ele>16.6</ele>
        <time>2023-05-19T13:20:12Z</time>
      </trkpt>
      <trkpt lat="49.91925" lon="2.2287">
        <ele>16.6</ele>
        <time>2023-05-19T13:20:13Z</time>
      </trkpt>
      <trkpt lat="49.91924" lon="2.2287">
        <ele>16.6</ele>
        <time>2023-05-19T13:20:14Z</time>
      </trkpt>
      <trkpt lat="49.91923" lon="2.2287">
        <ele>16.6</ele>
        <time>2023-05-19T13:20:15Z</time>
      </trkpt>
      <trkpt lat="49.91922" lon="2.2287">
        <ele>16.6</ele>
        <time>2023-05-19T13:20:16Z</time>
      </trkpt>
      <trkpt lat="49.91921" lon="2.2287">
        <ele>16.6</ele>
        <time>2023-05-19T13:20:18Z</time>
      </trkpt>
      <trkpt lat="49.9192" lon="2.2287">
        <ele>16.6</ele>
        <time>2023-05-19T13:20:19Z</time>
      </trkpt>
      <trkpt lat="49.91919" lon="2.2287">
        <ele>16.6</ele>
        <time>2023-05-19T13:20:20Z</time>
      </trkpt>
      <trkpt lat="49.91918" lon="2.2287">
        <ele>16.6</ele>
        <time>2023-05-19T13:20:21Z</time>
      </trkpt>
      <trkpt lat="49.91917" lon="2.22871">
        <ele>16.6</ele>
        <time>2023-05-19T13:20:22Z</time>
      </trkpt>
      <trkpt lat="49.91916" lon="2.22871">
        <ele>16.6</ele>
        <time>2023-05-19T13:20:23Z</time>
      </trkpt>
      <trkpt lat="49.91915" lon="2.22871">
        <ele>16.6</ele>
        <time>2023-05-19T13:20:24Z</time>
      </trkpt>
      <trkpt lat="49.91914" lon="2.22871">
        <ele>16.7</ele>
        <time>2023-05-19T13:20:25Z</time>
      </trkpt>
      <trkpt lat="49.91912" lon="2.2287">
        <ele>16.7</ele>
        <time>2023-05-19T13:20:27Z</time>
      </trkpt>
      <trkpt lat="49.91911" lon="2.2287">
        <ele>16.7</ele>
        <time>2023-05-19T13:20:28Z</time>
      </trkpt>
      <trkpt lat="49.9191" lon="2.2287">
        <ele>16.7</ele>
        <time>2023-05-19T13:20:29Z</time>
      </trkpt>
      <trkpt lat="49.91909" lon="2.2287">
        <ele>16.7</ele>
        <time>2023-05-19T13:20:30Z</time>
      </trkpt>
      <trkpt lat="49.91908" lon="2.2287">
        <ele>16.7</ele>
        <time>2023-05-19T13:20:31Z</time>
      </trkpt>
      <trkpt lat="49.91907" lon="2.22869">
        <ele>16.7</ele>
        <time>2023-05-19T13:20:32Z</time>
      </trkpt>
      <trkpt lat="49.91905" lon="2.22868">
        <ele>16.8</ele>
        <time>2023-05-19T13:20:33Z</time>
      </trkpt>
      <trkpt lat="49.91904" lon="2.22867">
        <ele>16.8</ele>
        <time>2023-05-19T13:20:35Z</time>
      </trkpt>
      <trkpt lat="49.91903" lon="2.22867">
        <ele>16.8</ele>
        <time>2023-05-19T13:20:37Z</time>
      </trkpt>
      <trkpt lat="49.91902" lon="2.22866">
        <ele>16.8</ele>
        <time>2023-05-19T13:20:38Z</time>
      </trkpt>
      <trkpt lat="49.919" lon="2.22865">
        <ele>16.8</ele>
        <time>2023-05-19T13:20:39Z</time>
      </trkpt>
      <trkpt lat="49.91899" lon="2.22863">
        <ele>16.9</ele>
        <time>2023-05-19T13:20:40Z</time>
      </trkpt>
      <trkpt lat="49.91898" lon="2.22862">
        <ele>16.9</ele>
        <time>2023-05-19T13:20:42Z</time>
      </trkpt>
      <trkpt lat="49.91897" lon="2.22862">
        <ele>16.9</ele>
        <time>2023-05-19T13:20:43Z</time>
      </trkpt>
      <trkpt lat="49.91896" lon="2.22861">
        <ele>17</ele>
        <time>2023-05-19T13:20:44Z</time>
      </trkpt>
      <trkpt lat="49.91896" lon="2.2286">
        <ele>17</ele>
        <time>2023-05-19T13:20:45Z</time>
      </trkpt>
      <trkpt lat="49.91895" lon="2.2286">
        <ele>17</ele>
        <time>2023-05-19T13:20:46Z</time>
      </trkpt>
      <trkpt lat="49.91894" lon="2.22859">
        <ele>17</ele>
        <time>2023-05-19T13:20:47Z</time>
      </trkpt>
      <trkpt lat="49.91893" lon="2.22859">
        <ele>17</ele>
        <time>2023-05-19T13:20:48Z</time>
      </trkpt>
      <trkpt lat="49.91892" lon="2.22858">
        <ele>17.1</ele>
        <time>2023-05-19T13:20:49Z</time>
      </trkpt>
      <trkpt lat="49.91891" lon="2.22857">
        <ele>17.1</ele>
        <time>2023-05-19T13:20:50Z</time>
      </trkpt>
      <trkpt lat="49.9189" lon="2.22857">
        <ele>17.1</ele>
        <time>2023-05-19T13:20:52Z</time>
      </trkpt>
      <trkpt lat="49.91889" lon="2.22856">
        <ele>17.1</ele>
        <time>2023-05-19T13:20:53Z</time>
      </trkpt>
      <trkpt lat="49.91887" lon="2.22856">
        <ele>17.2</ele>
        <time>2023-05-19T13:20:54Z</time>
      </trkpt>
      <trkpt lat="49.91886" lon="2.22855">
        <ele>17.2</ele>
        <time>2023-05-19T13:20:55Z</time>
      </trkpt>
      <trkpt lat="49.91886" lon="2.22855">
        <ele>17.2</ele>
        <time>2023-05-19T13:20:56Z</time>
      </trkpt>
      <trkpt lat="49.91885" lon="2.22854">
        <ele>17.3</ele>
        <time>2023-05-19T13:20:57Z</time>
      </trkpt>
      <trkpt lat="49.91884" lon="2.22853">
        <ele>17.3</ele>
        <time>2023-05-19T13:20:58Z</time>
      </trkpt>
      <trkpt lat="49.91883" lon="2.22853">
        <ele>17.3</ele>
        <time>2023-05-19T13:21:00Z</time>
      </trkpt>
      <trkpt lat="49.91882" lon="2.22854">
        <ele>17.4</ele>
        <time>2023-05-19T13:21:01Z</time>
      </trkpt>
      <trkpt lat="49.91882" lon="2.22857">
        <ele>17.4</ele>
        <time>2023-05-19T13:21:02Z</time>
      </trkpt>
      <trkpt lat="49.91883" lon="2.22861">
        <ele>17.5</ele>
        <time>2023-05-19T13:21:03Z</time>
      </trkpt>
      <trkpt lat="49.91883" lon="2.22865">
        <ele>17.6</ele>
        <time>2023-05-19T13:21:05Z</time>
      </trkpt>
      <trkpt lat="49.91882" lon="2.22867">
        <ele>17.6</ele>
        <time>2023-05-19T13:21:06Z</time>
      </trkpt>
      <trkpt lat="49.91881" lon="2.2287">
        <ele>17.7</ele>
        <time>2023-05-19T13:21:07Z</time>
      </trkpt>
      <trkpt lat="49.9188" lon="2.22872">
        <ele>17.8</ele>
        <time>2023-05-19T13:21:08Z</time>
      </trkpt>
      <trkpt lat="49.91879" lon="2.22873">
        <ele>17.8</ele>
        <time>2023-05-19T13:21:09Z</time>
      </trkpt>
      <trkpt lat="49.91879" lon="2.22874">
        <ele>17.8</ele>
        <time>2023-05-19T13:21:10Z</time>
      </trkpt>
      <trkpt lat="49.91879" lon="2.22874">
        <ele>17.8</ele>
        <time>2023-05-19T13:21:11Z</time>
      </trkpt>
      <trkpt lat="49.91878" lon="2.22874">
        <ele>17.8</ele>
        <time>2023-05-19T13:21:12Z</time>
      </trkpt>
      <trkpt lat="49.91878" lon="2.22874">
        <ele>17.9</ele>
        <time>2023-05-19T13:21:14Z</time>
      </trkpt>
      <trkpt lat="49.91877" lon="2.22874">
        <ele>17.9</ele>
        <time>2023-05-19T13:21:15Z</time>
      </trkpt>
      <trkpt lat="49.91876" lon="2.22873">
        <ele>17.9</ele>
        <time>2023-05-19T13:21:16Z</time>
      </trkpt>
      <trkpt lat="49.91874" lon="2.22871">
        <ele>18</ele>
        <time>2023-05-19T13:21:17Z</time>
      </trkpt>
      <trkpt lat="49.91873" lon="2.2287">
        <ele>18.1</ele>
        <time>2023-05-19T13:21:18Z</time>
      </trkpt>
      <trkpt lat="49.91871" lon="2.2287">
        <ele>18.1</ele>
        <time>2023-05-19T13:21:19Z</time>
      </trkpt>
      <trkpt lat="49.91869" lon="2.2287">
        <ele>18.2</ele>
        <time>2023-05-19T13:21:21Z</time>
      </trkpt>
      <trkpt lat="49.91868" lon="2.2287">
        <ele>18.2</ele>
        <time>2023-05-19T13:21:22Z</time>
      </trkpt>
      <trkpt lat="49.91866" lon="2.22869">
        <ele>18.3</ele>
        <time>2023-05-19T13:21:23Z</time>
      </trkpt>
      <trkpt lat="49.91865" lon="2.2287">
        <ele>18.4</ele>
        <time>2023-05-19T13:21:24Z</time>
      </trkpt>
      <trkpt lat="49.91864" lon="2.22871">
        <ele>18.4</ele>
        <time>2023-05-19T13:21:25Z</time>
      </trkpt>
      <trkpt lat="49.91864" lon="2.22871">
        <ele>18.4</ele>
        <time>2023-05-19T13:21:26Z</time>
      </trkpt>
      <trkpt lat="49.91863" lon="2.22872">
        <ele>18.5</ele>
        <time>2023-05-19T13:21:28Z</time>
      </trkpt>
      <trkpt lat="49.91863" lon="2.22872">
        <ele>18.5</ele>
        <time>2023-05-19T13:21:29Z</time>
      </trkpt>
      <trkpt lat="49.91862" lon="2.22873">
        <ele>18.5</ele>
        <time>2023-05-19T13:21:30Z</time>
      </trkpt>
      <trkpt lat="49.91862" lon="2.22873">
        <ele>18.5</ele>
        <time>2023-05-19T13:21:31Z</time>
      </trkpt>
      <trkpt lat="49.91861" lon="2.22874">
        <ele>18.5</ele>
        <time>2023-05-19T13:21:32Z</time>
      </trkpt>
      <trkpt lat="49.91859" lon="2.22876">
        <ele>18.5</ele>
        <time>2023-05-19T13:21:33Z</time>
      </trkpt>
      <trkpt lat="49.91857" lon="2.22877">
        <ele>18.5</ele>
        <time>2023-05-19T13:21:35Z</time>
      </trkpt>
      <trkpt lat="49.91856" lon="2.22879">
        <ele>18.5</ele>
        <time>2023-05-19T13:21:36Z</time>
      </trkpt>
      <trkpt lat="49.91855" lon="2.2288">
        <ele>18.5</ele>
        <time>2023-05-19T13:21:37Z</time>
      </trkpt>
      <trkpt lat="49.91852" lon="2.22885">
        <ele>18.6</ele>
        <time>2023-05-19T13:21:38Z</time>
      </trkpt>
      <trkpt lat="49.91852" lon="2.22887">
        <ele>18.6</ele>
        <time>2023-05-19T13:21:39Z</time>
      </trkpt>
      <trkpt lat="49.9185" lon="2.22891">
        <ele>18.6</ele>
        <time>2023-05-19T13:21:40Z</time>
      </trkpt>
      <trkpt lat="49.91848" lon="2.22895">
        <ele>18.7</ele>
        <time>2023-05-19T13:21:42Z</time>
      </trkpt>
      <trkpt lat="49.91847" lon="2.22897">
        <ele>18.7</ele>
        <time>2023-05-19T13:21:43Z</time>
      </trkpt>
      <trkpt lat="49.91846" lon="2.22901">
        <ele>18.7</ele>
        <time>2023-05-19T13:21:44Z</time>
      </trkpt>
      <trkpt lat="49.91845" lon="2.22902">
        <ele>18.7</ele>
        <time>2023-05-19T13:21:45Z</time>
      </trkpt>
      <trkpt lat="49.91845" lon="2.22904">
        <ele>18.7</ele>
        <time>2023-05-19T13:21:46Z</time>
      </trkpt>
      <trkpt lat="49.91845" lon="2.22906">
        <ele>18.8</ele>
        <time>2023-05-19T13:21:47Z</time>
      </trkpt>
      <trkpt lat="49.91845" lon="2.22908">
        <ele>18.8</ele>
        <time>2023-05-19T13:21:49Z</time>
      </trkpt>
      <trkpt lat="49.91845" lon="2.22911">
        <ele>18.8</ele>
        <time>2023-05-19T13:21:50Z</time>
      </trkpt>
      <trkpt lat="49.91845" lon="2.22914">
        <ele>18.9</ele>
        <time>2023-05-19T13:21:51Z</time>
      </trkpt>
      <trkpt lat="49.91846" lon="2.22917">
        <ele>18.9</ele>
        <time>2023-05-19T13:21:52Z</time>
      </trkpt>
      <trkpt lat="49.91848" lon="2.2292">
        <ele>18.9</ele>
        <time>2023-05-19T13:21:53Z</time>
      </trkpt>
      <trkpt lat="49.91848" lon="2.22922">
        <ele>18.9</ele>
        <time>2023-05-19T13:21:54Z</time>
      </trkpt>
      <trkpt lat="49.91851" lon="2.22925">
        <ele>19</ele>
        <time>2023-05-19T13:21:56Z</time>
      </trkpt>
      <trkpt lat="49.91852" lon="2.22926">
        <ele>19</ele>
        <time>2023-05-19T13:21:57Z</time>
      </trkpt>
      <trkpt lat="49.91853" lon="2.22927">
        <ele>19</ele>
        <time>2023-05-19T13:21:58Z</time>
      </trkpt>
      <trkpt lat="49.91854" lon="2.22929">
        <ele>19</ele>
        <time>2023-05-19T13:21:59Z</time>
      </trkpt>
      <trkpt lat="49.91855" lon="2.22931">
        <ele>19.1</ele>
        <time>2023-05-19T13:22:00Z</time>
      </trkpt>
      <trkpt lat="49.91856" lon="2.22932">
        <ele>19.1</ele>
        <time>2023-05-19T13:22:02Z</time>
      </trkpt>
      <trkpt lat="49.91857" lon="2.22934">
        <ele>19.1</ele>
        <time>2023-05-19T13:22:03Z</time>
      </trkpt>
      <trkpt lat="49.91858" lon="2.22936">
        <ele>19.1</ele>
        <time>2023-05-19T13:22:04Z</time>
      </trkpt>
      <trkpt lat="49.91859" lon="2.22937">
        <ele>19.2</ele>
        <time>2023-05-19T13:22:05Z</time>
      </trkpt>
      <trkpt lat="49.91859" lon="2.22939">
        <ele>19.1</ele>
        <time>2023-05-19T13:22:06Z</time>
      </trkpt>
      <trkpt lat="49.91859" lon="2.22941">
        <ele>19.1</ele>
        <time>2023-05-19T13:22:08Z</time>
      </trkpt>
      <trkpt lat="49.91859" lon="2.22943">
        <ele>19</ele>
        <time>2023-05-19T13:22:09Z</time>
      </trkpt>
      <trkpt lat="49.91859" lon="2.22944">
        <ele>19</ele>
        <time>2023-05-19T13:22:10Z</time>
      </trkpt>
      <trkpt lat="49.91859" lon="2.22946">
        <ele>18.9</ele>
        <time>2023-05-19T13:22:11Z</time>
      </trkpt>
      <trkpt lat="49.91857" lon="2.22949">
        <ele>18.8</ele>
        <time>2023-05-19T13:22:12Z</time>
      </trkpt>
      <trkpt lat="49.91857" lon="2.22951">
        <ele>18.8</ele>
        <time>2023-05-19T13:22:13Z</time>
      </trkpt>
      <trkpt lat="49.91856" lon="2.22952">
        <ele>18.8</ele>
        <time>2023-05-19T13:22:14Z</time>
      </trkpt>
      <trkpt lat="49.91855" lon="2.22954">
        <ele>18.7</ele>
        <time>2023-05-19T13:22:16Z</time>
      </trkpt>
      <trkpt lat="49.91854" lon="2.22955">
        <ele>18.6</ele>
        <time>2023-05-19T13:22:17Z</time>
      </trkpt>
      <trkpt lat="49.91853" lon="2.22957">
        <ele>18.6</ele>
        <time>2023-05-19T13:22:18Z</time>
      </trkpt>
      <trkpt lat="49.91852" lon="2.22959">
        <ele>18.5</ele>
        <time>2023-05-19T13:22:19Z</time>
      </trkpt>
      <trkpt lat="49.9185" lon="2.2296">
        <ele>18.4</ele>
        <time>2023-05-19T13:22:20Z</time>
      </trkpt>
      <trkpt lat="49.91849" lon="2.22961">
        <ele>18.4</ele>
        <time>2023-05-19T13:22:21Z</time>
      </trkpt>
      <trkpt lat="49.91849" lon="2.22962">
        <ele>18.3</ele>
        <time>2023-05-19T13:22:22Z</time>
      </trkpt>
      <trkpt lat="49.91848" lon="2.22963">
        <ele>18.3</ele>
        <time>2023-05-19T13:22:23Z</time>
      </trkpt>
      <trkpt lat="49.91847" lon="2.22964">
        <ele>18.2</ele>
        <time>2023-05-19T13:22:25Z</time>
      </trkpt>
      <trkpt lat="49.91846" lon="2.22965">
        <ele>18.2</ele>
        <time>2023-05-19T13:22:26Z</time>
      </trkpt>
      <trkpt lat="49.91845" lon="2.22966">
        <ele>18.1</ele>
        <time>2023-05-19T13:22:27Z</time>
      </trkpt>
      <trkpt lat="49.91843" lon="2.22967">
        <ele>18.1</ele>
        <time>2023-05-19T13:22:28Z</time>
      </trkpt>
      <trkpt lat="49.91843" lon="2.22967">
        <ele>18</ele>
        <time>2023-05-19T13:22:29Z</time>
      </trkpt>
      <trkpt lat="49.91842" lon="2.22968">
        <ele>18</ele>
        <time>2023-05-19T13:22:31Z</time>
      </trkpt>
      <trkpt lat="49.91841" lon="2.22968">
        <ele>18</ele>
        <time>2023-05-19T13:22:32Z</time>
      </trkpt>
      <trkpt lat="49.9184" lon="2.22969">
        <ele>17.9</ele>
        <time>2023-05-19T13:22:33Z</time>
      </trkpt>
      <trkpt lat="49.9184" lon="2.2297">
        <ele>17.9</ele>
        <time>2023-05-19T13:22:34Z</time>
      </trkpt>
      <trkpt lat="49.91839" lon="2.22972">
        <ele>17.8</ele>
        <time>2023-05-19T13:22:35Z</time>
      </trkpt>
      <trkpt lat="49.91839" lon="2.22974">
        <ele>17.8</ele>
        <time>2023-05-19T13:22:36Z</time>
      </trkpt>
      <trkpt lat="49.91838" lon="2.22975">
        <ele>17.8</ele>
        <time>2023-05-19T13:22:37Z</time>
      </trkpt>
      <trkpt lat="49.91837" lon="2.22976">
        <ele>17.7</ele>
        <time>2023-05-19T13:22:38Z</time>
      </trkpt>
      <trkpt lat="49.91836" lon="2.22977">
        <ele>17.7</ele>
        <time>2023-05-19T13:22:39Z</time>
      </trkpt>
      <trkpt lat="49.91835" lon="2.22978">
        <ele>17.6</ele>
        <time>2023-05-19T13:22:41Z</time>
      </trkpt>
      <trkpt lat="49.91833" lon="2.2298">
        <ele>17.6</ele>
        <time>2023-05-19T13:22:42Z</time>
      </trkpt>
      <trkpt lat="49.91832" lon="2.22981">
        <ele>17.5</ele>
        <time>2023-05-19T13:22:43Z</time>
      </trkpt>
      <trkpt lat="49.91832" lon="2.22981">
        <ele>17.5</ele>
        <time>2023-05-19T13:22:44Z</time>
      </trkpt>
      <trkpt lat="49.91831" lon="2.22982">
        <ele>17.5</ele>
        <time>2023-05-19T13:22:45Z</time>
      </trkpt>
      <trkpt lat="49.9183" lon="2.22983">
        <ele>17.4</ele>
        <time>2023-05-19T13:22:46Z</time>
      </trkpt>
      <trkpt lat="49.91829" lon="2.22985">
        <ele>17.4</ele>
        <time>2023-05-19T13:22:47Z</time>
      </trkpt>
      <trkpt lat="49.9183" lon="2.22988">
        <ele>17.4</ele>
        <time>2023-05-19T13:22:48Z</time>
      </trkpt>
      <trkpt lat="49.9183" lon="2.22989">
        <ele>17.3</ele>
        <time>2023-05-19T13:22:49Z</time>
      </trkpt>
      <trkpt lat="49.91831" lon="2.22991">
        <ele>17.3</ele>
        <time>2023-05-19T13:22:50Z</time>
      </trkpt>
      <trkpt lat="49.91831" lon="2.22993">
        <ele>17.2</ele>
        <time>2023-05-19T13:22:52Z</time>
      </trkpt>
      <trkpt lat="49.91832" lon="2.22995">
        <ele>17.2</ele>
        <time>2023-05-19T13:22:53Z</time>
      </trkpt>
      <trkpt lat="49.91833" lon="2.22997">
        <ele>17.2</ele>
        <time>2023-05-19T13:22:54Z</time>
      </trkpt>
      <trkpt lat="49.91834" lon="2.22999">
        <ele>17.1</ele>
        <time>2023-05-19T13:22:55Z</time>
      </trkpt>
      <trkpt lat="49.91834" lon="2.23001">
        <ele>17.1</ele>
        <time>2023-05-19T13:22:56Z</time>
      </trkpt>
      <trkpt lat="49.91834" lon="2.23004">
        <ele>17.1</ele>
        <time>2023-05-19T13:22:57Z</time>
      </trkpt>
      <trkpt lat="49.91834" lon="2.23006">
        <ele>17</ele>
        <time>2023-05-19T13:22:59Z</time>
      </trkpt>
      <trkpt lat="49.91833" lon="2.23008">
        <ele>17</ele>
        <time>2023-05-19T13:23:00Z</time>
      </trkpt>
      <trkpt lat="49.91833" lon="2.2301">
        <ele>16.9</ele>
        <time>2023-05-19T13:23:01Z</time>
      </trkpt>
      <trkpt lat="49.91833" lon="2.23013">
        <ele>16.9</ele>
        <time>2023-05-19T13:23:02Z</time>
      </trkpt>
      <trkpt lat="49.91832" lon="2.23015">
        <ele>16.9</ele>
        <time>2023-05-19T13:23:03Z</time>
      </trkpt>
      <trkpt lat="49.91832" lon="2.23017">
        <ele>16.9</ele>
        <time>2023-05-19T13:23:04Z</time>
      </trkpt>
      <trkpt lat="49.91831" lon="2.23019">
        <ele>16.8</ele>
        <time>2023-05-19T13:23:05Z</time>
      </trkpt>
      <trkpt lat="49.9183" lon="2.23021">
        <ele>16.8</ele>
        <time>2023-05-19T13:23:07Z</time>
      </trkpt>
      <trkpt lat="49.9183" lon="2.23023">
        <ele>16.8</ele>
        <time>2023-05-19T13:23:08Z</time>
      </trkpt>
      <trkpt lat="49.91829" lon="2.23025">
        <ele>16.8</ele>
        <time>2023-05-19T13:23:09Z</time>
      </trkpt>
      <trkpt lat="49.91828" lon="2.23027">
        <ele>16.8</ele>
        <time>2023-05-19T13:23:10Z</time>
      </trkpt>
      <trkpt lat="49.91828" lon="2.23029">
        <ele>16.7</ele>
        <time>2023-05-19T13:23:11Z</time>
      </trkpt>
      <trkpt lat="49.91827" lon="2.23032">
        <ele>16.7</ele>
        <time>2023-05-19T13:23:12Z</time>
      </trkpt>
      <trkpt lat="49.91827" lon="2.23033">
        <ele>16.7</ele>
        <time>2023-05-19T13:23:13Z</time>
      </trkpt>
      <trkpt lat="49.91826" lon="2.23034">
        <ele>16.7</ele>
        <time>2023-05-19T13:23:14Z</time>
      </trkpt>
      <trkpt lat="49.91825" lon="2.23037">
        <ele>16.6</ele>
        <time>2023-05-19T13:23:15Z</time>
      </trkpt>
      <trkpt lat="49.91825" lon="2.23039">
        <ele>16.6</ele>
        <time>2023-05-19T13:23:17Z</time>
      </trkpt>
      <trkpt lat="49.91825" lon="2.2304">
        <ele>16.6</ele>
        <time>2023-05-19T13:23:18Z</time>
      </trkpt>
      <trkpt lat="49.91825" lon="2.23042">
        <ele>16.6</ele>
        <time>2023-05-19T13:23:19Z</time>
      </trkpt>
      <trkpt lat="49.91825" lon="2.23044">
        <ele>16.6</ele>
        <time>2023-05-19T13:23:20Z</time>
      </trkpt>
      <trkpt lat="49.91825" lon="2.23046">
        <ele>16.6</ele>
        <time>2023-05-19T13:23:21Z</time>
      </trkpt>
      <trkpt lat="49.91826" lon="2.23048">
        <ele>16.5</ele>
        <time>2023-05-19T13:23:22Z</time>
      </trkpt>
      <trkpt lat="49.91826" lon="2.23051">
        <ele>16.5</ele>
        <time>2023-05-19T13:23:24Z</time>
      </trkpt>
      <trkpt lat="49.91826" lon="2.23053">
        <ele>16.5</ele>
        <time>2023-05-19T13:23:25Z</time>
      </trkpt>
      <trkpt lat="49.91827" lon="2.23055">
        <ele>16.4</ele>
        <time>2023-05-19T13:23:26Z</time>
      </trkpt>
      <trkpt lat="49.91827" lon="2.23057">
        <ele>16.4</ele>
        <time>2023-05-19T13:23:27Z</time>
      </trkpt>
      <trkpt lat="49.91828" lon="2.2306">
        <ele>16.4</ele>
        <time>2023-05-19T13:23:28Z</time>
      </trkpt>
      <trkpt lat="49.91828" lon="2.23062">
        <ele>16.4</ele>
        <time>2023-05-19T13:23:29Z</time>
      </trkpt>
      <trkpt lat="49.91829" lon="2.23063">
        <ele>16.4</ele>
        <time>2023-05-19T13:23:30Z</time>
      </trkpt>
      <trkpt lat="49.91829" lon="2.23066">
        <ele>16.4</ele>
        <time>2023-05-19T13:23:32Z</time>
      </trkpt>
      <trkpt lat="49.91829" lon="2.23068">
        <ele>16.4</ele>
        <time>2023-05-19T13:23:33Z</time>
      </trkpt>
      <trkpt lat="49.91828" lon="2.23071">
        <ele>16.4</ele>
        <time>2023-05-19T13:23:34Z</time>
      </trkpt>
      <trkpt lat="49.91828" lon="2.23072">
        <ele>16.4</ele>
        <time>2023-05-19T13:23:35Z</time>
      </trkpt>
      <trkpt lat="49.91827" lon="2.23073">
        <ele>16.4</ele>
        <time>2023-05-19T13:23:36Z</time>
      </trkpt>
      <trkpt lat="49.91826" lon="2.23076">
        <ele>16.4</ele>
        <time>2023-05-19T13:23:37Z</time>
      </trkpt>
      <trkpt lat="49.91826" lon="2.23078">
        <ele>16.4</ele>
        <time>2023-05-19T13:23:38Z</time>
      </trkpt>
      <trkpt lat="49.91826" lon="2.23079">
        <ele>16.4</ele>
        <time>2023-05-19T13:23:39Z</time>
      </trkpt>
      <trkpt lat="49.91825" lon="2.23082">
        <ele>16.5</ele>
        <time>2023-05-19T13:23:40Z</time>
      </trkpt>
      <trkpt lat="49.91824" lon="2.23084">
        <ele>16.5</ele>
        <time>2023-05-19T13:23:42Z</time>
      </trkpt>
      <trkpt lat="49.91824" lon="2.23085">
        <ele>16.5</ele>
        <time>2023-05-19T13:23:43Z</time>
      </trkpt>
      <trkpt lat="49.91823" lon="2.23087">
        <ele>16.5</ele>
        <time>2023-05-19T13:23:44Z</time>
      </trkpt>
      <trkpt lat="49.91823" lon="2.23088">
        <ele>16.5</ele>
        <time>2023-05-19T13:23:45Z</time>
      </trkpt>
      <trkpt lat="49.91823" lon="2.2309">
        <ele>16.5</ele>
        <time>2023-05-19T13:23:46Z</time>
      </trkpt>
      <trkpt lat="49.91822" lon="2.23092">
        <ele>16.5</ele>
        <time>2023-05-19T13:23:47Z</time>
      </trkpt>
      <trkpt lat="49.91822" lon="2.23094">
        <ele>16.5</ele>
        <time>2023-05-19T13:23:48Z</time>
      </trkpt>
      <trkpt lat="49.91822" lon="2.23095">
        <ele>16.5</ele>
        <time>2023-05-19T13:23:49Z</time>
      </trkpt>
      <trkpt lat="49.91822" lon="2.23097">
        <ele>16.5</ele>
        <time>2023-05-19T13:23:50Z</time>
      </trkpt>
      <trkpt lat="49.91822" lon="2.23099">
        <ele>16.5</ele>
        <time>2023-05-19T13:23:51Z</time>
      </trkpt>
      <trkpt lat="49.91822" lon="2.23102">
        <ele>16.6</ele>
        <time>2023-05-19T13:23:52Z</time>
      </trkpt>
      <trkpt lat="49.91822" lon="2.23103">
        <ele>16.6</ele>
        <time>2023-05-19T13:23:54Z</time>
      </trkpt>
      <trkpt lat="49.91822" lon="2.23105">
        <ele>16.6</ele>
        <time>2023-05-19T13:23:55Z</time>
      </trkpt>
      <trkpt lat="49.91821" lon="2.23107">
        <ele>16.6</ele>
        <time>2023-05-19T13:23:56Z</time>
      </trkpt>
      <trkpt lat="49.91821" lon="2.23109">
        <ele>16.6</ele>
        <time>2023-05-19T13:23:57Z</time>
      </trkpt>
      <trkpt lat="49.9182" lon="2.23112">
        <ele>16.6</ele>
        <time>2023-05-19T13:23:58Z</time>
      </trkpt>
      <trkpt lat="49.9182" lon="2.23114">
        <ele>16.6</ele>
        <time>2023-05-19T13:24:00Z</time>
      </trkpt>
      <trkpt lat="49.91819" lon="2.23116">
        <ele>16.6</ele>
        <time>2023-05-19T13:24:01Z</time>
      </trkpt>
      <trkpt lat="49.91819" lon="2.23117">
        <ele>16.6</ele>
        <time>2023-05-19T13:24:03Z</time>
      </trkpt>
      <trkpt lat="49.91819" lon="2.23119">
        <ele>16.6</ele>
        <time>2023-05-19T13:24:04Z</time>
      </trkpt>
      <trkpt lat="49.91819" lon="2.2312">
        <ele>16.6</ele>
        <time>2023-05-19T13:24:05Z</time>
      </trkpt>
      <trkpt lat="49.91818" lon="2.23122">
        <ele>16.6</ele>
        <time>2023-05-19T13:24:06Z</time>
      </trkpt>
      <trkpt lat="49.91818" lon="2.23124">
        <ele>16.6</ele>
        <time>2023-05-19T13:24:07Z</time>
      </trkpt>
      <trkpt lat="49.91818" lon="2.23126">
        <ele>16.6</ele>
        <time>2023-05-19T13:24:09Z</time>
      </trkpt>
      <trkpt lat="49.91817" lon="2.23128">
        <ele>16.6</ele>
        <time>2023-05-19T13:24:10Z</time>
      </trkpt>
      <trkpt lat="49.91817" lon="2.23129">
        <ele>16.6</ele>
        <time>2023-05-19T13:24:11Z</time>
      </trkpt>
      <trkpt lat="49.91817" lon="2.23132">
        <ele>16.6</ele>
        <time>2023-05-19T13:24:12Z</time>
      </trkpt>
      <trkpt lat="49.91817" lon="2.23133">
        <ele>16.6</ele>
        <time>2023-05-19T13:24:13Z</time>
      </trkpt>
      <trkpt lat="49.91816" lon="2.23135">
        <ele>16.6</ele>
        <time>2023-05-19T13:24:14Z</time>
      </trkpt>
      <trkpt lat="49.91816" lon="2.23137">
        <ele>16.6</ele>
        <time>2023-05-19T13:24:16Z</time>
      </trkpt>
      <trkpt lat="49.91816" lon="2.23139">
        <ele>16.6</ele>
        <time>2023-05-19T13:24:17Z</time>
      </trkpt>
      <trkpt lat="49.91815" lon="2.23141">
        <ele>16.7</ele>
        <time>2023-05-19T13:24:18Z</time>
      </trkpt>
      <trkpt lat="49.91815" lon="2.23144">
        <ele>16.7</ele>
        <time>2023-05-19T13:24:19Z</time>
      </trkpt>
      <trkpt lat="49.91814" lon="2.23146">
        <ele>16.7</ele>
        <time>2023-05-19T13:24:20Z</time>
      </trkpt>
      <trkpt lat="49.91814" lon="2.23147">
        <ele>16.7</ele>
        <time>2023-05-19T13:24:21Z</time>
      </trkpt>
      <trkpt lat="49.91814" lon="2.23148">
        <ele>16.7</ele>
        <time>2023-05-19T13:24:22Z</time>
      </trkpt>
      <trkpt lat="49.91813" lon="2.2315">
        <ele>16.7</ele>
        <time>2023-05-19T13:24:23Z</time>
      </trkpt>
      <trkpt lat="49.91811" lon="2.23153">
        <ele>16.7</ele>
        <time>2023-05-19T13:24:25Z</time>
      </trkpt>
      <trkpt lat="49.91811" lon="2.23155">
        <ele>16.7</ele>
        <time>2023-05-19T13:24:26Z</time>
      </trkpt>
      <trkpt lat="49.9181" lon="2.23157">
        <ele>16.7</ele>
        <time>2023-05-19T13:24:27Z</time>
      </trkpt>
      <trkpt lat="49.91809" lon="2.23159">
        <ele>16.7</ele>
        <time>2023-05-19T13:24:28Z</time>
      </trkpt>
      <trkpt lat="49.91809" lon="2.23161">
        <ele>16.7</ele>
        <time>2023-05-19T13:24:29Z</time>
      </trkpt>
      <trkpt lat="49.91808" lon="2.23164">
        <ele>16.7</ele>
        <time>2023-05-19T13:24:30Z</time>
      </trkpt>
      <trkpt lat="49.91808" lon="2.23165">
        <ele>16.7</ele>
        <time>2023-05-19T13:24:31Z</time>
      </trkpt>
      <trkpt lat="49.91808" lon="2.23166">
        <ele>16.7</ele>
        <time>2023-05-19T13:24:32Z</time>
      </trkpt>
      <trkpt lat="49.91808" lon="2.23168">
        <ele>16.7</ele>
        <time>2023-05-19T13:24:33Z</time>
      </trkpt>
      <trkpt lat="49.91807" lon="2.2317">
        <ele>16.7</ele>
        <time>2023-05-19T13:24:34Z</time>
      </trkpt>
      <trkpt lat="49.91807" lon="2.23171">
        <ele>16.7</ele>
        <time>2023-05-19T13:24:36Z</time>
      </trkpt>
      <trkpt lat="49.91806" lon="2.23173">
        <ele>16.7</ele>
        <time>2023-05-19T13:24:37Z</time>
      </trkpt>
      <trkpt lat="49.91805" lon="2.23175">
        <ele>16.7</ele>
        <time>2023-05-19T13:24:38Z</time>
      </trkpt>
      <trkpt lat="49.91803" lon="2.23176">
        <ele>16.7</ele>
        <time>2023-05-19T13:24:39Z</time>
      </trkpt>
      <trkpt lat="49.91802" lon="2.23178">
        <ele>16.7</ele>
        <time>2023-05-19T13:24:40Z</time>
      </trkpt>
      <trkpt lat="49.91801" lon="2.23179">
        <ele>16.7</ele>
        <time>2023-05-19T13:24:42Z</time>
      </trkpt>
      <trkpt lat="49.91799" lon="2.23181">
        <ele>16.7</ele>
        <time>2023-05-19T13:24:43Z</time>
      </trkpt>
      <trkpt lat="49.91798" lon="2.23182">
        <ele>16.7</ele>
        <time>2023-05-19T13:24:44Z</time>
      </trkpt>
      <trkpt lat="49.91798" lon="2.23184">
        <ele>16.8</ele>
        <time>2023-05-19T13:24:45Z</time>
      </trkpt>
      <trkpt lat="49.91797" lon="2.23186">
        <ele>16.8</ele>
        <time>2023-05-19T13:24:46Z</time>
      </trkpt>
      <trkpt lat="49.91796" lon="2.23187">
        <ele>16.8</ele>
        <time>2023-05-19T13:24:47Z</time>
      </trkpt>
      <trkpt lat="49.91796" lon="2.23189">
        <ele>16.8</ele>
        <time>2023-05-19T13:24:48Z</time>
      </trkpt>
      <trkpt lat="49.91796" lon="2.2319">
        <ele>16.8</ele>
        <time>2023-05-19T13:24:49Z</time>
      </trkpt>
      <trkpt lat="49.91796" lon="2.23192">
        <ele>16.8</ele>
        <time>2023-05-19T13:24:51Z</time>
      </trkpt>
      <trkpt lat="49.91797" lon="2.23194">
        <ele>16.8</ele>
        <time>2023-05-19T13:24:52Z</time>
      </trkpt>
      <trkpt lat="49.91798" lon="2.23195">
        <ele>16.8</ele>
        <time>2023-05-19T13:24:53Z</time>
      </trkpt>
      <trkpt lat="49.91799" lon="2.23196">
        <ele>16.8</ele>
        <time>2023-05-19T13:24:54Z</time>
      </trkpt>
      <trkpt lat="49.918" lon="2.23196">
        <ele>16.8</ele>
        <time>2023-05-19T13:24:56Z</time>
      </trkpt>
      <trkpt lat="49.91801" lon="2.23196">
        <ele>16.8</ele>
        <time>2023-05-19T13:24:57Z</time>
      </trkpt>
      <trkpt lat="49.91801" lon="2.23196">
        <ele>16.8</ele>
        <time>2023-05-19T13:24:59Z</time>
      </trkpt>
      <trkpt lat="49.91801" lon="2.23196">
        <ele>16.8</ele>
        <time>2023-05-19T13:25:00Z</time>
      </trkpt>
      <trkpt lat="49.91801" lon="2.23196">
        <ele>16.8</ele>
        <time>2023-05-19T13:25:02Z</time>
      </trkpt>
      <trkpt lat="49.91801" lon="2.23196">
        <ele>16.8</ele>
        <time>2023-05-19T13:25:03Z</time>
      </trkpt>
      <trkpt lat="49.918" lon="2.23197">
        <ele>16.8</ele>
        <time>2023-05-19T13:25:04Z</time>
      </trkpt>
      <trkpt lat="49.918" lon="2.23197">
        <ele>16.8</ele>
        <time>2023-05-19T13:25:05Z</time>
      </trkpt>
      <trkpt lat="49.918" lon="2.23197">
        <ele>16.8</ele>
        <time>2023-05-19T13:25:07Z</time>
      </trkpt>
      <trkpt lat="49.91799" lon="2.23198">
        <ele>16.8</ele>
        <time>2023-05-19T13:25:08Z</time>
      </trkpt>
      <trkpt lat="49.91799" lon="2.23198">
        <ele>16.8</ele>
        <time>2023-05-19T13:25:09Z</time>
      </trkpt>
      <trkpt lat="49.91799" lon="2.23198">
        <ele>16.8</ele>
        <time>2023-05-19T13:25:10Z</time>
      </trkpt>
      <trkpt lat="49.91798" lon="2.23199">
        <ele>16.8</ele>
        <time>2023-05-19T13:25:11Z</time>
      </trkpt>
      <trkpt lat="49.91797" lon="2.232">
        <ele>16.8</ele>
        <time>2023-05-19T13:25:12Z</time>
      </trkpt>
      <trkpt lat="49.91794" lon="2.23202">
        <ele>16.8</ele>
        <time>2023-05-19T13:25:14Z</time>
      </trkpt>
      <trkpt lat="49.91793" lon="2.23203">
        <ele>16.8</ele>
        <time>2023-05-19T13:25:15Z</time>
      </trkpt>
      <trkpt lat="49.91791" lon="2.23203">
        <ele>16.8</ele>
        <time>2023-05-19T13:25:16Z</time>
      </trkpt>
      <trkpt lat="49.9179" lon="2.23205">
        <ele>16.8</ele>
        <time>2023-05-19T13:25:17Z</time>
      </trkpt>
      <trkpt lat="49.91789" lon="2.23206">
        <ele>16.8</ele>
        <time>2023-05-19T13:25:18Z</time>
      </trkpt>
      <trkpt lat="49.91788" lon="2.23207">
        <ele>16.8</ele>
        <time>2023-05-19T13:25:19Z</time>
      </trkpt>
      <trkpt lat="49.91787" lon="2.23209">
        <ele>16.8</ele>
        <time>2023-05-19T13:25:21Z</time>
      </trkpt>
      <trkpt lat="49.91787" lon="2.2321">
        <ele>16.8</ele>
        <time>2023-05-19T13:25:22Z</time>
      </trkpt>
      <trkpt lat="49.91787" lon="2.23212">
        <ele>16.8</ele>
        <time>2023-05-19T13:25:23Z</time>
      </trkpt>
      <trkpt lat="49.91787" lon="2.23214">
        <ele>16.8</ele>
        <time>2023-05-19T13:25:24Z</time>
      </trkpt>
      <trkpt lat="49.91786" lon="2.23216">
        <ele>16.8</ele>
        <time>2023-05-19T13:25:25Z</time>
      </trkpt>
      <trkpt lat="49.91786" lon="2.23217">
        <ele>16.8</ele>
        <time>2023-05-19T13:25:26Z</time>
      </trkpt>
      <trkpt lat="49.91786" lon="2.23218">
        <ele>16.8</ele>
        <time>2023-05-19T13:25:28Z</time>
      </trkpt>
      <trkpt lat="49.91786" lon="2.23218">
        <ele>16.8</ele>
        <time>2023-05-19T13:25:29Z</time>
      </trkpt>
      <trkpt lat="49.91787" lon="2.23219">
        <ele>16.8</ele>
        <time>2023-05-19T13:25:31Z</time>
      </trkpt>
      <trkpt lat="49.91787" lon="2.2322">
        <ele>16.8</ele>
        <time>2023-05-19T13:25:32Z</time>
      </trkpt>
      <trkpt lat="49.91787" lon="2.23221">
        <ele>16.8</ele>
        <time>2023-05-19T13:25:34Z</time>
      </trkpt>
      <trkpt lat="49.91787" lon="2.23221">
        <ele>16.8</ele>
        <time>2023-05-19T13:25:35Z</time>
      </trkpt>
      <trkpt lat="49.91787" lon="2.23222">
        <ele>16.8</ele>
        <time>2023-05-19T13:25:36Z</time>
      </trkpt>
      <trkpt lat="49.91787" lon="2.23223">
        <ele>16.8</ele>
        <time>2023-05-19T13:25:38Z</time>
      </trkpt>
      <trkpt lat="49.91787" lon="2.23223">
        <ele>16.8</ele>
        <time>2023-05-19T13:25:40Z</time>
      </trkpt>
      <trkpt lat="49.91787" lon="2.23224">
        <ele>16.8</ele>
        <time>2023-05-19T13:25:47Z</time>
      </trkpt>
      <trkpt lat="49.91787" lon="2.23225">
        <ele>16.8</ele>
        <time>2023-05-19T13:25:48Z</time>
      </trkpt>
      <trkpt lat="49.91787" lon="2.23226">
        <ele>16.8</ele>
        <time>2023-05-19T13:25:49Z</time>
      </trkpt>
      <trkpt lat="49.91787" lon="2.23226">
        <ele>16.9</ele>
        <time>2023-05-19T13:25:50Z</time>
      </trkpt>
      <trkpt lat="49.91788" lon="2.23229">
        <ele>16.9</ele>
        <time>2023-05-19T13:25:51Z</time>
      </trkpt>
      <trkpt lat="49.91788" lon="2.23231">
        <ele>16.9</ele>
        <time>2023-05-19T13:25:52Z</time>
      </trkpt>
      <trkpt lat="49.91789" lon="2.23232">
        <ele>16.9</ele>
        <time>2023-05-19T13:25:54Z</time>
      </trkpt>
      <trkpt lat="49.91789" lon="2.23233">
        <ele>16.9</ele>
        <time>2023-05-19T13:25:55Z</time>
      </trkpt>
      <trkpt lat="49.91789" lon="2.23236">
        <ele>16.9</ele>
        <time>2023-05-19T13:25:57Z</time>
      </trkpt>
      <trkpt lat="49.91788" lon="2.23238">
        <ele>16.9</ele>
        <time>2023-05-19T13:25:58Z</time>
      </trkpt>
      <trkpt lat="49.91787" lon="2.23239">
        <ele>16.9</ele>
        <time>2023-05-19T13:25:59Z</time>
      </trkpt>
      <trkpt lat="49.91785" lon="2.23241">
        <ele>16.9</ele>
        <time>2023-05-19T13:26:00Z</time>
      </trkpt>
      <trkpt lat="49.91784" lon="2.23242">
        <ele>16.9</ele>
        <time>2023-05-19T13:26:02Z</time>
      </trkpt>
      <trkpt lat="49.91783" lon="2.23243">
        <ele>16.9</ele>
        <time>2023-05-19T13:26:03Z</time>
      </trkpt>
      <trkpt lat="49.91783" lon="2.23244">
        <ele>16.9</ele>
        <time>2023-05-19T13:26:05Z</time>
      </trkpt>
      <trkpt lat="49.91782" lon="2.23245">
        <ele>16.9</ele>
        <time>2023-05-19T13:26:06Z</time>
      </trkpt>
      <trkpt lat="49.91782" lon="2.23247">
        <ele>16.9</ele>
        <time>2023-05-19T13:26:07Z</time>
      </trkpt>
      <trkpt lat="49.91782" lon="2.23249">
        <ele>16.9</ele>
        <time>2023-05-19T13:26:08Z</time>
      </trkpt>
      <trkpt lat="49.91782" lon="2.23252">
        <ele>16.9</ele>
        <time>2023-05-19T13:26:10Z</time>
      </trkpt>
      <trkpt lat="49.91782" lon="2.23254">
        <ele>16.9</ele>
        <time>2023-05-19T13:26:11Z</time>
      </trkpt>
      <trkpt lat="49.91782" lon="2.23255">
        <ele>16.9</ele>
        <time>2023-05-19T13:26:12Z</time>
      </trkpt>
      <trkpt lat="49.91782" lon="2.23255">
        <ele>16.9</ele>
        <time>2023-05-19T13:26:13Z</time>
      </trkpt>
      <trkpt lat="49.91782" lon="2.23255">
        <ele>16.9</ele>
        <time>2023-05-19T13:26:14Z</time>
      </trkpt>
      <trkpt lat="49.9178" lon="2.23257">
        <ele>16.9</ele>
        <time>2023-05-19T13:26:16Z</time>
      </trkpt>
      <trkpt lat="49.91779" lon="2.23257">
        <ele>16.9</ele>
        <time>2023-05-19T13:26:17Z</time>
      </trkpt>
      <trkpt lat="49.91778" lon="2.23258">
        <ele>17</ele>
        <time>2023-05-19T13:26:18Z</time>
      </trkpt>
      <trkpt lat="49.91777" lon="2.23258">
        <ele>17</ele>
        <time>2023-05-19T13:26:20Z</time>
      </trkpt>
      <trkpt lat="49.91775" lon="2.23259">
        <ele>17</ele>
        <time>2023-05-19T13:26:21Z</time>
      </trkpt>
      <trkpt lat="49.91774" lon="2.2326">
        <ele>17</ele>
        <time>2023-05-19T13:26:22Z</time>
      </trkpt>
      <trkpt lat="49.91775" lon="2.23265">
        <ele>17</ele>
        <time>2023-05-19T13:26:23Z</time>
      </trkpt>
      <trkpt lat="49.91775" lon="2.23269">
        <ele>17</ele>
        <time>2023-05-19T13:26:24Z</time>
      </trkpt>
      <trkpt lat="49.91776" lon="2.23272">
        <ele>17</ele>
        <time>2023-05-19T13:26:25Z</time>
      </trkpt>
      <trkpt lat="49.91778" lon="2.23276">
        <ele>17</ele>
        <time>2023-05-19T13:26:27Z</time>
      </trkpt>
      <trkpt lat="49.91779" lon="2.23278">
        <ele>17</ele>
        <time>2023-05-19T13:26:28Z</time>
      </trkpt>
      <trkpt lat="49.91779" lon="2.2328">
        <ele>17</ele>
        <time>2023-05-19T13:26:29Z</time>
      </trkpt>
      <trkpt lat="49.9178" lon="2.23282">
        <ele>17</ele>
        <time>2023-05-19T13:26:30Z</time>
      </trkpt>
      <trkpt lat="49.9178" lon="2.23284">
        <ele>17</ele>
        <time>2023-05-19T13:26:31Z</time>
      </trkpt>
      <trkpt lat="49.91781" lon="2.23285">
        <ele>17</ele>
        <time>2023-05-19T13:26:32Z</time>
      </trkpt>
      <trkpt lat="49.91782" lon="2.23286">
        <ele>17</ele>
        <time>2023-05-19T13:26:33Z</time>
      </trkpt>
      <trkpt lat="49.91783" lon="2.23287">
        <ele>17</ele>
        <time>2023-05-19T13:26:34Z</time>
      </trkpt>
      <trkpt lat="49.91784" lon="2.23288">
        <ele>17</ele>
        <time>2023-05-19T13:26:36Z</time>
      </trkpt>
      <trkpt lat="49.91786" lon="2.23291">
        <ele>17</ele>
        <time>2023-05-19T13:26:37Z</time>
      </trkpt>
      <trkpt lat="49.91786" lon="2.23291">
        <ele>17</ele>
        <time>2023-05-19T13:26:38Z</time>
      </trkpt>
      <trkpt lat="49.91787" lon="2.23292">
        <ele>17</ele>
        <time>2023-05-19T13:26:39Z</time>
      </trkpt>
      <trkpt lat="49.91787" lon="2.23294">
        <ele>17</ele>
        <time>2023-05-19T13:26:40Z</time>
      </trkpt>
      <trkpt lat="49.91788" lon="2.23295">
        <ele>17</ele>
        <time>2023-05-19T13:26:41Z</time>
      </trkpt>
      <trkpt lat="49.91788" lon="2.23297">
        <ele>17</ele>
        <time>2023-05-19T13:26:42Z</time>
      </trkpt>
      <trkpt lat="49.91788" lon="2.23298">
        <ele>17</ele>
        <time>2023-05-19T13:26:43Z</time>
      </trkpt>
      <trkpt lat="49.91789" lon="2.23301">
        <ele>17</ele>
        <time>2023-05-19T13:26:44Z</time>
      </trkpt>
      <trkpt lat="49.91789" lon="2.23305">
        <ele>17</ele>
        <time>2023-05-19T13:26:45Z</time>
      </trkpt>
      <trkpt lat="49.91789" lon="2.23306">
        <ele>17</ele>
        <time>2023-05-19T13:26:47Z</time>
      </trkpt>
      <trkpt lat="49.9179" lon="2.23308">
        <ele>17</ele>
        <time>2023-05-19T13:26:48Z</time>
      </trkpt>
      <trkpt lat="49.9179" lon="2.2331">
        <ele>17</ele>
        <time>2023-05-19T13:26:49Z</time>
      </trkpt>
      <trkpt lat="49.9179" lon="2.23312">
        <ele>17</ele>
        <time>2023-05-19T13:26:50Z</time>
      </trkpt>
      <trkpt lat="49.91791" lon="2.23315">
        <ele>17</ele>
        <time>2023-05-19T13:26:51Z</time>
      </trkpt>
      <trkpt lat="49.91791" lon="2.23317">
        <ele>17</ele>
        <time>2023-05-19T13:26:52Z</time>
      </trkpt>
      <trkpt lat="49.91791" lon="2.23318">
        <ele>17</ele>
        <time>2023-05-19T13:26:53Z</time>
      </trkpt>
      <trkpt lat="49.91791" lon="2.23322">
        <ele>17</ele>
        <time>2023-05-19T13:26:55Z</time>
      </trkpt>
      <trkpt lat="49.91791" lon="2.23324">
        <ele>17</ele>
        <time>2023-05-19T13:26:56Z</time>
      </trkpt>
      <trkpt lat="49.91791" lon="2.23326">
        <ele>17</ele>
        <time>2023-05-19T13:26:57Z</time>
      </trkpt>
      <trkpt lat="49.91791" lon="2.23328">
        <ele>17</ele>
        <time>2023-05-19T13:26:58Z</time>
      </trkpt>
      <trkpt lat="49.91792" lon="2.23333">
        <ele>17</ele>
        <time>2023-05-19T13:27:00Z</time>
      </trkpt>
      <trkpt lat="49.91792" lon="2.23334">
        <ele>17</ele>
        <time>2023-05-19T13:27:01Z</time>
      </trkpt>
      <trkpt lat="49.91792" lon="2.23336">
        <ele>17</ele>
        <time>2023-05-19T13:27:02Z</time>
      </trkpt>
      <trkpt lat="49.91792" lon="2.23338">
        <ele>17</ele>
        <time>2023-05-19T13:27:03Z</time>
      </trkpt>
      <trkpt lat="49.91792" lon="2.23341">
        <ele>17</ele>
        <time>2023-05-19T13:27:04Z</time>
      </trkpt>
      <trkpt lat="49.91793" lon="2.23343">
        <ele>17</ele>
        <time>2023-05-19T13:27:05Z</time>
      </trkpt>
      <trkpt lat="49.91793" lon="2.23346">
        <ele>16.9</ele>
        <time>2023-05-19T13:27:07Z</time>
      </trkpt>
      <trkpt lat="49.91793" lon="2.23349">
        <ele>16.9</ele>
        <time>2023-05-19T13:27:08Z</time>
      </trkpt>
      <trkpt lat="49.91793" lon="2.23352">
        <ele>16.9</ele>
        <time>2023-05-19T13:27:09Z</time>
      </trkpt>
      <trkpt lat="49.91793" lon="2.23354">
        <ele>16.9</ele>
        <time>2023-05-19T13:27:10Z</time>
      </trkpt>
      <trkpt lat="49.91793" lon="2.23355">
        <ele>16.9</ele>
        <time>2023-05-19T13:27:11Z</time>
      </trkpt>
      <trkpt lat="49.91793" lon="2.23357">
        <ele>16.9</ele>
        <time>2023-05-19T13:27:12Z</time>
      </trkpt>
      <trkpt lat="49.91793" lon="2.23359">
        <ele>16.9</ele>
        <time>2023-05-19T13:27:13Z</time>
      </trkpt>
      <trkpt lat="49.91793" lon="2.23362">
        <ele>16.9</ele>
        <time>2023-05-19T13:27:15Z</time>
      </trkpt>
      <trkpt lat="49.91793" lon="2.23365">
        <ele>16.9</ele>
        <time>2023-05-19T13:27:16Z</time>
      </trkpt>
      <trkpt lat="49.91793" lon="2.23367">
        <ele>16.9</ele>
        <time>2023-05-19T13:27:17Z</time>
      </trkpt>
      <trkpt lat="49.91793" lon="2.23368">
        <ele>16.9</ele>
        <time>2023-05-19T13:27:18Z</time>
      </trkpt>
      <trkpt lat="49.91792" lon="2.23371">
        <ele>16.9</ele>
        <time>2023-05-19T13:27:20Z</time>
      </trkpt>
      <trkpt lat="49.91792" lon="2.23373">
        <ele>16.9</ele>
        <time>2023-05-19T13:27:21Z</time>
      </trkpt>
      <trkpt lat="49.91792" lon="2.23376">
        <ele>17</ele>
        <time>2023-05-19T13:27:22Z</time>
      </trkpt>
      <trkpt lat="49.91792" lon="2.23378">
        <ele>17</ele>
        <time>2023-05-19T13:27:23Z</time>
      </trkpt>
      <trkpt lat="49.91792" lon="2.2338">
        <ele>17</ele>
        <time>2023-05-19T13:27:24Z</time>
      </trkpt>
      <trkpt lat="49.91792" lon="2.23384">
        <ele>17</ele>
        <time>2023-05-19T13:27:26Z</time>
      </trkpt>
      <trkpt lat="49.91792" lon="2.23386">
        <ele>17</ele>
        <time>2023-05-19T13:27:27Z</time>
      </trkpt>
      <trkpt lat="49.91793" lon="2.23389">
        <ele>17</ele>
        <time>2023-05-19T13:27:28Z</time>
      </trkpt>
      <trkpt lat="49.91793" lon="2.23391">
        <ele>17</ele>
        <time>2023-05-19T13:27:30Z</time>
      </trkpt>
      <trkpt lat="49.91793" lon="2.23394">
        <ele>17</ele>
        <time>2023-05-19T13:27:31Z</time>
      </trkpt>
      <trkpt lat="49.91793" lon="2.23396">
        <ele>17</ele>
        <time>2023-05-19T13:27:32Z</time>
      </trkpt>
      <trkpt lat="49.91793" lon="2.23398">
        <ele>17</ele>
        <time>2023-05-19T13:27:33Z</time>
      </trkpt>
      <trkpt lat="49.91793" lon="2.23402">
        <ele>17</ele>
        <time>2023-05-19T13:27:34Z</time>
      </trkpt>
      <trkpt lat="49.91793" lon="2.23403">
        <ele>17</ele>
        <time>2023-05-19T13:27:35Z</time>
      </trkpt>
      <trkpt lat="49.91793" lon="2.23404">
        <ele>17</ele>
        <time>2023-05-19T13:27:36Z</time>
      </trkpt>
      <trkpt lat="49.91794" lon="2.23409">
        <ele>17</ele>
        <time>2023-05-19T13:27:37Z</time>
      </trkpt>
      <trkpt lat="49.91794" lon="2.2341">
        <ele>17</ele>
        <time>2023-05-19T13:27:39Z</time>
      </trkpt>
      <trkpt lat="49.91795" lon="2.23412">
        <ele>17</ele>
        <time>2023-05-19T13:27:41Z</time>
      </trkpt>
      <trkpt lat="49.91795" lon="2.23414">
        <ele>17</ele>
        <time>2023-05-19T13:27:42Z</time>
      </trkpt>
      <trkpt lat="49.91796" lon="2.23414">
        <ele>17</ele>
        <time>2023-05-19T13:27:43Z</time>
      </trkpt>
      <trkpt lat="49.91796" lon="2.23415">
        <ele>17</ele>
        <time>2023-05-19T13:27:44Z</time>
      </trkpt>
      <trkpt lat="49.91797" lon="2.23415">
        <ele>17</ele>
        <time>2023-05-19T13:27:46Z</time>
      </trkpt>
      <trkpt lat="49.91797" lon="2.23415">
        <ele>17</ele>
        <time>2023-05-19T13:27:47Z</time>
      </trkpt>
      <trkpt lat="49.91798" lon="2.23415">
        <ele>17</ele>
        <time>2023-05-19T13:27:48Z</time>
      </trkpt>
      <trkpt lat="49.91798" lon="2.23416">
        <ele>17</ele>
        <time>2023-05-19T13:27:49Z</time>
      </trkpt>
      <trkpt lat="49.91798" lon="2.23418">
        <ele>17</ele>
        <time>2023-05-19T13:27:51Z</time>
      </trkpt>
      <trkpt lat="49.91798" lon="2.23419">
        <ele>17</ele>
        <time>2023-05-19T13:27:52Z</time>
      </trkpt>
      <trkpt lat="49.91798" lon="2.23421">
        <ele>17</ele>
        <time>2023-05-19T13:27:53Z</time>
      </trkpt>
      <trkpt lat="49.91798" lon="2.23423">
        <ele>17</ele>
        <time>2023-05-19T13:27:54Z</time>
      </trkpt>
      <trkpt lat="49.91798" lon="2.23425">
        <ele>17</ele>
        <time>2023-05-19T13:27:55Z</time>
      </trkpt>
      <trkpt lat="49.91797" lon="2.23427">
        <ele>17</ele>
        <time>2023-05-19T13:27:56Z</time>
      </trkpt>
      <trkpt lat="49.91797" lon="2.23431">
        <ele>17</ele>
        <time>2023-05-19T13:27:58Z</time>
      </trkpt>
      <trkpt lat="49.91797" lon="2.23432">
        <ele>17</ele>
        <time>2023-05-19T13:27:59Z</time>
      </trkpt>
      <trkpt lat="49.91796" lon="2.23435">
        <ele>17</ele>
        <time>2023-05-19T13:28:00Z</time>
      </trkpt>
      <trkpt lat="49.91795" lon="2.23438">
        <ele>17</ele>
        <time>2023-05-19T13:28:02Z</time>
      </trkpt>
      <trkpt lat="49.91795" lon="2.2344">
        <ele>17</ele>
        <time>2023-05-19T13:28:03Z</time>
      </trkpt>
      <trkpt lat="49.91794" lon="2.23443">
        <ele>17</ele>
        <time>2023-05-19T13:28:04Z</time>
      </trkpt>
      <trkpt lat="49.91793" lon="2.23445">
        <ele>17</ele>
        <time>2023-05-19T13:28:05Z</time>
      </trkpt>
      <trkpt lat="49.91792" lon="2.23448">
        <ele>17</ele>
        <time>2023-05-19T13:28:07Z</time>
      </trkpt>
      <trkpt lat="49.91792" lon="2.2345">
        <ele>17</ele>
        <time>2023-05-19T13:28:08Z</time>
      </trkpt>
      <trkpt lat="49.91791" lon="2.23453">
        <ele>17</ele>
        <time>2023-05-19T13:28:09Z</time>
      </trkpt>
      <trkpt lat="49.9179" lon="2.23455">
        <ele>17</ele>
        <time>2023-05-19T13:28:10Z</time>
      </trkpt>
      <trkpt lat="49.91789" lon="2.23457">
        <ele>17</ele>
        <time>2023-05-19T13:28:11Z</time>
      </trkpt>
      <trkpt lat="49.91789" lon="2.23458">
        <ele>17</ele>
        <time>2023-05-19T13:28:12Z</time>
      </trkpt>
      <trkpt lat="49.91788" lon="2.2346">
        <ele>17</ele>
        <time>2023-05-19T13:28:13Z</time>
      </trkpt>
      <trkpt lat="49.91787" lon="2.23463">
        <ele>17</ele>
        <time>2023-05-19T13:28:14Z</time>
      </trkpt>
      <trkpt lat="49.91787" lon="2.23464">
        <ele>17</ele>
        <time>2023-05-19T13:28:15Z</time>
      </trkpt>
      <trkpt lat="49.91786" lon="2.23466">
        <ele>17</ele>
        <time>2023-05-19T13:28:16Z</time>
      </trkpt>
      <trkpt lat="49.91786" lon="2.23467">
        <ele>17</ele>
        <time>2023-05-19T13:28:17Z</time>
      </trkpt>
      <trkpt lat="49.91785" lon="2.23469">
        <ele>17</ele>
        <time>2023-05-19T13:28:18Z</time>
      </trkpt>
      <trkpt lat="49.91785" lon="2.23471">
        <ele>17</ele>
        <time>2023-05-19T13:28:20Z</time>
      </trkpt>
      <trkpt lat="49.91784" lon="2.23473">
        <ele>17</ele>
        <time>2023-05-19T13:28:21Z</time>
      </trkpt>
      <trkpt lat="49.91784" lon="2.23474">
        <ele>17</ele>
        <time>2023-05-19T13:28:22Z</time>
      </trkpt>
      <trkpt lat="49.91784" lon="2.23476">
        <ele>17</ele>
        <time>2023-05-19T13:28:23Z</time>
      </trkpt>
      <trkpt lat="49.91783" lon="2.23478">
        <ele>17</ele>
        <time>2023-05-19T13:28:24Z</time>
      </trkpt>
      <trkpt lat="49.91783" lon="2.2348">
        <ele>17</ele>
        <time>2023-05-19T13:28:25Z</time>
      </trkpt>
      <trkpt lat="49.91783" lon="2.23482">
        <ele>17</ele>
        <time>2023-05-19T13:28:27Z</time>
      </trkpt>
      <trkpt lat="49.91782" lon="2.23484">
        <ele>17</ele>
        <time>2023-05-19T13:28:28Z</time>
      </trkpt>
      <trkpt lat="49.91782" lon="2.23486">
        <ele>17</ele>
        <time>2023-05-19T13:28:29Z</time>
      </trkpt>
      <trkpt lat="49.91782" lon="2.23488">
        <ele>17.1</ele>
        <time>2023-05-19T13:28:30Z</time>
      </trkpt>
      <trkpt lat="49.91782" lon="2.23491">
        <ele>17.1</ele>
        <time>2023-05-19T13:28:31Z</time>
      </trkpt>
      <trkpt lat="49.91782" lon="2.23492">
        <ele>17.1</ele>
        <time>2023-05-19T13:28:32Z</time>
      </trkpt>
      <trkpt lat="49.91782" lon="2.23493">
        <ele>17.1</ele>
        <time>2023-05-19T13:28:33Z</time>
      </trkpt>
      <trkpt lat="49.91782" lon="2.23495">
        <ele>17.1</ele>
        <time>2023-05-19T13:28:34Z</time>
      </trkpt>
      <trkpt lat="49.91783" lon="2.23497">
        <ele>17.1</ele>
        <time>2023-05-19T13:28:35Z</time>
      </trkpt>
      <trkpt lat="49.91783" lon="2.23498">
        <ele>17.1</ele>
        <time>2023-05-19T13:28:36Z</time>
      </trkpt>
      <trkpt lat="49.91783" lon="2.235">
        <ele>17.1</ele>
        <time>2023-05-19T13:28:37Z</time>
      </trkpt>
      <trkpt lat="49.91783" lon="2.23501">
        <ele>17.1</ele>
        <time>2023-05-19T13:28:38Z</time>
      </trkpt>
      <trkpt lat="49.91783" lon="2.23503">
        <ele>17.1</ele>
        <time>2023-05-19T13:28:39Z</time>
      </trkpt>
      <trkpt lat="49.91783" lon="2.23505">
        <ele>17.1</ele>
        <time>2023-05-19T13:28:41Z</time>
      </trkpt>
      <trkpt lat="49.91783" lon="2.23506">
        <ele>17.1</ele>
        <time>2023-05-19T13:28:42Z</time>
      </trkpt>
      <trkpt lat="49.91784" lon="2.23507">
        <ele>17.1</ele>
        <time>2023-05-19T13:28:43Z</time>
      </trkpt>
      <trkpt lat="49.91784" lon="2.23508">
        <ele>17.1</ele>
        <time>2023-05-19T13:28:44Z</time>
      </trkpt>
      <trkpt lat="49.91784" lon="2.2351">
        <ele>17.1</ele>
        <time>2023-05-19T13:28:45Z</time>
      </trkpt>
      <trkpt lat="49.91784" lon="2.23512">
        <ele>17.1</ele>
        <time>2023-05-19T13:28:47Z</time>
      </trkpt>
      <trkpt lat="49.91784" lon="2.23514">
        <ele>17.1</ele>
        <time>2023-05-19T13:28:48Z</time>
      </trkpt>
      <trkpt lat="49.91784" lon="2.23516">
        <ele>17.1</ele>
        <time>2023-05-19T13:28:50Z</time>
      </trkpt>
      <trkpt lat="49.91784" lon="2.23517">
        <ele>17.1</ele>
        <time>2023-05-19T13:28:51Z</time>
      </trkpt>
      <trkpt lat="49.91784" lon="2.23519">
        <ele>17.1</ele>
        <time>2023-05-19T13:28:52Z</time>
      </trkpt>
      <trkpt lat="49.91783" lon="2.23521">
        <ele>17.1</ele>
        <time>2023-05-19T13:28:53Z</time>
      </trkpt>
      <trkpt lat="49.91783" lon="2.23523">
        <ele>17.1</ele>
        <time>2023-05-19T13:28:54Z</time>
      </trkpt>
      <trkpt lat="49.91783" lon="2.23524">
        <ele>17.1</ele>
        <time>2023-05-19T13:28:55Z</time>
      </trkpt>
      <trkpt lat="49.91783" lon="2.23526">
        <ele>17.1</ele>
        <time>2023-05-19T13:28:56Z</time>
      </trkpt>
      <trkpt lat="49.91783" lon="2.23528">
        <ele>17.2</ele>
        <time>2023-05-19T13:28:57Z</time>
      </trkpt>
      <trkpt lat="49.91783" lon="2.2353">
        <ele>17.2</ele>
        <time>2023-05-19T13:28:58Z</time>
      </trkpt>
      <trkpt lat="49.91783" lon="2.23532">
        <ele>17.2</ele>
        <time>2023-05-19T13:28:59Z</time>
      </trkpt>
      <trkpt lat="49.91783" lon="2.23535">
        <ele>17.2</ele>
        <time>2023-05-19T13:29:01Z</time>
      </trkpt>
      <trkpt lat="49.91783" lon="2.23536">
        <ele>17.2</ele>
        <time>2023-05-19T13:29:02Z</time>
      </trkpt>
      <trkpt lat="49.91783" lon="2.23538">
        <ele>17.2</ele>
        <time>2023-05-19T13:29:03Z</time>
      </trkpt>
      <trkpt lat="49.91783" lon="2.23541">
        <ele>17.2</ele>
        <time>2023-05-19T13:29:05Z</time>
      </trkpt>
      <trkpt lat="49.91783" lon="2.23544">
        <ele>17.2</ele>
        <time>2023-05-19T13:29:06Z</time>
      </trkpt>
      <trkpt lat="49.91783" lon="2.23545">
        <ele>17.2</ele>
        <time>2023-05-19T13:29:07Z</time>
      </trkpt>
      <trkpt lat="49.91783" lon="2.23547">
        <ele>17.2</ele>
        <time>2023-05-19T13:29:08Z</time>
      </trkpt>
      <trkpt lat="49.91782" lon="2.2355">
        <ele>17.2</ele>
        <time>2023-05-19T13:29:09Z</time>
      </trkpt>
      <trkpt lat="49.91782" lon="2.23551">
        <ele>17.2</ele>
        <time>2023-05-19T13:29:10Z</time>
      </trkpt>
      <trkpt lat="49.91782" lon="2.23552">
        <ele>17.2</ele>
        <time>2023-05-19T13:29:11Z</time>
      </trkpt>
      <trkpt lat="49.91782" lon="2.23556">
        <ele>17.2</ele>
        <time>2023-05-19T13:29:12Z</time>
      </trkpt>
      <trkpt lat="49.91782" lon="2.23557">
        <ele>17.2</ele>
        <time>2023-05-19T13:29:13Z</time>
      </trkpt>
      <trkpt lat="49.91781" lon="2.23558">
        <ele>17.2</ele>
        <time>2023-05-19T13:29:14Z</time>
      </trkpt>
      <trkpt lat="49.91781" lon="2.23562">
        <ele>17.2</ele>
        <time>2023-05-19T13:29:15Z</time>
      </trkpt>
      <trkpt lat="49.91781" lon="2.23563">
        <ele>17.2</ele>
        <time>2023-05-19T13:29:16Z</time>
      </trkpt>
      <trkpt lat="49.91781" lon="2.23564">
        <ele>17.2</ele>
        <time>2023-05-19T13:29:17Z</time>
      </trkpt>
      <trkpt lat="49.91781" lon="2.23568">
        <ele>17.2</ele>
        <time>2023-05-19T13:29:19Z</time>
      </trkpt>
      <trkpt lat="49.91781" lon="2.23569">
        <ele>17.2</ele>
        <time>2023-05-19T13:29:20Z</time>
      </trkpt>
      <trkpt lat="49.91781" lon="2.2357">
        <ele>17.2</ele>
        <time>2023-05-19T13:29:21Z</time>
      </trkpt>
      <trkpt lat="49.9178" lon="2.23574">
        <ele>17.2</ele>
        <time>2023-05-19T13:29:22Z</time>
      </trkpt>
      <trkpt lat="49.9178" lon="2.23575">
        <ele>17.2</ele>
        <time>2023-05-19T13:29:23Z</time>
      </trkpt>
      <trkpt lat="49.9178" lon="2.23576">
        <ele>17.2</ele>
        <time>2023-05-19T13:29:24Z</time>
      </trkpt>
      <trkpt lat="49.9178" lon="2.23578">
        <ele>17.2</ele>
        <time>2023-05-19T13:29:25Z</time>
      </trkpt>
      <trkpt lat="49.91781" lon="2.2358">
        <ele>17.2</ele>
        <time>2023-05-19T13:29:26Z</time>
      </trkpt>
      <trkpt lat="49.91781" lon="2.23583">
        <ele>17.3</ele>
        <time>2023-05-19T13:29:28Z</time>
      </trkpt>
      <trkpt lat="49.91781" lon="2.23586">
        <ele>17.3</ele>
        <time>2023-05-19T13:29:29Z</time>
      </trkpt>
      <trkpt lat="49.91781" lon="2.23587">
        <ele>17.3</ele>
        <time>2023-05-19T13:29:30Z</time>
      </trkpt>
      <trkpt lat="49.91781" lon="2.23589">
        <ele>17.3</ele>
        <time>2023-05-19T13:29:31Z</time>
      </trkpt>
      <trkpt lat="49.91781" lon="2.23592">
        <ele>17.3</ele>
        <time>2023-05-19T13:29:32Z</time>
      </trkpt>
      <trkpt lat="49.91781" lon="2.23594">
        <ele>17.3</ele>
        <time>2023-05-19T13:29:33Z</time>
      </trkpt>
      <trkpt lat="49.91781" lon="2.23595">
        <ele>17.3</ele>
        <time>2023-05-19T13:29:34Z</time>
      </trkpt>
      <trkpt lat="49.91781" lon="2.23599">
        <ele>17.3</ele>
        <time>2023-05-19T13:29:35Z</time>
      </trkpt>
      <trkpt lat="49.91781" lon="2.23601">
        <ele>17.3</ele>
        <time>2023-05-19T13:29:37Z</time>
      </trkpt>
      <trkpt lat="49.91781" lon="2.23602">
        <ele>17.3</ele>
        <time>2023-05-19T13:29:38Z</time>
      </trkpt>
      <trkpt lat="49.91781" lon="2.23604">
        <ele>17.3</ele>
        <time>2023-05-19T13:29:39Z</time>
      </trkpt>
      <trkpt lat="49.91781" lon="2.23605">
        <ele>17.3</ele>
        <time>2023-05-19T13:29:40Z</time>
      </trkpt>
      <trkpt lat="49.91781" lon="2.23609">
        <ele>17.3</ele>
        <time>2023-05-19T13:29:41Z</time>
      </trkpt>
      <trkpt lat="49.91781" lon="2.2361">
        <ele>17.3</ele>
        <time>2023-05-19T13:29:42Z</time>
      </trkpt>
      <trkpt lat="49.9178" lon="2.23611">
        <ele>17.3</ele>
        <time>2023-05-19T13:29:43Z</time>
      </trkpt>
      <trkpt lat="49.9178" lon="2.23613">
        <ele>17.3</ele>
        <time>2023-05-19T13:29:45Z</time>
      </trkpt>
      <trkpt lat="49.9178" lon="2.23616">
        <ele>17.3</ele>
        <time>2023-05-19T13:29:46Z</time>
      </trkpt>
      <trkpt lat="49.9178" lon="2.23617">
        <ele>17.3</ele>
        <time>2023-05-19T13:29:47Z</time>
      </trkpt>
      <trkpt lat="49.9178" lon="2.23618">
        <ele>17.3</ele>
        <time>2023-05-19T13:29:48Z</time>
      </trkpt>
      <trkpt lat="49.91779" lon="2.2362">
        <ele>17.3</ele>
        <time>2023-05-19T13:29:49Z</time>
      </trkpt>
      <trkpt lat="49.91779" lon="2.23622">
        <ele>17.3</ele>
        <time>2023-05-19T13:29:50Z</time>
      </trkpt>
      <trkpt lat="49.91779" lon="2.23624">
        <ele>17.3</ele>
        <time>2023-05-19T13:29:51Z</time>
      </trkpt>
      <trkpt lat="49.91779" lon="2.23626">
        <ele>17.3</ele>
        <time>2023-05-19T13:29:52Z</time>
      </trkpt>
      <trkpt lat="49.91779" lon="2.23629">
        <ele>17.3</ele>
        <time>2023-05-19T13:29:54Z</time>
      </trkpt>
      <trkpt lat="49.91779" lon="2.2363">
        <ele>17.3</ele>
        <time>2023-05-19T13:29:55Z</time>
      </trkpt>
      <trkpt lat="49.91779" lon="2.23631">
        <ele>17.3</ele>
        <time>2023-05-19T13:29:56Z</time>
      </trkpt>
      <trkpt lat="49.91779" lon="2.23634">
        <ele>17.4</ele>
        <time>2023-05-19T13:29:58Z</time>
      </trkpt>
      <trkpt lat="49.91778" lon="2.23636">
        <ele>17.4</ele>
        <time>2023-05-19T13:29:59Z</time>
      </trkpt>
      <trkpt lat="49.91778" lon="2.23637">
        <ele>17.4</ele>
        <time>2023-05-19T13:30:00Z</time>
      </trkpt>
      <trkpt lat="49.91778" lon="2.23639">
        <ele>17.4</ele>
        <time>2023-05-19T13:30:01Z</time>
      </trkpt>
      <trkpt lat="49.91778" lon="2.23641">
        <ele>17.4</ele>
        <time>2023-05-19T13:30:02Z</time>
      </trkpt>
      <trkpt lat="49.91778" lon="2.23643">
        <ele>17.4</ele>
        <time>2023-05-19T13:30:03Z</time>
      </trkpt>
      <trkpt lat="49.91778" lon="2.23644">
        <ele>17.4</ele>
        <time>2023-05-19T13:30:04Z</time>
      </trkpt>
      <trkpt lat="49.91778" lon="2.23646">
        <ele>17.4</ele>
        <time>2023-05-19T13:30:05Z</time>
      </trkpt>
      <trkpt lat="49.91777" lon="2.23649">
        <ele>17.4</ele>
        <time>2023-05-19T13:30:06Z</time>
      </trkpt>
      <trkpt lat="49.91777" lon="2.2365">
        <ele>17.4</ele>
        <time>2023-05-19T13:30:08Z</time>
      </trkpt>
      <trkpt lat="49.91777" lon="2.23651">
        <ele>17.4</ele>
        <time>2023-05-19T13:30:09Z</time>
      </trkpt>
      <trkpt lat="49.91777" lon="2.23653">
        <ele>17.4</ele>
        <time>2023-05-19T13:30:10Z</time>
      </trkpt>
      <trkpt lat="49.91777" lon="2.23655">
        <ele>17.4</ele>
        <time>2023-05-19T13:30:11Z</time>
      </trkpt>
      <trkpt lat="49.91777" lon="2.23657">
        <ele>17.4</ele>
        <time>2023-05-19T13:30:12Z</time>
      </trkpt>
      <trkpt lat="49.91776" lon="2.2366">
        <ele>17.4</ele>
        <time>2023-05-19T13:30:13Z</time>
      </trkpt>
      <trkpt lat="49.91776" lon="2.23662">
        <ele>17.4</ele>
        <time>2023-05-19T13:30:15Z</time>
      </trkpt>
      <trkpt lat="49.91776" lon="2.23663">
        <ele>17.4</ele>
        <time>2023-05-19T13:30:16Z</time>
      </trkpt>
      <trkpt lat="49.91776" lon="2.23665">
        <ele>17.4</ele>
        <time>2023-05-19T13:30:18Z</time>
      </trkpt>
      <trkpt lat="49.91776" lon="2.23667">
        <ele>17.4</ele>
        <time>2023-05-19T13:30:19Z</time>
      </trkpt>
      <trkpt lat="49.91776" lon="2.2367">
        <ele>17.4</ele>
        <time>2023-05-19T13:30:20Z</time>
      </trkpt>
      <trkpt lat="49.91776" lon="2.23671">
        <ele>17.4</ele>
        <time>2023-05-19T13:30:21Z</time>
      </trkpt>
      <trkpt lat="49.91776" lon="2.23673">
        <ele>17.4</ele>
        <time>2023-05-19T13:30:22Z</time>
      </trkpt>
      <trkpt lat="49.91776" lon="2.23675">
        <ele>17.4</ele>
        <time>2023-05-19T13:30:23Z</time>
      </trkpt>
      <trkpt lat="49.91775" lon="2.23677">
        <ele>17.4</ele>
        <time>2023-05-19T13:30:24Z</time>
      </trkpt>
      <trkpt lat="49.91775" lon="2.23679">
        <ele>17.4</ele>
        <time>2023-05-19T13:30:26Z</time>
      </trkpt>
      <trkpt lat="49.91775" lon="2.23681">
        <ele>17.4</ele>
        <time>2023-05-19T13:30:27Z</time>
      </trkpt>
      <trkpt lat="49.91775" lon="2.23683">
        <ele>17.4</ele>
        <time>2023-05-19T13:30:28Z</time>
      </trkpt>
      <trkpt lat="49.91774" lon="2.23686">
        <ele>17.4</ele>
        <time>2023-05-19T13:30:29Z</time>
      </trkpt>
      <trkpt lat="49.91774" lon="2.23687">
        <ele>17.4</ele>
        <time>2023-05-19T13:30:30Z</time>
      </trkpt>
      <trkpt lat="49.91774" lon="2.23689">
        <ele>17.4</ele>
        <time>2023-05-19T13:30:31Z</time>
      </trkpt>
      <trkpt lat="49.91774" lon="2.23691">
        <ele>17.4</ele>
        <time>2023-05-19T13:30:32Z</time>
      </trkpt>
      <trkpt lat="49.91773" lon="2.23694">
        <ele>17.4</ele>
        <time>2023-05-19T13:30:34Z</time>
      </trkpt>
      <trkpt lat="49.91773" lon="2.23696">
        <ele>17.4</ele>
        <time>2023-05-19T13:30:35Z</time>
      </trkpt>
      <trkpt lat="49.91772" lon="2.23698">
        <ele>17.4</ele>
        <time>2023-05-19T13:30:36Z</time>
      </trkpt>
      <trkpt lat="49.91772" lon="2.23701">
        <ele>17.4</ele>
        <time>2023-05-19T13:30:38Z</time>
      </trkpt>
      <trkpt lat="49.91771" lon="2.23703">
        <ele>17.4</ele>
        <time>2023-05-19T13:30:39Z</time>
      </trkpt>
      <trkpt lat="49.91771" lon="2.23705">
        <ele>17.5</ele>
        <time>2023-05-19T13:30:40Z</time>
      </trkpt>
      <trkpt lat="49.91771" lon="2.23707">
        <ele>17.5</ele>
        <time>2023-05-19T13:30:41Z</time>
      </trkpt>
      <trkpt lat="49.9177" lon="2.2371">
        <ele>17.5</ele>
        <time>2023-05-19T13:30:42Z</time>
      </trkpt>
      <trkpt lat="49.9177" lon="2.23711">
        <ele>17.5</ele>
        <time>2023-05-19T13:30:43Z</time>
      </trkpt>
      <trkpt lat="49.91769" lon="2.23712">
        <ele>17.5</ele>
        <time>2023-05-19T13:30:44Z</time>
      </trkpt>
      <trkpt lat="49.91768" lon="2.23715">
        <ele>17.5</ele>
        <time>2023-05-19T13:30:45Z</time>
      </trkpt>
      <trkpt lat="49.91768" lon="2.23717">
        <ele>17.5</ele>
        <time>2023-05-19T13:30:46Z</time>
      </trkpt>
      <trkpt lat="49.91768" lon="2.23718">
        <ele>17.5</ele>
        <time>2023-05-19T13:30:47Z</time>
      </trkpt>
      <trkpt lat="49.91767" lon="2.23721">
        <ele>17.5</ele>
        <time>2023-05-19T13:30:48Z</time>
      </trkpt>
      <trkpt lat="49.91767" lon="2.23722">
        <ele>17.5</ele>
        <time>2023-05-19T13:30:49Z</time>
      </trkpt>
      <trkpt lat="49.91766" lon="2.23723">
        <ele>17.5</ele>
        <time>2023-05-19T13:30:50Z</time>
      </trkpt>
      <trkpt lat="49.91765" lon="2.23726">
        <ele>17.5</ele>
        <time>2023-05-19T13:30:52Z</time>
      </trkpt>
      <trkpt lat="49.91765" lon="2.23728">
        <ele>17.5</ele>
        <time>2023-05-19T13:30:53Z</time>
      </trkpt>
      <trkpt lat="49.91764" lon="2.23731">
        <ele>17.6</ele>
        <time>2023-05-19T13:30:54Z</time>
      </trkpt>
      <trkpt lat="49.91764" lon="2.23732">
        <ele>17.6</ele>
        <time>2023-05-19T13:30:55Z</time>
      </trkpt>
      <trkpt lat="49.91763" lon="2.23733">
        <ele>17.6</ele>
        <time>2023-05-19T13:30:56Z</time>
      </trkpt>
      <trkpt lat="49.91763" lon="2.23735">
        <ele>17.6</ele>
        <time>2023-05-19T13:30:57Z</time>
      </trkpt>
      <trkpt lat="49.91762" lon="2.23737">
        <ele>17.6</ele>
        <time>2023-05-19T13:30:58Z</time>
      </trkpt>
      <trkpt lat="49.91761" lon="2.2374">
        <ele>17.6</ele>
        <time>2023-05-19T13:30:59Z</time>
      </trkpt>
      <trkpt lat="49.91761" lon="2.23742">
        <ele>17.6</ele>
        <time>2023-05-19T13:31:01Z</time>
      </trkpt>
      <trkpt lat="49.91761" lon="2.23743">
        <ele>17.6</ele>
        <time>2023-05-19T13:31:02Z</time>
      </trkpt>
      <trkpt lat="49.9176" lon="2.23746">
        <ele>17.6</ele>
        <time>2023-05-19T13:31:03Z</time>
      </trkpt>
      <trkpt lat="49.9176" lon="2.23747">
        <ele>17.6</ele>
        <time>2023-05-19T13:31:04Z</time>
      </trkpt>
      <trkpt lat="49.91759" lon="2.23748">
        <ele>17.6</ele>
        <time>2023-05-19T13:31:05Z</time>
      </trkpt>
      <trkpt lat="49.91758" lon="2.23751">
        <ele>17.7</ele>
        <time>2023-05-19T13:31:07Z</time>
      </trkpt>
      <trkpt lat="49.91758" lon="2.23753">
        <ele>17.7</ele>
        <time>2023-05-19T13:31:08Z</time>
      </trkpt>
      <trkpt lat="49.91758" lon="2.23755">
        <ele>17.7</ele>
        <time>2023-05-19T13:31:09Z</time>
      </trkpt>
      <trkpt lat="49.91757" lon="2.23757">
        <ele>17.7</ele>
        <time>2023-05-19T13:31:10Z</time>
      </trkpt>
      <trkpt lat="49.91757" lon="2.23761">
        <ele>17.7</ele>
        <time>2023-05-19T13:31:11Z</time>
      </trkpt>
      <trkpt lat="49.91756" lon="2.23762">
        <ele>17.7</ele>
        <time>2023-05-19T13:31:12Z</time>
      </trkpt>
      <trkpt lat="49.91756" lon="2.23763">
        <ele>17.7</ele>
        <time>2023-05-19T13:31:13Z</time>
      </trkpt>
      <trkpt lat="49.91756" lon="2.23766">
        <ele>17.7</ele>
        <time>2023-05-19T13:31:15Z</time>
      </trkpt>
      <trkpt lat="49.91755" lon="2.23769">
        <ele>17.7</ele>
        <time>2023-05-19T13:31:17Z</time>
      </trkpt>
      <trkpt lat="49.91755" lon="2.23772">
        <ele>17.8</ele>
        <time>2023-05-19T13:31:18Z</time>
      </trkpt>
      <trkpt lat="49.91755" lon="2.23773">
        <ele>17.8</ele>
        <time>2023-05-19T13:31:19Z</time>
      </trkpt>
      <trkpt lat="49.91755" lon="2.23774">
        <ele>17.8</ele>
        <time>2023-05-19T13:31:20Z</time>
      </trkpt>
      <trkpt lat="49.91755" lon="2.23778">
        <ele>17.8</ele>
        <time>2023-05-19T13:31:21Z</time>
      </trkpt>
      <trkpt lat="49.91755" lon="2.23779">
        <ele>17.8</ele>
        <time>2023-05-19T13:31:22Z</time>
      </trkpt>
      <trkpt lat="49.91755" lon="2.2378">
        <ele>17.8</ele>
        <time>2023-05-19T13:31:23Z</time>
      </trkpt>
      <trkpt lat="49.91755" lon="2.23782">
        <ele>17.8</ele>
        <time>2023-05-19T13:31:24Z</time>
      </trkpt>
      <trkpt lat="49.91755" lon="2.23784">
        <ele>17.8</ele>
        <time>2023-05-19T13:31:25Z</time>
      </trkpt>
      <trkpt lat="49.91755" lon="2.23785">
        <ele>17.8</ele>
        <time>2023-05-19T13:31:26Z</time>
      </trkpt>
      <trkpt lat="49.91755" lon="2.23789">
        <ele>17.8</ele>
        <time>2023-05-19T13:31:27Z</time>
      </trkpt>
      <trkpt lat="49.91755" lon="2.2379">
        <ele>17.8</ele>
        <time>2023-05-19T13:31:28Z</time>
      </trkpt>
      <trkpt lat="49.91755" lon="2.23792">
        <ele>17.8</ele>
        <time>2023-05-19T13:31:30Z</time>
      </trkpt>
      <trkpt lat="49.91755" lon="2.23793">
        <ele>17.8</ele>
        <time>2023-05-19T13:31:31Z</time>
      </trkpt>
      <trkpt lat="49.91755" lon="2.23795">
        <ele>17.8</ele>
        <time>2023-05-19T13:31:32Z</time>
      </trkpt>
      <trkpt lat="49.91755" lon="2.23796">
        <ele>17.8</ele>
        <time>2023-05-19T13:31:33Z</time>
      </trkpt>
      <trkpt lat="49.91756" lon="2.238">
        <ele>17.8</ele>
        <time>2023-05-19T13:31:34Z</time>
      </trkpt>
      <trkpt lat="49.91756" lon="2.23801">
        <ele>17.8</ele>
        <time>2023-05-19T13:31:35Z</time>
      </trkpt>
      <trkpt lat="49.91756" lon="2.23803">
        <ele>17.8</ele>
        <time>2023-05-19T13:31:36Z</time>
      </trkpt>
      <trkpt lat="49.91756" lon="2.23806">
        <ele>17.8</ele>
        <time>2023-05-19T13:31:38Z</time>
      </trkpt>
      <trkpt lat="49.91756" lon="2.23807">
        <ele>17.8</ele>
        <time>2023-05-19T13:31:39Z</time>
      </trkpt>
      <trkpt lat="49.91756" lon="2.23808">
        <ele>17.8</ele>
        <time>2023-05-19T13:31:40Z</time>
      </trkpt>
      <trkpt lat="49.91757" lon="2.2381">
        <ele>17.8</ele>
        <time>2023-05-19T13:31:41Z</time>
      </trkpt>
      <trkpt lat="49.91757" lon="2.23812">
        <ele>17.8</ele>
        <time>2023-05-19T13:31:42Z</time>
      </trkpt>
      <trkpt lat="49.91757" lon="2.23814">
        <ele>17.8</ele>
        <time>2023-05-19T13:31:43Z</time>
      </trkpt>
      <trkpt lat="49.91758" lon="2.23817">
        <ele>17.8</ele>
        <time>2023-05-19T13:31:45Z</time>
      </trkpt>
      <trkpt lat="49.91758" lon="2.23819">
        <ele>17.8</ele>
        <time>2023-05-19T13:31:46Z</time>
      </trkpt>
      <trkpt lat="49.91759" lon="2.23822">
        <ele>17.8</ele>
        <time>2023-05-19T13:31:47Z</time>
      </trkpt>
      <trkpt lat="49.91759" lon="2.23823">
        <ele>17.8</ele>
        <time>2023-05-19T13:31:48Z</time>
      </trkpt>
      <trkpt lat="49.91759" lon="2.23825">
        <ele>17.8</ele>
        <time>2023-05-19T13:31:49Z</time>
      </trkpt>
      <trkpt lat="49.91759" lon="2.23826">
        <ele>17.8</ele>
        <time>2023-05-19T13:31:50Z</time>
      </trkpt>
      <trkpt lat="49.9176" lon="2.23828">
        <ele>17.8</ele>
        <time>2023-05-19T13:31:51Z</time>
      </trkpt>
      <trkpt lat="49.9176" lon="2.2383">
        <ele>17.8</ele>
        <time>2023-05-19T13:31:53Z</time>
      </trkpt>
      <trkpt lat="49.91761" lon="2.23834">
        <ele>17.8</ele>
        <time>2023-05-19T13:31:54Z</time>
      </trkpt>
      <trkpt lat="49.91761" lon="2.23835">
        <ele>17.8</ele>
        <time>2023-05-19T13:31:55Z</time>
      </trkpt>
      <trkpt lat="49.91761" lon="2.23836">
        <ele>17.8</ele>
        <time>2023-05-19T13:31:56Z</time>
      </trkpt>
      <trkpt lat="49.91761" lon="2.23838">
        <ele>17.8</ele>
        <time>2023-05-19T13:31:57Z</time>
      </trkpt>
      <trkpt lat="49.91761" lon="2.23841">
        <ele>17.8</ele>
        <time>2023-05-19T13:31:59Z</time>
      </trkpt>
      <trkpt lat="49.91761" lon="2.23842">
        <ele>17.8</ele>
        <time>2023-05-19T13:32:00Z</time>
      </trkpt>
      <trkpt lat="49.91761" lon="2.23844">
        <ele>17.9</ele>
        <time>2023-05-19T13:32:01Z</time>
      </trkpt>
      <trkpt lat="49.91761" lon="2.23846">
        <ele>17.9</ele>
        <time>2023-05-19T13:32:03Z</time>
      </trkpt>
      <trkpt lat="49.91761" lon="2.23848">
        <ele>17.9</ele>
        <time>2023-05-19T13:32:04Z</time>
      </trkpt>
      <trkpt lat="49.91761" lon="2.2385">
        <ele>17.9</ele>
        <time>2023-05-19T13:32:05Z</time>
      </trkpt>
      <trkpt lat="49.91761" lon="2.23852">
        <ele>17.9</ele>
        <time>2023-05-19T13:32:06Z</time>
      </trkpt>
      <trkpt lat="49.91761" lon="2.23853">
        <ele>17.9</ele>
        <time>2023-05-19T13:32:07Z</time>
      </trkpt>
      <trkpt lat="49.9176" lon="2.23855">
        <ele>17.9</ele>
        <time>2023-05-19T13:32:08Z</time>
      </trkpt>
      <trkpt lat="49.9176" lon="2.23857">
        <ele>17.9</ele>
        <time>2023-05-19T13:32:09Z</time>
      </trkpt>
      <trkpt lat="49.9176" lon="2.23858">
        <ele>17.9</ele>
        <time>2023-05-19T13:32:10Z</time>
      </trkpt>
      <trkpt lat="49.9176" lon="2.2386">
        <ele>17.9</ele>
        <time>2023-05-19T13:32:11Z</time>
      </trkpt>
      <trkpt lat="49.91759" lon="2.23862">
        <ele>17.9</ele>
        <time>2023-05-19T13:32:12Z</time>
      </trkpt>
      <trkpt lat="49.91759" lon="2.23864">
        <ele>17.9</ele>
        <time>2023-05-19T13:32:14Z</time>
      </trkpt>
      <trkpt lat="49.91759" lon="2.23865">
        <ele>17.9</ele>
        <time>2023-05-19T13:32:15Z</time>
      </trkpt>
      <trkpt lat="49.9176" lon="2.23867">
        <ele>17.9</ele>
        <time>2023-05-19T13:32:16Z</time>
      </trkpt>
      <trkpt lat="49.9176" lon="2.23869">
        <ele>17.9</ele>
        <time>2023-05-19T13:32:17Z</time>
      </trkpt>
      <trkpt lat="49.9176" lon="2.2387">
        <ele>17.9</ele>
        <time>2023-05-19T13:32:18Z</time>
      </trkpt>
      <trkpt lat="49.9176" lon="2.23872">
        <ele>17.9</ele>
        <time>2023-05-19T13:32:19Z</time>
      </trkpt>
      <trkpt lat="49.9176" lon="2.23875">
        <ele>17.9</ele>
        <time>2023-05-19T13:32:20Z</time>
      </trkpt>
      <trkpt lat="49.9176" lon="2.23876">
        <ele>17.9</ele>
        <time>2023-05-19T13:32:21Z</time>
      </trkpt>
      <trkpt lat="49.9176" lon="2.23878">
        <ele>17.9</ele>
        <time>2023-05-19T13:32:22Z</time>
      </trkpt>
      <trkpt lat="49.91761" lon="2.2388">
        <ele>17.9</ele>
        <time>2023-05-19T13:32:24Z</time>
      </trkpt>
      <trkpt lat="49.91761" lon="2.23882">
        <ele>17.9</ele>
        <time>2023-05-19T13:32:25Z</time>
      </trkpt>
      <trkpt lat="49.91761" lon="2.23884">
        <ele>17.9</ele>
        <time>2023-05-19T13:32:26Z</time>
      </trkpt>
      <trkpt lat="49.91762" lon="2.23887">
        <ele>17.9</ele>
        <time>2023-05-19T13:32:27Z</time>
      </trkpt>
      <trkpt lat="49.91762" lon="2.23889">
        <ele>17.9</ele>
        <time>2023-05-19T13:32:28Z</time>
      </trkpt>
      <trkpt lat="49.91763" lon="2.23891">
        <ele>17.9</ele>
        <time>2023-05-19T13:32:30Z</time>
      </trkpt>
      <trkpt lat="49.91763" lon="2.23893">
        <ele>17.8</ele>
        <time>2023-05-19T13:32:31Z</time>
      </trkpt>
      <trkpt lat="49.91764" lon="2.23895">
        <ele>17.8</ele>
        <time>2023-05-19T13:32:32Z</time>
      </trkpt>
      <trkpt lat="49.91765" lon="2.23897">
        <ele>17.8</ele>
        <time>2023-05-19T13:32:33Z</time>
      </trkpt>
      <trkpt lat="49.91765" lon="2.23899">
        <ele>17.8</ele>
        <time>2023-05-19T13:32:34Z</time>
      </trkpt>
      <trkpt lat="49.91766" lon="2.23902">
        <ele>17.8</ele>
        <time>2023-05-19T13:32:35Z</time>
      </trkpt>
      <trkpt lat="49.91767" lon="2.23903">
        <ele>17.8</ele>
        <time>2023-05-19T13:32:36Z</time>
      </trkpt>
      <trkpt lat="49.91767" lon="2.23905">
        <ele>17.8</ele>
        <time>2023-05-19T13:32:37Z</time>
      </trkpt>
      <trkpt lat="49.91769" lon="2.23907">
        <ele>17.8</ele>
        <time>2023-05-19T13:32:38Z</time>
      </trkpt>
      <trkpt lat="49.91769" lon="2.23908">
        <ele>17.8</ele>
        <time>2023-05-19T13:32:39Z</time>
      </trkpt>
      <trkpt lat="49.9177" lon="2.2391">
        <ele>17.8</ele>
        <time>2023-05-19T13:32:40Z</time>
      </trkpt>
      <trkpt lat="49.91771" lon="2.23912">
        <ele>17.8</ele>
        <time>2023-05-19T13:32:42Z</time>
      </trkpt>
      <trkpt lat="49.91772" lon="2.23914">
        <ele>17.8</ele>
        <time>2023-05-19T13:32:43Z</time>
      </trkpt>
      <trkpt lat="49.91773" lon="2.23916">
        <ele>17.8</ele>
        <time>2023-05-19T13:32:44Z</time>
      </trkpt>
      <trkpt lat="49.91773" lon="2.23917">
        <ele>17.8</ele>
        <time>2023-05-19T13:32:45Z</time>
      </trkpt>
      <trkpt lat="49.91774" lon="2.23918">
        <ele>17.8</ele>
        <time>2023-05-19T13:32:46Z</time>
      </trkpt>
      <trkpt lat="49.91776" lon="2.23921">
        <ele>17.8</ele>
        <time>2023-05-19T13:32:47Z</time>
      </trkpt>
      <trkpt lat="49.91776" lon="2.23922">
        <ele>17.8</ele>
        <time>2023-05-19T13:32:48Z</time>
      </trkpt>
      <trkpt lat="49.91777" lon="2.23923">
        <ele>17.8</ele>
        <time>2023-05-19T13:32:49Z</time>
      </trkpt>
      <trkpt lat="49.91778" lon="2.23925">
        <ele>17.8</ele>
        <time>2023-05-19T13:32:51Z</time>
      </trkpt>
      <trkpt lat="49.91779" lon="2.23926">
        <ele>17.8</ele>
        <time>2023-05-19T13:32:52Z</time>
      </trkpt>
      <trkpt lat="49.91781" lon="2.23929">
        <ele>17.8</ele>
        <time>2023-05-19T13:32:53Z</time>
      </trkpt>
      <trkpt lat="49.91781" lon="2.2393">
        <ele>17.8</ele>
        <time>2023-05-19T13:32:54Z</time>
      </trkpt>
      <trkpt lat="49.91782" lon="2.23931">
        <ele>17.8</ele>
        <time>2023-05-19T13:32:55Z</time>
      </trkpt>
      <trkpt lat="49.91783" lon="2.23932">
        <ele>17.8</ele>
        <time>2023-05-19T13:32:56Z</time>
      </trkpt>
      <trkpt lat="49.91783" lon="2.23934">
        <ele>17.8</ele>
        <time>2023-05-19T13:32:57Z</time>
      </trkpt>
      <trkpt lat="49.91784" lon="2.23936">
        <ele>17.8</ele>
        <time>2023-05-19T13:32:59Z</time>
      </trkpt>
      <trkpt lat="49.91785" lon="2.23938">
        <ele>17.8</ele>
        <time>2023-05-19T13:33:00Z</time>
      </trkpt>
      <trkpt lat="49.91786" lon="2.23939">
        <ele>17.8</ele>
        <time>2023-05-19T13:33:01Z</time>
      </trkpt>
      <trkpt lat="49.91786" lon="2.2394">
        <ele>17.8</ele>
        <time>2023-05-19T13:33:02Z</time>
      </trkpt>
      <trkpt lat="49.91787" lon="2.23942">
        <ele>17.8</ele>
        <time>2023-05-19T13:33:03Z</time>
      </trkpt>
      <trkpt lat="49.91788" lon="2.23943">
        <ele>17.8</ele>
        <time>2023-05-19T13:33:04Z</time>
      </trkpt>
      <trkpt lat="49.91789" lon="2.23945">
        <ele>17.8</ele>
        <time>2023-05-19T13:33:05Z</time>
      </trkpt>
      <trkpt lat="49.91789" lon="2.23946">
        <ele>17.8</ele>
        <time>2023-05-19T13:33:06Z</time>
      </trkpt>
      <trkpt lat="49.9179" lon="2.23947">
        <ele>17.8</ele>
        <time>2023-05-19T13:33:07Z</time>
      </trkpt>
      <trkpt lat="49.91791" lon="2.23948">
        <ele>17.8</ele>
        <time>2023-05-19T13:33:08Z</time>
      </trkpt>
      <trkpt lat="49.91792" lon="2.23951">
        <ele>17.8</ele>
        <time>2023-05-19T13:33:10Z</time>
      </trkpt>
      <trkpt lat="49.91792" lon="2.23952">
        <ele>17.8</ele>
        <time>2023-05-19T13:33:11Z</time>
      </trkpt>
      <trkpt lat="49.91793" lon="2.23953">
        <ele>17.8</ele>
        <time>2023-05-19T13:33:12Z</time>
      </trkpt>
      <trkpt lat="49.91793" lon="2.23955">
        <ele>17.8</ele>
        <time>2023-05-19T13:33:13Z</time>
      </trkpt>
      <trkpt lat="49.91794" lon="2.23957">
        <ele>17.8</ele>
        <time>2023-05-19T13:33:15Z</time>
      </trkpt>
      <trkpt lat="49.91795" lon="2.23958">
        <ele>17.8</ele>
        <time>2023-05-19T13:33:16Z</time>
      </trkpt>
      <trkpt lat="49.91795" lon="2.23959">
        <ele>17.8</ele>
        <time>2023-05-19T13:33:17Z</time>
      </trkpt>
      <trkpt lat="49.91796" lon="2.2396">
        <ele>17.8</ele>
        <time>2023-05-19T13:33:18Z</time>
      </trkpt>
      <trkpt lat="49.91797" lon="2.23961">
        <ele>17.8</ele>
        <time>2023-05-19T13:33:19Z</time>
      </trkpt>
      <trkpt lat="49.91798" lon="2.23962">
        <ele>17.8</ele>
        <time>2023-05-19T13:33:20Z</time>
      </trkpt>
      <trkpt lat="49.91799" lon="2.23963">
        <ele>17.8</ele>
        <time>2023-05-19T13:33:21Z</time>
      </trkpt>
      <trkpt lat="49.918" lon="2.23964">
        <ele>17.8</ele>
        <time>2023-05-19T13:33:22Z</time>
      </trkpt>
      <trkpt lat="49.918" lon="2.23965">
        <ele>17.8</ele>
        <time>2023-05-19T13:33:23Z</time>
      </trkpt>
      <trkpt lat="49.91801" lon="2.23966">
        <ele>17.8</ele>
        <time>2023-05-19T13:33:24Z</time>
      </trkpt>
      <trkpt lat="49.91802" lon="2.23967">
        <ele>17.8</ele>
        <time>2023-05-19T13:33:25Z</time>
      </trkpt>
      <trkpt lat="49.91803" lon="2.23968">
        <ele>17.8</ele>
        <time>2023-05-19T13:33:27Z</time>
      </trkpt>
      <trkpt lat="49.91804" lon="2.23969">
        <ele>17.8</ele>
        <time>2023-05-19T13:33:28Z</time>
      </trkpt>
      <trkpt lat="49.91805" lon="2.2397">
        <ele>17.8</ele>
        <time>2023-05-19T13:33:29Z</time>
      </trkpt>
      <trkpt lat="49.91805" lon="2.23971">
        <ele>17.8</ele>
        <time>2023-05-19T13:33:30Z</time>
      </trkpt>
      <trkpt lat="49.91806" lon="2.23972">
        <ele>17.8</ele>
        <time>2023-05-19T13:33:31Z</time>
      </trkpt>
      <trkpt lat="49.91806" lon="2.23973">
        <ele>17.8</ele>
        <time>2023-05-19T13:33:32Z</time>
      </trkpt>
      <trkpt lat="49.91807" lon="2.23974">
        <ele>17.8</ele>
        <time>2023-05-19T13:33:34Z</time>
      </trkpt>
      <trkpt lat="49.91808" lon="2.23975">
        <ele>17.8</ele>
        <time>2023-05-19T13:33:35Z</time>
      </trkpt>
      <trkpt lat="49.91808" lon="2.23976">
        <ele>17.8</ele>
        <time>2023-05-19T13:33:36Z</time>
      </trkpt>
      <trkpt lat="49.91809" lon="2.23977">
        <ele>17.8</ele>
        <time>2023-05-19T13:33:37Z</time>
      </trkpt>
      <trkpt lat="49.91809" lon="2.23978">
        <ele>17.9</ele>
        <time>2023-05-19T13:33:38Z</time>
      </trkpt>
      <trkpt lat="49.9181" lon="2.23979">
        <ele>17.9</ele>
        <time>2023-05-19T13:33:39Z</time>
      </trkpt>
      <trkpt lat="49.9181" lon="2.2398">
        <ele>17.9</ele>
        <time>2023-05-19T13:33:40Z</time>
      </trkpt>
      <trkpt lat="49.9181" lon="2.23981">
        <ele>17.9</ele>
        <time>2023-05-19T13:33:41Z</time>
      </trkpt>
      <trkpt lat="49.91811" lon="2.23983">
        <ele>17.9</ele>
        <time>2023-05-19T13:33:43Z</time>
      </trkpt>
      <trkpt lat="49.91812" lon="2.23984">
        <ele>17.9</ele>
        <time>2023-05-19T13:33:44Z</time>
      </trkpt>
      <trkpt lat="49.91813" lon="2.23985">
        <ele>17.9</ele>
        <time>2023-05-19T13:33:45Z</time>
      </trkpt>
      <trkpt lat="49.91813" lon="2.23986">
        <ele>17.9</ele>
        <time>2023-05-19T13:33:46Z</time>
      </trkpt>
      <trkpt lat="49.91814" lon="2.23987">
        <ele>17.9</ele>
        <time>2023-05-19T13:33:47Z</time>
      </trkpt>
      <trkpt lat="49.91815" lon="2.23988">
        <ele>17.9</ele>
        <time>2023-05-19T13:33:48Z</time>
      </trkpt>
      <trkpt lat="49.91815" lon="2.2399">
        <ele>17.9</ele>
        <time>2023-05-19T13:33:49Z</time>
      </trkpt>
      <trkpt lat="49.91816" lon="2.23991">
        <ele>17.9</ele>
        <time>2023-05-19T13:33:50Z</time>
      </trkpt>
      <trkpt lat="49.91818" lon="2.23992">
        <ele>17.9</ele>
        <time>2023-05-19T13:33:52Z</time>
      </trkpt>
      <trkpt lat="49.91819" lon="2.23993">
        <ele>17.9</ele>
        <time>2023-05-19T13:33:53Z</time>
      </trkpt>
      <trkpt lat="49.9182" lon="2.23994">
        <ele>17.9</ele>
        <time>2023-05-19T13:33:54Z</time>
      </trkpt>
      <trkpt lat="49.9182" lon="2.23995">
        <ele>17.9</ele>
        <time>2023-05-19T13:33:55Z</time>
      </trkpt>
      <trkpt lat="49.91821" lon="2.23996">
        <ele>17.9</ele>
        <time>2023-05-19T13:33:56Z</time>
      </trkpt>
      <trkpt lat="49.91822" lon="2.23997">
        <ele>17.9</ele>
        <time>2023-05-19T13:33:57Z</time>
      </trkpt>
      <trkpt lat="49.91823" lon="2.23999">
        <ele>17.9</ele>
        <time>2023-05-19T13:33:58Z</time>
      </trkpt>
      <trkpt lat="49.91824" lon="2.23999">
        <ele>17.9</ele>
        <time>2023-05-19T13:33:59Z</time>
      </trkpt>
      <trkpt lat="49.91825" lon="2.24">
        <ele>17.9</ele>
        <time>2023-05-19T13:34:00Z</time>
      </trkpt>
      <trkpt lat="49.91826" lon="2.24001">
        <ele>17.9</ele>
        <time>2023-05-19T13:34:02Z</time>
      </trkpt>
      <trkpt lat="49.91827" lon="2.24002">
        <ele>17.9</ele>
        <time>2023-05-19T13:34:03Z</time>
      </trkpt>
      <trkpt lat="49.91828" lon="2.24003">
        <ele>17.9</ele>
        <time>2023-05-19T13:34:04Z</time>
      </trkpt>
      <trkpt lat="49.91829" lon="2.24003">
        <ele>17.9</ele>
        <time>2023-05-19T13:34:05Z</time>
      </trkpt>
      <trkpt lat="49.91831" lon="2.24005">
        <ele>17.9</ele>
        <time>2023-05-19T13:34:06Z</time>
      </trkpt>
      <trkpt lat="49.91832" lon="2.24005">
        <ele>17.9</ele>
        <time>2023-05-19T13:34:07Z</time>
      </trkpt>
      <trkpt lat="49.91833" lon="2.24006">
        <ele>17.9</ele>
        <time>2023-05-19T13:34:08Z</time>
      </trkpt>
      <trkpt lat="49.91835" lon="2.24007">
        <ele>17.9</ele>
        <time>2023-05-19T13:34:09Z</time>
      </trkpt>
      <trkpt lat="49.91836" lon="2.24008">
        <ele>17.9</ele>
        <time>2023-05-19T13:34:11Z</time>
      </trkpt>
      <trkpt lat="49.91837" lon="2.24009">
        <ele>17.9</ele>
        <time>2023-05-19T13:34:12Z</time>
      </trkpt>
      <trkpt lat="49.91838" lon="2.2401">
        <ele>17.9</ele>
        <time>2023-05-19T13:34:13Z</time>
      </trkpt>
      <trkpt lat="49.91839" lon="2.2401">
        <ele>17.9</ele>
        <time>2023-05-19T13:34:14Z</time>
      </trkpt>
      <trkpt lat="49.91841" lon="2.24012">
        <ele>17.9</ele>
        <time>2023-05-19T13:34:15Z</time>
      </trkpt>
      <trkpt lat="49.91841" lon="2.24013">
        <ele>17.9</ele>
        <time>2023-05-19T13:34:16Z</time>
      </trkpt>
      <trkpt lat="49.91842" lon="2.24013">
        <ele>17.9</ele>
        <time>2023-05-19T13:34:17Z</time>
      </trkpt>
      <trkpt lat="49.91844" lon="2.24016">
        <ele>17.9</ele>
        <time>2023-05-19T13:34:19Z</time>
      </trkpt>
      <trkpt lat="49.91845" lon="2.24016">
        <ele>17.9</ele>
        <time>2023-05-19T13:34:20Z</time>
      </trkpt>
      <trkpt lat="49.91845" lon="2.24017">
        <ele>17.9</ele>
        <time>2023-05-19T13:34:21Z</time>
      </trkpt>
      <trkpt lat="49.91846" lon="2.24018">
        <ele>17.9</ele>
        <time>2023-05-19T13:34:22Z</time>
      </trkpt>
      <trkpt lat="49.91848" lon="2.2402">
        <ele>17.9</ele>
        <time>2023-05-19T13:34:23Z</time>
      </trkpt>
      <trkpt lat="49.91849" lon="2.24021">
        <ele>17.9</ele>
        <time>2023-05-19T13:34:24Z</time>
      </trkpt>
      <trkpt lat="49.9185" lon="2.24022">
        <ele>17.9</ele>
        <time>2023-05-19T13:34:25Z</time>
      </trkpt>
      <trkpt lat="49.91852" lon="2.24023">
        <ele>17.9</ele>
        <time>2023-05-19T13:34:26Z</time>
      </trkpt>
      <trkpt lat="49.91853" lon="2.24025">
        <ele>17.9</ele>
        <time>2023-05-19T13:34:27Z</time>
      </trkpt>
      <trkpt lat="49.91856" lon="2.24027">
        <ele>17.9</ele>
        <time>2023-05-19T13:34:28Z</time>
      </trkpt>
      <trkpt lat="49.91857" lon="2.24028">
        <ele>17.9</ele>
        <time>2023-05-19T13:34:29Z</time>
      </trkpt>
      <trkpt lat="49.91859" lon="2.2403">
        <ele>17.9</ele>
        <time>2023-05-19T13:34:30Z</time>
      </trkpt>
      <trkpt lat="49.91861" lon="2.24031">
        <ele>17.9</ele>
        <time>2023-05-19T13:34:32Z</time>
      </trkpt>
      <trkpt lat="49.91862" lon="2.24032">
        <ele>17.9</ele>
        <time>2023-05-19T13:34:33Z</time>
      </trkpt>
      <trkpt lat="49.91863" lon="2.24032">
        <ele>17.9</ele>
        <time>2023-05-19T13:34:34Z</time>
      </trkpt>
      <trkpt lat="49.91865" lon="2.24033">
        <ele>17.9</ele>
        <time>2023-05-19T13:34:35Z</time>
      </trkpt>
      <trkpt lat="49.91866" lon="2.24034">
        <ele>17.9</ele>
        <time>2023-05-19T13:34:36Z</time>
      </trkpt>
      <trkpt lat="49.9187" lon="2.24037">
        <ele>17.9</ele>
        <time>2023-05-19T13:34:37Z</time>
      </trkpt>
      <trkpt lat="49.91871" lon="2.24037">
        <ele>17.9</ele>
        <time>2023-05-19T13:34:38Z</time>
      </trkpt>
      <trkpt lat="49.91873" lon="2.24039">
        <ele>17.9</ele>
        <time>2023-05-19T13:34:40Z</time>
      </trkpt>
      <trkpt lat="49.91874" lon="2.2404">
        <ele>17.9</ele>
        <time>2023-05-19T13:34:41Z</time>
      </trkpt>
      <trkpt lat="49.91875" lon="2.24041">
        <ele>17.9</ele>
        <time>2023-05-19T13:34:42Z</time>
      </trkpt>
      <trkpt lat="49.91877" lon="2.24043">
        <ele>17.9</ele>
        <time>2023-05-19T13:34:43Z</time>
      </trkpt>
      <trkpt lat="49.91878" lon="2.24044">
        <ele>17.9</ele>
        <time>2023-05-19T13:34:44Z</time>
      </trkpt>
      <trkpt lat="49.91879" lon="2.24045">
        <ele>18</ele>
        <time>2023-05-19T13:34:45Z</time>
      </trkpt>
      <trkpt lat="49.9188" lon="2.24047">
        <ele>18</ele>
        <time>2023-05-19T13:34:46Z</time>
      </trkpt>
      <trkpt lat="49.91881" lon="2.24049">
        <ele>18</ele>
        <time>2023-05-19T13:34:47Z</time>
      </trkpt>
      <trkpt lat="49.91882" lon="2.2405">
        <ele>18</ele>
        <time>2023-05-19T13:34:48Z</time>
      </trkpt>
      <trkpt lat="49.91884" lon="2.24052">
        <ele>18</ele>
        <time>2023-05-19T13:34:49Z</time>
      </trkpt>
      <trkpt lat="49.91885" lon="2.24054">
        <ele>18</ele>
        <time>2023-05-19T13:34:51Z</time>
      </trkpt>
      <trkpt lat="49.91885" lon="2.24056">
        <ele>18</ele>
        <time>2023-05-19T13:34:52Z</time>
      </trkpt>
      <trkpt lat="49.91886" lon="2.24058">
        <ele>18</ele>
        <time>2023-05-19T13:34:53Z</time>
      </trkpt>
      <trkpt lat="49.91887" lon="2.2406">
        <ele>18</ele>
        <time>2023-05-19T13:34:54Z</time>
      </trkpt>
      <trkpt lat="49.91888" lon="2.24062">
        <ele>18</ele>
        <time>2023-05-19T13:34:55Z</time>
      </trkpt>
      <trkpt lat="49.91888" lon="2.24064">
        <ele>18</ele>
        <time>2023-05-19T13:34:56Z</time>
      </trkpt>
      <trkpt lat="49.91889" lon="2.24066">
        <ele>18</ele>
        <time>2023-05-19T13:34:58Z</time>
      </trkpt>
      <trkpt lat="49.9189" lon="2.24068">
        <ele>18</ele>
        <time>2023-05-19T13:34:59Z</time>
      </trkpt>
      <trkpt lat="49.91891" lon="2.24071">
        <ele>18</ele>
        <time>2023-05-19T13:35:00Z</time>
      </trkpt>
      <trkpt lat="49.91891" lon="2.24073">
        <ele>18</ele>
        <time>2023-05-19T13:35:01Z</time>
      </trkpt>
      <trkpt lat="49.91892" lon="2.24075">
        <ele>18</ele>
        <time>2023-05-19T13:35:02Z</time>
      </trkpt>
      <trkpt lat="49.91892" lon="2.24077">
        <ele>18</ele>
        <time>2023-05-19T13:35:03Z</time>
      </trkpt>
      <trkpt lat="49.91893" lon="2.24079">
        <ele>18</ele>
        <time>2023-05-19T13:35:04Z</time>
      </trkpt>
      <trkpt lat="49.91893" lon="2.24081">
        <ele>18</ele>
        <time>2023-05-19T13:35:05Z</time>
      </trkpt>
      <trkpt lat="49.91894" lon="2.24085">
        <ele>18</ele>
        <time>2023-05-19T13:35:06Z</time>
      </trkpt>
      <trkpt lat="49.91895" lon="2.24087">
        <ele>18</ele>
        <time>2023-05-19T13:35:08Z</time>
      </trkpt>
      <trkpt lat="49.91895" lon="2.24088">
        <ele>18</ele>
        <time>2023-05-19T13:35:09Z</time>
      </trkpt>
      <trkpt lat="49.91896" lon="2.2409">
        <ele>18</ele>
        <time>2023-05-19T13:35:10Z</time>
      </trkpt>
      <trkpt lat="49.91896" lon="2.24092">
        <ele>18</ele>
        <time>2023-05-19T13:35:11Z</time>
      </trkpt>
      <trkpt lat="49.91897" lon="2.24093">
        <ele>18</ele>
        <time>2023-05-19T13:35:12Z</time>
      </trkpt>
      <trkpt lat="49.91897" lon="2.24095">
        <ele>18</ele>
        <time>2023-05-19T13:35:13Z</time>
      </trkpt>
      <trkpt lat="49.91897" lon="2.24097">
        <ele>18.1</ele>
        <time>2023-05-19T13:35:14Z</time>
      </trkpt>
      <trkpt lat="49.91897" lon="2.24098">
        <ele>18.1</ele>
        <time>2023-05-19T13:35:15Z</time>
      </trkpt>
      <trkpt lat="49.91898" lon="2.241">
        <ele>18.1</ele>
        <time>2023-05-19T13:35:17Z</time>
      </trkpt>
      <trkpt lat="49.91898" lon="2.24102">
        <ele>18.1</ele>
        <time>2023-05-19T13:35:18Z</time>
      </trkpt>
      <trkpt lat="49.91898" lon="2.24105">
        <ele>18.1</ele>
        <time>2023-05-19T13:35:19Z</time>
      </trkpt>
      <trkpt lat="49.91898" lon="2.24106">
        <ele>18.1</ele>
        <time>2023-05-19T13:35:20Z</time>
      </trkpt>
      <trkpt lat="49.91898" lon="2.24108">
        <ele>18.1</ele>
        <time>2023-05-19T13:35:21Z</time>
      </trkpt>
      <trkpt lat="49.91898" lon="2.24111">
        <ele>18.1</ele>
        <time>2023-05-19T13:35:22Z</time>
      </trkpt>
      <trkpt lat="49.91897" lon="2.24112">
        <ele>18.1</ele>
        <time>2023-05-19T13:35:23Z</time>
      </trkpt>
      <trkpt lat="49.91897" lon="2.24114">
        <ele>18.1</ele>
        <time>2023-05-19T13:35:24Z</time>
      </trkpt>
      <trkpt lat="49.91897" lon="2.24116">
        <ele>18.1</ele>
        <time>2023-05-19T13:35:25Z</time>
      </trkpt>
      <trkpt lat="49.91897" lon="2.24118">
        <ele>18.1</ele>
        <time>2023-05-19T13:35:26Z</time>
      </trkpt>
      <trkpt lat="49.91897" lon="2.2412">
        <ele>18.1</ele>
        <time>2023-05-19T13:35:28Z</time>
      </trkpt>
      <trkpt lat="49.91897" lon="2.24122">
        <ele>18.1</ele>
        <time>2023-05-19T13:35:29Z</time>
      </trkpt>
      <trkpt lat="49.91896" lon="2.24124">
        <ele>18.1</ele>
        <time>2023-05-19T13:35:30Z</time>
      </trkpt>
      <trkpt lat="49.91896" lon="2.24125">
        <ele>18.1</ele>
        <time>2023-05-19T13:35:31Z</time>
      </trkpt>
      <trkpt lat="49.91896" lon="2.24127">
        <ele>18.1</ele>
        <time>2023-05-19T13:35:32Z</time>
      </trkpt>
      <trkpt lat="49.91896" lon="2.24129">
        <ele>18.1</ele>
        <time>2023-05-19T13:35:33Z</time>
      </trkpt>
      <trkpt lat="49.91896" lon="2.2413">
        <ele>18.1</ele>
        <time>2023-05-19T13:35:34Z</time>
      </trkpt>
      <trkpt lat="49.91895" lon="2.24134">
        <ele>18.1</ele>
        <time>2023-05-19T13:35:35Z</time>
      </trkpt>
      <trkpt lat="49.91895" lon="2.24136">
        <ele>18.1</ele>
        <time>2023-05-19T13:35:37Z</time>
      </trkpt>
      <trkpt lat="49.91895" lon="2.24137">
        <ele>18.1</ele>
        <time>2023-05-19T13:35:38Z</time>
      </trkpt>
      <trkpt lat="49.91895" lon="2.24139">
        <ele>18.1</ele>
        <time>2023-05-19T13:35:39Z</time>
      </trkpt>
      <trkpt lat="49.91894" lon="2.24141">
        <ele>18.1</ele>
        <time>2023-05-19T13:35:40Z</time>
      </trkpt>
      <trkpt lat="49.91894" lon="2.24144">
        <ele>18.1</ele>
        <time>2023-05-19T13:35:41Z</time>
      </trkpt>
      <trkpt lat="49.91894" lon="2.24145">
        <ele>18.1</ele>
        <time>2023-05-19T13:35:43Z</time>
      </trkpt>
      <trkpt lat="49.91893" lon="2.24146">
        <ele>18.1</ele>
        <time>2023-05-19T13:35:44Z</time>
      </trkpt>
      <trkpt lat="49.91893" lon="2.24148">
        <ele>18.1</ele>
        <time>2023-05-19T13:35:45Z</time>
      </trkpt>
      <trkpt lat="49.91893" lon="2.2415">
        <ele>18.1</ele>
        <time>2023-05-19T13:35:46Z</time>
      </trkpt>
      <trkpt lat="49.91892" lon="2.24153">
        <ele>18.1</ele>
        <time>2023-05-19T13:35:47Z</time>
      </trkpt>
      <trkpt lat="49.91892" lon="2.24155">
        <ele>18.1</ele>
        <time>2023-05-19T13:35:48Z</time>
      </trkpt>
      <trkpt lat="49.91891" lon="2.24156">
        <ele>18.1</ele>
        <time>2023-05-19T13:35:49Z</time>
      </trkpt>
      <trkpt lat="49.91891" lon="2.24159">
        <ele>18.1</ele>
        <time>2023-05-19T13:35:50Z</time>
      </trkpt>
      <trkpt lat="49.91891" lon="2.2416">
        <ele>18.1</ele>
        <time>2023-05-19T13:35:52Z</time>
      </trkpt>
      <trkpt lat="49.9189" lon="2.24161">
        <ele>18.1</ele>
        <time>2023-05-19T13:35:53Z</time>
      </trkpt>
      <trkpt lat="49.9189" lon="2.24164">
        <ele>18.1</ele>
        <time>2023-05-19T13:35:54Z</time>
      </trkpt>
      <trkpt lat="49.9189" lon="2.24166">
        <ele>18.1</ele>
        <time>2023-05-19T13:35:55Z</time>
      </trkpt>
      <trkpt lat="49.9189" lon="2.24167">
        <ele>18.1</ele>
        <time>2023-05-19T13:35:56Z</time>
      </trkpt>
      <trkpt lat="49.91889" lon="2.2417">
        <ele>18.1</ele>
        <time>2023-05-19T13:35:57Z</time>
      </trkpt>
      <trkpt lat="49.91889" lon="2.24171">
        <ele>18.1</ele>
        <time>2023-05-19T13:35:58Z</time>
      </trkpt>
      <trkpt lat="49.91889" lon="2.24173">
        <ele>18.1</ele>
        <time>2023-05-19T13:35:59Z</time>
      </trkpt>
      <trkpt lat="49.91888" lon="2.24175">
        <ele>18.1</ele>
        <time>2023-05-19T13:36:00Z</time>
      </trkpt>
      <trkpt lat="49.91888" lon="2.24176">
        <ele>18.1</ele>
        <time>2023-05-19T13:36:01Z</time>
      </trkpt>
      <trkpt lat="49.91888" lon="2.24178">
        <ele>18.1</ele>
        <time>2023-05-19T13:36:03Z</time>
      </trkpt>
      <trkpt lat="49.91887" lon="2.24181">
        <ele>18.1</ele>
        <time>2023-05-19T13:36:04Z</time>
      </trkpt>
      <trkpt lat="49.91887" lon="2.24182">
        <ele>18</ele>
        <time>2023-05-19T13:36:05Z</time>
      </trkpt>
      <trkpt lat="49.91886" lon="2.24184">
        <ele>18</ele>
        <time>2023-05-19T13:36:06Z</time>
      </trkpt>
      <trkpt lat="49.91886" lon="2.24186">
        <ele>18</ele>
        <time>2023-05-19T13:36:07Z</time>
      </trkpt>
      <trkpt lat="49.91885" lon="2.24189">
        <ele>18</ele>
        <time>2023-05-19T13:36:09Z</time>
      </trkpt>
      <trkpt lat="49.91885" lon="2.24191">
        <ele>18</ele>
        <time>2023-05-19T13:36:10Z</time>
      </trkpt>
      <trkpt lat="49.91884" lon="2.24194">
        <ele>18</ele>
        <time>2023-05-19T13:36:11Z</time>
      </trkpt>
      <trkpt lat="49.91884" lon="2.24195">
        <ele>18</ele>
        <time>2023-05-19T13:36:12Z</time>
      </trkpt>
      <trkpt lat="49.91884" lon="2.24196">
        <ele>18</ele>
        <time>2023-05-19T13:36:13Z</time>
      </trkpt>
      <trkpt lat="49.91884" lon="2.24199">
        <ele>18</ele>
        <time>2023-05-19T13:36:14Z</time>
      </trkpt>
      <trkpt lat="49.91883" lon="2.24201">
        <ele>18</ele>
        <time>2023-05-19T13:36:15Z</time>
      </trkpt>
      <trkpt lat="49.91883" lon="2.24202">
        <ele>18</ele>
        <time>2023-05-19T13:36:16Z</time>
      </trkpt>
      <trkpt lat="49.91883" lon="2.24205">
        <ele>18</ele>
        <time>2023-05-19T13:36:18Z</time>
      </trkpt>
      <trkpt lat="49.91882" lon="2.24207">
        <ele>18</ele>
        <time>2023-05-19T13:36:19Z</time>
      </trkpt>
      <trkpt lat="49.91882" lon="2.2421">
        <ele>18</ele>
        <time>2023-05-19T13:36:20Z</time>
      </trkpt>
      <trkpt lat="49.91881" lon="2.24211">
        <ele>18</ele>
        <time>2023-05-19T13:36:21Z</time>
      </trkpt>
      <trkpt lat="49.91881" lon="2.24212">
        <ele>18</ele>
        <time>2023-05-19T13:36:22Z</time>
      </trkpt>
      <trkpt lat="49.9188" lon="2.24214">
        <ele>17.9</ele>
        <time>2023-05-19T13:36:23Z</time>
      </trkpt>
      <trkpt lat="49.9188" lon="2.24216">
        <ele>17.9</ele>
        <time>2023-05-19T13:36:24Z</time>
      </trkpt>
      <trkpt lat="49.91879" lon="2.24218">
        <ele>17.9</ele>
        <time>2023-05-19T13:36:25Z</time>
      </trkpt>
      <trkpt lat="49.91878" lon="2.24221">
        <ele>17.9</ele>
        <time>2023-05-19T13:36:27Z</time>
      </trkpt>
      <trkpt lat="49.91877" lon="2.24223">
        <ele>17.9</ele>
        <time>2023-05-19T13:36:28Z</time>
      </trkpt>
      <trkpt lat="49.91876" lon="2.24224">
        <ele>17.9</ele>
        <time>2023-05-19T13:36:29Z</time>
      </trkpt>
      <trkpt lat="49.91876" lon="2.24226">
        <ele>17.9</ele>
        <time>2023-05-19T13:36:30Z</time>
      </trkpt>
      <trkpt lat="49.91875" lon="2.24228">
        <ele>17.9</ele>
        <time>2023-05-19T13:36:31Z</time>
      </trkpt>
      <trkpt lat="49.91874" lon="2.2423">
        <ele>17.9</ele>
        <time>2023-05-19T13:36:32Z</time>
      </trkpt>
      <trkpt lat="49.91873" lon="2.24232">
        <ele>17.9</ele>
        <time>2023-05-19T13:36:33Z</time>
      </trkpt>
      <trkpt lat="49.91873" lon="2.24235">
        <ele>17.9</ele>
        <time>2023-05-19T13:36:35Z</time>
      </trkpt>
      <trkpt lat="49.91872" lon="2.24237">
        <ele>17.9</ele>
        <time>2023-05-19T13:36:36Z</time>
      </trkpt>
      <trkpt lat="49.91871" lon="2.24239">
        <ele>17.9</ele>
        <time>2023-05-19T13:36:37Z</time>
      </trkpt>
      <trkpt lat="49.9187" lon="2.24241">
        <ele>17.9</ele>
        <time>2023-05-19T13:36:38Z</time>
      </trkpt>
      <trkpt lat="49.9187" lon="2.24243">
        <ele>17.9</ele>
        <time>2023-05-19T13:36:39Z</time>
      </trkpt>
      <trkpt lat="49.91869" lon="2.24244">
        <ele>17.9</ele>
        <time>2023-05-19T13:36:40Z</time>
      </trkpt>
      <trkpt lat="49.91868" lon="2.24246">
        <ele>17.9</ele>
        <time>2023-05-19T13:36:41Z</time>
      </trkpt>
      <trkpt lat="49.91867" lon="2.24249">
        <ele>17.9</ele>
        <time>2023-05-19T13:36:43Z</time>
      </trkpt>
      <trkpt lat="49.91866" lon="2.2425">
        <ele>17.9</ele>
        <time>2023-05-19T13:36:44Z</time>
      </trkpt>
      <trkpt lat="49.91865" lon="2.24252">
        <ele>17.9</ele>
        <time>2023-05-19T13:36:45Z</time>
      </trkpt>
      <trkpt lat="49.91863" lon="2.24255">
        <ele>17.9</ele>
        <time>2023-05-19T13:36:47Z</time>
      </trkpt>
      <trkpt lat="49.91862" lon="2.24256">
        <ele>17.9</ele>
        <time>2023-05-19T13:36:48Z</time>
      </trkpt>
      <trkpt lat="49.91861" lon="2.24258">
        <ele>17.8</ele>
        <time>2023-05-19T13:36:49Z</time>
      </trkpt>
      <trkpt lat="49.9186" lon="2.2426">
        <ele>17.8</ele>
        <time>2023-05-19T13:36:50Z</time>
      </trkpt>
      <trkpt lat="49.9186" lon="2.24262">
        <ele>17.8</ele>
        <time>2023-05-19T13:36:51Z</time>
      </trkpt>
      <trkpt lat="49.91859" lon="2.24264">
        <ele>17.8</ele>
        <time>2023-05-19T13:36:52Z</time>
      </trkpt>
      <trkpt lat="49.91858" lon="2.24265">
        <ele>17.8</ele>
        <time>2023-05-19T13:36:53Z</time>
      </trkpt>
      <trkpt lat="49.91857" lon="2.24268">
        <ele>17.8</ele>
        <time>2023-05-19T13:36:55Z</time>
      </trkpt>
      <trkpt lat="49.91856" lon="2.2427">
        <ele>17.8</ele>
        <time>2023-05-19T13:36:56Z</time>
      </trkpt>
      <trkpt lat="49.91855" lon="2.24271">
        <ele>17.8</ele>
        <time>2023-05-19T13:36:57Z</time>
      </trkpt>
      <trkpt lat="49.91855" lon="2.24273">
        <ele>17.8</ele>
        <time>2023-05-19T13:36:58Z</time>
      </trkpt>
      <trkpt lat="49.91854" lon="2.24275">
        <ele>17.8</ele>
        <time>2023-05-19T13:36:59Z</time>
      </trkpt>
      <trkpt lat="49.91853" lon="2.24277">
        <ele>17.8</ele>
        <time>2023-05-19T13:37:01Z</time>
      </trkpt>
      <trkpt lat="49.91852" lon="2.24279">
        <ele>17.8</ele>
        <time>2023-05-19T13:37:02Z</time>
      </trkpt>
      <trkpt lat="49.91851" lon="2.2428">
        <ele>17.8</ele>
        <time>2023-05-19T13:37:03Z</time>
      </trkpt>
      <trkpt lat="49.9185" lon="2.24282">
        <ele>17.8</ele>
        <time>2023-05-19T13:37:04Z</time>
      </trkpt>
      <trkpt lat="49.9185" lon="2.24284">
        <ele>17.8</ele>
        <time>2023-05-19T13:37:05Z</time>
      </trkpt>
      <trkpt lat="49.91849" lon="2.24287">
        <ele>17.8</ele>
        <time>2023-05-19T13:37:06Z</time>
      </trkpt>
      <trkpt lat="49.91849" lon="2.2429">
        <ele>17.7</ele>
        <time>2023-05-19T13:37:08Z</time>
      </trkpt>
      <trkpt lat="49.91849" lon="2.24291">
        <ele>17.7</ele>
        <time>2023-05-19T13:37:09Z</time>
      </trkpt>
      <trkpt lat="49.91848" lon="2.24292">
        <ele>17.7</ele>
        <time>2023-05-19T13:37:10Z</time>
      </trkpt>
      <trkpt lat="49.91848" lon="2.24294">
        <ele>17.7</ele>
        <time>2023-05-19T13:37:11Z</time>
      </trkpt>
      <trkpt lat="49.91848" lon="2.24296">
        <ele>17.7</ele>
        <time>2023-05-19T13:37:12Z</time>
      </trkpt>
      <trkpt lat="49.91848" lon="2.24297">
        <ele>17.7</ele>
        <time>2023-05-19T13:37:13Z</time>
      </trkpt>
      <trkpt lat="49.91848" lon="2.24299">
        <ele>17.7</ele>
        <time>2023-05-19T13:37:14Z</time>
      </trkpt>
      <trkpt lat="49.91849" lon="2.24301">
        <ele>17.7</ele>
        <time>2023-05-19T13:37:15Z</time>
      </trkpt>
      <trkpt lat="49.91848" lon="2.24303">
        <ele>17.7</ele>
        <time>2023-05-19T13:37:17Z</time>
      </trkpt>
      <trkpt lat="49.91848" lon="2.24307">
        <ele>17.7</ele>
        <time>2023-05-19T13:37:18Z</time>
      </trkpt>
      <trkpt lat="49.91848" lon="2.24308">
        <ele>17.7</ele>
        <time>2023-05-19T13:37:19Z</time>
      </trkpt>
      <trkpt lat="49.91848" lon="2.24309">
        <ele>17.7</ele>
        <time>2023-05-19T13:37:20Z</time>
      </trkpt>
      <trkpt lat="49.91847" lon="2.24312">
        <ele>17.7</ele>
        <time>2023-05-19T13:37:21Z</time>
      </trkpt>
      <trkpt lat="49.91847" lon="2.24313">
        <ele>17.7</ele>
        <time>2023-05-19T13:37:22Z</time>
      </trkpt>
      <trkpt lat="49.91847" lon="2.24314">
        <ele>17.7</ele>
        <time>2023-05-19T13:37:23Z</time>
      </trkpt>
      <trkpt lat="49.91847" lon="2.24318">
        <ele>17.7</ele>
        <time>2023-05-19T13:37:24Z</time>
      </trkpt>
      <trkpt lat="49.91846" lon="2.24319">
        <ele>17.8</ele>
        <time>2023-05-19T13:37:26Z</time>
      </trkpt>
      <trkpt lat="49.91846" lon="2.2432">
        <ele>17.8</ele>
        <time>2023-05-19T13:37:27Z</time>
      </trkpt>
      <trkpt lat="49.91846" lon="2.24322">
        <ele>17.8</ele>
        <time>2023-05-19T13:37:28Z</time>
      </trkpt>
      <trkpt lat="49.91846" lon="2.24324">
        <ele>17.8</ele>
        <time>2023-05-19T13:37:29Z</time>
      </trkpt>
      <trkpt lat="49.91846" lon="2.24326">
        <ele>17.8</ele>
        <time>2023-05-19T13:37:30Z</time>
      </trkpt>
      <trkpt lat="49.91846" lon="2.24328">
        <ele>17.8</ele>
        <time>2023-05-19T13:37:31Z</time>
      </trkpt>
      <trkpt lat="49.91845" lon="2.2433">
        <ele>17.8</ele>
        <time>2023-05-19T13:37:32Z</time>
      </trkpt>
      <trkpt lat="49.91845" lon="2.24333">
        <ele>17.8</ele>
        <time>2023-05-19T13:37:34Z</time>
      </trkpt>
      <trkpt lat="49.91845" lon="2.24335">
        <ele>17.8</ele>
        <time>2023-05-19T13:37:35Z</time>
      </trkpt>
      <trkpt lat="49.91844" lon="2.24336">
        <ele>17.8</ele>
        <time>2023-05-19T13:37:36Z</time>
      </trkpt>
      <trkpt lat="49.91844" lon="2.24339">
        <ele>17.8</ele>
        <time>2023-05-19T13:37:37Z</time>
      </trkpt>
      <trkpt lat="49.91844" lon="2.24341">
        <ele>17.8</ele>
        <time>2023-05-19T13:37:38Z</time>
      </trkpt>
      <trkpt lat="49.91843" lon="2.24342">
        <ele>17.8</ele>
        <time>2023-05-19T13:37:39Z</time>
      </trkpt>
      <trkpt lat="49.91843" lon="2.24344">
        <ele>17.8</ele>
        <time>2023-05-19T13:37:40Z</time>
      </trkpt>
      <trkpt lat="49.91843" lon="2.24346">
        <ele>17.8</ele>
        <time>2023-05-19T13:37:42Z</time>
      </trkpt>
      <trkpt lat="49.91843" lon="2.24347">
        <ele>17.8</ele>
        <time>2023-05-19T13:37:43Z</time>
      </trkpt>
      <trkpt lat="49.91843" lon="2.24349">
        <ele>17.8</ele>
        <time>2023-05-19T13:37:44Z</time>
      </trkpt>
      <trkpt lat="49.91843" lon="2.24351">
        <ele>17.8</ele>
        <time>2023-05-19T13:37:45Z</time>
      </trkpt>
      <trkpt lat="49.91842" lon="2.24353">
        <ele>17.8</ele>
        <time>2023-05-19T13:37:46Z</time>
      </trkpt>
      <trkpt lat="49.91842" lon="2.24354">
        <ele>17.8</ele>
        <time>2023-05-19T13:37:47Z</time>
      </trkpt>
      <trkpt lat="49.91842" lon="2.24356">
        <ele>17.8</ele>
        <time>2023-05-19T13:37:48Z</time>
      </trkpt>
      <trkpt lat="49.91841" lon="2.24358">
        <ele>17.8</ele>
        <time>2023-05-19T13:37:49Z</time>
      </trkpt>
      <trkpt lat="49.91841" lon="2.24359">
        <ele>17.8</ele>
        <time>2023-05-19T13:37:50Z</time>
      </trkpt>
      <trkpt lat="49.9184" lon="2.24361">
        <ele>17.8</ele>
        <time>2023-05-19T13:37:51Z</time>
      </trkpt>
      <trkpt lat="49.9184" lon="2.24363">
        <ele>17.8</ele>
        <time>2023-05-19T13:37:53Z</time>
      </trkpt>
      <trkpt lat="49.91839" lon="2.24365">
        <ele>17.8</ele>
        <time>2023-05-19T13:37:54Z</time>
      </trkpt>
      <trkpt lat="49.91839" lon="2.24367">
        <ele>17.8</ele>
        <time>2023-05-19T13:37:55Z</time>
      </trkpt>
      <trkpt lat="49.91838" lon="2.24368">
        <ele>17.8</ele>
        <time>2023-05-19T13:37:56Z</time>
      </trkpt>
      <trkpt lat="49.91837" lon="2.24371">
        <ele>17.8</ele>
        <time>2023-05-19T13:37:57Z</time>
      </trkpt>
      <trkpt lat="49.91837" lon="2.24372">
        <ele>17.8</ele>
        <time>2023-05-19T13:37:58Z</time>
      </trkpt>
      <trkpt lat="49.91837" lon="2.24373">
        <ele>17.8</ele>
        <time>2023-05-19T13:37:59Z</time>
      </trkpt>
      <trkpt lat="49.91836" lon="2.24377">
        <ele>17.8</ele>
        <time>2023-05-19T13:38:00Z</time>
      </trkpt>
      <trkpt lat="49.91836" lon="2.24378">
        <ele>17.8</ele>
        <time>2023-05-19T13:38:02Z</time>
      </trkpt>
      <trkpt lat="49.91835" lon="2.24379">
        <ele>17.8</ele>
        <time>2023-05-19T13:38:03Z</time>
      </trkpt>
      <trkpt lat="49.91834" lon="2.24381">
        <ele>17.8</ele>
        <time>2023-05-19T13:38:04Z</time>
      </trkpt>
      <trkpt lat="49.91834" lon="2.24383">
        <ele>17.8</ele>
        <time>2023-05-19T13:38:05Z</time>
      </trkpt>
      <trkpt lat="49.91833" lon="2.24385">
        <ele>17.8</ele>
        <time>2023-05-19T13:38:06Z</time>
      </trkpt>
      <trkpt lat="49.91832" lon="2.24387">
        <ele>17.8</ele>
        <time>2023-05-19T13:38:07Z</time>
      </trkpt>
      <trkpt lat="49.91831" lon="2.24389">
        <ele>17.8</ele>
        <time>2023-05-19T13:38:08Z</time>
      </trkpt>
      <trkpt lat="49.9183" lon="2.24391">
        <ele>17.9</ele>
        <time>2023-05-19T13:38:09Z</time>
      </trkpt>
      <trkpt lat="49.91829" lon="2.24393">
        <ele>17.9</ele>
        <time>2023-05-19T13:38:11Z</time>
      </trkpt>
      <trkpt lat="49.91829" lon="2.24395">
        <ele>17.9</ele>
        <time>2023-05-19T13:38:12Z</time>
      </trkpt>
      <trkpt lat="49.91828" lon="2.24397">
        <ele>17.9</ele>
        <time>2023-05-19T13:38:13Z</time>
      </trkpt>
      <trkpt lat="49.91827" lon="2.24399">
        <ele>17.9</ele>
        <time>2023-05-19T13:38:14Z</time>
      </trkpt>
      <trkpt lat="49.91827" lon="2.24401">
        <ele>17.9</ele>
        <time>2023-05-19T13:38:15Z</time>
      </trkpt>
      <trkpt lat="49.91826" lon="2.24404">
        <ele>18</ele>
        <time>2023-05-19T13:38:16Z</time>
      </trkpt>
      <trkpt lat="49.91825" lon="2.24406">
        <ele>18</ele>
        <time>2023-05-19T13:38:17Z</time>
      </trkpt>
      <trkpt lat="49.91824" lon="2.24408">
        <ele>18</ele>
        <time>2023-05-19T13:38:18Z</time>
      </trkpt>
      <trkpt lat="49.91824" lon="2.2441">
        <ele>18</ele>
        <time>2023-05-19T13:38:19Z</time>
      </trkpt>
      <trkpt lat="49.91823" lon="2.24412">
        <ele>18</ele>
        <time>2023-05-19T13:38:20Z</time>
      </trkpt>
      <trkpt lat="49.91822" lon="2.24414">
        <ele>18</ele>
        <time>2023-05-19T13:38:22Z</time>
      </trkpt>
      <trkpt lat="49.91822" lon="2.24416">
        <ele>18</ele>
        <time>2023-05-19T13:38:23Z</time>
      </trkpt>
      <trkpt lat="49.91821" lon="2.24418">
        <ele>18</ele>
        <time>2023-05-19T13:38:24Z</time>
      </trkpt>
      <trkpt lat="49.91821" lon="2.2442">
        <ele>18</ele>
        <time>2023-05-19T13:38:25Z</time>
      </trkpt>
      <trkpt lat="49.91821" lon="2.24422">
        <ele>18</ele>
        <time>2023-05-19T13:38:26Z</time>
      </trkpt>
      <trkpt lat="49.9182" lon="2.24424">
        <ele>18</ele>
        <time>2023-05-19T13:38:27Z</time>
      </trkpt>
      <trkpt lat="49.9182" lon="2.24425">
        <ele>18</ele>
        <time>2023-05-19T13:38:29Z</time>
      </trkpt>
      <trkpt lat="49.91819" lon="2.24427">
        <ele>18</ele>
        <time>2023-05-19T13:38:30Z</time>
      </trkpt>
      <trkpt lat="49.91819" lon="2.24428">
        <ele>18</ele>
        <time>2023-05-19T13:38:31Z</time>
      </trkpt>
      <trkpt lat="49.91819" lon="2.24429">
        <ele>18</ele>
        <time>2023-05-19T13:38:32Z</time>
      </trkpt>
      <trkpt lat="49.9182" lon="2.24428">
        <ele>18</ele>
        <time>2023-05-19T13:38:34Z</time>
      </trkpt>
      <trkpt lat="49.9182" lon="2.24428">
        <ele>18</ele>
        <time>2023-05-19T13:38:35Z</time>
      </trkpt>
      <trkpt lat="49.9182" lon="2.24427">
        <ele>18</ele>
        <time>2023-05-19T13:38:37Z</time>
      </trkpt>
      <trkpt lat="49.9182" lon="2.24427">
        <ele>18</ele>
        <time>2023-05-19T13:38:38Z</time>
      </trkpt>
      <trkpt lat="49.91821" lon="2.24425">
        <ele>18</ele>
        <time>2023-05-19T13:38:39Z</time>
      </trkpt>
      <trkpt lat="49.91822" lon="2.24424">
        <ele>18</ele>
        <time>2023-05-19T13:38:41Z</time>
      </trkpt>
      <trkpt lat="49.91822" lon="2.24423">
        <ele>18</ele>
        <time>2023-05-19T13:38:42Z</time>
      </trkpt>
      <trkpt lat="49.91822" lon="2.24422">
        <ele>18</ele>
        <time>2023-05-19T13:38:44Z</time>
      </trkpt>
      <trkpt lat="49.91822" lon="2.24421">
        <ele>18</ele>
        <time>2023-05-19T13:38:45Z</time>
      </trkpt>
      <trkpt lat="49.91822" lon="2.24419">
        <ele>18</ele>
        <time>2023-05-19T13:38:47Z</time>
      </trkpt>
      <trkpt lat="49.91822" lon="2.24419">
        <ele>18</ele>
        <time>2023-05-19T13:38:48Z</time>
      </trkpt>
      <trkpt lat="49.91821" lon="2.24417">
        <ele>18</ele>
        <time>2023-05-19T13:38:54Z</time>
      </trkpt>
      <trkpt lat="49.9182" lon="2.24416">
        <ele>18</ele>
        <time>2023-05-19T13:38:55Z</time>
      </trkpt>
      <trkpt lat="49.91822" lon="2.24422">
        <ele>18</ele>
        <time>2023-05-19T13:38:56Z</time>
      </trkpt>
      <trkpt lat="49.91822" lon="2.24424">
        <ele>18</ele>
        <time>2023-05-19T13:38:57Z</time>
      </trkpt>
      <trkpt lat="49.91821" lon="2.24425">
        <ele>18</ele>
        <time>2023-05-19T13:38:59Z</time>
      </trkpt>
      <trkpt lat="49.91821" lon="2.24425">
        <ele>18</ele>
        <time>2023-05-19T13:39:00Z</time>
      </trkpt>
      <trkpt lat="49.91821" lon="2.24426">
        <ele>18</ele>
        <time>2023-05-19T13:39:01Z</time>
      </trkpt>
      <trkpt lat="49.91821" lon="2.24427">
        <ele>18</ele>
        <time>2023-05-19T13:39:02Z</time>
      </trkpt>
      <trkpt lat="49.9182" lon="2.24428">
        <ele>18</ele>
        <time>2023-05-19T13:39:03Z</time>
      </trkpt>
      <trkpt lat="49.9182" lon="2.24429">
        <ele>18</ele>
        <time>2023-05-19T13:39:04Z</time>
      </trkpt>
      <trkpt lat="49.91819" lon="2.2443">
        <ele>18</ele>
        <time>2023-05-19T13:39:06Z</time>
      </trkpt>
      <trkpt lat="49.91819" lon="2.24431">
        <ele>18</ele>
        <time>2023-05-19T13:39:07Z</time>
      </trkpt>
      <trkpt lat="49.91818" lon="2.24432">
        <ele>18</ele>
        <time>2023-05-19T13:39:08Z</time>
      </trkpt>
      <trkpt lat="49.91818" lon="2.24433">
        <ele>18</ele>
        <time>2023-05-19T13:39:09Z</time>
      </trkpt>
      <trkpt lat="49.91817" lon="2.24433">
        <ele>18</ele>
        <time>2023-05-19T13:39:10Z</time>
      </trkpt>
      <trkpt lat="49.91817" lon="2.24434">
        <ele>18</ele>
        <time>2023-05-19T13:39:12Z</time>
      </trkpt>
      <trkpt lat="49.91816" lon="2.24435">
        <ele>18</ele>
        <time>2023-05-19T13:39:13Z</time>
      </trkpt>
      <trkpt lat="49.91815" lon="2.24436">
        <ele>18</ele>
        <time>2023-05-19T13:39:14Z</time>
      </trkpt>
      <trkpt lat="49.91815" lon="2.24437">
        <ele>18</ele>
        <time>2023-05-19T13:39:15Z</time>
      </trkpt>
      <trkpt lat="49.91814" lon="2.24437">
        <ele>18</ele>
        <time>2023-05-19T13:39:16Z</time>
      </trkpt>
      <trkpt lat="49.91813" lon="2.24438">
        <ele>18</ele>
        <time>2023-05-19T13:39:18Z</time>
      </trkpt>
      <trkpt lat="49.91813" lon="2.24439">
        <ele>18</ele>
        <time>2023-05-19T13:39:19Z</time>
      </trkpt>
      <trkpt lat="49.91812" lon="2.2444">
        <ele>18</ele>
        <time>2023-05-19T13:39:20Z</time>
      </trkpt>
      <trkpt lat="49.91812" lon="2.2444">
        <ele>18</ele>
        <time>2023-05-19T13:39:21Z</time>
      </trkpt>
      <trkpt lat="49.91812" lon="2.24441">
        <ele>18</ele>
        <time>2023-05-19T13:39:22Z</time>
      </trkpt>
      <trkpt lat="49.91812" lon="2.2444">
        <ele>18</ele>
        <time>2023-05-19T13:39:23Z</time>
      </trkpt>
      <trkpt lat="49.91812" lon="2.2444">
        <ele>18</ele>
        <time>2023-05-19T13:39:25Z</time>
      </trkpt>
      <trkpt lat="49.91809" lon="2.24439">
        <ele>18</ele>
        <time>2023-05-19T13:39:26Z</time>
      </trkpt>
      <trkpt lat="49.91805" lon="2.24438">
        <ele>18</ele>
        <time>2023-05-19T13:39:27Z</time>
      </trkpt>
      <trkpt lat="49.91803" lon="2.24439">
        <ele>18</ele>
        <time>2023-05-19T13:39:29Z</time>
      </trkpt>
      <trkpt lat="49.91803" lon="2.24439">
        <ele>18</ele>
        <time>2023-05-19T13:39:30Z</time>
      </trkpt>
      <trkpt lat="49.91802" lon="2.2444">
        <ele>18</ele>
        <time>2023-05-19T13:39:32Z</time>
      </trkpt>
      <trkpt lat="49.91802" lon="2.24441">
        <ele>18</ele>
        <time>2023-05-19T13:39:33Z</time>
      </trkpt>
      <trkpt lat="49.91801" lon="2.24442">
        <ele>18</ele>
        <time>2023-05-19T13:39:35Z</time>
      </trkpt>
      <trkpt lat="49.91801" lon="2.24443">
        <ele>18</ele>
        <time>2023-05-19T13:39:36Z</time>
      </trkpt>
      <trkpt lat="49.918" lon="2.24443">
        <ele>18</ele>
        <time>2023-05-19T13:39:37Z</time>
      </trkpt>
      <trkpt lat="49.918" lon="2.24444">
        <ele>18</ele>
        <time>2023-05-19T13:39:39Z</time>
      </trkpt>
      <trkpt lat="49.91799" lon="2.24445">
        <ele>18</ele>
        <time>2023-05-19T13:39:40Z</time>
      </trkpt>
      <trkpt lat="49.91799" lon="2.24446">
        <ele>18</ele>
        <time>2023-05-19T13:39:42Z</time>
      </trkpt>
      <trkpt lat="49.91798" lon="2.24447">
        <ele>18</ele>
        <time>2023-05-19T13:39:43Z</time>
      </trkpt>
      <trkpt lat="49.91798" lon="2.24447">
        <ele>18</ele>
        <time>2023-05-19T13:39:45Z</time>
      </trkpt>
      <trkpt lat="49.91797" lon="2.24448">
        <ele>18</ele>
        <time>2023-05-19T13:39:46Z</time>
      </trkpt>
      <trkpt lat="49.91797" lon="2.24449">
        <ele>18</ele>
        <time>2023-05-19T13:39:47Z</time>
      </trkpt>
      <trkpt lat="49.91796" lon="2.2445">
        <ele>18</ele>
        <time>2023-05-19T13:39:55Z</time>
      </trkpt>
      <trkpt lat="49.91796" lon="2.24451">
        <ele>18</ele>
        <time>2023-05-19T13:39:56Z</time>
      </trkpt>
      <trkpt lat="49.91795" lon="2.24451">
        <ele>18</ele>
        <time>2023-05-19T13:39:57Z</time>
      </trkpt>
      <trkpt lat="49.91795" lon="2.24452">
        <ele>18</ele>
        <time>2023-05-19T13:39:58Z</time>
      </trkpt>
      <trkpt lat="49.91795" lon="2.24456">
        <ele>18</ele>
        <time>2023-05-19T13:39:59Z</time>
      </trkpt>
      <trkpt lat="49.91796" lon="2.24461">
        <ele>18</ele>
        <time>2023-05-19T13:40:01Z</time>
      </trkpt>
      <trkpt lat="49.91798" lon="2.24463">
        <ele>18</ele>
        <time>2023-05-19T13:40:03Z</time>
      </trkpt>
      <trkpt lat="49.91798" lon="2.24464">
        <ele>18</ele>
        <time>2023-05-19T13:40:04Z</time>
      </trkpt>
      <trkpt lat="49.91799" lon="2.24464">
        <ele>18</ele>
        <time>2023-05-19T13:40:05Z</time>
      </trkpt>
      <trkpt lat="49.91799" lon="2.24464">
        <ele>18</ele>
        <time>2023-05-19T13:40:07Z</time>
      </trkpt>
      <trkpt lat="49.91799" lon="2.24464">
        <ele>18</ele>
        <time>2023-05-19T13:40:08Z</time>
      </trkpt>
      <trkpt lat="49.918" lon="2.24464">
        <ele>18</ele>
        <time>2023-05-19T13:40:10Z</time>
      </trkpt>
      <trkpt lat="49.918" lon="2.24464">
        <ele>18</ele>
        <time>2023-05-19T13:40:11Z</time>
      </trkpt>
      <trkpt lat="49.918" lon="2.24464">
        <ele>18</ele>
        <time>2023-05-19T13:40:13Z</time>
      </trkpt>
      <trkpt lat="49.918" lon="2.24464">
        <ele>18</ele>
        <time>2023-05-19T13:40:14Z</time>
      </trkpt>
      <trkpt lat="49.918" lon="2.24464">
        <ele>18</ele>
        <time>2023-05-19T13:40:15Z</time>
      </trkpt>
      <trkpt lat="49.91811" lon="2.2447">
        <ele>18.1</ele>
        <time>2023-05-19T13:40:26Z</time>
      </trkpt>
      <trkpt lat="49.91812" lon="2.24471">
        <ele>18.1</ele>
        <time>2023-05-19T13:40:27Z</time>
      </trkpt>
      <trkpt lat="49.91812" lon="2.24471">
        <ele>18.1</ele>
        <time>2023-05-19T13:40:28Z</time>
      </trkpt>
      <trkpt lat="49.91812" lon="2.24471">
        <ele>18.1</ele>
        <time>2023-05-19T13:40:29Z</time>
      </trkpt>
      <trkpt lat="49.91813" lon="2.24471">
        <ele>18.1</ele>
        <time>2023-05-19T13:40:30Z</time>
      </trkpt>
      <trkpt lat="49.91813" lon="2.24471">
        <ele>18.1</ele>
        <time>2023-05-19T13:40:31Z</time>
      </trkpt>
      <trkpt lat="49.91813" lon="2.24471">
        <ele>18.1</ele>
        <time>2023-05-19T13:40:32Z</time>
      </trkpt>
      <trkpt lat="49.91813" lon="2.24471">
        <ele>18.1</ele>
        <time>2023-05-19T13:40:33Z</time>
      </trkpt>
      <trkpt lat="49.91813" lon="2.24471">
        <ele>18.1</ele>
        <time>2023-05-19T13:40:34Z</time>
      </trkpt>
      <trkpt lat="49.91813" lon="2.24471">
        <ele>18.1</ele>
        <time>2023-05-19T13:40:35Z</time>
      </trkpt>
      <trkpt lat="49.91813" lon="2.24471">
        <ele>18.1</ele>
        <time>2023-05-19T13:40:36Z</time>
      </trkpt>
      <trkpt lat="49.91813" lon="2.24471">
        <ele>18.1</ele>
        <time>2023-05-19T13:40:37Z</time>
      </trkpt>
      <trkpt lat="49.91813" lon="2.24471">
        <ele>18.1</ele>
        <time>2023-05-19T13:40:38Z</time>
      </trkpt>
      <trkpt lat="49.91813" lon="2.24471">
        <ele>18.1</ele>
        <time>2023-05-19T13:40:39Z</time>
      </trkpt>
      <trkpt lat="49.91813" lon="2.24471">
        <ele>18.1</ele>
        <time>2023-05-19T13:40:40Z</time>
      </trkpt>
      <trkpt lat="49.91813" lon="2.24471">
        <ele>18.1</ele>
        <time>2023-05-19T13:40:41Z</time>
      </trkpt>
      <trkpt lat="49.91813" lon="2.24471">
        <ele>18.1</ele>
        <time>2023-05-19T13:40:42Z</time>
      </trkpt>
      <trkpt lat="49.91813" lon="2.24471">
        <ele>18.1</ele>
        <time>2023-05-19T13:40:43Z</time>
      </trkpt>
      <trkpt lat="49.91813" lon="2.24471">
        <ele>18.1</ele>
        <time>2023-05-19T13:40:44Z</time>
      </trkpt>
      <trkpt lat="49.91813" lon="2.24471">
        <ele>18.1</ele>
        <time>2023-05-19T13:40:45Z</time>
      </trkpt>
      <trkpt lat="49.91813" lon="2.24471">
        <ele>18.1</ele>
        <time>2023-05-19T13:40:46Z</time>
      </trkpt>
      <trkpt lat="49.91813" lon="2.24471">
        <ele>18.1</ele>
        <time>2023-05-19T13:40:47Z</time>
      </trkpt>
      <trkpt lat="49.91813" lon="2.24471">
        <ele>18.1</ele>
        <time>2023-05-19T13:40:48Z</time>
      </trkpt>
      <trkpt lat="49.91813" lon="2.24471">
        <ele>18.1</ele>
        <time>2023-05-19T13:40:49Z</time>
      </trkpt>
      <trkpt lat="49.91813" lon="2.24471">
        <ele>18.1</ele>
        <time>2023-05-19T13:40:50Z</time>
      </trkpt>
      <trkpt lat="49.91813" lon="2.24471">
        <ele>18.1</ele>
        <time>2023-05-19T13:40:51Z</time>
      </trkpt>
      <trkpt lat="49.91813" lon="2.24471">
        <ele>18.1</ele>
        <time>2023-05-19T13:40:52Z</time>
      </trkpt>
      <trkpt lat="49.91813" lon="2.24471">
        <ele>18.1</ele>
        <time>2023-05-19T13:40:53Z</time>
      </trkpt>
      <trkpt lat="49.91813" lon="2.24471">
        <ele>18.1</ele>
        <time>2023-05-19T13:40:54Z</time>
      </trkpt>
      <trkpt lat="49.91813" lon="2.24471">
        <ele>18.1</ele>
        <time>2023-05-19T13:40:55Z</time>
      </trkpt>
      <trkpt lat="49.91813" lon="2.24471">
        <ele>18.1</ele>
        <time>2023-05-19T13:40:56Z</time>
      </trkpt>
      <trkpt lat="49.91813" lon="2.24471">
        <ele>18.1</ele>
        <time>2023-05-19T13:40:57Z</time>
      </trkpt>
      <trkpt lat="49.91813" lon="2.24471">
        <ele>18.1</ele>
        <time>2023-05-19T13:40:58Z</time>
      </trkpt>
      <trkpt lat="49.91813" lon="2.24471">
        <ele>18.1</ele>
        <time>2023-05-19T13:40:59Z</time>
      </trkpt>
      <trkpt lat="49.91813" lon="2.24471">
        <ele>18.1</ele>
        <time>2023-05-19T13:41:00Z</time>
      </trkpt>
      <trkpt lat="49.91813" lon="2.24471">
        <ele>18.1</ele>
        <time>2023-05-19T13:41:01Z</time>
      </trkpt>
      <trkpt lat="49.91813" lon="2.24471">
        <ele>18.1</ele>
        <time>2023-05-19T13:41:02Z</time>
      </trkpt>
      <trkpt lat="49.91813" lon="2.24471">
        <ele>18.1</ele>
        <time>2023-05-19T13:41:03Z</time>
      </trkpt>
      <trkpt lat="49.91813" lon="2.24471">
        <ele>18.1</ele>
        <time>2023-05-19T13:41:04Z</time>
      </trkpt>
      <trkpt lat="49.91813" lon="2.24471">
        <ele>18.1</ele>
        <time>2023-05-19T13:41:05Z</time>
      </trkpt>
      <trkpt lat="49.91813" lon="2.24471">
        <ele>18.1</ele>
        <time>2023-05-19T13:41:06Z</time>
      </trkpt>
      <trkpt lat="49.91813" lon="2.24471">
        <ele>18.1</ele>
        <time>2023-05-19T13:41:07Z</time>
      </trkpt>
      <trkpt lat="49.91813" lon="2.24471">
        <ele>18.1</ele>
        <time>2023-05-19T13:41:08Z</time>
      </trkpt>
      <trkpt lat="49.91813" lon="2.24471">
        <ele>18.1</ele>
        <time>2023-05-19T13:41:09Z</time>
      </trkpt>
      <trkpt lat="49.91813" lon="2.24471">
        <ele>18.1</ele>
        <time>2023-05-19T13:41:10Z</time>
      </trkpt>
      <trkpt lat="49.91813" lon="2.24471">
        <ele>18.1</ele>
        <time>2023-05-19T13:41:11Z</time>
      </trkpt>
      <trkpt lat="49.91813" lon="2.24471">
        <ele>18.1</ele>
        <time>2023-05-19T13:41:12Z</time>
      </trkpt>
      <trkpt lat="49.91813" lon="2.24471">
        <ele>18.1</ele>
        <time>2023-05-19T13:41:13Z</time>
      </trkpt>
      <trkpt lat="49.91813" lon="2.24471">
        <ele>18.1</ele>
        <time>2023-05-19T13:41:14Z</time>
      </trkpt>
      <trkpt lat="49.91813" lon="2.24471">
        <ele>18.1</ele>
        <time>2023-05-19T13:41:15Z</time>
      </trkpt>
      <trkpt lat="49.91813" lon="2.24471">
        <ele>18.1</ele>
        <time>2023-05-19T13:41:16Z</time>
      </trkpt>
      <trkpt lat="49.91813" lon="2.24471">
        <ele>18.1</ele>
        <time>2023-05-19T13:41:17Z</time>
      </trkpt>
      <trkpt lat="49.91813" lon="2.24471">
        <ele>18.1</ele>
        <time>2023-05-19T13:41:18Z</time>
      </trkpt>
      <trkpt lat="49.91813" lon="2.24471">
        <ele>18.1</ele>
        <time>2023-05-19T13:41:19Z</time>
      </trkpt>
      <trkpt lat="49.91813" lon="2.24471">
        <ele>18.1</ele>
        <time>2023-05-19T13:41:20Z</time>
      </trkpt>
      <trkpt lat="49.91813" lon="2.24471">
        <ele>18.1</ele>
        <time>2023-05-19T13:41:21Z</time>
      </trkpt>
      <trkpt lat="49.91813" lon="2.24471">
        <ele>18.1</ele>
        <time>2023-05-19T13:41:22Z</time>
      </trkpt>
      <trkpt lat="49.91813" lon="2.24471">
        <ele>18.1</ele>
        <time>2023-05-19T13:41:23Z</time>
      </trkpt>
      <trkpt lat="49.91813" lon="2.24471">
        <ele>18.1</ele>
        <time>2023-05-19T13:41:24Z</time>
      </trkpt>
      <trkpt lat="49.91813" lon="2.24471">
        <ele>18.1</ele>
        <time>2023-05-19T13:41:25Z</time>
      </trkpt>
      <trkpt lat="49.91813" lon="2.24471">
        <ele>18.1</ele>
        <time>2023-05-19T13:41:26Z</time>
      </trkpt>
      <trkpt lat="49.91813" lon="2.24471">
        <ele>18.1</ele>
        <time>2023-05-19T13:41:27Z</time>
      </trkpt>
      <trkpt lat="49.91813" lon="2.24471">
        <ele>18.1</ele>
        <time>2023-05-19T13:41:28Z</time>
      </trkpt>
      <trkpt lat="49.91813" lon="2.24471">
        <ele>18.1</ele>
        <time>2023-05-19T13:41:29Z</time>
      </trkpt>
      <trkpt lat="49.91813" lon="2.24471">
        <ele>18.1</ele>
        <time>2023-05-19T13:41:30Z</time>
      </trkpt>
      <trkpt lat="49.91813" lon="2.24471">
        <ele>18.1</ele>
        <time>2023-05-19T13:41:31Z</time>
      </trkpt>
      <trkpt lat="49.91813" lon="2.24471">
        <ele>18.1</ele>
        <time>2023-05-19T13:41:32Z</time>
      </trkpt>
      <trkpt lat="49.91813" lon="2.24471">
        <ele>18.1</ele>
        <time>2023-05-19T13:41:33Z</time>
      </trkpt>
      <trkpt lat="49.91813" lon="2.24471">
        <ele>18.1</ele>
        <time>2023-05-19T13:41:34Z</time>
      </trkpt>
      <trkpt lat="49.91813" lon="2.24471">
        <ele>18.1</ele>
        <time>2023-05-19T13:41:35Z</time>
      </trkpt>
      <trkpt lat="49.91813" lon="2.24471">
        <ele>18.1</ele>
        <time>2023-05-19T13:41:36Z</time>
      </trkpt>
      <trkpt lat="49.91813" lon="2.24471">
        <ele>18.1</ele>
        <time>2023-05-19T13:41:37Z</time>
      </trkpt>
      <trkpt lat="49.91814" lon="2.24471">
        <ele>18.1</ele>
        <time>2023-05-19T13:41:38Z</time>
      </trkpt>
      <trkpt lat="49.91815" lon="2.24472">
        <ele>18.1</ele>
        <time>2023-05-19T13:41:39Z</time>
      </trkpt>
      <trkpt lat="49.91814" lon="2.24471">
        <ele>18.1</ele>
        <time>2023-05-19T13:41:40Z</time>
      </trkpt>
      <trkpt lat="49.91814" lon="2.24471">
        <ele>18.1</ele>
        <time>2023-05-19T13:41:41Z</time>
      </trkpt>
      <trkpt lat="49.91814" lon="2.24472">
        <ele>18.1</ele>
        <time>2023-05-19T13:41:42Z</time>
      </trkpt>
      <trkpt lat="49.91813" lon="2.24473">
        <ele>18.1</ele>
        <time>2023-05-19T13:41:43Z</time>
      </trkpt>
      <trkpt lat="49.91814" lon="2.24473">
        <ele>18.1</ele>
        <time>2023-05-19T13:41:45Z</time>
      </trkpt>
      <trkpt lat="49.91814" lon="2.24474">
        <ele>18.1</ele>
        <time>2023-05-19T13:41:46Z</time>
      </trkpt>
      <trkpt lat="49.91815" lon="2.24475">
        <ele>18.1</ele>
        <time>2023-05-19T13:41:47Z</time>
      </trkpt>
      <trkpt lat="49.91815" lon="2.24476">
        <ele>18.1</ele>
        <time>2023-05-19T13:41:49Z</time>
      </trkpt>
      <trkpt lat="49.91815" lon="2.24478">
        <ele>18.1</ele>
        <time>2023-05-19T13:41:50Z</time>
      </trkpt>
      <trkpt lat="49.91815" lon="2.2448">
        <ele>18.1</ele>
        <time>2023-05-19T13:41:51Z</time>
      </trkpt>
      <trkpt lat="49.91815" lon="2.24481">
        <ele>18.1</ele>
        <time>2023-05-19T13:41:52Z</time>
      </trkpt>
      <trkpt lat="49.91815" lon="2.24483">
        <ele>18.1</ele>
        <time>2023-05-19T13:41:54Z</time>
      </trkpt>
      <trkpt lat="49.91815" lon="2.24484">
        <ele>18.1</ele>
        <time>2023-05-19T13:41:55Z</time>
      </trkpt>
      <trkpt lat="49.91815" lon="2.24485">
        <ele>18.1</ele>
        <time>2023-05-19T13:41:56Z</time>
      </trkpt>
      <trkpt lat="49.91815" lon="2.24486">
        <ele>18.1</ele>
        <time>2023-05-19T13:41:57Z</time>
      </trkpt>
      <trkpt lat="49.91816" lon="2.24488">
        <ele>18.1</ele>
        <time>2023-05-19T13:41:59Z</time>
      </trkpt>
      <trkpt lat="49.91816" lon="2.24489">
        <ele>18.1</ele>
        <time>2023-05-19T13:42:00Z</time>
      </trkpt>
      <trkpt lat="49.91816" lon="2.2449">
        <ele>18.1</ele>
        <time>2023-05-19T13:42:01Z</time>
      </trkpt>
      <trkpt lat="49.91816" lon="2.2449">
        <ele>18.1</ele>
        <time>2023-05-19T13:42:03Z</time>
      </trkpt>
      <trkpt lat="49.91816" lon="2.2449">
        <ele>18.1</ele>
        <time>2023-05-19T13:42:04Z</time>
      </trkpt>
      <trkpt lat="49.91816" lon="2.2449">
        <ele>18.1</ele>
        <time>2023-05-19T13:42:06Z</time>
      </trkpt>
      <trkpt lat="49.91816" lon="2.24489">
        <ele>18.1</ele>
        <time>2023-05-19T13:42:07Z</time>
      </trkpt>
      <trkpt lat="49.91816" lon="2.24489">
        <ele>18.1</ele>
        <time>2023-05-19T13:42:08Z</time>
      </trkpt>
      <trkpt lat="49.91816" lon="2.2449">
        <ele>18.1</ele>
        <time>2023-05-19T13:42:10Z</time>
      </trkpt>
      <trkpt lat="49.91817" lon="2.24491">
        <ele>18.1</ele>
        <time>2023-05-19T13:42:11Z</time>
      </trkpt>
      <trkpt lat="49.91817" lon="2.24492">
        <ele>18.1</ele>
        <time>2023-05-19T13:42:12Z</time>
      </trkpt>
      <trkpt lat="49.91817" lon="2.24492">
        <ele>18.1</ele>
        <time>2023-05-19T13:42:13Z</time>
      </trkpt>
      <trkpt lat="49.91817" lon="2.24493">
        <ele>18.1</ele>
        <time>2023-05-19T13:42:14Z</time>
      </trkpt>
      <trkpt lat="49.91817" lon="2.24494">
        <ele>18.1</ele>
        <time>2023-05-19T13:42:15Z</time>
      </trkpt>
      <trkpt lat="49.91818" lon="2.24495">
        <ele>18.1</ele>
        <time>2023-05-19T13:42:17Z</time>
      </trkpt>
      <trkpt lat="49.91818" lon="2.24496">
        <ele>18.1</ele>
        <time>2023-05-19T13:42:18Z</time>
      </trkpt>
      <trkpt lat="49.91819" lon="2.24497">
        <ele>18.1</ele>
        <time>2023-05-19T13:42:19Z</time>
      </trkpt>
      <trkpt lat="49.9182" lon="2.24498">
        <ele>18.1</ele>
        <time>2023-05-19T13:42:20Z</time>
      </trkpt>
      <trkpt lat="49.91821" lon="2.245">
        <ele>18.1</ele>
        <time>2023-05-19T13:42:22Z</time>
      </trkpt>
      <trkpt lat="49.91821" lon="2.24501">
        <ele>18.1</ele>
        <time>2023-05-19T13:42:23Z</time>
      </trkpt>
      <trkpt lat="49.91822" lon="2.24502">
        <ele>18.1</ele>
        <time>2023-05-19T13:42:24Z</time>
      </trkpt>
      <trkpt lat="49.91822" lon="2.24503">
        <ele>18.1</ele>
        <time>2023-05-19T13:42:25Z</time>
      </trkpt>
      <trkpt lat="49.91823" lon="2.24505">
        <ele>18.1</ele>
        <time>2023-05-19T13:42:27Z</time>
      </trkpt>
      <trkpt lat="49.91823" lon="2.24506">
        <ele>18.1</ele>
        <time>2023-05-19T13:42:28Z</time>
      </trkpt>
      <trkpt lat="49.91824" lon="2.24507">
        <ele>18.1</ele>
        <time>2023-05-19T13:42:29Z</time>
      </trkpt>
      <trkpt lat="49.91824" lon="2.2451">
        <ele>18.1</ele>
        <time>2023-05-19T13:42:30Z</time>
      </trkpt>
      <trkpt lat="49.91824" lon="2.24512">
        <ele>18.1</ele>
        <time>2023-05-19T13:42:31Z</time>
      </trkpt>
      <trkpt lat="49.91825" lon="2.24513">
        <ele>18.1</ele>
        <time>2023-05-19T13:42:32Z</time>
      </trkpt>
      <trkpt lat="49.91825" lon="2.24516">
        <ele>18.1</ele>
        <time>2023-05-19T13:42:33Z</time>
      </trkpt>
      <trkpt lat="49.91825" lon="2.24518">
        <ele>18.1</ele>
        <time>2023-05-19T13:42:35Z</time>
      </trkpt>
      <trkpt lat="49.91825" lon="2.24519">
        <ele>18.1</ele>
        <time>2023-05-19T13:42:36Z</time>
      </trkpt>
      <trkpt lat="49.91825" lon="2.24522">
        <ele>18.1</ele>
        <time>2023-05-19T13:42:37Z</time>
      </trkpt>
      <trkpt lat="49.91825" lon="2.24523">
        <ele>18.1</ele>
        <time>2023-05-19T13:42:38Z</time>
      </trkpt>
      <trkpt lat="49.91825" lon="2.24525">
        <ele>18.1</ele>
        <time>2023-05-19T13:42:39Z</time>
      </trkpt>
      <trkpt lat="49.91825" lon="2.24527">
        <ele>18.1</ele>
        <time>2023-05-19T13:42:40Z</time>
      </trkpt>
      <trkpt lat="49.91825" lon="2.24529">
        <ele>18.1</ele>
        <time>2023-05-19T13:42:41Z</time>
      </trkpt>
      <trkpt lat="49.91824" lon="2.24533">
        <ele>18.1</ele>
        <time>2023-05-19T13:42:42Z</time>
      </trkpt>
      <trkpt lat="49.91824" lon="2.24534">
        <ele>18.1</ele>
        <time>2023-05-19T13:42:44Z</time>
      </trkpt>
      <trkpt lat="49.91824" lon="2.24536">
        <ele>18.1</ele>
        <time>2023-05-19T13:42:45Z</time>
      </trkpt>
      <trkpt lat="49.91824" lon="2.24539">
        <ele>18.1</ele>
        <time>2023-05-19T13:42:46Z</time>
      </trkpt>
      <trkpt lat="49.91824" lon="2.2454">
        <ele>18.1</ele>
        <time>2023-05-19T13:42:47Z</time>
      </trkpt>
      <trkpt lat="49.91824" lon="2.24542">
        <ele>18.2</ele>
        <time>2023-05-19T13:42:48Z</time>
      </trkpt>
      <trkpt lat="49.91824" lon="2.24545">
        <ele>18.2</ele>
        <time>2023-05-19T13:42:49Z</time>
      </trkpt>
      <trkpt lat="49.91824" lon="2.24546">
        <ele>18.2</ele>
        <time>2023-05-19T13:42:50Z</time>
      </trkpt>
      <trkpt lat="49.91824" lon="2.24547">
        <ele>18.2</ele>
        <time>2023-05-19T13:42:51Z</time>
      </trkpt>
      <trkpt lat="49.91824" lon="2.24549">
        <ele>18.2</ele>
        <time>2023-05-19T13:42:53Z</time>
      </trkpt>
      <trkpt lat="49.91824" lon="2.24551">
        <ele>18.2</ele>
        <time>2023-05-19T13:42:54Z</time>
      </trkpt>
      <trkpt lat="49.91824" lon="2.24553">
        <ele>18.2</ele>
        <time>2023-05-19T13:42:55Z</time>
      </trkpt>
      <trkpt lat="49.91824" lon="2.24556">
        <ele>18.2</ele>
        <time>2023-05-19T13:42:56Z</time>
      </trkpt>
      <trkpt lat="49.91824" lon="2.24558">
        <ele>18.2</ele>
        <time>2023-05-19T13:42:57Z</time>
      </trkpt>
      <trkpt lat="49.91824" lon="2.24559">
        <ele>18.2</ele>
        <time>2023-05-19T13:42:58Z</time>
      </trkpt>
      <trkpt lat="49.91824" lon="2.24562">
        <ele>18.2</ele>
        <time>2023-05-19T13:42:59Z</time>
      </trkpt>
      <trkpt lat="49.91824" lon="2.24564">
        <ele>18.2</ele>
        <time>2023-05-19T13:43:00Z</time>
      </trkpt>
      <trkpt lat="49.91824" lon="2.24565">
        <ele>18.2</ele>
        <time>2023-05-19T13:43:01Z</time>
      </trkpt>
      <trkpt lat="49.91824" lon="2.24569">
        <ele>18.2</ele>
        <time>2023-05-19T13:43:02Z</time>
      </trkpt>
      <trkpt lat="49.91824" lon="2.2457">
        <ele>18.2</ele>
        <time>2023-05-19T13:43:04Z</time>
      </trkpt>
      <trkpt lat="49.91824" lon="2.24572">
        <ele>18.2</ele>
        <time>2023-05-19T13:43:05Z</time>
      </trkpt>
      <trkpt lat="49.91824" lon="2.24574">
        <ele>18.2</ele>
        <time>2023-05-19T13:43:06Z</time>
      </trkpt>
      <trkpt lat="49.91824" lon="2.24576">
        <ele>18.2</ele>
        <time>2023-05-19T13:43:07Z</time>
      </trkpt>
      <trkpt lat="49.91825" lon="2.24578">
        <ele>18.2</ele>
        <time>2023-05-19T13:43:09Z</time>
      </trkpt>
      <trkpt lat="49.91825" lon="2.2458">
        <ele>18.2</ele>
        <time>2023-05-19T13:43:10Z</time>
      </trkpt>
      <trkpt lat="49.91825" lon="2.24582">
        <ele>18.2</ele>
        <time>2023-05-19T13:43:11Z</time>
      </trkpt>
      <trkpt lat="49.91826" lon="2.24586">
        <ele>18.2</ele>
        <time>2023-05-19T13:43:12Z</time>
      </trkpt>
      <trkpt lat="49.91826" lon="2.24587">
        <ele>18.2</ele>
        <time>2023-05-19T13:43:13Z</time>
      </trkpt>
      <trkpt lat="49.91826" lon="2.24588">
        <ele>18.2</ele>
        <time>2023-05-19T13:43:14Z</time>
      </trkpt>
      <trkpt lat="49.91826" lon="2.24591">
        <ele>18.2</ele>
        <time>2023-05-19T13:43:16Z</time>
      </trkpt>
      <trkpt lat="49.91827" lon="2.24593">
        <ele>18.2</ele>
        <time>2023-05-19T13:43:17Z</time>
      </trkpt>
      <trkpt lat="49.91827" lon="2.24595">
        <ele>18.2</ele>
        <time>2023-05-19T13:43:18Z</time>
      </trkpt>
      <trkpt lat="49.91827" lon="2.24597">
        <ele>18.2</ele>
        <time>2023-05-19T13:43:19Z</time>
      </trkpt>
      <trkpt lat="49.91828" lon="2.24599">
        <ele>18.2</ele>
        <time>2023-05-19T13:43:20Z</time>
      </trkpt>
      <trkpt lat="49.91828" lon="2.24601">
        <ele>18.2</ele>
        <time>2023-05-19T13:43:21Z</time>
      </trkpt>
      <trkpt lat="49.91828" lon="2.24605">
        <ele>18.2</ele>
        <time>2023-05-19T13:43:22Z</time>
      </trkpt>
      <trkpt lat="49.91828" lon="2.24606">
        <ele>18.2</ele>
        <time>2023-05-19T13:43:24Z</time>
      </trkpt>
      <trkpt lat="49.91829" lon="2.24607">
        <ele>18.2</ele>
        <time>2023-05-19T13:43:25Z</time>
      </trkpt>
      <trkpt lat="49.91829" lon="2.24609">
        <ele>18.2</ele>
        <time>2023-05-19T13:43:26Z</time>
      </trkpt>
      <trkpt lat="49.91829" lon="2.2461">
        <ele>18.2</ele>
        <time>2023-05-19T13:43:27Z</time>
      </trkpt>
      <trkpt lat="49.91829" lon="2.24612">
        <ele>18.2</ele>
        <time>2023-05-19T13:43:28Z</time>
      </trkpt>
      <trkpt lat="49.91829" lon="2.24613">
        <ele>18.2</ele>
        <time>2023-05-19T13:43:29Z</time>
      </trkpt>
      <trkpt lat="49.91829" lon="2.24615">
        <ele>18.2</ele>
        <time>2023-05-19T13:43:31Z</time>
      </trkpt>
      <trkpt lat="49.9183" lon="2.24616">
        <ele>18.2</ele>
        <time>2023-05-19T13:43:32Z</time>
      </trkpt>
      <trkpt lat="49.9183" lon="2.24617">
        <ele>18.2</ele>
        <time>2023-05-19T13:43:33Z</time>
      </trkpt>
      <trkpt lat="49.9183" lon="2.24619">
        <ele>18.2</ele>
        <time>2023-05-19T13:43:34Z</time>
      </trkpt>
      <trkpt lat="49.91831" lon="2.2462">
        <ele>18.2</ele>
        <time>2023-05-19T13:43:35Z</time>
      </trkpt>
      <trkpt lat="49.91831" lon="2.24622">
        <ele>18.2</ele>
        <time>2023-05-19T13:43:36Z</time>
      </trkpt>
      <trkpt lat="49.91831" lon="2.24623">
        <ele>18.2</ele>
        <time>2023-05-19T13:43:37Z</time>
      </trkpt>
      <trkpt lat="49.91832" lon="2.24625">
        <ele>18.2</ele>
        <time>2023-05-19T13:43:39Z</time>
      </trkpt>
      <trkpt lat="49.91832" lon="2.24627">
        <ele>18.2</ele>
        <time>2023-05-19T13:43:40Z</time>
      </trkpt>
      <trkpt lat="49.91832" lon="2.24628">
        <ele>18.2</ele>
        <time>2023-05-19T13:43:41Z</time>
      </trkpt>
      <trkpt lat="49.91833" lon="2.2463">
        <ele>18.2</ele>
        <time>2023-05-19T13:43:42Z</time>
      </trkpt>
      <trkpt lat="49.91833" lon="2.24631">
        <ele>18.2</ele>
        <time>2023-05-19T13:43:43Z</time>
      </trkpt>
      <trkpt lat="49.91833" lon="2.24633">
        <ele>18.2</ele>
        <time>2023-05-19T13:43:44Z</time>
      </trkpt>
      <trkpt lat="49.91833" lon="2.24635">
        <ele>18.2</ele>
        <time>2023-05-19T13:43:46Z</time>
      </trkpt>
      <trkpt lat="49.91833" lon="2.24637">
        <ele>18.2</ele>
        <time>2023-05-19T13:43:47Z</time>
      </trkpt>
      <trkpt lat="49.91833" lon="2.24639">
        <ele>18.2</ele>
        <time>2023-05-19T13:43:48Z</time>
      </trkpt>
      <trkpt lat="49.91833" lon="2.24641">
        <ele>18.2</ele>
        <time>2023-05-19T13:43:49Z</time>
      </trkpt>
      <trkpt lat="49.91833" lon="2.24642">
        <ele>18.2</ele>
        <time>2023-05-19T13:43:50Z</time>
      </trkpt>
      <trkpt lat="49.91833" lon="2.24644">
        <ele>18.2</ele>
        <time>2023-05-19T13:43:51Z</time>
      </trkpt>
      <trkpt lat="49.91833" lon="2.24646">
        <ele>18.2</ele>
        <time>2023-05-19T13:43:52Z</time>
      </trkpt>
      <trkpt lat="49.91833" lon="2.24647">
        <ele>18.2</ele>
        <time>2023-05-19T13:43:53Z</time>
      </trkpt>
      <trkpt lat="49.91833" lon="2.24649">
        <ele>18.2</ele>
        <time>2023-05-19T13:43:55Z</time>
      </trkpt>
      <trkpt lat="49.91833" lon="2.2465">
        <ele>18.2</ele>
        <time>2023-05-19T13:43:56Z</time>
      </trkpt>
      <trkpt lat="49.91833" lon="2.24652">
        <ele>18.2</ele>
        <time>2023-05-19T13:43:57Z</time>
      </trkpt>
      <trkpt lat="49.91834" lon="2.24654">
        <ele>18.2</ele>
        <time>2023-05-19T13:43:58Z</time>
      </trkpt>
      <trkpt lat="49.91834" lon="2.24655">
        <ele>18.2</ele>
        <time>2023-05-19T13:43:59Z</time>
      </trkpt>
      <trkpt lat="49.91834" lon="2.24657">
        <ele>18.2</ele>
        <time>2023-05-19T13:44:00Z</time>
      </trkpt>
      <trkpt lat="49.91835" lon="2.24658">
        <ele>18.2</ele>
        <time>2023-05-19T13:44:01Z</time>
      </trkpt>
      <trkpt lat="49.91835" lon="2.2466">
        <ele>18.2</ele>
        <time>2023-05-19T13:44:02Z</time>
      </trkpt>
      <trkpt lat="49.91836" lon="2.24663">
        <ele>18.2</ele>
        <time>2023-05-19T13:44:03Z</time>
      </trkpt>
      <trkpt lat="49.91836" lon="2.24665">
        <ele>18.2</ele>
        <time>2023-05-19T13:44:05Z</time>
      </trkpt>
      <trkpt lat="49.91837" lon="2.24666">
        <ele>18.2</ele>
        <time>2023-05-19T13:44:06Z</time>
      </trkpt>
      <trkpt lat="49.91837" lon="2.24668">
        <ele>18.2</ele>
        <time>2023-05-19T13:44:07Z</time>
      </trkpt>
      <trkpt lat="49.91838" lon="2.2467">
        <ele>18.2</ele>
        <time>2023-05-19T13:44:08Z</time>
      </trkpt>
      <trkpt lat="49.91839" lon="2.24673">
        <ele>18.2</ele>
        <time>2023-05-19T13:44:09Z</time>
      </trkpt>
      <trkpt lat="49.91839" lon="2.24674">
        <ele>18.2</ele>
        <time>2023-05-19T13:44:10Z</time>
      </trkpt>
      <trkpt lat="49.91839" lon="2.24675">
        <ele>18.2</ele>
        <time>2023-05-19T13:44:11Z</time>
      </trkpt>
      <trkpt lat="49.9184" lon="2.24677">
        <ele>18.2</ele>
        <time>2023-05-19T13:44:13Z</time>
      </trkpt>
      <trkpt lat="49.9184" lon="2.24678">
        <ele>18.2</ele>
        <time>2023-05-19T13:44:14Z</time>
      </trkpt>
      <trkpt lat="49.91841" lon="2.2468">
        <ele>18.2</ele>
        <time>2023-05-19T13:44:15Z</time>
      </trkpt>
      <trkpt lat="49.91841" lon="2.24681">
        <ele>18.2</ele>
        <time>2023-05-19T13:44:16Z</time>
      </trkpt>
      <trkpt lat="49.91841" lon="2.24683">
        <ele>18.2</ele>
        <time>2023-05-19T13:44:17Z</time>
      </trkpt>
      <trkpt lat="49.91842" lon="2.24684">
        <ele>18.2</ele>
        <time>2023-05-19T13:44:18Z</time>
      </trkpt>
      <trkpt lat="49.91842" lon="2.24685">
        <ele>18.2</ele>
        <time>2023-05-19T13:44:20Z</time>
      </trkpt>
      <trkpt lat="49.91842" lon="2.24687">
        <ele>18.2</ele>
        <time>2023-05-19T13:44:21Z</time>
      </trkpt>
      <trkpt lat="49.91843" lon="2.24688">
        <ele>18.2</ele>
        <time>2023-05-19T13:44:22Z</time>
      </trkpt>
      <trkpt lat="49.91843" lon="2.2469">
        <ele>18.3</ele>
        <time>2023-05-19T13:44:23Z</time>
      </trkpt>
      <trkpt lat="49.91843" lon="2.24691">
        <ele>18.3</ele>
        <time>2023-05-19T13:44:24Z</time>
      </trkpt>
      <trkpt lat="49.91843" lon="2.24693">
        <ele>18.3</ele>
        <time>2023-05-19T13:44:25Z</time>
      </trkpt>
      <trkpt lat="49.91843" lon="2.24694">
        <ele>18.3</ele>
        <time>2023-05-19T13:44:26Z</time>
      </trkpt>
      <trkpt lat="49.91843" lon="2.24696">
        <ele>18.3</ele>
        <time>2023-05-19T13:44:27Z</time>
      </trkpt>
      <trkpt lat="49.91844" lon="2.24697">
        <ele>18.3</ele>
        <time>2023-05-19T13:44:28Z</time>
      </trkpt>
      <trkpt lat="49.91843" lon="2.24699">
        <ele>18.3</ele>
        <time>2023-05-19T13:44:30Z</time>
      </trkpt>
      <trkpt lat="49.91843" lon="2.24701">
        <ele>18.3</ele>
        <time>2023-05-19T13:44:31Z</time>
      </trkpt>
      <trkpt lat="49.91843" lon="2.24702">
        <ele>18.3</ele>
        <time>2023-05-19T13:44:32Z</time>
      </trkpt>
      <trkpt lat="49.91844" lon="2.24704">
        <ele>18.3</ele>
        <time>2023-05-19T13:44:33Z</time>
      </trkpt>
      <trkpt lat="49.91844" lon="2.24706">
        <ele>18.3</ele>
        <time>2023-05-19T13:44:34Z</time>
      </trkpt>
      <trkpt lat="49.91844" lon="2.24708">
        <ele>18.3</ele>
        <time>2023-05-19T13:44:35Z</time>
      </trkpt>
      <trkpt lat="49.91844" lon="2.2471">
        <ele>18.3</ele>
        <time>2023-05-19T13:44:36Z</time>
      </trkpt>
      <trkpt lat="49.91844" lon="2.24712">
        <ele>18.3</ele>
        <time>2023-05-19T13:44:37Z</time>
      </trkpt>
      <trkpt lat="49.91844" lon="2.24714">
        <ele>18.3</ele>
        <time>2023-05-19T13:44:39Z</time>
      </trkpt>
      <trkpt lat="49.91845" lon="2.24717">
        <ele>18.3</ele>
        <time>2023-05-19T13:44:40Z</time>
      </trkpt>
      <trkpt lat="49.91845" lon="2.24719">
        <ele>18.3</ele>
        <time>2023-05-19T13:44:41Z</time>
      </trkpt>
      <trkpt lat="49.91845" lon="2.2472">
        <ele>18.3</ele>
        <time>2023-05-19T13:44:42Z</time>
      </trkpt>
      <trkpt lat="49.91845" lon="2.24722">
        <ele>18.3</ele>
        <time>2023-05-19T13:44:43Z</time>
      </trkpt>
      <trkpt lat="49.91845" lon="2.24724">
        <ele>18.3</ele>
        <time>2023-05-19T13:44:44Z</time>
      </trkpt>
      <trkpt lat="49.91846" lon="2.24726">
        <ele>18.3</ele>
        <time>2023-05-19T13:44:46Z</time>
      </trkpt>
      <trkpt lat="49.91846" lon="2.24728">
        <ele>18.3</ele>
        <time>2023-05-19T13:44:47Z</time>
      </trkpt>
      <trkpt lat="49.91847" lon="2.24729">
        <ele>18.3</ele>
        <time>2023-05-19T13:44:48Z</time>
      </trkpt>
      <trkpt lat="49.91847" lon="2.24731">
        <ele>18.3</ele>
        <time>2023-05-19T13:44:49Z</time>
      </trkpt>
      <trkpt lat="49.91848" lon="2.24733">
        <ele>18.3</ele>
        <time>2023-05-19T13:44:50Z</time>
      </trkpt>
      <trkpt lat="49.91848" lon="2.24734">
        <ele>18.3</ele>
        <time>2023-05-19T13:44:51Z</time>
      </trkpt>
      <trkpt lat="49.91849" lon="2.24736">
        <ele>18.3</ele>
        <time>2023-05-19T13:44:52Z</time>
      </trkpt>
      <trkpt lat="49.91849" lon="2.24738">
        <ele>18.3</ele>
        <time>2023-05-19T13:44:53Z</time>
      </trkpt>
      <trkpt lat="49.9185" lon="2.24739">
        <ele>18.3</ele>
        <time>2023-05-19T13:44:55Z</time>
      </trkpt>
      <trkpt lat="49.9185" lon="2.24741">
        <ele>18.3</ele>
        <time>2023-05-19T13:44:56Z</time>
      </trkpt>
      <trkpt lat="49.9185" lon="2.24742">
        <ele>18.3</ele>
        <time>2023-05-19T13:44:57Z</time>
      </trkpt>
      <trkpt lat="49.91851" lon="2.24744">
        <ele>18.3</ele>
        <time>2023-05-19T13:44:58Z</time>
      </trkpt>
      <trkpt lat="49.91851" lon="2.24746">
        <ele>18.3</ele>
        <time>2023-05-19T13:44:59Z</time>
      </trkpt>
      <trkpt lat="49.91852" lon="2.24748">
        <ele>18.3</ele>
        <time>2023-05-19T13:45:00Z</time>
      </trkpt>
      <trkpt lat="49.91852" lon="2.2475">
        <ele>18.3</ele>
        <time>2023-05-19T13:45:01Z</time>
      </trkpt>
      <trkpt lat="49.91853" lon="2.24752">
        <ele>18.3</ele>
        <time>2023-05-19T13:45:02Z</time>
      </trkpt>
      <trkpt lat="49.91853" lon="2.24753">
        <ele>18.3</ele>
        <time>2023-05-19T13:45:04Z</time>
      </trkpt>
      <trkpt lat="49.91854" lon="2.24755">
        <ele>18.3</ele>
        <time>2023-05-19T13:45:05Z</time>
      </trkpt>
      <trkpt lat="49.91854" lon="2.24757">
        <ele>18.3</ele>
        <time>2023-05-19T13:45:06Z</time>
      </trkpt>
      <trkpt lat="49.91855" lon="2.24758">
        <ele>18.3</ele>
        <time>2023-05-19T13:45:07Z</time>
      </trkpt>
      <trkpt lat="49.91855" lon="2.2476">
        <ele>18.3</ele>
        <time>2023-05-19T13:45:08Z</time>
      </trkpt>
      <trkpt lat="49.91856" lon="2.24762">
        <ele>18.3</ele>
        <time>2023-05-19T13:45:09Z</time>
      </trkpt>
      <trkpt lat="49.91857" lon="2.24764">
        <ele>18.3</ele>
        <time>2023-05-19T13:45:10Z</time>
      </trkpt>
      <trkpt lat="49.91857" lon="2.24765">
        <ele>18.3</ele>
        <time>2023-05-19T13:45:11Z</time>
      </trkpt>
      <trkpt lat="49.91858" lon="2.24768">
        <ele>18.3</ele>
        <time>2023-05-19T13:45:12Z</time>
      </trkpt>
      <trkpt lat="49.91858" lon="2.2477">
        <ele>18.3</ele>
        <time>2023-05-19T13:45:14Z</time>
      </trkpt>
      <trkpt lat="49.91859" lon="2.24771">
        <ele>18.3</ele>
        <time>2023-05-19T13:45:15Z</time>
      </trkpt>
      <trkpt lat="49.91859" lon="2.24773">
        <ele>18.3</ele>
        <time>2023-05-19T13:45:16Z</time>
      </trkpt>
      <trkpt lat="49.9186" lon="2.24774">
        <ele>18.3</ele>
        <time>2023-05-19T13:45:17Z</time>
      </trkpt>
      <trkpt lat="49.9186" lon="2.24776">
        <ele>18.3</ele>
        <time>2023-05-19T13:45:18Z</time>
      </trkpt>
      <trkpt lat="49.91861" lon="2.24778">
        <ele>18.3</ele>
        <time>2023-05-19T13:45:19Z</time>
      </trkpt>
      <trkpt lat="49.91861" lon="2.2478">
        <ele>18.3</ele>
        <time>2023-05-19T13:45:21Z</time>
      </trkpt>
      <trkpt lat="49.91862" lon="2.24782">
        <ele>18.3</ele>
        <time>2023-05-19T13:45:22Z</time>
      </trkpt>
      <trkpt lat="49.91862" lon="2.24783">
        <ele>18.3</ele>
        <time>2023-05-19T13:45:23Z</time>
      </trkpt>
      <trkpt lat="49.91863" lon="2.24785">
        <ele>18.3</ele>
        <time>2023-05-19T13:45:24Z</time>
      </trkpt>
      <trkpt lat="49.91863" lon="2.24787">
        <ele>18.2</ele>
        <time>2023-05-19T13:45:25Z</time>
      </trkpt>
      <trkpt lat="49.91862" lon="2.24789">
        <ele>18.2</ele>
        <time>2023-05-19T13:45:26Z</time>
      </trkpt>
      <trkpt lat="49.91863" lon="2.24793">
        <ele>18.2</ele>
        <time>2023-05-19T13:45:28Z</time>
      </trkpt>
      <trkpt lat="49.91863" lon="2.24795">
        <ele>18.2</ele>
        <time>2023-05-19T13:45:30Z</time>
      </trkpt>
      <trkpt lat="49.91863" lon="2.24797">
        <ele>18.2</ele>
        <time>2023-05-19T13:45:31Z</time>
      </trkpt>
      <trkpt lat="49.91863" lon="2.24799">
        <ele>18.2</ele>
        <time>2023-05-19T13:45:32Z</time>
      </trkpt>
      <trkpt lat="49.91863" lon="2.248">
        <ele>18.2</ele>
        <time>2023-05-19T13:45:33Z</time>
      </trkpt>
      <trkpt lat="49.91863" lon="2.24802">
        <ele>18.2</ele>
        <time>2023-05-19T13:45:34Z</time>
      </trkpt>
      <trkpt lat="49.91863" lon="2.24804">
        <ele>18.2</ele>
        <time>2023-05-19T13:45:36Z</time>
      </trkpt>
      <trkpt lat="49.91863" lon="2.24806">
        <ele>18.1</ele>
        <time>2023-05-19T13:45:37Z</time>
      </trkpt>
      <trkpt lat="49.91863" lon="2.24809">
        <ele>18.1</ele>
        <time>2023-05-19T13:45:39Z</time>
      </trkpt>
      <trkpt lat="49.91863" lon="2.24811">
        <ele>18.1</ele>
        <time>2023-05-19T13:45:40Z</time>
      </trkpt>
      <trkpt lat="49.91863" lon="2.24812">
        <ele>18.1</ele>
        <time>2023-05-19T13:45:41Z</time>
      </trkpt>
      <trkpt lat="49.91863" lon="2.24813">
        <ele>18.1</ele>
        <time>2023-05-19T13:45:42Z</time>
      </trkpt>
      <trkpt lat="49.91863" lon="2.24815">
        <ele>18.1</ele>
        <time>2023-05-19T13:45:43Z</time>
      </trkpt>
      <trkpt lat="49.91863" lon="2.24817">
        <ele>18.1</ele>
        <time>2023-05-19T13:45:44Z</time>
      </trkpt>
      <trkpt lat="49.91862" lon="2.24821">
        <ele>18.1</ele>
        <time>2023-05-19T13:45:45Z</time>
      </trkpt>
      <trkpt lat="49.91862" lon="2.24822">
        <ele>18.1</ele>
        <time>2023-05-19T13:45:47Z</time>
      </trkpt>
      <trkpt lat="49.91862" lon="2.24824">
        <ele>18.1</ele>
        <time>2023-05-19T13:45:48Z</time>
      </trkpt>
      <trkpt lat="49.91862" lon="2.24825">
        <ele>18.1</ele>
        <time>2023-05-19T13:45:49Z</time>
      </trkpt>
      <trkpt lat="49.91862" lon="2.24827">
        <ele>18.1</ele>
        <time>2023-05-19T13:45:50Z</time>
      </trkpt>
      <trkpt lat="49.91861" lon="2.2483">
        <ele>18.1</ele>
        <time>2023-05-19T13:45:51Z</time>
      </trkpt>
      <trkpt lat="49.9186" lon="2.24831">
        <ele>18.1</ele>
        <time>2023-05-19T13:45:52Z</time>
      </trkpt>
      <trkpt lat="49.9186" lon="2.24832">
        <ele>18.1</ele>
        <time>2023-05-19T13:45:53Z</time>
      </trkpt>
      <trkpt lat="49.9186" lon="2.24834">
        <ele>18.1</ele>
        <time>2023-05-19T13:45:54Z</time>
      </trkpt>
      <trkpt lat="49.91859" lon="2.24837">
        <ele>18.1</ele>
        <time>2023-05-19T13:45:56Z</time>
      </trkpt>
      <trkpt lat="49.91859" lon="2.24838">
        <ele>18.1</ele>
        <time>2023-05-19T13:45:57Z</time>
      </trkpt>
      <trkpt lat="49.91859" lon="2.2484">
        <ele>18.1</ele>
        <time>2023-05-19T13:45:58Z</time>
      </trkpt>
      <trkpt lat="49.91858" lon="2.24841">
        <ele>18.1</ele>
        <time>2023-05-19T13:45:59Z</time>
      </trkpt>
      <trkpt lat="49.91858" lon="2.24845">
        <ele>18.1</ele>
        <time>2023-05-19T13:46:00Z</time>
      </trkpt>
      <trkpt lat="49.91857" lon="2.24846">
        <ele>18.1</ele>
        <time>2023-05-19T13:46:01Z</time>
      </trkpt>
      <trkpt lat="49.91857" lon="2.24847">
        <ele>18.1</ele>
        <time>2023-05-19T13:46:02Z</time>
      </trkpt>
      <trkpt lat="49.91856" lon="2.24849">
        <ele>18.1</ele>
        <time>2023-05-19T13:46:03Z</time>
      </trkpt>
      <trkpt lat="49.91856" lon="2.24851">
        <ele>18.1</ele>
        <time>2023-05-19T13:46:04Z</time>
      </trkpt>
      <trkpt lat="49.91856" lon="2.24853">
        <ele>18.1</ele>
        <time>2023-05-19T13:46:06Z</time>
      </trkpt>
      <trkpt lat="49.91855" lon="2.24855">
        <ele>18.1</ele>
        <time>2023-05-19T13:46:07Z</time>
      </trkpt>
      <trkpt lat="49.91854" lon="2.24857">
        <ele>18.1</ele>
        <time>2023-05-19T13:46:08Z</time>
      </trkpt>
      <trkpt lat="49.91854" lon="2.2486">
        <ele>18.1</ele>
        <time>2023-05-19T13:46:09Z</time>
      </trkpt>
      <trkpt lat="49.91854" lon="2.24861">
        <ele>18.1</ele>
        <time>2023-05-19T13:46:10Z</time>
      </trkpt>
      <trkpt lat="49.91853" lon="2.24862">
        <ele>18.1</ele>
        <time>2023-05-19T13:46:11Z</time>
      </trkpt>
      <trkpt lat="49.91853" lon="2.24865">
        <ele>18.1</ele>
        <time>2023-05-19T13:46:13Z</time>
      </trkpt>
      <trkpt lat="49.91852" lon="2.24867">
        <ele>18.1</ele>
        <time>2023-05-19T13:46:14Z</time>
      </trkpt>
      <trkpt lat="49.91852" lon="2.2487">
        <ele>18.1</ele>
        <time>2023-05-19T13:46:15Z</time>
      </trkpt>
      <trkpt lat="49.91852" lon="2.24872">
        <ele>18.1</ele>
        <time>2023-05-19T13:46:16Z</time>
      </trkpt>
      <trkpt lat="49.91852" lon="2.24873">
        <ele>18.1</ele>
        <time>2023-05-19T13:46:17Z</time>
      </trkpt>
      <trkpt lat="49.91852" lon="2.24875">
        <ele>18.1</ele>
        <time>2023-05-19T13:46:18Z</time>
      </trkpt>
      <trkpt lat="49.91852" lon="2.24877">
        <ele>18.1</ele>
        <time>2023-05-19T13:46:19Z</time>
      </trkpt>
      <trkpt lat="49.91852" lon="2.24879">
        <ele>18.1</ele>
        <time>2023-05-19T13:46:21Z</time>
      </trkpt>
      <trkpt lat="49.91852" lon="2.24883">
        <ele>18.1</ele>
        <time>2023-05-19T13:46:22Z</time>
      </trkpt>
      <trkpt lat="49.91852" lon="2.24884">
        <ele>18.1</ele>
        <time>2023-05-19T13:46:23Z</time>
      </trkpt>
      <trkpt lat="49.91852" lon="2.24885">
        <ele>18.1</ele>
        <time>2023-05-19T13:46:24Z</time>
      </trkpt>
      <trkpt lat="49.91852" lon="2.24888">
        <ele>18.1</ele>
        <time>2023-05-19T13:46:25Z</time>
      </trkpt>
      <trkpt lat="49.91852" lon="2.2489">
        <ele>18.1</ele>
        <time>2023-05-19T13:46:26Z</time>
      </trkpt>
      <trkpt lat="49.91853" lon="2.24892">
        <ele>18.1</ele>
        <time>2023-05-19T13:46:27Z</time>
      </trkpt>
      <trkpt lat="49.91853" lon="2.24895">
        <ele>18.1</ele>
        <time>2023-05-19T13:46:29Z</time>
      </trkpt>
      <trkpt lat="49.91853" lon="2.24897">
        <ele>18.1</ele>
        <time>2023-05-19T13:46:30Z</time>
      </trkpt>
      <trkpt lat="49.91854" lon="2.249">
        <ele>18.1</ele>
        <time>2023-05-19T13:46:31Z</time>
      </trkpt>
      <trkpt lat="49.91854" lon="2.24903">
        <ele>18.1</ele>
        <time>2023-05-19T13:46:32Z</time>
      </trkpt>
      <trkpt lat="49.91854" lon="2.24904">
        <ele>18.1</ele>
        <time>2023-05-19T13:46:33Z</time>
      </trkpt>
      <trkpt lat="49.91854" lon="2.24906">
        <ele>18.1</ele>
        <time>2023-05-19T13:46:34Z</time>
      </trkpt>
      <trkpt lat="49.91855" lon="2.24909">
        <ele>18.1</ele>
        <time>2023-05-19T13:46:35Z</time>
      </trkpt>
      <trkpt lat="49.91855" lon="2.24911">
        <ele>18.1</ele>
        <time>2023-05-19T13:46:37Z</time>
      </trkpt>
      <trkpt lat="49.91855" lon="2.24913">
        <ele>18.1</ele>
        <time>2023-05-19T13:46:38Z</time>
      </trkpt>
      <trkpt lat="49.91856" lon="2.24915">
        <ele>18.1</ele>
        <time>2023-05-19T13:46:39Z</time>
      </trkpt>
      <trkpt lat="49.91856" lon="2.24916">
        <ele>18.1</ele>
        <time>2023-05-19T13:46:40Z</time>
      </trkpt>
      <trkpt lat="49.91856" lon="2.2492">
        <ele>18.1</ele>
        <time>2023-05-19T13:46:41Z</time>
      </trkpt>
      <trkpt lat="49.91857" lon="2.24921">
        <ele>18.1</ele>
        <time>2023-05-19T13:46:42Z</time>
      </trkpt>
      <trkpt lat="49.91857" lon="2.24923">
        <ele>18.1</ele>
        <time>2023-05-19T13:46:43Z</time>
      </trkpt>
      <trkpt lat="49.91857" lon="2.24925">
        <ele>18.1</ele>
        <time>2023-05-19T13:46:44Z</time>
      </trkpt>
      <trkpt lat="49.91858" lon="2.24928">
        <ele>18.1</ele>
        <time>2023-05-19T13:46:46Z</time>
      </trkpt>
      <trkpt lat="49.91858" lon="2.2493">
        <ele>18.1</ele>
        <time>2023-05-19T13:46:47Z</time>
      </trkpt>
      <trkpt lat="49.91859" lon="2.24933">
        <ele>18.1</ele>
        <time>2023-05-19T13:46:49Z</time>
      </trkpt>
      <trkpt lat="49.91859" lon="2.24935">
        <ele>18.1</ele>
        <time>2023-05-19T13:46:50Z</time>
      </trkpt>
      <trkpt lat="49.9186" lon="2.24937">
        <ele>18.1</ele>
        <time>2023-05-19T13:46:51Z</time>
      </trkpt>
      <trkpt lat="49.9186" lon="2.24941">
        <ele>18.1</ele>
        <time>2023-05-19T13:46:52Z</time>
      </trkpt>
      <trkpt lat="49.91861" lon="2.24942">
        <ele>18.1</ele>
        <time>2023-05-19T13:46:53Z</time>
      </trkpt>
      <trkpt lat="49.91861" lon="2.24943">
        <ele>18.1</ele>
        <time>2023-05-19T13:46:54Z</time>
      </trkpt>
      <trkpt lat="49.91861" lon="2.24945">
        <ele>18.1</ele>
        <time>2023-05-19T13:46:55Z</time>
      </trkpt>
      <trkpt lat="49.91862" lon="2.24947">
        <ele>18.1</ele>
        <time>2023-05-19T13:46:56Z</time>
      </trkpt>
      <trkpt lat="49.91862" lon="2.24949">
        <ele>18.1</ele>
        <time>2023-05-19T13:46:58Z</time>
      </trkpt>
      <trkpt lat="49.91863" lon="2.24953">
        <ele>18.1</ele>
        <time>2023-05-19T13:46:59Z</time>
      </trkpt>
      <trkpt lat="49.91863" lon="2.24954">
        <ele>18.1</ele>
        <time>2023-05-19T13:47:00Z</time>
      </trkpt>
      <trkpt lat="49.91863" lon="2.24955">
        <ele>18.1</ele>
        <time>2023-05-19T13:47:01Z</time>
      </trkpt>
      <trkpt lat="49.91863" lon="2.24957">
        <ele>18.1</ele>
        <time>2023-05-19T13:47:02Z</time>
      </trkpt>
      <trkpt lat="49.91863" lon="2.24959">
        <ele>18.1</ele>
        <time>2023-05-19T13:47:03Z</time>
      </trkpt>
      <trkpt lat="49.91864" lon="2.24964">
        <ele>18.1</ele>
        <time>2023-05-19T13:47:04Z</time>
      </trkpt>
      <trkpt lat="49.91864" lon="2.24966">
        <ele>18.1</ele>
        <time>2023-05-19T13:47:06Z</time>
      </trkpt>
      <trkpt lat="49.91864" lon="2.24967">
        <ele>18.1</ele>
        <time>2023-05-19T13:47:07Z</time>
      </trkpt>
      <trkpt lat="49.91864" lon="2.24969">
        <ele>18.1</ele>
        <time>2023-05-19T13:47:08Z</time>
      </trkpt>
      <trkpt lat="49.91864" lon="2.24971">
        <ele>18.1</ele>
        <time>2023-05-19T13:47:09Z</time>
      </trkpt>
      <trkpt lat="49.91864" lon="2.24973">
        <ele>18.1</ele>
        <time>2023-05-19T13:47:11Z</time>
      </trkpt>
      <trkpt lat="49.91864" lon="2.24975">
        <ele>18.1</ele>
        <time>2023-05-19T13:47:12Z</time>
      </trkpt>
      <trkpt lat="49.91864" lon="2.24977">
        <ele>18.1</ele>
        <time>2023-05-19T13:47:13Z</time>
      </trkpt>
      <trkpt lat="49.91864" lon="2.24979">
        <ele>18.1</ele>
        <time>2023-05-19T13:47:14Z</time>
      </trkpt>
      <trkpt lat="49.91864" lon="2.2498">
        <ele>18.1</ele>
        <time>2023-05-19T13:47:15Z</time>
      </trkpt>
      <trkpt lat="49.91864" lon="2.24982">
        <ele>18.1</ele>
        <time>2023-05-19T13:47:16Z</time>
      </trkpt>
      <trkpt lat="49.91864" lon="2.24984">
        <ele>18.1</ele>
        <time>2023-05-19T13:47:17Z</time>
      </trkpt>
      <trkpt lat="49.91864" lon="2.24986">
        <ele>18.1</ele>
        <time>2023-05-19T13:47:18Z</time>
      </trkpt>
      <trkpt lat="49.91864" lon="2.24988">
        <ele>18.1</ele>
        <time>2023-05-19T13:47:19Z</time>
      </trkpt>
      <trkpt lat="49.91864" lon="2.24991">
        <ele>18.1</ele>
        <time>2023-05-19T13:47:21Z</time>
      </trkpt>
      <trkpt lat="49.91863" lon="2.24992">
        <ele>18.1</ele>
        <time>2023-05-19T13:47:22Z</time>
      </trkpt>
      <trkpt lat="49.91863" lon="2.24993">
        <ele>18.1</ele>
        <time>2023-05-19T13:47:23Z</time>
      </trkpt>
      <trkpt lat="49.91863" lon="2.24995">
        <ele>18.1</ele>
        <time>2023-05-19T13:47:24Z</time>
      </trkpt>
      <trkpt lat="49.91863" lon="2.24997">
        <ele>18.1</ele>
        <time>2023-05-19T13:47:25Z</time>
      </trkpt>
      <trkpt lat="49.91863" lon="2.25">
        <ele>18.1</ele>
        <time>2023-05-19T13:47:27Z</time>
      </trkpt>
      <trkpt lat="49.91863" lon="2.25003">
        <ele>18.1</ele>
        <time>2023-05-19T13:47:28Z</time>
      </trkpt>
      <trkpt lat="49.91863" lon="2.25004">
        <ele>18.1</ele>
        <time>2023-05-19T13:47:29Z</time>
      </trkpt>
      <trkpt lat="49.91863" lon="2.25006">
        <ele>18.1</ele>
        <time>2023-05-19T13:47:30Z</time>
      </trkpt>
      <trkpt lat="49.91863" lon="2.25008">
        <ele>18.1</ele>
        <time>2023-05-19T13:47:31Z</time>
      </trkpt>
      <trkpt lat="49.91863" lon="2.2501">
        <ele>18.1</ele>
        <time>2023-05-19T13:47:32Z</time>
      </trkpt>
      <trkpt lat="49.91864" lon="2.25012">
        <ele>18.1</ele>
        <time>2023-05-19T13:47:34Z</time>
      </trkpt>
      <trkpt lat="49.91864" lon="2.25016">
        <ele>18.1</ele>
        <time>2023-05-19T13:47:35Z</time>
      </trkpt>
      <trkpt lat="49.91864" lon="2.25017">
        <ele>18.1</ele>
        <time>2023-05-19T13:47:36Z</time>
      </trkpt>
      <trkpt lat="49.91865" lon="2.25018">
        <ele>18.1</ele>
        <time>2023-05-19T13:47:37Z</time>
      </trkpt>
      <trkpt lat="49.91865" lon="2.2502">
        <ele>18.1</ele>
        <time>2023-05-19T13:47:38Z</time>
      </trkpt>
      <trkpt lat="49.91865" lon="2.25022">
        <ele>18.1</ele>
        <time>2023-05-19T13:47:39Z</time>
      </trkpt>
      <trkpt lat="49.91866" lon="2.25025">
        <ele>18.1</ele>
        <time>2023-05-19T13:47:40Z</time>
      </trkpt>
      <trkpt lat="49.91866" lon="2.25027">
        <ele>18.1</ele>
        <time>2023-05-19T13:47:42Z</time>
      </trkpt>
      <trkpt lat="49.91867" lon="2.25029">
        <ele>18.1</ele>
        <time>2023-05-19T13:47:43Z</time>
      </trkpt>
      <trkpt lat="49.91867" lon="2.25031">
        <ele>18.1</ele>
        <time>2023-05-19T13:47:44Z</time>
      </trkpt>
      <trkpt lat="49.91867" lon="2.25034">
        <ele>18.1</ele>
        <time>2023-05-19T13:47:45Z</time>
      </trkpt>
      <trkpt lat="49.91868" lon="2.25035">
        <ele>18.1</ele>
        <time>2023-05-19T13:47:46Z</time>
      </trkpt>
      <trkpt lat="49.91868" lon="2.25037">
        <ele>18.1</ele>
        <time>2023-05-19T13:47:47Z</time>
      </trkpt>
      <trkpt lat="49.91868" lon="2.25039">
        <ele>18.1</ele>
        <time>2023-05-19T13:47:49Z</time>
      </trkpt>
      <trkpt lat="49.91869" lon="2.25041">
        <ele>18.1</ele>
        <time>2023-05-19T13:47:50Z</time>
      </trkpt>
      <trkpt lat="49.91869" lon="2.25043">
        <ele>18.1</ele>
        <time>2023-05-19T13:47:51Z</time>
      </trkpt>
      <trkpt lat="49.91869" lon="2.25046">
        <ele>18.1</ele>
        <time>2023-05-19T13:47:53Z</time>
      </trkpt>
      <trkpt lat="49.9187" lon="2.25047">
        <ele>18.1</ele>
        <time>2023-05-19T13:47:54Z</time>
      </trkpt>
      <trkpt lat="49.9187" lon="2.25049">
        <ele>18.1</ele>
        <time>2023-05-19T13:47:55Z</time>
      </trkpt>
      <trkpt lat="49.9187" lon="2.25051">
        <ele>18.1</ele>
        <time>2023-05-19T13:47:57Z</time>
      </trkpt>
      <trkpt lat="49.91871" lon="2.25054">
        <ele>18.1</ele>
        <time>2023-05-19T13:47:58Z</time>
      </trkpt>
      <trkpt lat="49.91871" lon="2.25055">
        <ele>18.1</ele>
        <time>2023-05-19T13:47:59Z</time>
      </trkpt>
      <trkpt lat="49.91871" lon="2.25057">
        <ele>18.1</ele>
        <time>2023-05-19T13:48:00Z</time>
      </trkpt>
      <trkpt lat="49.91871" lon="2.25059">
        <ele>18.1</ele>
        <time>2023-05-19T13:48:01Z</time>
      </trkpt>
      <trkpt lat="49.91871" lon="2.25061">
        <ele>18.1</ele>
        <time>2023-05-19T13:48:02Z</time>
      </trkpt>
      <trkpt lat="49.91871" lon="2.25064">
        <ele>18.1</ele>
        <time>2023-05-19T13:48:04Z</time>
      </trkpt>
      <trkpt lat="49.91871" lon="2.25066">
        <ele>18.1</ele>
        <time>2023-05-19T13:48:05Z</time>
      </trkpt>
      <trkpt lat="49.91871" lon="2.25068">
        <ele>18.1</ele>
        <time>2023-05-19T13:48:06Z</time>
      </trkpt>
      <trkpt lat="49.91871" lon="2.25071">
        <ele>18.1</ele>
        <time>2023-05-19T13:48:07Z</time>
      </trkpt>
      <trkpt lat="49.91872" lon="2.25074">
        <ele>18.1</ele>
        <time>2023-05-19T13:48:09Z</time>
      </trkpt>
      <trkpt lat="49.91872" lon="2.25075">
        <ele>18.1</ele>
        <time>2023-05-19T13:48:10Z</time>
      </trkpt>
      <trkpt lat="49.91872" lon="2.25077">
        <ele>18.1</ele>
        <time>2023-05-19T13:48:11Z</time>
      </trkpt>
      <trkpt lat="49.91872" lon="2.2508">
        <ele>18.1</ele>
        <time>2023-05-19T13:48:12Z</time>
      </trkpt>
      <trkpt lat="49.91872" lon="2.25081">
        <ele>18</ele>
        <time>2023-05-19T13:48:13Z</time>
      </trkpt>
      <trkpt lat="49.91872" lon="2.25082">
        <ele>18</ele>
        <time>2023-05-19T13:48:14Z</time>
      </trkpt>
      <trkpt lat="49.91872" lon="2.25084">
        <ele>18</ele>
        <time>2023-05-19T13:48:15Z</time>
      </trkpt>
      <trkpt lat="49.91872" lon="2.25086">
        <ele>18</ele>
        <time>2023-05-19T13:48:16Z</time>
      </trkpt>
      <trkpt lat="49.91872" lon="2.25089">
        <ele>18</ele>
        <time>2023-05-19T13:48:18Z</time>
      </trkpt>
      <trkpt lat="49.91872" lon="2.25091">
        <ele>18</ele>
        <time>2023-05-19T13:48:19Z</time>
      </trkpt>
      <trkpt lat="49.91872" lon="2.25092">
        <ele>18</ele>
        <time>2023-05-19T13:48:20Z</time>
      </trkpt>
      <trkpt lat="49.91872" lon="2.25094">
        <ele>18</ele>
        <time>2023-05-19T13:48:21Z</time>
      </trkpt>
      <trkpt lat="49.91872" lon="2.25098">
        <ele>18</ele>
        <time>2023-05-19T13:48:22Z</time>
      </trkpt>
      <trkpt lat="49.91872" lon="2.251">
        <ele>18</ele>
        <time>2023-05-19T13:48:24Z</time>
      </trkpt>
      <trkpt lat="49.91872" lon="2.25101">
        <ele>18</ele>
        <time>2023-05-19T13:48:25Z</time>
      </trkpt>
      <trkpt lat="49.91872" lon="2.25103">
        <ele>18</ele>
        <time>2023-05-19T13:48:26Z</time>
      </trkpt>
      <trkpt lat="49.91873" lon="2.25104">
        <ele>18</ele>
        <time>2023-05-19T13:48:27Z</time>
      </trkpt>
      <trkpt lat="49.91873" lon="2.25106">
        <ele>17.9</ele>
        <time>2023-05-19T13:48:28Z</time>
      </trkpt>
      <trkpt lat="49.91873" lon="2.25108">
        <ele>17.9</ele>
        <time>2023-05-19T13:48:29Z</time>
      </trkpt>
      <trkpt lat="49.91873" lon="2.25109">
        <ele>17.9</ele>
        <time>2023-05-19T13:48:30Z</time>
      </trkpt>
      <trkpt lat="49.91873" lon="2.25112">
        <ele>17.9</ele>
        <time>2023-05-19T13:48:32Z</time>
      </trkpt>
      <trkpt lat="49.91873" lon="2.25114">
        <ele>17.9</ele>
        <time>2023-05-19T13:48:33Z</time>
      </trkpt>
      <trkpt lat="49.91873" lon="2.25116">
        <ele>17.9</ele>
        <time>2023-05-19T13:48:34Z</time>
      </trkpt>
      <trkpt lat="49.91872" lon="2.25118">
        <ele>17.9</ele>
        <time>2023-05-19T13:48:35Z</time>
      </trkpt>
      <trkpt lat="49.91872" lon="2.25119">
        <ele>17.9</ele>
        <time>2023-05-19T13:48:36Z</time>
      </trkpt>
      <trkpt lat="49.91872" lon="2.25123">
        <ele>17.9</ele>
        <time>2023-05-19T13:48:37Z</time>
      </trkpt>
      <trkpt lat="49.91872" lon="2.25124">
        <ele>17.9</ele>
        <time>2023-05-19T13:48:38Z</time>
      </trkpt>
      <trkpt lat="49.91872" lon="2.25125">
        <ele>17.9</ele>
        <time>2023-05-19T13:48:39Z</time>
      </trkpt>
      <trkpt lat="49.91872" lon="2.25127">
        <ele>17.9</ele>
        <time>2023-05-19T13:48:40Z</time>
      </trkpt>
      <trkpt lat="49.91872" lon="2.25129">
        <ele>17.9</ele>
        <time>2023-05-19T13:48:42Z</time>
      </trkpt>
      <trkpt lat="49.91872" lon="2.2513">
        <ele>17.9</ele>
        <time>2023-05-19T13:48:43Z</time>
      </trkpt>
      <trkpt lat="49.91872" lon="2.25132">
        <ele>17.9</ele>
        <time>2023-05-19T13:48:44Z</time>
      </trkpt>
      <trkpt lat="49.91872" lon="2.25134">
        <ele>17.9</ele>
        <time>2023-05-19T13:48:45Z</time>
      </trkpt>
      <trkpt lat="49.91872" lon="2.25136">
        <ele>17.9</ele>
        <time>2023-05-19T13:48:46Z</time>
      </trkpt>
      <trkpt lat="49.91872" lon="2.25137">
        <ele>17.9</ele>
        <time>2023-05-19T13:48:47Z</time>
      </trkpt>
      <trkpt lat="49.91872" lon="2.25139">
        <ele>17.8</ele>
        <time>2023-05-19T13:48:48Z</time>
      </trkpt>
      <trkpt lat="49.91873" lon="2.25141">
        <ele>17.8</ele>
        <time>2023-05-19T13:48:50Z</time>
      </trkpt>
      <trkpt lat="49.91873" lon="2.25144">
        <ele>17.8</ele>
        <time>2023-05-19T13:48:51Z</time>
      </trkpt>
      <trkpt lat="49.91873" lon="2.25146">
        <ele>17.8</ele>
        <time>2023-05-19T13:48:52Z</time>
      </trkpt>
      <trkpt lat="49.91874" lon="2.25147">
        <ele>17.8</ele>
        <time>2023-05-19T13:48:53Z</time>
      </trkpt>
      <trkpt lat="49.91874" lon="2.2515">
        <ele>17.8</ele>
        <time>2023-05-19T13:48:54Z</time>
      </trkpt>
      <trkpt lat="49.91874" lon="2.25151">
        <ele>17.8</ele>
        <time>2023-05-19T13:48:55Z</time>
      </trkpt>
      <trkpt lat="49.91874" lon="2.25152">
        <ele>17.8</ele>
        <time>2023-05-19T13:48:56Z</time>
      </trkpt>
      <trkpt lat="49.91875" lon="2.25154">
        <ele>17.8</ele>
        <time>2023-05-19T13:48:57Z</time>
      </trkpt>
      <trkpt lat="49.91875" lon="2.25156">
        <ele>17.8</ele>
        <time>2023-05-19T13:48:58Z</time>
      </trkpt>
      <trkpt lat="49.91875" lon="2.25158">
        <ele>17.8</ele>
        <time>2023-05-19T13:48:59Z</time>
      </trkpt>
      <trkpt lat="49.91875" lon="2.2516">
        <ele>17.8</ele>
        <time>2023-05-19T13:49:00Z</time>
      </trkpt>
      <trkpt lat="49.91876" lon="2.25161">
        <ele>17.8</ele>
        <time>2023-05-19T13:49:01Z</time>
      </trkpt>
      <trkpt lat="49.91876" lon="2.25164">
        <ele>17.8</ele>
        <time>2023-05-19T13:49:03Z</time>
      </trkpt>
      <trkpt lat="49.91877" lon="2.25167">
        <ele>17.8</ele>
        <time>2023-05-19T13:49:04Z</time>
      </trkpt>
      <trkpt lat="49.91877" lon="2.25168">
        <ele>17.8</ele>
        <time>2023-05-19T13:49:05Z</time>
      </trkpt>
      <trkpt lat="49.91877" lon="2.2517">
        <ele>17.8</ele>
        <time>2023-05-19T13:49:06Z</time>
      </trkpt>
      <trkpt lat="49.91878" lon="2.25173">
        <ele>17.9</ele>
        <time>2023-05-19T13:49:07Z</time>
      </trkpt>
      <trkpt lat="49.91878" lon="2.25174">
        <ele>17.9</ele>
        <time>2023-05-19T13:49:08Z</time>
      </trkpt>
      <trkpt lat="49.91879" lon="2.25175">
        <ele>17.9</ele>
        <time>2023-05-19T13:49:09Z</time>
      </trkpt>
      <trkpt lat="49.9188" lon="2.25178">
        <ele>17.9</ele>
        <time>2023-05-19T13:49:10Z</time>
      </trkpt>
      <trkpt lat="49.9188" lon="2.25179">
        <ele>17.9</ele>
        <time>2023-05-19T13:49:12Z</time>
      </trkpt>
      <trkpt lat="49.91881" lon="2.2518">
        <ele>17.9</ele>
        <time>2023-05-19T13:49:13Z</time>
      </trkpt>
      <trkpt lat="49.91881" lon="2.25181">
        <ele>17.9</ele>
        <time>2023-05-19T13:49:14Z</time>
      </trkpt>
      <trkpt lat="49.91882" lon="2.25183">
        <ele>17.9</ele>
        <time>2023-05-19T13:49:15Z</time>
      </trkpt>
      <trkpt lat="49.91883" lon="2.25184">
        <ele>17.9</ele>
        <time>2023-05-19T13:49:16Z</time>
      </trkpt>
      <trkpt lat="49.91883" lon="2.25186">
        <ele>17.9</ele>
        <time>2023-05-19T13:49:17Z</time>
      </trkpt>
      <trkpt lat="49.91884" lon="2.25189">
        <ele>17.9</ele>
        <time>2023-05-19T13:49:19Z</time>
      </trkpt>
      <trkpt lat="49.91885" lon="2.2519">
        <ele>17.9</ele>
        <time>2023-05-19T13:49:20Z</time>
      </trkpt>
      <trkpt lat="49.91886" lon="2.25192">
        <ele>17.9</ele>
        <time>2023-05-19T13:49:21Z</time>
      </trkpt>
      <trkpt lat="49.91886" lon="2.25194">
        <ele>17.9</ele>
        <time>2023-05-19T13:49:23Z</time>
      </trkpt>
      <trkpt lat="49.91887" lon="2.25197">
        <ele>17.9</ele>
        <time>2023-05-19T13:49:24Z</time>
      </trkpt>
      <trkpt lat="49.91887" lon="2.25198">
        <ele>17.9</ele>
        <time>2023-05-19T13:49:25Z</time>
      </trkpt>
      <trkpt lat="49.91887" lon="2.25199">
        <ele>17.9</ele>
        <time>2023-05-19T13:49:26Z</time>
      </trkpt>
      <trkpt lat="49.91888" lon="2.25202">
        <ele>17.9</ele>
        <time>2023-05-19T13:49:27Z</time>
      </trkpt>
      <trkpt lat="49.91888" lon="2.25204">
        <ele>17.9</ele>
        <time>2023-05-19T13:49:28Z</time>
      </trkpt>
      <trkpt lat="49.91888" lon="2.25205">
        <ele>17.9</ele>
        <time>2023-05-19T13:49:29Z</time>
      </trkpt>
      <trkpt lat="49.91889" lon="2.25207">
        <ele>17.9</ele>
        <time>2023-05-19T13:49:30Z</time>
      </trkpt>
      <trkpt lat="49.91889" lon="2.25209">
        <ele>17.9</ele>
        <time>2023-05-19T13:49:31Z</time>
      </trkpt>
      <trkpt lat="49.91889" lon="2.25211">
        <ele>17.9</ele>
        <time>2023-05-19T13:49:33Z</time>
      </trkpt>
      <trkpt lat="49.91889" lon="2.25214">
        <ele>17.9</ele>
        <time>2023-05-19T13:49:34Z</time>
      </trkpt>
      <trkpt lat="49.91889" lon="2.25215">
        <ele>17.9</ele>
        <time>2023-05-19T13:49:35Z</time>
      </trkpt>
      <trkpt lat="49.91889" lon="2.25217">
        <ele>18</ele>
        <time>2023-05-19T13:49:36Z</time>
      </trkpt>
      <trkpt lat="49.91889" lon="2.25219">
        <ele>18</ele>
        <time>2023-05-19T13:49:38Z</time>
      </trkpt>
      <trkpt lat="49.91889" lon="2.25221">
        <ele>18</ele>
        <time>2023-05-19T13:49:39Z</time>
      </trkpt>
      <trkpt lat="49.91889" lon="2.25224">
        <ele>18</ele>
        <time>2023-05-19T13:49:40Z</time>
      </trkpt>
      <trkpt lat="49.91889" lon="2.25226">
        <ele>18</ele>
        <time>2023-05-19T13:49:41Z</time>
      </trkpt>
      <trkpt lat="49.91889" lon="2.25227">
        <ele>18</ele>
        <time>2023-05-19T13:49:42Z</time>
      </trkpt>
      <trkpt lat="49.91889" lon="2.25228">
        <ele>18</ele>
        <time>2023-05-19T13:49:43Z</time>
      </trkpt>
      <trkpt lat="49.91889" lon="2.2523">
        <ele>18</ele>
        <time>2023-05-19T13:49:44Z</time>
      </trkpt>
      <trkpt lat="49.91889" lon="2.25232">
        <ele>18</ele>
        <time>2023-05-19T13:49:45Z</time>
      </trkpt>
      <trkpt lat="49.91889" lon="2.25235">
        <ele>18</ele>
        <time>2023-05-19T13:49:47Z</time>
      </trkpt>
      <trkpt lat="49.91889" lon="2.25237">
        <ele>18</ele>
        <time>2023-05-19T13:49:48Z</time>
      </trkpt>
      <trkpt lat="49.91889" lon="2.2524">
        <ele>18</ele>
        <time>2023-05-19T13:49:49Z</time>
      </trkpt>
      <trkpt lat="49.91888" lon="2.25241">
        <ele>18</ele>
        <time>2023-05-19T13:49:50Z</time>
      </trkpt>
      <trkpt lat="49.91888" lon="2.25243">
        <ele>18</ele>
        <time>2023-05-19T13:49:51Z</time>
      </trkpt>
      <trkpt lat="49.91888" lon="2.25246">
        <ele>18</ele>
        <time>2023-05-19T13:49:52Z</time>
      </trkpt>
      <trkpt lat="49.91888" lon="2.25247">
        <ele>18</ele>
        <time>2023-05-19T13:49:54Z</time>
      </trkpt>
      <trkpt lat="49.91888" lon="2.25249">
        <ele>18</ele>
        <time>2023-05-19T13:49:55Z</time>
      </trkpt>
      <trkpt lat="49.91888" lon="2.2525">
        <ele>18</ele>
        <time>2023-05-19T13:49:56Z</time>
      </trkpt>
      <trkpt lat="49.91888" lon="2.25252">
        <ele>18</ele>
        <time>2023-05-19T13:49:57Z</time>
      </trkpt>
      <trkpt lat="49.91888" lon="2.25254">
        <ele>18</ele>
        <time>2023-05-19T13:49:58Z</time>
      </trkpt>
      <trkpt lat="49.91888" lon="2.25257">
        <ele>18</ele>
        <time>2023-05-19T13:50:00Z</time>
      </trkpt>
      <trkpt lat="49.91888" lon="2.25258">
        <ele>18</ele>
        <time>2023-05-19T13:50:01Z</time>
      </trkpt>
      <trkpt lat="49.91888" lon="2.2526">
        <ele>18.1</ele>
        <time>2023-05-19T13:50:02Z</time>
      </trkpt>
      <trkpt lat="49.91889" lon="2.25262">
        <ele>18.1</ele>
        <time>2023-05-19T13:50:03Z</time>
      </trkpt>
      <trkpt lat="49.91889" lon="2.25263">
        <ele>18.1</ele>
        <time>2023-05-19T13:50:04Z</time>
      </trkpt>
      <trkpt lat="49.91889" lon="2.25265">
        <ele>18.1</ele>
        <time>2023-05-19T13:50:05Z</time>
      </trkpt>
      <trkpt lat="49.9189" lon="2.25267">
        <ele>18.1</ele>
        <time>2023-05-19T13:50:07Z</time>
      </trkpt>
      <trkpt lat="49.9189" lon="2.25268">
        <ele>18.1</ele>
        <time>2023-05-19T13:50:08Z</time>
      </trkpt>
      <trkpt lat="49.91891" lon="2.25271">
        <ele>18.1</ele>
        <time>2023-05-19T13:50:09Z</time>
      </trkpt>
      <trkpt lat="49.91891" lon="2.25272">
        <ele>18.1</ele>
        <time>2023-05-19T13:50:10Z</time>
      </trkpt>
      <trkpt lat="49.91891" lon="2.25274">
        <ele>18.1</ele>
        <time>2023-05-19T13:50:11Z</time>
      </trkpt>
      <trkpt lat="49.91892" lon="2.25275">
        <ele>18.1</ele>
        <time>2023-05-19T13:50:12Z</time>
      </trkpt>
      <trkpt lat="49.91892" lon="2.25277">
        <ele>18.1</ele>
        <time>2023-05-19T13:50:13Z</time>
      </trkpt>
      <trkpt lat="49.91892" lon="2.25279">
        <ele>18.1</ele>
        <time>2023-05-19T13:50:14Z</time>
      </trkpt>
      <trkpt lat="49.91892" lon="2.2528">
        <ele>18.1</ele>
        <time>2023-05-19T13:50:15Z</time>
      </trkpt>
      <trkpt lat="49.91892" lon="2.25282">
        <ele>18.1</ele>
        <time>2023-05-19T13:50:17Z</time>
      </trkpt>
      <trkpt lat="49.91892" lon="2.25284">
        <ele>18.1</ele>
        <time>2023-05-19T13:50:18Z</time>
      </trkpt>
      <trkpt lat="49.91892" lon="2.25286">
        <ele>18.1</ele>
        <time>2023-05-19T13:50:19Z</time>
      </trkpt>
      <trkpt lat="49.91892" lon="2.25287">
        <ele>18.1</ele>
        <time>2023-05-19T13:50:20Z</time>
      </trkpt>
      <trkpt lat="49.91892" lon="2.25289">
        <ele>18.1</ele>
        <time>2023-05-19T13:50:21Z</time>
      </trkpt>
      <trkpt lat="49.91892" lon="2.25292">
        <ele>18.1</ele>
        <time>2023-05-19T13:50:23Z</time>
      </trkpt>
      <trkpt lat="49.91892" lon="2.25294">
        <ele>18.1</ele>
        <time>2023-05-19T13:50:24Z</time>
      </trkpt>
      <trkpt lat="49.91892" lon="2.25296">
        <ele>18.1</ele>
        <time>2023-05-19T13:50:25Z</time>
      </trkpt>
      <trkpt lat="49.91892" lon="2.25298">
        <ele>18.1</ele>
        <time>2023-05-19T13:50:26Z</time>
      </trkpt>
      <trkpt lat="49.91892" lon="2.253">
        <ele>18.1</ele>
        <time>2023-05-19T13:50:27Z</time>
      </trkpt>
      <trkpt lat="49.91892" lon="2.25302">
        <ele>18.1</ele>
        <time>2023-05-19T13:50:28Z</time>
      </trkpt>
      <trkpt lat="49.91892" lon="2.25304">
        <ele>18.1</ele>
        <time>2023-05-19T13:50:30Z</time>
      </trkpt>
      <trkpt lat="49.91891" lon="2.25307">
        <ele>18.1</ele>
        <time>2023-05-19T13:50:31Z</time>
      </trkpt>
      <trkpt lat="49.91891" lon="2.25309">
        <ele>18.1</ele>
        <time>2023-05-19T13:50:32Z</time>
      </trkpt>
      <trkpt lat="49.91891" lon="2.25311">
        <ele>18.1</ele>
        <time>2023-05-19T13:50:33Z</time>
      </trkpt>
      <trkpt lat="49.91891" lon="2.25313">
        <ele>18.1</ele>
        <time>2023-05-19T13:50:34Z</time>
      </trkpt>
      <trkpt lat="49.91891" lon="2.25316">
        <ele>18.1</ele>
        <time>2023-05-19T13:50:36Z</time>
      </trkpt>
      <trkpt lat="49.91891" lon="2.25318">
        <ele>18.1</ele>
        <time>2023-05-19T13:50:37Z</time>
      </trkpt>
      <trkpt lat="49.91891" lon="2.2532">
        <ele>18.1</ele>
        <time>2023-05-19T13:50:38Z</time>
      </trkpt>
      <trkpt lat="49.9189" lon="2.25322">
        <ele>18.1</ele>
        <time>2023-05-19T13:50:39Z</time>
      </trkpt>
      <trkpt lat="49.9189" lon="2.25325">
        <ele>18.1</ele>
        <time>2023-05-19T13:50:40Z</time>
      </trkpt>
      <trkpt lat="49.9189" lon="2.25327">
        <ele>18.1</ele>
        <time>2023-05-19T13:50:41Z</time>
      </trkpt>
      <trkpt lat="49.91889" lon="2.2533">
        <ele>18.1</ele>
        <time>2023-05-19T13:50:42Z</time>
      </trkpt>
      <trkpt lat="49.91889" lon="2.25332">
        <ele>18.1</ele>
        <time>2023-05-19T13:50:43Z</time>
      </trkpt>
      <trkpt lat="49.91889" lon="2.25334">
        <ele>18.1</ele>
        <time>2023-05-19T13:50:45Z</time>
      </trkpt>
      <trkpt lat="49.91889" lon="2.25336">
        <ele>18.1</ele>
        <time>2023-05-19T13:50:46Z</time>
      </trkpt>
      <trkpt lat="49.91888" lon="2.25338">
        <ele>18</ele>
        <time>2023-05-19T13:50:47Z</time>
      </trkpt>
      <trkpt lat="49.91888" lon="2.2534">
        <ele>18</ele>
        <time>2023-05-19T13:50:48Z</time>
      </trkpt>
      <trkpt lat="49.91888" lon="2.25342">
        <ele>18</ele>
        <time>2023-05-19T13:50:49Z</time>
      </trkpt>
      <trkpt lat="49.91888" lon="2.25345">
        <ele>18</ele>
        <time>2023-05-19T13:50:51Z</time>
      </trkpt>
      <trkpt lat="49.91888" lon="2.25348">
        <ele>18</ele>
        <time>2023-05-19T13:50:52Z</time>
      </trkpt>
      <trkpt lat="49.91888" lon="2.2535">
        <ele>18</ele>
        <time>2023-05-19T13:50:53Z</time>
      </trkpt>
      <trkpt lat="49.91888" lon="2.25352">
        <ele>18</ele>
        <time>2023-05-19T13:50:54Z</time>
      </trkpt>
      <trkpt lat="49.91888" lon="2.25354">
        <ele>18</ele>
        <time>2023-05-19T13:50:55Z</time>
      </trkpt>
      <trkpt lat="49.91888" lon="2.25358">
        <ele>18</ele>
        <time>2023-05-19T13:50:56Z</time>
      </trkpt>
      <trkpt lat="49.91888" lon="2.2536">
        <ele>18</ele>
        <time>2023-05-19T13:50:58Z</time>
      </trkpt>
      <trkpt lat="49.91888" lon="2.25361">
        <ele>18</ele>
        <time>2023-05-19T13:50:59Z</time>
      </trkpt>
      <trkpt lat="49.91889" lon="2.25363">
        <ele>18</ele>
        <time>2023-05-19T13:51:00Z</time>
      </trkpt>
      <trkpt lat="49.91889" lon="2.25365">
        <ele>18</ele>
        <time>2023-05-19T13:51:01Z</time>
      </trkpt>
      <trkpt lat="49.91889" lon="2.25368">
        <ele>18</ele>
        <time>2023-05-19T13:51:02Z</time>
      </trkpt>
      <trkpt lat="49.9189" lon="2.25369">
        <ele>18</ele>
        <time>2023-05-19T13:51:03Z</time>
      </trkpt>
      <trkpt lat="49.9189" lon="2.2537">
        <ele>18</ele>
        <time>2023-05-19T13:51:04Z</time>
      </trkpt>
      <trkpt lat="49.9189" lon="2.25374">
        <ele>18</ele>
        <time>2023-05-19T13:51:05Z</time>
      </trkpt>
      <trkpt lat="49.9189" lon="2.25376">
        <ele>18</ele>
        <time>2023-05-19T13:51:07Z</time>
      </trkpt>
      <trkpt lat="49.9189" lon="2.25378">
        <ele>18</ele>
        <time>2023-05-19T13:51:08Z</time>
      </trkpt>
      <trkpt lat="49.9189" lon="2.25379">
        <ele>18</ele>
        <time>2023-05-19T13:51:09Z</time>
      </trkpt>
      <trkpt lat="49.9189" lon="2.25381">
        <ele>18</ele>
        <time>2023-05-19T13:51:10Z</time>
      </trkpt>
      <trkpt lat="49.91891" lon="2.25384">
        <ele>18</ele>
        <time>2023-05-19T13:51:12Z</time>
      </trkpt>
      <trkpt lat="49.91891" lon="2.25386">
        <ele>18</ele>
        <time>2023-05-19T13:51:13Z</time>
      </trkpt>
      <trkpt lat="49.91891" lon="2.25389">
        <ele>18</ele>
        <time>2023-05-19T13:51:14Z</time>
      </trkpt>
      <trkpt lat="49.91891" lon="2.25391">
        <ele>18</ele>
        <time>2023-05-19T13:51:15Z</time>
      </trkpt>
      <trkpt lat="49.91891" lon="2.25392">
        <ele>18</ele>
        <time>2023-05-19T13:51:16Z</time>
      </trkpt>
      <trkpt lat="49.91891" lon="2.25395">
        <ele>18</ele>
        <time>2023-05-19T13:51:17Z</time>
      </trkpt>
      <trkpt lat="49.91891" lon="2.25396">
        <ele>18</ele>
        <time>2023-05-19T13:51:18Z</time>
      </trkpt>
      <trkpt lat="49.91891" lon="2.25398">
        <ele>18</ele>
        <time>2023-05-19T13:51:19Z</time>
      </trkpt>
      <trkpt lat="49.9189" lon="2.25401">
        <ele>18</ele>
        <time>2023-05-19T13:51:21Z</time>
      </trkpt>
      <trkpt lat="49.9189" lon="2.25402">
        <ele>18</ele>
        <time>2023-05-19T13:51:22Z</time>
      </trkpt>
      <trkpt lat="49.9189" lon="2.25403">
        <ele>18</ele>
        <time>2023-05-19T13:51:23Z</time>
      </trkpt>
      <trkpt lat="49.9189" lon="2.25407">
        <ele>18</ele>
        <time>2023-05-19T13:51:24Z</time>
      </trkpt>
      <trkpt lat="49.9189" lon="2.25408">
        <ele>18</ele>
        <time>2023-05-19T13:51:25Z</time>
      </trkpt>
      <trkpt lat="49.9189" lon="2.2541">
        <ele>18</ele>
        <time>2023-05-19T13:51:26Z</time>
      </trkpt>
      <trkpt lat="49.91889" lon="2.25412">
        <ele>18</ele>
        <time>2023-05-19T13:51:27Z</time>
      </trkpt>
      <trkpt lat="49.91889" lon="2.25414">
        <ele>18</ele>
        <time>2023-05-19T13:51:28Z</time>
      </trkpt>
      <trkpt lat="49.91889" lon="2.25416">
        <ele>18</ele>
        <time>2023-05-19T13:51:30Z</time>
      </trkpt>
      <trkpt lat="49.91889" lon="2.25419">
        <ele>18</ele>
        <time>2023-05-19T13:51:31Z</time>
      </trkpt>
      <trkpt lat="49.91889" lon="2.25421">
        <ele>18</ele>
        <time>2023-05-19T13:51:32Z</time>
      </trkpt>
      <trkpt lat="49.91889" lon="2.25422">
        <ele>18</ele>
        <time>2023-05-19T13:51:33Z</time>
      </trkpt>
      <trkpt lat="49.91889" lon="2.25424">
        <ele>18</ele>
        <time>2023-05-19T13:51:34Z</time>
      </trkpt>
      <trkpt lat="49.9189" lon="2.25427">
        <ele>18</ele>
        <time>2023-05-19T13:51:35Z</time>
      </trkpt>
      <trkpt lat="49.9189" lon="2.25429">
        <ele>18</ele>
        <time>2023-05-19T13:51:36Z</time>
      </trkpt>
      <trkpt lat="49.9189" lon="2.25431">
        <ele>18</ele>
        <time>2023-05-19T13:51:37Z</time>
      </trkpt>
      <trkpt lat="49.9189" lon="2.25433">
        <ele>18</ele>
        <time>2023-05-19T13:51:39Z</time>
      </trkpt>
      <trkpt lat="49.9189" lon="2.25435">
        <ele>18</ele>
        <time>2023-05-19T13:51:40Z</time>
      </trkpt>
      <trkpt lat="49.91891" lon="2.25437">
        <ele>18</ele>
        <time>2023-05-19T13:51:41Z</time>
      </trkpt>
      <trkpt lat="49.91891" lon="2.25439">
        <ele>18</ele>
        <time>2023-05-19T13:51:42Z</time>
      </trkpt>
      <trkpt lat="49.91891" lon="2.25441">
        <ele>18</ele>
        <time>2023-05-19T13:51:43Z</time>
      </trkpt>
      <trkpt lat="49.91891" lon="2.25443">
        <ele>18</ele>
        <time>2023-05-19T13:51:45Z</time>
      </trkpt>
      <trkpt lat="49.91891" lon="2.25446">
        <ele>18</ele>
        <time>2023-05-19T13:51:46Z</time>
      </trkpt>
      <trkpt lat="49.91892" lon="2.25449">
        <ele>18</ele>
        <time>2023-05-19T13:51:47Z</time>
      </trkpt>
      <trkpt lat="49.91892" lon="2.25452">
        <ele>18</ele>
        <time>2023-05-19T13:51:48Z</time>
      </trkpt>
      <trkpt lat="49.91892" lon="2.25453">
        <ele>18</ele>
        <time>2023-05-19T13:51:49Z</time>
      </trkpt>
      <trkpt lat="49.91892" lon="2.25455">
        <ele>18</ele>
        <time>2023-05-19T13:51:50Z</time>
      </trkpt>
      <trkpt lat="49.91892" lon="2.25457">
        <ele>18</ele>
        <time>2023-05-19T13:51:51Z</time>
      </trkpt>
      <trkpt lat="49.91892" lon="2.25459">
        <ele>18</ele>
        <time>2023-05-19T13:51:52Z</time>
      </trkpt>
      <trkpt lat="49.91892" lon="2.25462">
        <ele>18</ele>
        <time>2023-05-19T13:51:53Z</time>
      </trkpt>
      <trkpt lat="49.91892" lon="2.25464">
        <ele>18</ele>
        <time>2023-05-19T13:51:54Z</time>
      </trkpt>
      <trkpt lat="49.91892" lon="2.25465">
        <ele>18</ele>
        <time>2023-05-19T13:51:55Z</time>
      </trkpt>
      <trkpt lat="49.91892" lon="2.25467">
        <ele>18</ele>
        <time>2023-05-19T13:51:56Z</time>
      </trkpt>
      <trkpt lat="49.91892" lon="2.2547">
        <ele>18</ele>
        <time>2023-05-19T13:51:58Z</time>
      </trkpt>
      <trkpt lat="49.91892" lon="2.25472">
        <ele>18</ele>
        <time>2023-05-19T13:51:59Z</time>
      </trkpt>
      <trkpt lat="49.91892" lon="2.25473">
        <ele>18</ele>
        <time>2023-05-19T13:52:00Z</time>
      </trkpt>
      <trkpt lat="49.91893" lon="2.25475">
        <ele>18</ele>
        <time>2023-05-19T13:52:01Z</time>
      </trkpt>
      <trkpt lat="49.91893" lon="2.25478">
        <ele>18</ele>
        <time>2023-05-19T13:52:02Z</time>
      </trkpt>
      <trkpt lat="49.91893" lon="2.2548">
        <ele>18</ele>
        <time>2023-05-19T13:52:03Z</time>
      </trkpt>
      <trkpt lat="49.91894" lon="2.25481">
        <ele>18</ele>
        <time>2023-05-19T13:52:05Z</time>
      </trkpt>
      <trkpt lat="49.91894" lon="2.25483">
        <ele>18</ele>
        <time>2023-05-19T13:52:06Z</time>
      </trkpt>
      <trkpt lat="49.91894" lon="2.25485">
        <ele>18</ele>
        <time>2023-05-19T13:52:07Z</time>
      </trkpt>
      <trkpt lat="49.91894" lon="2.25488">
        <ele>18</ele>
        <time>2023-05-19T13:52:08Z</time>
      </trkpt>
      <trkpt lat="49.91894" lon="2.25489">
        <ele>18</ele>
        <time>2023-05-19T13:52:09Z</time>
      </trkpt>
      <trkpt lat="49.91894" lon="2.25491">
        <ele>18</ele>
        <time>2023-05-19T13:52:10Z</time>
      </trkpt>
      <trkpt lat="49.91895" lon="2.25494">
        <ele>18</ele>
        <time>2023-05-19T13:52:11Z</time>
      </trkpt>
      <trkpt lat="49.91895" lon="2.25495">
        <ele>18</ele>
        <time>2023-05-19T13:52:12Z</time>
      </trkpt>
      <trkpt lat="49.91895" lon="2.25496">
        <ele>18</ele>
        <time>2023-05-19T13:52:13Z</time>
      </trkpt>
      <trkpt lat="49.91896" lon="2.25499">
        <ele>18.1</ele>
        <time>2023-05-19T13:52:15Z</time>
      </trkpt>
      <trkpt lat="49.91896" lon="2.25501">
        <ele>18.1</ele>
        <time>2023-05-19T13:52:16Z</time>
      </trkpt>
      <trkpt lat="49.91896" lon="2.25503">
        <ele>18.1</ele>
        <time>2023-05-19T13:52:17Z</time>
      </trkpt>
      <trkpt lat="49.91896" lon="2.25506">
        <ele>18.1</ele>
        <time>2023-05-19T13:52:19Z</time>
      </trkpt>
      <trkpt lat="49.91896" lon="2.25507">
        <ele>18.1</ele>
        <time>2023-05-19T13:52:20Z</time>
      </trkpt>
      <trkpt lat="49.91896" lon="2.25509">
        <ele>18.1</ele>
        <time>2023-05-19T13:52:21Z</time>
      </trkpt>
      <trkpt lat="49.91897" lon="2.25511">
        <ele>18.1</ele>
        <time>2023-05-19T13:52:22Z</time>
      </trkpt>
      <trkpt lat="49.91897" lon="2.25514">
        <ele>18.1</ele>
        <time>2023-05-19T13:52:23Z</time>
      </trkpt>
      <trkpt lat="49.91897" lon="2.25516">
        <ele>18.1</ele>
        <time>2023-05-19T13:52:24Z</time>
      </trkpt>
      <trkpt lat="49.91897" lon="2.25517">
        <ele>18.1</ele>
        <time>2023-05-19T13:52:25Z</time>
      </trkpt>
      <trkpt lat="49.91897" lon="2.2552">
        <ele>18.2</ele>
        <time>2023-05-19T13:52:27Z</time>
      </trkpt>
      <trkpt lat="49.91897" lon="2.25522">
        <ele>18.2</ele>
        <time>2023-05-19T13:52:28Z</time>
      </trkpt>
      <trkpt lat="49.91896" lon="2.25523">
        <ele>18.2</ele>
        <time>2023-05-19T13:52:29Z</time>
      </trkpt>
      <trkpt lat="49.91896" lon="2.25525">
        <ele>18.2</ele>
        <time>2023-05-19T13:52:30Z</time>
      </trkpt>
      <trkpt lat="49.91896" lon="2.25526">
        <ele>18.2</ele>
        <time>2023-05-19T13:52:31Z</time>
      </trkpt>
      <trkpt lat="49.91897" lon="2.25528">
        <ele>18.2</ele>
        <time>2023-05-19T13:52:32Z</time>
      </trkpt>
      <trkpt lat="49.91897" lon="2.25529">
        <ele>18.2</ele>
        <time>2023-05-19T13:52:34Z</time>
      </trkpt>
      <trkpt lat="49.91898" lon="2.2553">
        <ele>18.2</ele>
        <time>2023-05-19T13:52:35Z</time>
      </trkpt>
      <trkpt lat="49.91899" lon="2.2553">
        <ele>18.2</ele>
        <time>2023-05-19T13:52:36Z</time>
      </trkpt>
      <trkpt lat="49.919" lon="2.2553">
        <ele>18.2</ele>
        <time>2023-05-19T13:52:37Z</time>
      </trkpt>
      <trkpt lat="49.91901" lon="2.2553">
        <ele>18.2</ele>
        <time>2023-05-19T13:52:38Z</time>
      </trkpt>
      <trkpt lat="49.91901" lon="2.2553">
        <ele>18.2</ele>
        <time>2023-05-19T13:52:39Z</time>
      </trkpt>
      <trkpt lat="49.91901" lon="2.2553">
        <ele>18.2</ele>
        <time>2023-05-19T13:52:40Z</time>
      </trkpt>
      <trkpt lat="49.91901" lon="2.2553">
        <ele>18.2</ele>
        <time>2023-05-19T13:52:41Z</time>
      </trkpt>
      <trkpt lat="49.91901" lon="2.25531">
        <ele>18.2</ele>
        <time>2023-05-19T13:52:42Z</time>
      </trkpt>
      <trkpt lat="49.91901" lon="2.25532">
        <ele>18.2</ele>
        <time>2023-05-19T13:52:43Z</time>
      </trkpt>
      <trkpt lat="49.91901" lon="2.25533">
        <ele>18.2</ele>
        <time>2023-05-19T13:52:44Z</time>
      </trkpt>
      <trkpt lat="49.91901" lon="2.25535">
        <ele>18.2</ele>
        <time>2023-05-19T13:52:46Z</time>
      </trkpt>
      <trkpt lat="49.91901" lon="2.25536">
        <ele>18.2</ele>
        <time>2023-05-19T13:52:47Z</time>
      </trkpt>
      <trkpt lat="49.91901" lon="2.25538">
        <ele>18.2</ele>
        <time>2023-05-19T13:52:48Z</time>
      </trkpt>
      <trkpt lat="49.91901" lon="2.2554">
        <ele>18.2</ele>
        <time>2023-05-19T13:52:49Z</time>
      </trkpt>
      <trkpt lat="49.91901" lon="2.25542">
        <ele>18.3</ele>
        <time>2023-05-19T13:52:50Z</time>
      </trkpt>
      <trkpt lat="49.91901" lon="2.25544">
        <ele>18.3</ele>
        <time>2023-05-19T13:52:51Z</time>
      </trkpt>
      <trkpt lat="49.91902" lon="2.25547">
        <ele>18.3</ele>
        <time>2023-05-19T13:52:53Z</time>
      </trkpt>
      <trkpt lat="49.91902" lon="2.25549">
        <ele>18.3</ele>
        <time>2023-05-19T13:52:54Z</time>
      </trkpt>
      <trkpt lat="49.91902" lon="2.2555">
        <ele>18.3</ele>
        <time>2023-05-19T13:52:55Z</time>
      </trkpt>
      <trkpt lat="49.91902" lon="2.25552">
        <ele>18.3</ele>
        <time>2023-05-19T13:52:56Z</time>
      </trkpt>
      <trkpt lat="49.91902" lon="2.25554">
        <ele>18.3</ele>
        <time>2023-05-19T13:52:57Z</time>
      </trkpt>
      <trkpt lat="49.91901" lon="2.25556">
        <ele>18.3</ele>
        <time>2023-05-19T13:52:58Z</time>
      </trkpt>
      <trkpt lat="49.91901" lon="2.25559">
        <ele>18.3</ele>
        <time>2023-05-19T13:52:59Z</time>
      </trkpt>
      <trkpt lat="49.919" lon="2.25561">
        <ele>18.3</ele>
        <time>2023-05-19T13:53:00Z</time>
      </trkpt>
      <trkpt lat="49.919" lon="2.25562">
        <ele>18.3</ele>
        <time>2023-05-19T13:53:01Z</time>
      </trkpt>
      <trkpt lat="49.91899" lon="2.25565">
        <ele>18.3</ele>
        <time>2023-05-19T13:53:03Z</time>
      </trkpt>
      <trkpt lat="49.91898" lon="2.25567">
        <ele>18.3</ele>
        <time>2023-05-19T13:53:04Z</time>
      </trkpt>
      <trkpt lat="49.91898" lon="2.25569">
        <ele>18.3</ele>
        <time>2023-05-19T13:53:05Z</time>
      </trkpt>
      <trkpt lat="49.91897" lon="2.25571">
        <ele>18.4</ele>
        <time>2023-05-19T13:53:06Z</time>
      </trkpt>
      <trkpt lat="49.91896" lon="2.25573">
        <ele>18.4</ele>
        <time>2023-05-19T13:53:07Z</time>
      </trkpt>
      <trkpt lat="49.91896" lon="2.25575">
        <ele>18.4</ele>
        <time>2023-05-19T13:53:08Z</time>
      </trkpt>
      <trkpt lat="49.91896" lon="2.25577">
        <ele>18.4</ele>
        <time>2023-05-19T13:53:09Z</time>
      </trkpt>
      <trkpt lat="49.91895" lon="2.25579">
        <ele>18.4</ele>
        <time>2023-05-19T13:53:11Z</time>
      </trkpt>
      <trkpt lat="49.91895" lon="2.25583">
        <ele>18.4</ele>
        <time>2023-05-19T13:53:12Z</time>
      </trkpt>
      <trkpt lat="49.91894" lon="2.25584">
        <ele>18.4</ele>
        <time>2023-05-19T13:53:13Z</time>
      </trkpt>
      <trkpt lat="49.91894" lon="2.25585">
        <ele>18.4</ele>
        <time>2023-05-19T13:53:14Z</time>
      </trkpt>
      <trkpt lat="49.91894" lon="2.25589">
        <ele>18.4</ele>
        <time>2023-05-19T13:53:15Z</time>
      </trkpt>
      <trkpt lat="49.91893" lon="2.25591">
        <ele>18.4</ele>
        <time>2023-05-19T13:53:17Z</time>
      </trkpt>
      <trkpt lat="49.91893" lon="2.25592">
        <ele>18.4</ele>
        <time>2023-05-19T13:53:18Z</time>
      </trkpt>
      <trkpt lat="49.91893" lon="2.25594">
        <ele>18.5</ele>
        <time>2023-05-19T13:53:19Z</time>
      </trkpt>
      <trkpt lat="49.91893" lon="2.25596">
        <ele>18.5</ele>
        <time>2023-05-19T13:53:20Z</time>
      </trkpt>
      <trkpt lat="49.91893" lon="2.25598">
        <ele>18.5</ele>
        <time>2023-05-19T13:53:21Z</time>
      </trkpt>
      <trkpt lat="49.91892" lon="2.256">
        <ele>18.5</ele>
        <time>2023-05-19T13:53:22Z</time>
      </trkpt>
      <trkpt lat="49.91892" lon="2.25602">
        <ele>18.5</ele>
        <time>2023-05-19T13:53:24Z</time>
      </trkpt>
      <trkpt lat="49.91892" lon="2.25605">
        <ele>18.5</ele>
        <time>2023-05-19T13:53:25Z</time>
      </trkpt>
      <trkpt lat="49.91892" lon="2.25607">
        <ele>18.5</ele>
        <time>2023-05-19T13:53:26Z</time>
      </trkpt>
      <trkpt lat="49.91892" lon="2.25608">
        <ele>18.5</ele>
        <time>2023-05-19T13:53:27Z</time>
      </trkpt>
      <trkpt lat="49.91892" lon="2.25611">
        <ele>18.6</ele>
        <time>2023-05-19T13:53:28Z</time>
      </trkpt>
      <trkpt lat="49.91892" lon="2.25613">
        <ele>18.6</ele>
        <time>2023-05-19T13:53:29Z</time>
      </trkpt>
      <trkpt lat="49.91891" lon="2.25614">
        <ele>18.6</ele>
        <time>2023-05-19T13:53:30Z</time>
      </trkpt>
      <trkpt lat="49.91891" lon="2.25617">
        <ele>18.6</ele>
        <time>2023-05-19T13:53:31Z</time>
      </trkpt>
      <trkpt lat="49.91891" lon="2.25619">
        <ele>18.6</ele>
        <time>2023-05-19T13:53:32Z</time>
      </trkpt>
      <trkpt lat="49.91891" lon="2.2562">
        <ele>18.6</ele>
        <time>2023-05-19T13:53:33Z</time>
      </trkpt>
      <trkpt lat="49.91891" lon="2.25622">
        <ele>18.6</ele>
        <time>2023-05-19T13:53:34Z</time>
      </trkpt>
      <trkpt lat="49.91891" lon="2.25623">
        <ele>18.6</ele>
        <time>2023-05-19T13:53:35Z</time>
      </trkpt>
      <trkpt lat="49.9189" lon="2.25625">
        <ele>18.7</ele>
        <time>2023-05-19T13:53:36Z</time>
      </trkpt>
      <trkpt lat="49.9189" lon="2.25627">
        <ele>18.7</ele>
        <time>2023-05-19T13:53:37Z</time>
      </trkpt>
      <trkpt lat="49.9189" lon="2.25629">
        <ele>18.7</ele>
        <time>2023-05-19T13:53:38Z</time>
      </trkpt>
      <trkpt lat="49.9189" lon="2.2563">
        <ele>18.7</ele>
        <time>2023-05-19T13:53:39Z</time>
      </trkpt>
      <trkpt lat="49.91889" lon="2.25632">
        <ele>18.7</ele>
        <time>2023-05-19T13:53:41Z</time>
      </trkpt>
      <trkpt lat="49.91889" lon="2.25634">
        <ele>18.7</ele>
        <time>2023-05-19T13:53:42Z</time>
      </trkpt>
      <trkpt lat="49.91889" lon="2.25636">
        <ele>18.8</ele>
        <time>2023-05-19T13:53:43Z</time>
      </trkpt>
      <trkpt lat="49.91889" lon="2.25639">
        <ele>18.8</ele>
        <time>2023-05-19T13:53:44Z</time>
      </trkpt>
      <trkpt lat="49.91889" lon="2.2564">
        <ele>18.8</ele>
        <time>2023-05-19T13:53:45Z</time>
      </trkpt>
      <trkpt lat="49.91889" lon="2.25641">
        <ele>18.8</ele>
        <time>2023-05-19T13:53:46Z</time>
      </trkpt>
      <trkpt lat="49.91889" lon="2.25644">
        <ele>18.8</ele>
        <time>2023-05-19T13:53:47Z</time>
      </trkpt>
      <trkpt lat="49.91889" lon="2.25646">
        <ele>18.9</ele>
        <time>2023-05-19T13:53:48Z</time>
      </trkpt>
      <trkpt lat="49.91889" lon="2.25647">
        <ele>18.9</ele>
        <time>2023-05-19T13:53:49Z</time>
      </trkpt>
      <trkpt lat="49.91888" lon="2.2565">
        <ele>18.9</ele>
        <time>2023-05-19T13:53:51Z</time>
      </trkpt>
      <trkpt lat="49.91888" lon="2.25652">
        <ele>18.9</ele>
        <time>2023-05-19T13:53:52Z</time>
      </trkpt>
      <trkpt lat="49.91888" lon="2.25653">
        <ele>18.9</ele>
        <time>2023-05-19T13:53:53Z</time>
      </trkpt>
      <trkpt lat="49.91888" lon="2.25655">
        <ele>18.9</ele>
        <time>2023-05-19T13:53:54Z</time>
      </trkpt>
      <trkpt lat="49.91888" lon="2.25657">
        <ele>19</ele>
        <time>2023-05-19T13:53:55Z</time>
      </trkpt>
      <trkpt lat="49.91887" lon="2.2566">
        <ele>19</ele>
        <time>2023-05-19T13:53:56Z</time>
      </trkpt>
      <trkpt lat="49.91887" lon="2.25661">
        <ele>19</ele>
        <time>2023-05-19T13:53:58Z</time>
      </trkpt>
      <trkpt lat="49.91887" lon="2.25662">
        <ele>19</ele>
        <time>2023-05-19T13:53:59Z</time>
      </trkpt>
      <trkpt lat="49.91887" lon="2.25665">
        <ele>19.1</ele>
        <time>2023-05-19T13:54:00Z</time>
      </trkpt>
      <trkpt lat="49.91887" lon="2.25667">
        <ele>19.1</ele>
        <time>2023-05-19T13:54:01Z</time>
      </trkpt>
      <trkpt lat="49.91886" lon="2.25668">
        <ele>19.1</ele>
        <time>2023-05-19T13:54:02Z</time>
      </trkpt>
      <trkpt lat="49.91886" lon="2.25671">
        <ele>19.2</ele>
        <time>2023-05-19T13:54:03Z</time>
      </trkpt>
      <trkpt lat="49.91885" lon="2.25672">
        <ele>19.2</ele>
        <time>2023-05-19T13:54:04Z</time>
      </trkpt>
      <trkpt lat="49.91885" lon="2.25673">
        <ele>19.2</ele>
        <time>2023-05-19T13:54:05Z</time>
      </trkpt>
      <trkpt lat="49.91885" lon="2.25675">
        <ele>19.2</ele>
        <time>2023-05-19T13:54:06Z</time>
      </trkpt>
      <trkpt lat="49.91884" lon="2.25677">
        <ele>19.3</ele>
        <time>2023-05-19T13:54:07Z</time>
      </trkpt>
      <trkpt lat="49.91883" lon="2.25679">
        <ele>19.3</ele>
        <time>2023-05-19T13:54:09Z</time>
      </trkpt>
      <trkpt lat="49.91882" lon="2.25681">
        <ele>19.3</ele>
        <time>2023-05-19T13:54:10Z</time>
      </trkpt>
      <trkpt lat="49.91882" lon="2.25682">
        <ele>19.4</ele>
        <time>2023-05-19T13:54:11Z</time>
      </trkpt>
      <trkpt lat="49.91882" lon="2.25684">
        <ele>19.4</ele>
        <time>2023-05-19T13:54:12Z</time>
      </trkpt>
      <trkpt lat="49.91881" lon="2.25685">
        <ele>19.4</ele>
        <time>2023-05-19T13:54:13Z</time>
      </trkpt>
      <trkpt lat="49.91881" lon="2.25687">
        <ele>19.5</ele>
        <time>2023-05-19T13:54:14Z</time>
      </trkpt>
      <trkpt lat="49.9188" lon="2.25688">
        <ele>19.5</ele>
        <time>2023-05-19T13:54:15Z</time>
      </trkpt>
      <trkpt lat="49.91879" lon="2.2569">
        <ele>19.5</ele>
        <time>2023-05-19T13:54:17Z</time>
      </trkpt>
      <trkpt lat="49.91879" lon="2.25691">
        <ele>19.6</ele>
        <time>2023-05-19T13:54:18Z</time>
      </trkpt>
      <trkpt lat="49.91878" lon="2.25693">
        <ele>19.6</ele>
        <time>2023-05-19T13:54:19Z</time>
      </trkpt>
      <trkpt lat="49.91878" lon="2.25694">
        <ele>19.6</ele>
        <time>2023-05-19T13:54:20Z</time>
      </trkpt>
      <trkpt lat="49.91877" lon="2.25695">
        <ele>19.7</ele>
        <time>2023-05-19T13:54:21Z</time>
      </trkpt>
      <trkpt lat="49.91877" lon="2.25697">
        <ele>19.7</ele>
        <time>2023-05-19T13:54:22Z</time>
      </trkpt>
      <trkpt lat="49.91876" lon="2.25698">
        <ele>19.7</ele>
        <time>2023-05-19T13:54:24Z</time>
      </trkpt>
      <trkpt lat="49.91876" lon="2.257">
        <ele>19.8</ele>
        <time>2023-05-19T13:54:25Z</time>
      </trkpt>
      <trkpt lat="49.91875" lon="2.25701">
        <ele>19.8</ele>
        <time>2023-05-19T13:54:26Z</time>
      </trkpt>
      <trkpt lat="49.91875" lon="2.25703">
        <ele>19.9</ele>
        <time>2023-05-19T13:54:27Z</time>
      </trkpt>
      <trkpt lat="49.91874" lon="2.25704">
        <ele>19.9</ele>
        <time>2023-05-19T13:54:28Z</time>
      </trkpt>
      <trkpt lat="49.91874" lon="2.25706">
        <ele>20</ele>
        <time>2023-05-19T13:54:29Z</time>
      </trkpt>
      <trkpt lat="49.91873" lon="2.25707">
        <ele>20</ele>
        <time>2023-05-19T13:54:31Z</time>
      </trkpt>
      <trkpt lat="49.91872" lon="2.25709">
        <ele>20.1</ele>
        <time>2023-05-19T13:54:32Z</time>
      </trkpt>
      <trkpt lat="49.91872" lon="2.2571">
        <ele>20.1</ele>
        <time>2023-05-19T13:54:33Z</time>
      </trkpt>
      <trkpt lat="49.91871" lon="2.25712">
        <ele>20.1</ele>
        <time>2023-05-19T13:54:34Z</time>
      </trkpt>
      <trkpt lat="49.91871" lon="2.25713">
        <ele>20.2</ele>
        <time>2023-05-19T13:54:35Z</time>
      </trkpt>
      <trkpt lat="49.9187" lon="2.25715">
        <ele>20.2</ele>
        <time>2023-05-19T13:54:37Z</time>
      </trkpt>
      <trkpt lat="49.9187" lon="2.25717">
        <ele>20.3</ele>
        <time>2023-05-19T13:54:38Z</time>
      </trkpt>
      <trkpt lat="49.91869" lon="2.25718">
        <ele>20.3</ele>
        <time>2023-05-19T13:54:39Z</time>
      </trkpt>
      <trkpt lat="49.91869" lon="2.25719">
        <ele>20.3</ele>
        <time>2023-05-19T13:54:40Z</time>
      </trkpt>
      <trkpt lat="49.91868" lon="2.2572">
        <ele>20.4</ele>
        <time>2023-05-19T13:54:41Z</time>
      </trkpt>
      <trkpt lat="49.91868" lon="2.25722">
        <ele>20.4</ele>
        <time>2023-05-19T13:54:42Z</time>
      </trkpt>
      <trkpt lat="49.91867" lon="2.25723">
        <ele>20.5</ele>
        <time>2023-05-19T13:54:43Z</time>
      </trkpt>
      <trkpt lat="49.91866" lon="2.25726">
        <ele>20.5</ele>
        <time>2023-05-19T13:54:44Z</time>
      </trkpt>
      <trkpt lat="49.91865" lon="2.25727">
        <ele>20.6</ele>
        <time>2023-05-19T13:54:46Z</time>
      </trkpt>
      <trkpt lat="49.91865" lon="2.25728">
        <ele>20.6</ele>
        <time>2023-05-19T13:54:47Z</time>
      </trkpt>
      <trkpt lat="49.91864" lon="2.2573">
        <ele>20.7</ele>
        <time>2023-05-19T13:54:48Z</time>
      </trkpt>
      <trkpt lat="49.91863" lon="2.2573">
        <ele>20.7</ele>
        <time>2023-05-19T13:54:49Z</time>
      </trkpt>
      <trkpt lat="49.91863" lon="2.25731">
        <ele>20.7</ele>
        <time>2023-05-19T13:54:50Z</time>
      </trkpt>
      <trkpt lat="49.91862" lon="2.25732">
        <ele>20.7</ele>
        <time>2023-05-19T13:54:51Z</time>
      </trkpt>
      <trkpt lat="49.91862" lon="2.25734">
        <ele>20.8</ele>
        <time>2023-05-19T13:54:53Z</time>
      </trkpt>
      <trkpt lat="49.91861" lon="2.25735">
        <ele>20.8</ele>
        <time>2023-05-19T13:54:54Z</time>
      </trkpt>
      <trkpt lat="49.91861" lon="2.25737">
        <ele>20.8</ele>
        <time>2023-05-19T13:54:56Z</time>
      </trkpt>
      <trkpt lat="49.91861" lon="2.25738">
        <ele>20.8</ele>
        <time>2023-05-19T13:54:57Z</time>
      </trkpt>
      <trkpt lat="49.91861" lon="2.25739">
        <ele>20.8</ele>
        <time>2023-05-19T13:54:58Z</time>
      </trkpt>
      <trkpt lat="49.91861" lon="2.2574">
        <ele>20.9</ele>
        <time>2023-05-19T13:54:59Z</time>
      </trkpt>
      <trkpt lat="49.9186" lon="2.25741">
        <ele>20.9</ele>
        <time>2023-05-19T13:55:00Z</time>
      </trkpt>
      <trkpt lat="49.9186" lon="2.25743">
        <ele>20.9</ele>
        <time>2023-05-19T13:55:01Z</time>
      </trkpt>
      <trkpt lat="49.91859" lon="2.25744">
        <ele>20.9</ele>
        <time>2023-05-19T13:55:02Z</time>
      </trkpt>
      <trkpt lat="49.91859" lon="2.25746">
        <ele>21</ele>
        <time>2023-05-19T13:55:03Z</time>
      </trkpt>
      <trkpt lat="49.91859" lon="2.25748">
        <ele>21</ele>
        <time>2023-05-19T13:55:04Z</time>
      </trkpt>
      <trkpt lat="49.91858" lon="2.25749">
        <ele>21</ele>
        <time>2023-05-19T13:55:06Z</time>
      </trkpt>
      <trkpt lat="49.91858" lon="2.25751">
        <ele>21</ele>
        <time>2023-05-19T13:55:07Z</time>
      </trkpt>
      <trkpt lat="49.91858" lon="2.25753">
        <ele>21</ele>
        <time>2023-05-19T13:55:08Z</time>
      </trkpt>
      <trkpt lat="49.91858" lon="2.25754">
        <ele>20.9</ele>
        <time>2023-05-19T13:55:09Z</time>
      </trkpt>
      <trkpt lat="49.91858" lon="2.25756">
        <ele>20.9</ele>
        <time>2023-05-19T13:55:10Z</time>
      </trkpt>
      <trkpt lat="49.91859" lon="2.25758">
        <ele>20.9</ele>
        <time>2023-05-19T13:55:12Z</time>
      </trkpt>
      <trkpt lat="49.9186" lon="2.25758">
        <ele>20.9</ele>
        <time>2023-05-19T13:55:13Z</time>
      </trkpt>
      <trkpt lat="49.91861" lon="2.25759">
        <ele>20.9</ele>
        <time>2023-05-19T13:55:14Z</time>
      </trkpt>
      <trkpt lat="49.91861" lon="2.2576">
        <ele>20.9</ele>
        <time>2023-05-19T13:55:15Z</time>
      </trkpt>
      <trkpt lat="49.91862" lon="2.2576">
        <ele>20.9</ele>
        <time>2023-05-19T13:55:16Z</time>
      </trkpt>
      <trkpt lat="49.91863" lon="2.2576">
        <ele>20.9</ele>
        <time>2023-05-19T13:55:17Z</time>
      </trkpt>
      <trkpt lat="49.91863" lon="2.25758">
        <ele>20.9</ele>
        <time>2023-05-19T13:55:19Z</time>
      </trkpt>
      <trkpt lat="49.91863" lon="2.25758">
        <ele>20.9</ele>
        <time>2023-05-19T13:55:20Z</time>
      </trkpt>
      <trkpt lat="49.91863" lon="2.25758">
        <ele>20.9</ele>
        <time>2023-05-19T13:55:21Z</time>
      </trkpt>
      <trkpt lat="49.91863" lon="2.25758">
        <ele>20.9</ele>
        <time>2023-05-19T13:55:23Z</time>
      </trkpt>
      <trkpt lat="49.91863" lon="2.25758">
        <ele>20.9</ele>
        <time>2023-05-19T13:55:24Z</time>
      </trkpt>
      <trkpt lat="49.91863" lon="2.25757">
        <ele>20.9</ele>
        <time>2023-05-19T13:55:26Z</time>
      </trkpt>
      <trkpt lat="49.91863" lon="2.25757">
        <ele>20.9</ele>
        <time>2023-05-19T13:55:27Z</time>
      </trkpt>
      <trkpt lat="49.91863" lon="2.25757">
        <ele>20.9</ele>
        <time>2023-05-19T13:55:29Z</time>
      </trkpt>
      <trkpt lat="49.91863" lon="2.25757">
        <ele>20.9</ele>
        <time>2023-05-19T13:55:30Z</time>
      </trkpt>
      <trkpt lat="49.91863" lon="2.25757">
        <ele>20.9</ele>
        <time>2023-05-19T13:55:31Z</time>
      </trkpt>
      <trkpt lat="49.91863" lon="2.25757">
        <ele>20.9</ele>
        <time>2023-05-19T13:55:33Z</time>
      </trkpt>
      <trkpt lat="49.91863" lon="2.25758">
        <ele>20.9</ele>
        <time>2023-05-19T13:55:34Z</time>
      </trkpt>
      <trkpt lat="49.9186" lon="2.25767">
        <ele>20.8</ele>
        <time>2023-05-19T13:57:04Z</time>
      </trkpt>
      <trkpt lat="49.91861" lon="2.25768">
        <ele>20.7</ele>
        <time>2023-05-19T13:57:05Z</time>
      </trkpt>
      <trkpt lat="49.91861" lon="2.25769">
        <ele>20.7</ele>
        <time>2023-05-19T13:57:07Z</time>
      </trkpt>
      <trkpt lat="49.91862" lon="2.2577">
        <ele>20.7</ele>
        <time>2023-05-19T13:57:08Z</time>
      </trkpt>
      <trkpt lat="49.91862" lon="2.25771">
        <ele>20.7</ele>
        <time>2023-05-19T13:57:09Z</time>
      </trkpt>
      <trkpt lat="49.91862" lon="2.25772">
        <ele>20.6</ele>
        <time>2023-05-19T13:57:10Z</time>
      </trkpt>
      <trkpt lat="49.91862" lon="2.25773">
        <ele>20.6</ele>
        <time>2023-05-19T13:57:11Z</time>
      </trkpt>
      <trkpt lat="49.91862" lon="2.25774">
        <ele>20.6</ele>
        <time>2023-05-19T13:57:12Z</time>
      </trkpt>
      <trkpt lat="49.91863" lon="2.25776">
        <ele>20.6</ele>
        <time>2023-05-19T13:57:13Z</time>
      </trkpt>
      <trkpt lat="49.91863" lon="2.25777">
        <ele>20.6</ele>
        <time>2023-05-19T13:57:15Z</time>
      </trkpt>
      <trkpt lat="49.91864" lon="2.25779">
        <ele>20.5</ele>
        <time>2023-05-19T13:57:16Z</time>
      </trkpt>
      <trkpt lat="49.91864" lon="2.25781">
        <ele>20.5</ele>
        <time>2023-05-19T13:57:17Z</time>
      </trkpt>
      <trkpt lat="49.91864" lon="2.25783">
        <ele>20.5</ele>
        <time>2023-05-19T13:57:18Z</time>
      </trkpt>
      <trkpt lat="49.91865" lon="2.25785">
        <ele>20.4</ele>
        <time>2023-05-19T13:57:20Z</time>
      </trkpt>
      <trkpt lat="49.91865" lon="2.25787">
        <ele>20.4</ele>
        <time>2023-05-19T13:57:21Z</time>
      </trkpt>
      <trkpt lat="49.91865" lon="2.25788">
        <ele>20.4</ele>
        <time>2023-05-19T13:57:22Z</time>
      </trkpt>
      <trkpt lat="49.91866" lon="2.2579">
        <ele>20.4</ele>
        <time>2023-05-19T13:57:23Z</time>
      </trkpt>
      <trkpt lat="49.91867" lon="2.25791">
        <ele>20.3</ele>
        <time>2023-05-19T13:57:24Z</time>
      </trkpt>
      <trkpt lat="49.91867" lon="2.25793">
        <ele>20.3</ele>
        <time>2023-05-19T13:57:25Z</time>
      </trkpt>
      <trkpt lat="49.91867" lon="2.25795">
        <ele>20.3</ele>
        <time>2023-05-19T13:57:26Z</time>
      </trkpt>
      <trkpt lat="49.91868" lon="2.25796">
        <ele>20.2</ele>
        <time>2023-05-19T13:57:27Z</time>
      </trkpt>
      <trkpt lat="49.91868" lon="2.25798">
        <ele>20.2</ele>
        <time>2023-05-19T13:57:28Z</time>
      </trkpt>
      <trkpt lat="49.91869" lon="2.25799">
        <ele>20.2</ele>
        <time>2023-05-19T13:57:29Z</time>
      </trkpt>
      <trkpt lat="49.91869" lon="2.258">
        <ele>20.1</ele>
        <time>2023-05-19T13:57:30Z</time>
      </trkpt>
      <trkpt lat="49.9187" lon="2.25802">
        <ele>20.1</ele>
        <time>2023-05-19T13:57:32Z</time>
      </trkpt>
      <trkpt lat="49.91871" lon="2.25803">
        <ele>20.1</ele>
        <time>2023-05-19T13:57:33Z</time>
      </trkpt>
      <trkpt lat="49.91871" lon="2.25804">
        <ele>20.1</ele>
        <time>2023-05-19T13:57:34Z</time>
      </trkpt>
      <trkpt lat="49.91872" lon="2.25805">
        <ele>20.1</ele>
        <time>2023-05-19T13:57:35Z</time>
      </trkpt>
      <trkpt lat="49.91873" lon="2.25807">
        <ele>20</ele>
        <time>2023-05-19T13:57:36Z</time>
      </trkpt>
      <trkpt lat="49.91874" lon="2.25809">
        <ele>20</ele>
        <time>2023-05-19T13:57:37Z</time>
      </trkpt>
      <trkpt lat="49.91875" lon="2.2581">
        <ele>20</ele>
        <time>2023-05-19T13:57:39Z</time>
      </trkpt>
      <trkpt lat="49.91875" lon="2.2581">
        <ele>20</ele>
        <time>2023-05-19T13:57:40Z</time>
      </trkpt>
      <trkpt lat="49.91877" lon="2.25812">
        <ele>19.9</ele>
        <time>2023-05-19T13:57:41Z</time>
      </trkpt>
      <trkpt lat="49.91878" lon="2.25813">
        <ele>19.9</ele>
        <time>2023-05-19T13:57:42Z</time>
      </trkpt>
      <trkpt lat="49.91878" lon="2.25814">
        <ele>19.9</ele>
        <time>2023-05-19T13:57:43Z</time>
      </trkpt>
      <trkpt lat="49.91879" lon="2.25815">
        <ele>19.8</ele>
        <time>2023-05-19T13:57:44Z</time>
      </trkpt>
      <trkpt lat="49.9188" lon="2.25816">
        <ele>19.8</ele>
        <time>2023-05-19T13:57:45Z</time>
      </trkpt>
      <trkpt lat="49.91882" lon="2.25817">
        <ele>19.8</ele>
        <time>2023-05-19T13:57:47Z</time>
      </trkpt>
      <trkpt lat="49.91883" lon="2.25819">
        <ele>19.7</ele>
        <time>2023-05-19T13:57:48Z</time>
      </trkpt>
      <trkpt lat="49.91884" lon="2.2582">
        <ele>19.7</ele>
        <time>2023-05-19T13:57:49Z</time>
      </trkpt>
      <trkpt lat="49.91885" lon="2.25821">
        <ele>19.7</ele>
        <time>2023-05-19T13:57:50Z</time>
      </trkpt>
      <trkpt lat="49.91886" lon="2.25821">
        <ele>19.7</ele>
        <time>2023-05-19T13:57:51Z</time>
      </trkpt>
      <trkpt lat="49.91887" lon="2.25822">
        <ele>19.6</ele>
        <time>2023-05-19T13:57:52Z</time>
      </trkpt>
      <trkpt lat="49.91888" lon="2.25823">
        <ele>19.6</ele>
        <time>2023-05-19T13:57:53Z</time>
      </trkpt>
      <trkpt lat="49.91889" lon="2.25824">
        <ele>19.6</ele>
        <time>2023-05-19T13:57:55Z</time>
      </trkpt>
      <trkpt lat="49.9189" lon="2.25825">
        <ele>19.6</ele>
        <time>2023-05-19T13:57:56Z</time>
      </trkpt>
      <trkpt lat="49.91891" lon="2.25827">
        <ele>19.5</ele>
        <time>2023-05-19T13:57:57Z</time>
      </trkpt>
      <trkpt lat="49.91891" lon="2.25828">
        <ele>19.5</ele>
        <time>2023-05-19T13:57:58Z</time>
      </trkpt>
      <trkpt lat="49.91892" lon="2.25829">
        <ele>19.5</ele>
        <time>2023-05-19T13:57:59Z</time>
      </trkpt>
      <trkpt lat="49.91893" lon="2.2583">
        <ele>19.5</ele>
        <time>2023-05-19T13:58:00Z</time>
      </trkpt>
      <trkpt lat="49.91894" lon="2.25831">
        <ele>19.5</ele>
        <time>2023-05-19T13:58:01Z</time>
      </trkpt>
      <trkpt lat="49.91894" lon="2.25832">
        <ele>19.5</ele>
        <time>2023-05-19T13:58:02Z</time>
      </trkpt>
      <trkpt lat="49.91895" lon="2.25833">
        <ele>19.4</ele>
        <time>2023-05-19T13:58:03Z</time>
      </trkpt>
      <trkpt lat="49.91896" lon="2.25834">
        <ele>19.4</ele>
        <time>2023-05-19T13:58:05Z</time>
      </trkpt>
      <trkpt lat="49.91896" lon="2.25835">
        <ele>19.4</ele>
        <time>2023-05-19T13:58:06Z</time>
      </trkpt>
      <trkpt lat="49.91897" lon="2.25836">
        <ele>19.4</ele>
        <time>2023-05-19T13:58:07Z</time>
      </trkpt>
      <trkpt lat="49.91898" lon="2.25837">
        <ele>19.4</ele>
        <time>2023-05-19T13:58:08Z</time>
      </trkpt>
      <trkpt lat="49.91899" lon="2.25839">
        <ele>19.3</ele>
        <time>2023-05-19T13:58:10Z</time>
      </trkpt>
      <trkpt lat="49.919" lon="2.25839">
        <ele>19.3</ele>
        <time>2023-05-19T13:58:11Z</time>
      </trkpt>
      <trkpt lat="49.919" lon="2.2584">
        <ele>19.3</ele>
        <time>2023-05-19T13:58:12Z</time>
      </trkpt>
      <trkpt lat="49.91901" lon="2.25841">
        <ele>19.3</ele>
        <time>2023-05-19T13:58:13Z</time>
      </trkpt>
      <trkpt lat="49.91902" lon="2.25843">
        <ele>19.2</ele>
        <time>2023-05-19T13:58:14Z</time>
      </trkpt>
      <trkpt lat="49.91903" lon="2.25844">
        <ele>19.2</ele>
        <time>2023-05-19T13:58:15Z</time>
      </trkpt>
      <trkpt lat="49.91904" lon="2.25845">
        <ele>19.2</ele>
        <time>2023-05-19T13:58:16Z</time>
      </trkpt>
      <trkpt lat="49.91905" lon="2.25846">
        <ele>19.2</ele>
        <time>2023-05-19T13:58:17Z</time>
      </trkpt>
      <trkpt lat="49.91907" lon="2.25848">
        <ele>19.2</ele>
        <time>2023-05-19T13:58:18Z</time>
      </trkpt>
      <trkpt lat="49.91907" lon="2.25849">
        <ele>19.1</ele>
        <time>2023-05-19T13:58:19Z</time>
      </trkpt>
      <trkpt lat="49.91908" lon="2.25849">
        <ele>19.1</ele>
        <time>2023-05-19T13:58:20Z</time>
      </trkpt>
      <trkpt lat="49.9191" lon="2.25851">
        <ele>19.1</ele>
        <time>2023-05-19T13:58:22Z</time>
      </trkpt>
      <trkpt lat="49.91911" lon="2.25851">
        <ele>19.1</ele>
        <time>2023-05-19T13:58:23Z</time>
      </trkpt>
      <trkpt lat="49.91912" lon="2.25852">
        <ele>19.1</ele>
        <time>2023-05-19T13:58:24Z</time>
      </trkpt>
      <trkpt lat="49.91913" lon="2.25853">
        <ele>19.1</ele>
        <time>2023-05-19T13:58:25Z</time>
      </trkpt>
      <trkpt lat="49.91914" lon="2.25853">
        <ele>19</ele>
        <time>2023-05-19T13:58:26Z</time>
      </trkpt>
      <trkpt lat="49.91916" lon="2.25854">
        <ele>19</ele>
        <time>2023-05-19T13:58:27Z</time>
      </trkpt>
      <trkpt lat="49.91917" lon="2.25855">
        <ele>19</ele>
        <time>2023-05-19T13:58:28Z</time>
      </trkpt>
      <trkpt lat="49.91919" lon="2.25856">
        <ele>19</ele>
        <time>2023-05-19T13:58:29Z</time>
      </trkpt>
      <trkpt lat="49.9192" lon="2.25857">
        <ele>19</ele>
        <time>2023-05-19T13:58:31Z</time>
      </trkpt>
      <trkpt lat="49.91921" lon="2.25857">
        <ele>19</ele>
        <time>2023-05-19T13:58:32Z</time>
      </trkpt>
      <trkpt lat="49.91922" lon="2.25858">
        <ele>19</ele>
        <time>2023-05-19T13:58:33Z</time>
      </trkpt>
      <trkpt lat="49.91923" lon="2.25859">
        <ele>19</ele>
        <time>2023-05-19T13:58:34Z</time>
      </trkpt>
      <trkpt lat="49.91925" lon="2.2586">
        <ele>18.9</ele>
        <time>2023-05-19T13:58:35Z</time>
      </trkpt>
      <trkpt lat="49.91926" lon="2.25861">
        <ele>18.9</ele>
        <time>2023-05-19T13:58:36Z</time>
      </trkpt>
      <trkpt lat="49.91927" lon="2.25862">
        <ele>18.9</ele>
        <time>2023-05-19T13:58:37Z</time>
      </trkpt>
      <trkpt lat="49.91929" lon="2.25863">
        <ele>18.9</ele>
        <time>2023-05-19T13:58:38Z</time>
      </trkpt>
      <trkpt lat="49.91932" lon="2.25866">
        <ele>18.9</ele>
        <time>2023-05-19T13:58:40Z</time>
      </trkpt>
      <trkpt lat="49.91933" lon="2.25866">
        <ele>18.9</ele>
        <time>2023-05-19T13:58:41Z</time>
      </trkpt>
      <trkpt lat="49.91935" lon="2.25867">
        <ele>18.9</ele>
        <time>2023-05-19T13:58:42Z</time>
      </trkpt>
      <trkpt lat="49.91936" lon="2.25867">
        <ele>18.9</ele>
        <time>2023-05-19T13:58:43Z</time>
      </trkpt>
      <trkpt lat="49.91936" lon="2.25868">
        <ele>18.9</ele>
        <time>2023-05-19T13:58:44Z</time>
      </trkpt>
      <trkpt lat="49.91938" lon="2.25868">
        <ele>18.8</ele>
        <time>2023-05-19T13:58:45Z</time>
      </trkpt>
      <trkpt lat="49.91939" lon="2.25869">
        <ele>18.8</ele>
        <time>2023-05-19T13:58:46Z</time>
      </trkpt>
      <trkpt lat="49.9194" lon="2.25871">
        <ele>18.8</ele>
        <time>2023-05-19T13:58:48Z</time>
      </trkpt>
      <trkpt lat="49.91942" lon="2.25873">
        <ele>18.8</ele>
        <time>2023-05-19T13:58:49Z</time>
      </trkpt>
      <trkpt lat="49.91943" lon="2.25874">
        <ele>18.8</ele>
        <time>2023-05-19T13:58:50Z</time>
      </trkpt>
      <trkpt lat="49.91943" lon="2.25875">
        <ele>18.8</ele>
        <time>2023-05-19T13:58:51Z</time>
      </trkpt>
      <trkpt lat="49.91945" lon="2.25876">
        <ele>18.8</ele>
        <time>2023-05-19T13:58:52Z</time>
      </trkpt>
      <trkpt lat="49.91946" lon="2.25877">
        <ele>18.8</ele>
        <time>2023-05-19T13:58:54Z</time>
      </trkpt>
      <trkpt lat="49.91947" lon="2.25877">
        <ele>18.8</ele>
        <time>2023-05-19T13:58:55Z</time>
      </trkpt>
      <trkpt lat="49.91949" lon="2.25879">
        <ele>18.8</ele>
        <time>2023-05-19T13:58:56Z</time>
      </trkpt>
      <trkpt lat="49.9195" lon="2.25879">
        <ele>18.8</ele>
        <time>2023-05-19T13:58:57Z</time>
      </trkpt>
      <trkpt lat="49.9195" lon="2.2588">
        <ele>18.8</ele>
        <time>2023-05-19T13:58:58Z</time>
      </trkpt>
      <trkpt lat="49.91952" lon="2.25881">
        <ele>18.7</ele>
        <time>2023-05-19T13:58:59Z</time>
      </trkpt>
      <trkpt lat="49.91953" lon="2.25882">
        <ele>18.7</ele>
        <time>2023-05-19T13:59:00Z</time>
      </trkpt>
      <trkpt lat="49.91954" lon="2.25884">
        <ele>18.7</ele>
        <time>2023-05-19T13:59:02Z</time>
      </trkpt>
      <trkpt lat="49.91955" lon="2.25885">
        <ele>18.7</ele>
        <time>2023-05-19T13:59:03Z</time>
      </trkpt>
      <trkpt lat="49.91957" lon="2.25886">
        <ele>18.7</ele>
        <time>2023-05-19T13:59:04Z</time>
      </trkpt>
      <trkpt lat="49.91958" lon="2.25887">
        <ele>18.7</ele>
        <time>2023-05-19T13:59:05Z</time>
      </trkpt>
      <trkpt lat="49.91959" lon="2.25887">
        <ele>18.7</ele>
        <time>2023-05-19T13:59:06Z</time>
      </trkpt>
      <trkpt lat="49.91961" lon="2.25889">
        <ele>18.7</ele>
        <time>2023-05-19T13:59:07Z</time>
      </trkpt>
      <trkpt lat="49.91961" lon="2.25889">
        <ele>18.7</ele>
        <time>2023-05-19T13:59:08Z</time>
      </trkpt>
      <trkpt lat="49.91962" lon="2.2589">
        <ele>18.7</ele>
        <time>2023-05-19T13:59:09Z</time>
      </trkpt>
      <trkpt lat="49.91964" lon="2.25891">
        <ele>18.7</ele>
        <time>2023-05-19T13:59:11Z</time>
      </trkpt>
      <trkpt lat="49.91965" lon="2.25892">
        <ele>18.7</ele>
        <time>2023-05-19T13:59:12Z</time>
      </trkpt>
      <trkpt lat="49.91967" lon="2.25894">
        <ele>18.7</ele>
        <time>2023-05-19T13:59:13Z</time>
      </trkpt>
      <trkpt lat="49.91967" lon="2.25895">
        <ele>18.7</ele>
        <time>2023-05-19T13:59:14Z</time>
      </trkpt>
      <trkpt lat="49.91968" lon="2.25895">
        <ele>18.7</ele>
        <time>2023-05-19T13:59:15Z</time>
      </trkpt>
      <trkpt lat="49.91969" lon="2.25896">
        <ele>18.7</ele>
        <time>2023-05-19T13:59:16Z</time>
      </trkpt>
      <trkpt lat="49.9197" lon="2.25898">
        <ele>18.7</ele>
        <time>2023-05-19T13:59:17Z</time>
      </trkpt>
      <trkpt lat="49.91972" lon="2.25899">
        <ele>18.7</ele>
        <time>2023-05-19T13:59:18Z</time>
      </trkpt>
      <trkpt lat="49.91973" lon="2.259">
        <ele>18.7</ele>
        <time>2023-05-19T13:59:19Z</time>
      </trkpt>
      <trkpt lat="49.91975" lon="2.25901">
        <ele>18.7</ele>
        <time>2023-05-19T13:59:20Z</time>
      </trkpt>
      <trkpt lat="49.91976" lon="2.25902">
        <ele>18.7</ele>
        <time>2023-05-19T13:59:22Z</time>
      </trkpt>
      <trkpt lat="49.91977" lon="2.25903">
        <ele>18.7</ele>
        <time>2023-05-19T13:59:23Z</time>
      </trkpt>
      <trkpt lat="49.91978" lon="2.25904">
        <ele>18.7</ele>
        <time>2023-05-19T13:59:24Z</time>
      </trkpt>
      <trkpt lat="49.91979" lon="2.25905">
        <ele>18.7</ele>
        <time>2023-05-19T13:59:25Z</time>
      </trkpt>
      <trkpt lat="49.91981" lon="2.25906">
        <ele>18.7</ele>
        <time>2023-05-19T13:59:26Z</time>
      </trkpt>
      <trkpt lat="49.91981" lon="2.25907">
        <ele>18.7</ele>
        <time>2023-05-19T13:59:27Z</time>
      </trkpt>
      <trkpt lat="49.91982" lon="2.25908">
        <ele>18.7</ele>
        <time>2023-05-19T13:59:28Z</time>
      </trkpt>
      <trkpt lat="49.91983" lon="2.25909">
        <ele>18.7</ele>
        <time>2023-05-19T13:59:29Z</time>
      </trkpt>
      <trkpt lat="49.91984" lon="2.2591">
        <ele>18.7</ele>
        <time>2023-05-19T13:59:30Z</time>
      </trkpt>
      <trkpt lat="49.91985" lon="2.25911">
        <ele>18.7</ele>
        <time>2023-05-19T13:59:32Z</time>
      </trkpt>
      <trkpt lat="49.91986" lon="2.25913">
        <ele>18.7</ele>
        <time>2023-05-19T13:59:33Z</time>
      </trkpt>
      <trkpt lat="49.91987" lon="2.25914">
        <ele>18.7</ele>
        <time>2023-05-19T13:59:34Z</time>
      </trkpt>
      <trkpt lat="49.91989" lon="2.25916">
        <ele>18.7</ele>
        <time>2023-05-19T13:59:35Z</time>
      </trkpt>
      <trkpt lat="49.9199" lon="2.25917">
        <ele>18.7</ele>
        <time>2023-05-19T13:59:36Z</time>
      </trkpt>
      <trkpt lat="49.91991" lon="2.25918">
        <ele>18.7</ele>
        <time>2023-05-19T13:59:37Z</time>
      </trkpt>
      <trkpt lat="49.91992" lon="2.2592">
        <ele>18.7</ele>
        <time>2023-05-19T13:59:38Z</time>
      </trkpt>
      <trkpt lat="49.91993" lon="2.2592">
        <ele>18.7</ele>
        <time>2023-05-19T13:59:39Z</time>
      </trkpt>
      <trkpt lat="49.91994" lon="2.25921">
        <ele>18.7</ele>
        <time>2023-05-19T13:59:40Z</time>
      </trkpt>
      <trkpt lat="49.91995" lon="2.25922">
        <ele>18.7</ele>
        <time>2023-05-19T13:59:41Z</time>
      </trkpt>
      <trkpt lat="49.91996" lon="2.25924">
        <ele>18.7</ele>
        <time>2023-05-19T13:59:43Z</time>
      </trkpt>
      <trkpt lat="49.91997" lon="2.25925">
        <ele>18.6</ele>
        <time>2023-05-19T13:59:44Z</time>
      </trkpt>
      <trkpt lat="49.91998" lon="2.25926">
        <ele>18.6</ele>
        <time>2023-05-19T13:59:45Z</time>
      </trkpt>
      <trkpt lat="49.91999" lon="2.25927">
        <ele>18.6</ele>
        <time>2023-05-19T13:59:46Z</time>
      </trkpt>
      <trkpt lat="49.92001" lon="2.25928">
        <ele>18.6</ele>
        <time>2023-05-19T13:59:47Z</time>
      </trkpt>
      <trkpt lat="49.92003" lon="2.2593">
        <ele>18.6</ele>
        <time>2023-05-19T13:59:49Z</time>
      </trkpt>
      <trkpt lat="49.92004" lon="2.25931">
        <ele>18.6</ele>
        <time>2023-05-19T13:59:50Z</time>
      </trkpt>
      <trkpt lat="49.92005" lon="2.25932">
        <ele>18.6</ele>
        <time>2023-05-19T13:59:51Z</time>
      </trkpt>
      <trkpt lat="49.92008" lon="2.25934">
        <ele>18.6</ele>
        <time>2023-05-19T13:59:53Z</time>
      </trkpt>
      <trkpt lat="49.92009" lon="2.25935">
        <ele>18.6</ele>
        <time>2023-05-19T13:59:54Z</time>
      </trkpt>
      <trkpt lat="49.92011" lon="2.25937">
        <ele>18.6</ele>
        <time>2023-05-19T13:59:55Z</time>
      </trkpt>
      <trkpt lat="49.92012" lon="2.25938">
        <ele>18.6</ele>
        <time>2023-05-19T13:59:57Z</time>
      </trkpt>
      <trkpt lat="49.92013" lon="2.25938">
        <ele>18.6</ele>
        <time>2023-05-19T13:59:58Z</time>
      </trkpt>
      <trkpt lat="49.92014" lon="2.25939">
        <ele>18.6</ele>
        <time>2023-05-19T13:59:59Z</time>
      </trkpt>
      <trkpt lat="49.92015" lon="2.2594">
        <ele>18.6</ele>
        <time>2023-05-19T14:00:00Z</time>
      </trkpt>
      <trkpt lat="49.92016" lon="2.25941">
        <ele>18.6</ele>
        <time>2023-05-19T14:00:01Z</time>
      </trkpt>
      <trkpt lat="49.92017" lon="2.25942">
        <ele>18.6</ele>
        <time>2023-05-19T14:00:02Z</time>
      </trkpt>
      <trkpt lat="49.92018" lon="2.25943">
        <ele>18.6</ele>
        <time>2023-05-19T14:00:03Z</time>
      </trkpt>
      <trkpt lat="49.92019" lon="2.25944">
        <ele>18.6</ele>
        <time>2023-05-19T14:00:04Z</time>
      </trkpt>
      <trkpt lat="49.9202" lon="2.25945">
        <ele>18.6</ele>
        <time>2023-05-19T14:00:06Z</time>
      </trkpt>
      <trkpt lat="49.92021" lon="2.25946">
        <ele>18.6</ele>
        <time>2023-05-19T14:00:07Z</time>
      </trkpt>
      <trkpt lat="49.92022" lon="2.25947">
        <ele>18.6</ele>
        <time>2023-05-19T14:00:08Z</time>
      </trkpt>
      <trkpt lat="49.92022" lon="2.25948">
        <ele>18.6</ele>
        <time>2023-05-19T14:00:09Z</time>
      </trkpt>
      <trkpt lat="49.92023" lon="2.25949">
        <ele>18.6</ele>
        <time>2023-05-19T14:00:11Z</time>
      </trkpt>
      <trkpt lat="49.92024" lon="2.2595">
        <ele>18.6</ele>
        <time>2023-05-19T14:00:12Z</time>
      </trkpt>
      <trkpt lat="49.92025" lon="2.25951">
        <ele>18.6</ele>
        <time>2023-05-19T14:00:13Z</time>
      </trkpt>
      <trkpt lat="49.92026" lon="2.25952">
        <ele>18.6</ele>
        <time>2023-05-19T14:00:14Z</time>
      </trkpt>
      <trkpt lat="49.92027" lon="2.25953">
        <ele>18.6</ele>
        <time>2023-05-19T14:00:15Z</time>
      </trkpt>
      <trkpt lat="49.92028" lon="2.25954">
        <ele>18.5</ele>
        <time>2023-05-19T14:00:17Z</time>
      </trkpt>
      <trkpt lat="49.92029" lon="2.25955">
        <ele>18.5</ele>
        <time>2023-05-19T14:00:18Z</time>
      </trkpt>
      <trkpt lat="49.92029" lon="2.25957">
        <ele>18.5</ele>
        <time>2023-05-19T14:00:19Z</time>
      </trkpt>
      <trkpt lat="49.9203" lon="2.25958">
        <ele>18.5</ele>
        <time>2023-05-19T14:00:20Z</time>
      </trkpt>
      <trkpt lat="49.92031" lon="2.25959">
        <ele>18.5</ele>
        <time>2023-05-19T14:00:21Z</time>
      </trkpt>
      <trkpt lat="49.92032" lon="2.2596">
        <ele>18.5</ele>
        <time>2023-05-19T14:00:22Z</time>
      </trkpt>
      <trkpt lat="49.92033" lon="2.25961">
        <ele>18.5</ele>
        <time>2023-05-19T14:00:23Z</time>
      </trkpt>
      <trkpt lat="49.92033" lon="2.25962">
        <ele>18.5</ele>
        <time>2023-05-19T14:00:24Z</time>
      </trkpt>
      <trkpt lat="49.92034" lon="2.25963">
        <ele>18.5</ele>
        <time>2023-05-19T14:00:25Z</time>
      </trkpt>
      <trkpt lat="49.92035" lon="2.25964">
        <ele>18.5</ele>
        <time>2023-05-19T14:00:27Z</time>
      </trkpt>
      <trkpt lat="49.92035" lon="2.25965">
        <ele>18.5</ele>
        <time>2023-05-19T14:00:28Z</time>
      </trkpt>
      <trkpt lat="49.92036" lon="2.25966">
        <ele>18.5</ele>
        <time>2023-05-19T14:00:29Z</time>
      </trkpt>
      <trkpt lat="49.92037" lon="2.25967">
        <ele>18.5</ele>
        <time>2023-05-19T14:00:30Z</time>
      </trkpt>
      <trkpt lat="49.92038" lon="2.25969">
        <ele>18.5</ele>
        <time>2023-05-19T14:00:31Z</time>
      </trkpt>
      <trkpt lat="49.92038" lon="2.2597">
        <ele>18.5</ele>
        <time>2023-05-19T14:00:32Z</time>
      </trkpt>
      <trkpt lat="49.92039" lon="2.25971">
        <ele>18.5</ele>
        <time>2023-05-19T14:00:33Z</time>
      </trkpt>
      <trkpt lat="49.92039" lon="2.25972">
        <ele>18.5</ele>
        <time>2023-05-19T14:00:34Z</time>
      </trkpt>
      <trkpt lat="49.92041" lon="2.25975">
        <ele>18.5</ele>
        <time>2023-05-19T14:00:36Z</time>
      </trkpt>
      <trkpt lat="49.92041" lon="2.25976">
        <ele>18.5</ele>
        <time>2023-05-19T14:00:37Z</time>
      </trkpt>
      <trkpt lat="49.92042" lon="2.25977">
        <ele>18.5</ele>
        <time>2023-05-19T14:00:38Z</time>
      </trkpt>
      <trkpt lat="49.92043" lon="2.25978">
        <ele>18.5</ele>
        <time>2023-05-19T14:00:40Z</time>
      </trkpt>
      <trkpt lat="49.92044" lon="2.25979">
        <ele>18.5</ele>
        <time>2023-05-19T14:00:41Z</time>
      </trkpt>
      <trkpt lat="49.92044" lon="2.2598">
        <ele>18.5</ele>
        <time>2023-05-19T14:00:42Z</time>
      </trkpt>
      <trkpt lat="49.92045" lon="2.25981">
        <ele>18.5</ele>
        <time>2023-05-19T14:00:43Z</time>
      </trkpt>
      <trkpt lat="49.92046" lon="2.25982">
        <ele>18.5</ele>
        <time>2023-05-19T14:00:44Z</time>
      </trkpt>
      <trkpt lat="49.92047" lon="2.25982">
        <ele>18.5</ele>
        <time>2023-05-19T14:00:45Z</time>
      </trkpt>
      <trkpt lat="49.92048" lon="2.25982">
        <ele>18.5</ele>
        <time>2023-05-19T14:00:46Z</time>
      </trkpt>
      <trkpt lat="49.92049" lon="2.25982">
        <ele>18.5</ele>
        <time>2023-05-19T14:00:48Z</time>
      </trkpt>
      <trkpt lat="49.9205" lon="2.25982">
        <ele>18.5</ele>
        <time>2023-05-19T14:00:49Z</time>
      </trkpt>
      <trkpt lat="49.92051" lon="2.25982">
        <ele>18.5</ele>
        <time>2023-05-19T14:00:50Z</time>
      </trkpt>
      <trkpt lat="49.92052" lon="2.25983">
        <ele>18.5</ele>
        <time>2023-05-19T14:00:51Z</time>
      </trkpt>
      <trkpt lat="49.92052" lon="2.25984">
        <ele>18.5</ele>
        <time>2023-05-19T14:00:52Z</time>
      </trkpt>
      <trkpt lat="49.92054" lon="2.25986">
        <ele>18.5</ele>
        <time>2023-05-19T14:00:53Z</time>
      </trkpt>
      <trkpt lat="49.92054" lon="2.25987">
        <ele>18.5</ele>
        <time>2023-05-19T14:00:54Z</time>
      </trkpt>
      <trkpt lat="49.92055" lon="2.25988">
        <ele>18.5</ele>
        <time>2023-05-19T14:00:55Z</time>
      </trkpt>
      <trkpt lat="49.92056" lon="2.25989">
        <ele>18.5</ele>
        <time>2023-05-19T14:00:57Z</time>
      </trkpt>
      <trkpt lat="49.92057" lon="2.25991">
        <ele>18.5</ele>
        <time>2023-05-19T14:00:58Z</time>
      </trkpt>
      <trkpt lat="49.92058" lon="2.25992">
        <ele>18.5</ele>
        <time>2023-05-19T14:00:59Z</time>
      </trkpt>
      <trkpt lat="49.92059" lon="2.25993">
        <ele>18.4</ele>
        <time>2023-05-19T14:01:00Z</time>
      </trkpt>
      <trkpt lat="49.92061" lon="2.25995">
        <ele>18.4</ele>
        <time>2023-05-19T14:01:01Z</time>
      </trkpt>
      <trkpt lat="49.92062" lon="2.25996">
        <ele>18.4</ele>
        <time>2023-05-19T14:01:02Z</time>
      </trkpt>
      <trkpt lat="49.92063" lon="2.25998">
        <ele>18.4</ele>
        <time>2023-05-19T14:01:03Z</time>
      </trkpt>
      <trkpt lat="49.92064" lon="2.25999">
        <ele>18.4</ele>
        <time>2023-05-19T14:01:04Z</time>
      </trkpt>
      <trkpt lat="49.92066" lon="2.26001">
        <ele>18.4</ele>
        <time>2023-05-19T14:01:06Z</time>
      </trkpt>
      <trkpt lat="49.92066" lon="2.26002">
        <ele>18.4</ele>
        <time>2023-05-19T14:01:07Z</time>
      </trkpt>
      <trkpt lat="49.92067" lon="2.26002">
        <ele>18.4</ele>
        <time>2023-05-19T14:01:08Z</time>
      </trkpt>
      <trkpt lat="49.92068" lon="2.26004">
        <ele>18.4</ele>
        <time>2023-05-19T14:01:09Z</time>
      </trkpt>
      <trkpt lat="49.92069" lon="2.26005">
        <ele>18.4</ele>
        <time>2023-05-19T14:01:10Z</time>
      </trkpt>
      <trkpt lat="49.9207" lon="2.26005">
        <ele>18.4</ele>
        <time>2023-05-19T14:01:11Z</time>
      </trkpt>
      <trkpt lat="49.92071" lon="2.26006">
        <ele>18.4</ele>
        <time>2023-05-19T14:01:12Z</time>
      </trkpt>
      <trkpt lat="49.92072" lon="2.26007">
        <ele>18.3</ele>
        <time>2023-05-19T14:01:13Z</time>
      </trkpt>
      <trkpt lat="49.92073" lon="2.26009">
        <ele>18.3</ele>
        <time>2023-05-19T14:01:14Z</time>
      </trkpt>
      <trkpt lat="49.92074" lon="2.26011">
        <ele>18.3</ele>
        <time>2023-05-19T14:01:15Z</time>
      </trkpt>
      <trkpt lat="49.92075" lon="2.26012">
        <ele>18.3</ele>
        <time>2023-05-19T14:01:17Z</time>
      </trkpt>
      <trkpt lat="49.92076" lon="2.26013">
        <ele>18.3</ele>
        <time>2023-05-19T14:01:18Z</time>
      </trkpt>
      <trkpt lat="49.92077" lon="2.26015">
        <ele>18.3</ele>
        <time>2023-05-19T14:01:19Z</time>
      </trkpt>
      <trkpt lat="49.92078" lon="2.26016">
        <ele>18.3</ele>
        <time>2023-05-19T14:01:20Z</time>
      </trkpt>
      <trkpt lat="49.92078" lon="2.26017">
        <ele>18.3</ele>
        <time>2023-05-19T14:01:21Z</time>
      </trkpt>
      <trkpt lat="49.9208" lon="2.26019">
        <ele>18.3</ele>
        <time>2023-05-19T14:01:22Z</time>
      </trkpt>
      <trkpt lat="49.92081" lon="2.2602">
        <ele>18.3</ele>
        <time>2023-05-19T14:01:23Z</time>
      </trkpt>
      <trkpt lat="49.92081" lon="2.2602">
        <ele>18.3</ele>
        <time>2023-05-19T14:01:24Z</time>
      </trkpt>
      <trkpt lat="49.92083" lon="2.26022">
        <ele>18.2</ele>
        <time>2023-05-19T14:01:25Z</time>
      </trkpt>
      <trkpt lat="49.92084" lon="2.26023">
        <ele>18.2</ele>
        <time>2023-05-19T14:01:26Z</time>
      </trkpt>
      <trkpt lat="49.92084" lon="2.26024">
        <ele>18.2</ele>
        <time>2023-05-19T14:01:27Z</time>
      </trkpt>
      <trkpt lat="49.92085" lon="2.26025">
        <ele>18.2</ele>
        <time>2023-05-19T14:01:29Z</time>
      </trkpt>
      <trkpt lat="49.92086" lon="2.26025">
        <ele>18.2</ele>
        <time>2023-05-19T14:01:30Z</time>
      </trkpt>
      <trkpt lat="49.92087" lon="2.26026">
        <ele>18.2</ele>
        <time>2023-05-19T14:01:31Z</time>
      </trkpt>
      <trkpt lat="49.92088" lon="2.26027">
        <ele>18.2</ele>
        <time>2023-05-19T14:01:32Z</time>
      </trkpt>
      <trkpt lat="49.92089" lon="2.26028">
        <ele>18.2</ele>
        <time>2023-05-19T14:01:33Z</time>
      </trkpt>
      <trkpt lat="49.9209" lon="2.26029">
        <ele>18.2</ele>
        <time>2023-05-19T14:01:34Z</time>
      </trkpt>
      <trkpt lat="49.92091" lon="2.2603">
        <ele>18.2</ele>
        <time>2023-05-19T14:01:35Z</time>
      </trkpt>
      <trkpt lat="49.92092" lon="2.26031">
        <ele>18.2</ele>
        <time>2023-05-19T14:01:36Z</time>
      </trkpt>
      <trkpt lat="49.92093" lon="2.26032">
        <ele>18.2</ele>
        <time>2023-05-19T14:01:37Z</time>
      </trkpt>
      <trkpt lat="49.92095" lon="2.26034">
        <ele>18.2</ele>
        <time>2023-05-19T14:01:38Z</time>
      </trkpt>
      <trkpt lat="49.92095" lon="2.26035">
        <ele>18.2</ele>
        <time>2023-05-19T14:01:40Z</time>
      </trkpt>
      <trkpt lat="49.92096" lon="2.26035">
        <ele>18.2</ele>
        <time>2023-05-19T14:01:41Z</time>
      </trkpt>
      <trkpt lat="49.92097" lon="2.26036">
        <ele>18.2</ele>
        <time>2023-05-19T14:01:42Z</time>
      </trkpt>
      <trkpt lat="49.92098" lon="2.26037">
        <ele>18.2</ele>
        <time>2023-05-19T14:01:43Z</time>
      </trkpt>
      <trkpt lat="49.92099" lon="2.26038">
        <ele>18.2</ele>
        <time>2023-05-19T14:01:44Z</time>
      </trkpt>
      <trkpt lat="49.92099" lon="2.26039">
        <ele>18.2</ele>
        <time>2023-05-19T14:01:45Z</time>
      </trkpt>
      <trkpt lat="49.921" lon="2.2604">
        <ele>18.2</ele>
        <time>2023-05-19T14:01:46Z</time>
      </trkpt>
      <trkpt lat="49.921" lon="2.26041">
        <ele>18.2</ele>
        <time>2023-05-19T14:01:47Z</time>
      </trkpt>
      <trkpt lat="49.92101" lon="2.26042">
        <ele>18.2</ele>
        <time>2023-05-19T14:01:48Z</time>
      </trkpt>
      <trkpt lat="49.92102" lon="2.26043">
        <ele>18.2</ele>
        <time>2023-05-19T14:01:50Z</time>
      </trkpt>
      <trkpt lat="49.92103" lon="2.26044">
        <ele>18.2</ele>
        <time>2023-05-19T14:01:51Z</time>
      </trkpt>
      <trkpt lat="49.92104" lon="2.26045">
        <ele>18.2</ele>
        <time>2023-05-19T14:01:52Z</time>
      </trkpt>
      <trkpt lat="49.92105" lon="2.26046">
        <ele>18.2</ele>
        <time>2023-05-19T14:01:53Z</time>
      </trkpt>
      <trkpt lat="49.92106" lon="2.26046">
        <ele>18.2</ele>
        <time>2023-05-19T14:01:54Z</time>
      </trkpt>
      <trkpt lat="49.92107" lon="2.26047">
        <ele>18.2</ele>
        <time>2023-05-19T14:01:55Z</time>
      </trkpt>
      <trkpt lat="49.92107" lon="2.26048">
        <ele>18.2</ele>
        <time>2023-05-19T14:01:56Z</time>
      </trkpt>
      <trkpt lat="49.92108" lon="2.26049">
        <ele>18.2</ele>
        <time>2023-05-19T14:01:57Z</time>
      </trkpt>
      <trkpt lat="49.9211" lon="2.2605">
        <ele>18.2</ele>
        <time>2023-05-19T14:01:59Z</time>
      </trkpt>
      <trkpt lat="49.92111" lon="2.26052">
        <ele>18.2</ele>
        <time>2023-05-19T14:02:00Z</time>
      </trkpt>
      <trkpt lat="49.92113" lon="2.26053">
        <ele>18.2</ele>
        <time>2023-05-19T14:02:01Z</time>
      </trkpt>
      <trkpt lat="49.92113" lon="2.26054">
        <ele>18.2</ele>
        <time>2023-05-19T14:02:02Z</time>
      </trkpt>
      <trkpt lat="49.92114" lon="2.26055">
        <ele>18.2</ele>
        <time>2023-05-19T14:02:03Z</time>
      </trkpt>
      <trkpt lat="49.92115" lon="2.26056">
        <ele>18.3</ele>
        <time>2023-05-19T14:02:04Z</time>
      </trkpt>
      <trkpt lat="49.92116" lon="2.26058">
        <ele>18.3</ele>
        <time>2023-05-19T14:02:05Z</time>
      </trkpt>
      <trkpt lat="49.92118" lon="2.26059">
        <ele>18.3</ele>
        <time>2023-05-19T14:02:07Z</time>
      </trkpt>
      <trkpt lat="49.92119" lon="2.2606">
        <ele>18.3</ele>
        <time>2023-05-19T14:02:08Z</time>
      </trkpt>
      <trkpt lat="49.9212" lon="2.26061">
        <ele>18.3</ele>
        <time>2023-05-19T14:02:09Z</time>
      </trkpt>
      <trkpt lat="49.92121" lon="2.26062">
        <ele>18.3</ele>
        <time>2023-05-19T14:02:10Z</time>
      </trkpt>
      <trkpt lat="49.92122" lon="2.26063">
        <ele>18.3</ele>
        <time>2023-05-19T14:02:11Z</time>
      </trkpt>
      <trkpt lat="49.92124" lon="2.26064">
        <ele>18.3</ele>
        <time>2023-05-19T14:02:12Z</time>
      </trkpt>
      <trkpt lat="49.92125" lon="2.26065">
        <ele>18.3</ele>
        <time>2023-05-19T14:02:14Z</time>
      </trkpt>
      <trkpt lat="49.92126" lon="2.26066">
        <ele>18.3</ele>
        <time>2023-05-19T14:02:15Z</time>
      </trkpt>
      <trkpt lat="49.92127" lon="2.26066">
        <ele>18.3</ele>
        <time>2023-05-19T14:02:16Z</time>
      </trkpt>
      <trkpt lat="49.92128" lon="2.26067">
        <ele>18.3</ele>
        <time>2023-05-19T14:02:17Z</time>
      </trkpt>
      <trkpt lat="49.92129" lon="2.26068">
        <ele>18.3</ele>
        <time>2023-05-19T14:02:18Z</time>
      </trkpt>
      <trkpt lat="49.9213" lon="2.26068">
        <ele>18.4</ele>
        <time>2023-05-19T14:02:19Z</time>
      </trkpt>
      <trkpt lat="49.92131" lon="2.26069">
        <ele>18.4</ele>
        <time>2023-05-19T14:02:20Z</time>
      </trkpt>
      <trkpt lat="49.92132" lon="2.2607">
        <ele>18.4</ele>
        <time>2023-05-19T14:02:22Z</time>
      </trkpt>
      <trkpt lat="49.92133" lon="2.2607">
        <ele>18.4</ele>
        <time>2023-05-19T14:02:23Z</time>
      </trkpt>
      <trkpt lat="49.92134" lon="2.26071">
        <ele>18.4</ele>
        <time>2023-05-19T14:02:24Z</time>
      </trkpt>
      <trkpt lat="49.92135" lon="2.26072">
        <ele>18.4</ele>
        <time>2023-05-19T14:02:25Z</time>
      </trkpt>
      <trkpt lat="49.92136" lon="2.26074">
        <ele>18.4</ele>
        <time>2023-05-19T14:02:26Z</time>
      </trkpt>
      <trkpt lat="49.92136" lon="2.26075">
        <ele>18.5</ele>
        <time>2023-05-19T14:02:27Z</time>
      </trkpt>
      <trkpt lat="49.92137" lon="2.26076">
        <ele>18.5</ele>
        <time>2023-05-19T14:02:28Z</time>
      </trkpt>
      <trkpt lat="49.92138" lon="2.26078">
        <ele>18.5</ele>
        <time>2023-05-19T14:02:29Z</time>
      </trkpt>
      <trkpt lat="49.92138" lon="2.26079">
        <ele>18.5</ele>
        <time>2023-05-19T14:02:30Z</time>
      </trkpt>
      <trkpt lat="49.92139" lon="2.26081">
        <ele>18.5</ele>
        <time>2023-05-19T14:02:32Z</time>
      </trkpt>
      <trkpt lat="49.92139" lon="2.26082">
        <ele>18.6</ele>
        <time>2023-05-19T14:02:33Z</time>
      </trkpt>
      <trkpt lat="49.9214" lon="2.26084">
        <ele>18.6</ele>
        <time>2023-05-19T14:02:34Z</time>
      </trkpt>
      <trkpt lat="49.9214" lon="2.26085">
        <ele>18.6</ele>
        <time>2023-05-19T14:02:35Z</time>
      </trkpt>
      <trkpt lat="49.9214" lon="2.26087">
        <ele>18.6</ele>
        <time>2023-05-19T14:02:36Z</time>
      </trkpt>
      <trkpt lat="49.92141" lon="2.26088">
        <ele>18.6</ele>
        <time>2023-05-19T14:02:37Z</time>
      </trkpt>
      <trkpt lat="49.92141" lon="2.2609">
        <ele>18.6</ele>
        <time>2023-05-19T14:02:38Z</time>
      </trkpt>
      <trkpt lat="49.92141" lon="2.26092">
        <ele>18.7</ele>
        <time>2023-05-19T14:02:39Z</time>
      </trkpt>
      <trkpt lat="49.92142" lon="2.26094">
        <ele>18.7</ele>
        <time>2023-05-19T14:02:41Z</time>
      </trkpt>
      <trkpt lat="49.92142" lon="2.26095">
        <ele>18.7</ele>
        <time>2023-05-19T14:02:42Z</time>
      </trkpt>
      <trkpt lat="49.92142" lon="2.26097">
        <ele>18.7</ele>
        <time>2023-05-19T14:02:43Z</time>
      </trkpt>
      <trkpt lat="49.92143" lon="2.26099">
        <ele>18.7</ele>
        <time>2023-05-19T14:02:44Z</time>
      </trkpt>
      <trkpt lat="49.92143" lon="2.26102">
        <ele>18.7</ele>
        <time>2023-05-19T14:02:45Z</time>
      </trkpt>
      <trkpt lat="49.92143" lon="2.26103">
        <ele>18.7</ele>
        <time>2023-05-19T14:02:47Z</time>
      </trkpt>
      <trkpt lat="49.92143" lon="2.26105">
        <ele>18.7</ele>
        <time>2023-05-19T14:02:48Z</time>
      </trkpt>
      <trkpt lat="49.92144" lon="2.26108">
        <ele>18.8</ele>
        <time>2023-05-19T14:02:49Z</time>
      </trkpt>
      <trkpt lat="49.92144" lon="2.26109">
        <ele>18.8</ele>
        <time>2023-05-19T14:02:50Z</time>
      </trkpt>
      <trkpt lat="49.92144" lon="2.2611">
        <ele>18.8</ele>
        <time>2023-05-19T14:02:51Z</time>
      </trkpt>
      <trkpt lat="49.92144" lon="2.26112">
        <ele>18.8</ele>
        <time>2023-05-19T14:02:52Z</time>
      </trkpt>
      <trkpt lat="49.92144" lon="2.26114">
        <ele>18.8</ele>
        <time>2023-05-19T14:02:53Z</time>
      </trkpt>
      <trkpt lat="49.92145" lon="2.26117">
        <ele>18.8</ele>
        <time>2023-05-19T14:02:54Z</time>
      </trkpt>
      <trkpt lat="49.92145" lon="2.26119">
        <ele>18.8</ele>
        <time>2023-05-19T14:02:55Z</time>
      </trkpt>
      <trkpt lat="49.92145" lon="2.26121">
        <ele>18.8</ele>
        <time>2023-05-19T14:02:57Z</time>
      </trkpt>
      <trkpt lat="49.92146" lon="2.26123">
        <ele>18.8</ele>
        <time>2023-05-19T14:02:58Z</time>
      </trkpt>
      <trkpt lat="49.92146" lon="2.26125">
        <ele>18.8</ele>
        <time>2023-05-19T14:02:59Z</time>
      </trkpt>
      <trkpt lat="49.92147" lon="2.26127">
        <ele>18.8</ele>
        <time>2023-05-19T14:03:00Z</time>
      </trkpt>
      <trkpt lat="49.92147" lon="2.2613">
        <ele>18.8</ele>
        <time>2023-05-19T14:03:02Z</time>
      </trkpt>
      <trkpt lat="49.92148" lon="2.26132">
        <ele>18.8</ele>
        <time>2023-05-19T14:03:03Z</time>
      </trkpt>
      <trkpt lat="49.92148" lon="2.26134">
        <ele>18.8</ele>
        <time>2023-05-19T14:03:04Z</time>
      </trkpt>
      <trkpt lat="49.92148" lon="2.26136">
        <ele>18.8</ele>
        <time>2023-05-19T14:03:05Z</time>
      </trkpt>
      <trkpt lat="49.92149" lon="2.26138">
        <ele>18.8</ele>
        <time>2023-05-19T14:03:06Z</time>
      </trkpt>
      <trkpt lat="49.92149" lon="2.2614">
        <ele>18.8</ele>
        <time>2023-05-19T14:03:07Z</time>
      </trkpt>
      <trkpt lat="49.9215" lon="2.26141">
        <ele>18.8</ele>
        <time>2023-05-19T14:03:09Z</time>
      </trkpt>
      <trkpt lat="49.9215" lon="2.26143">
        <ele>18.8</ele>
        <time>2023-05-19T14:03:10Z</time>
      </trkpt>
      <trkpt lat="49.9215" lon="2.26145">
        <ele>18.8</ele>
        <time>2023-05-19T14:03:11Z</time>
      </trkpt>
      <trkpt lat="49.9215" lon="2.26146">
        <ele>18.8</ele>
        <time>2023-05-19T14:03:13Z</time>
      </trkpt>
      <trkpt lat="49.92151" lon="2.26148">
        <ele>18.8</ele>
        <time>2023-05-19T14:03:14Z</time>
      </trkpt>
      <trkpt lat="49.92151" lon="2.2615">
        <ele>18.8</ele>
        <time>2023-05-19T14:03:15Z</time>
      </trkpt>
      <trkpt lat="49.92151" lon="2.26151">
        <ele>18.8</ele>
        <time>2023-05-19T14:03:16Z</time>
      </trkpt>
      <trkpt lat="49.92151" lon="2.26153">
        <ele>18.8</ele>
        <time>2023-05-19T14:03:17Z</time>
      </trkpt>
      <trkpt lat="49.9215" lon="2.26155">
        <ele>18.8</ele>
        <time>2023-05-19T14:03:18Z</time>
      </trkpt>
      <trkpt lat="49.9215" lon="2.26157">
        <ele>18.8</ele>
        <time>2023-05-19T14:03:19Z</time>
      </trkpt>
      <trkpt lat="49.92151" lon="2.2616">
        <ele>18.8</ele>
        <time>2023-05-19T14:03:21Z</time>
      </trkpt>
      <trkpt lat="49.92151" lon="2.26161">
        <ele>18.8</ele>
        <time>2023-05-19T14:03:22Z</time>
      </trkpt>
      <trkpt lat="49.92151" lon="2.26162">
        <ele>18.8</ele>
        <time>2023-05-19T14:03:23Z</time>
      </trkpt>
      <trkpt lat="49.92151" lon="2.26165">
        <ele>18.8</ele>
        <time>2023-05-19T14:03:24Z</time>
      </trkpt>
      <trkpt lat="49.92151" lon="2.26167">
        <ele>18.8</ele>
        <time>2023-05-19T14:03:26Z</time>
      </trkpt>
      <trkpt lat="49.9215" lon="2.26168">
        <ele>18.8</ele>
        <time>2023-05-19T14:03:27Z</time>
      </trkpt>
      <trkpt lat="49.9215" lon="2.26172">
        <ele>18.8</ele>
        <time>2023-05-19T14:03:28Z</time>
      </trkpt>
      <trkpt lat="49.92149" lon="2.26173">
        <ele>18.8</ele>
        <time>2023-05-19T14:03:29Z</time>
      </trkpt>
      <trkpt lat="49.92149" lon="2.26174">
        <ele>18.8</ele>
        <time>2023-05-19T14:03:31Z</time>
      </trkpt>
      <trkpt lat="49.92149" lon="2.26176">
        <ele>18.8</ele>
        <time>2023-05-19T14:03:32Z</time>
      </trkpt>
      <trkpt lat="49.92148" lon="2.26177">
        <ele>18.8</ele>
        <time>2023-05-19T14:03:33Z</time>
      </trkpt>
      <trkpt lat="49.92148" lon="2.26179">
        <ele>18.8</ele>
        <time>2023-05-19T14:03:34Z</time>
      </trkpt>
      <trkpt lat="49.92147" lon="2.2618">
        <ele>18.8</ele>
        <time>2023-05-19T14:03:35Z</time>
      </trkpt>
      <trkpt lat="49.92147" lon="2.26182">
        <ele>18.8</ele>
        <time>2023-05-19T14:03:36Z</time>
      </trkpt>
      <trkpt lat="49.92146" lon="2.26184">
        <ele>18.8</ele>
        <time>2023-05-19T14:03:38Z</time>
      </trkpt>
      <trkpt lat="49.92146" lon="2.26186">
        <ele>18.8</ele>
        <time>2023-05-19T14:03:39Z</time>
      </trkpt>
      <trkpt lat="49.92145" lon="2.26188">
        <ele>18.8</ele>
        <time>2023-05-19T14:03:40Z</time>
      </trkpt>
      <trkpt lat="49.92145" lon="2.26189">
        <ele>18.8</ele>
        <time>2023-05-19T14:03:41Z</time>
      </trkpt>
      <trkpt lat="49.92144" lon="2.26191">
        <ele>18.8</ele>
        <time>2023-05-19T14:03:42Z</time>
      </trkpt>
      <trkpt lat="49.92144" lon="2.26192">
        <ele>18.8</ele>
        <time>2023-05-19T14:03:43Z</time>
      </trkpt>
      <trkpt lat="49.92143" lon="2.26194">
        <ele>18.8</ele>
        <time>2023-05-19T14:03:44Z</time>
      </trkpt>
      <trkpt lat="49.92142" lon="2.26194">
        <ele>18.8</ele>
        <time>2023-05-19T14:03:46Z</time>
      </trkpt>
      <trkpt lat="49.9214" lon="2.26195">
        <ele>18.8</ele>
        <time>2023-05-19T14:03:47Z</time>
      </trkpt>
      <trkpt lat="49.92139" lon="2.26196">
        <ele>18.8</ele>
        <time>2023-05-19T14:03:48Z</time>
      </trkpt>
      <trkpt lat="49.92137" lon="2.26197">
        <ele>18.8</ele>
        <time>2023-05-19T14:03:49Z</time>
      </trkpt>
      <trkpt lat="49.92137" lon="2.26197">
        <ele>18.8</ele>
        <time>2023-05-19T14:03:50Z</time>
      </trkpt>
      <trkpt lat="49.92136" lon="2.26198">
        <ele>18.8</ele>
        <time>2023-05-19T14:03:51Z</time>
      </trkpt>
      <trkpt lat="49.92135" lon="2.26199">
        <ele>18.8</ele>
        <time>2023-05-19T14:03:52Z</time>
      </trkpt>
      <trkpt lat="49.92134" lon="2.262">
        <ele>18.8</ele>
        <time>2023-05-19T14:03:54Z</time>
      </trkpt>
      <trkpt lat="49.92133" lon="2.26202">
        <ele>18.8</ele>
        <time>2023-05-19T14:03:55Z</time>
      </trkpt>
      <trkpt lat="49.92133" lon="2.26205">
        <ele>18.9</ele>
        <time>2023-05-19T14:03:56Z</time>
      </trkpt>
      <trkpt lat="49.92133" lon="2.26206">
        <ele>18.9</ele>
        <time>2023-05-19T14:03:57Z</time>
      </trkpt>
      <trkpt lat="49.92133" lon="2.26207">
        <ele>18.9</ele>
        <time>2023-05-19T14:03:58Z</time>
      </trkpt>
      <trkpt lat="49.92132" lon="2.26211">
        <ele>18.9</ele>
        <time>2023-05-19T14:03:59Z</time>
      </trkpt>
      <trkpt lat="49.92132" lon="2.26212">
        <ele>18.9</ele>
        <time>2023-05-19T14:04:00Z</time>
      </trkpt>
      <trkpt lat="49.92132" lon="2.26213">
        <ele>18.9</ele>
        <time>2023-05-19T14:04:01Z</time>
      </trkpt>
      <trkpt lat="49.92131" lon="2.26215">
        <ele>18.9</ele>
        <time>2023-05-19T14:04:03Z</time>
      </trkpt>
      <trkpt lat="49.92131" lon="2.26217">
        <ele>18.9</ele>
        <time>2023-05-19T14:04:04Z</time>
      </trkpt>
      <trkpt lat="49.92131" lon="2.26218">
        <ele>18.9</ele>
        <time>2023-05-19T14:04:05Z</time>
      </trkpt>
      <trkpt lat="49.9213" lon="2.2622">
        <ele>19</ele>
        <time>2023-05-19T14:04:06Z</time>
      </trkpt>
      <trkpt lat="49.9213" lon="2.26221">
        <ele>19</ele>
        <time>2023-05-19T14:04:07Z</time>
      </trkpt>
      <trkpt lat="49.92129" lon="2.26223">
        <ele>19</ele>
        <time>2023-05-19T14:04:08Z</time>
      </trkpt>
      <trkpt lat="49.92128" lon="2.26225">
        <ele>19</ele>
        <time>2023-05-19T14:04:09Z</time>
      </trkpt>
      <trkpt lat="49.92128" lon="2.26226">
        <ele>19</ele>
        <time>2023-05-19T14:04:10Z</time>
      </trkpt>
      <trkpt lat="49.92127" lon="2.26227">
        <ele>19</ele>
        <time>2023-05-19T14:04:11Z</time>
      </trkpt>
      <trkpt lat="49.92126" lon="2.26229">
        <ele>19</ele>
        <time>2023-05-19T14:04:13Z</time>
      </trkpt>
      <trkpt lat="49.92126" lon="2.2623">
        <ele>19</ele>
        <time>2023-05-19T14:04:14Z</time>
      </trkpt>
      <trkpt lat="49.92125" lon="2.26232">
        <ele>19</ele>
        <time>2023-05-19T14:04:15Z</time>
      </trkpt>
      <trkpt lat="49.92125" lon="2.26233">
        <ele>19</ele>
        <time>2023-05-19T14:04:16Z</time>
      </trkpt>
      <trkpt lat="49.92124" lon="2.26234">
        <ele>19</ele>
        <time>2023-05-19T14:04:17Z</time>
      </trkpt>
      <trkpt lat="49.92123" lon="2.26236">
        <ele>19</ele>
        <time>2023-05-19T14:04:18Z</time>
      </trkpt>
      <trkpt lat="49.92123" lon="2.26238">
        <ele>19</ele>
        <time>2023-05-19T14:04:20Z</time>
      </trkpt>
      <trkpt lat="49.92122" lon="2.26239">
        <ele>19</ele>
        <time>2023-05-19T14:04:21Z</time>
      </trkpt>
      <trkpt lat="49.92122" lon="2.2624">
        <ele>19</ele>
        <time>2023-05-19T14:04:22Z</time>
      </trkpt>
      <trkpt lat="49.92121" lon="2.26241">
        <ele>19</ele>
        <time>2023-05-19T14:04:23Z</time>
      </trkpt>
      <trkpt lat="49.9212" lon="2.26242">
        <ele>19</ele>
        <time>2023-05-19T14:04:24Z</time>
      </trkpt>
      <trkpt lat="49.92119" lon="2.26243">
        <ele>19</ele>
        <time>2023-05-19T14:04:25Z</time>
      </trkpt>
      <trkpt lat="49.92117" lon="2.26243">
        <ele>19</ele>
        <time>2023-05-19T14:04:27Z</time>
      </trkpt>
      <trkpt lat="49.92116" lon="2.26243">
        <ele>19</ele>
        <time>2023-05-19T14:04:28Z</time>
      </trkpt>
      <trkpt lat="49.92115" lon="2.26243">
        <ele>19</ele>
        <time>2023-05-19T14:04:29Z</time>
      </trkpt>
      <trkpt lat="49.92114" lon="2.26243">
        <ele>19</ele>
        <time>2023-05-19T14:04:30Z</time>
      </trkpt>
      <trkpt lat="49.92112" lon="2.26244">
        <ele>19</ele>
        <time>2023-05-19T14:04:32Z</time>
      </trkpt>
      <trkpt lat="49.92111" lon="2.26243">
        <ele>19</ele>
        <time>2023-05-19T14:04:33Z</time>
      </trkpt>
      <trkpt lat="49.9211" lon="2.26243">
        <ele>19</ele>
        <time>2023-05-19T14:04:34Z</time>
      </trkpt>
      <trkpt lat="49.92109" lon="2.26243">
        <ele>19</ele>
        <time>2023-05-19T14:04:36Z</time>
      </trkpt>
      <trkpt lat="49.92109" lon="2.26244">
        <ele>19</ele>
        <time>2023-05-19T14:04:37Z</time>
      </trkpt>
      <trkpt lat="49.92108" lon="2.26244">
        <ele>19</ele>
        <time>2023-05-19T14:04:38Z</time>
      </trkpt>
      <trkpt lat="49.92107" lon="2.26245">
        <ele>19</ele>
        <time>2023-05-19T14:04:39Z</time>
      </trkpt>
      <trkpt lat="49.92107" lon="2.26246">
        <ele>19</ele>
        <time>2023-05-19T14:04:40Z</time>
      </trkpt>
      <trkpt lat="49.92106" lon="2.26248">
        <ele>19</ele>
        <time>2023-05-19T14:04:42Z</time>
      </trkpt>
      <trkpt lat="49.92105" lon="2.26248">
        <ele>19</ele>
        <time>2023-05-19T14:04:43Z</time>
      </trkpt>
      <trkpt lat="49.92105" lon="2.26249">
        <ele>19</ele>
        <time>2023-05-19T14:04:44Z</time>
      </trkpt>
      <trkpt lat="49.92104" lon="2.26249">
        <ele>19</ele>
        <time>2023-05-19T14:04:45Z</time>
      </trkpt>
      <trkpt lat="49.92103" lon="2.2625">
        <ele>19</ele>
        <time>2023-05-19T14:04:47Z</time>
      </trkpt>
      <trkpt lat="49.92102" lon="2.2625">
        <ele>19.1</ele>
        <time>2023-05-19T14:04:48Z</time>
      </trkpt>
      <trkpt lat="49.921" lon="2.26252">
        <ele>19.1</ele>
        <time>2023-05-19T14:04:49Z</time>
      </trkpt>
      <trkpt lat="49.92099" lon="2.26253">
        <ele>19.1</ele>
        <time>2023-05-19T14:04:50Z</time>
      </trkpt>
      <trkpt lat="49.92099" lon="2.26254">
        <ele>19.1</ele>
        <time>2023-05-19T14:04:51Z</time>
      </trkpt>
      <trkpt lat="49.92098" lon="2.26256">
        <ele>19.1</ele>
        <time>2023-05-19T14:04:53Z</time>
      </trkpt>
      <trkpt lat="49.92097" lon="2.26257">
        <ele>19.1</ele>
        <time>2023-05-19T14:04:54Z</time>
      </trkpt>
      <trkpt lat="49.92096" lon="2.26258">
        <ele>19.1</ele>
        <time>2023-05-19T14:04:55Z</time>
      </trkpt>
      <trkpt lat="49.92095" lon="2.2626">
        <ele>19.1</ele>
        <time>2023-05-19T14:04:56Z</time>
      </trkpt>
      <trkpt lat="49.92095" lon="2.26261">
        <ele>19.1</ele>
        <time>2023-05-19T14:04:57Z</time>
      </trkpt>
      <trkpt lat="49.92095" lon="2.26263">
        <ele>19.1</ele>
        <time>2023-05-19T14:04:58Z</time>
      </trkpt>
      <trkpt lat="49.92095" lon="2.26264">
        <ele>19.1</ele>
        <time>2023-05-19T14:05:00Z</time>
      </trkpt>
      <trkpt lat="49.92094" lon="2.26266">
        <ele>19.1</ele>
        <time>2023-05-19T14:05:01Z</time>
      </trkpt>
      <trkpt lat="49.92094" lon="2.26268">
        <ele>19.1</ele>
        <time>2023-05-19T14:05:02Z</time>
      </trkpt>
      <trkpt lat="49.92093" lon="2.26269">
        <ele>19.1</ele>
        <time>2023-05-19T14:05:03Z</time>
      </trkpt>
      <trkpt lat="49.92093" lon="2.26271">
        <ele>19.1</ele>
        <time>2023-05-19T14:05:04Z</time>
      </trkpt>
      <trkpt lat="49.92092" lon="2.26273">
        <ele>19.1</ele>
        <time>2023-05-19T14:05:06Z</time>
      </trkpt>
      <trkpt lat="49.92092" lon="2.26274">
        <ele>19.1</ele>
        <time>2023-05-19T14:05:07Z</time>
      </trkpt>
      <trkpt lat="49.92093" lon="2.26275">
        <ele>19.1</ele>
        <time>2023-05-19T14:05:08Z</time>
      </trkpt>
      <trkpt lat="49.92093" lon="2.26275">
        <ele>19.1</ele>
        <time>2023-05-19T14:05:09Z</time>
      </trkpt>
      <trkpt lat="49.92094" lon="2.26274">
        <ele>19.1</ele>
        <time>2023-05-19T14:05:11Z</time>
      </trkpt>
      <trkpt lat="49.92094" lon="2.26274">
        <ele>19.1</ele>
        <time>2023-05-19T14:05:12Z</time>
      </trkpt>
      <trkpt lat="49.92094" lon="2.26274">
        <ele>19.1</ele>
        <time>2023-05-19T14:05:13Z</time>
      </trkpt>
      <trkpt lat="49.92094" lon="2.26274">
        <ele>19.1</ele>
        <time>2023-05-19T14:05:15Z</time>
      </trkpt>
      <trkpt lat="49.92094" lon="2.26274">
        <ele>19.1</ele>
        <time>2023-05-19T14:05:16Z</time>
      </trkpt>
      <trkpt lat="49.92094" lon="2.26274">
        <ele>19.1</ele>
        <time>2023-05-19T14:05:18Z</time>
      </trkpt>
      <trkpt lat="49.92094" lon="2.26274">
        <ele>19.1</ele>
        <time>2023-05-19T14:05:19Z</time>
      </trkpt>
      <trkpt lat="49.92092" lon="2.26277">
        <ele>19.1</ele>
        <time>2023-05-19T14:09:30Z</time>
      </trkpt>
      <trkpt lat="49.92092" lon="2.2628">
        <ele>19.1</ele>
        <time>2023-05-19T14:09:31Z</time>
      </trkpt>
      <trkpt lat="49.92092" lon="2.2628">
        <ele>19.1</ele>
        <time>2023-05-19T14:09:32Z</time>
      </trkpt>
      <trkpt lat="49.92092" lon="2.2628">
        <ele>19.1</ele>
        <time>2023-05-19T14:09:33Z</time>
      </trkpt>
      <trkpt lat="49.92092" lon="2.2628">
        <ele>19.1</ele>
        <time>2023-05-19T14:09:34Z</time>
      </trkpt>
      <trkpt lat="49.92092" lon="2.2628">
        <ele>19.1</ele>
        <time>2023-05-19T14:09:35Z</time>
      </trkpt>
      <trkpt lat="49.92092" lon="2.2628">
        <ele>19.1</ele>
        <time>2023-05-19T14:09:36Z</time>
      </trkpt>
      <trkpt lat="49.92092" lon="2.2628">
        <ele>19.1</ele>
        <time>2023-05-19T14:09:37Z</time>
      </trkpt>
      <trkpt lat="49.92092" lon="2.2628">
        <ele>19.1</ele>
        <time>2023-05-19T14:09:38Z</time>
      </trkpt>
      <trkpt lat="49.92092" lon="2.2628">
        <ele>19.1</ele>
        <time>2023-05-19T14:09:39Z</time>
      </trkpt>
      <trkpt lat="49.92092" lon="2.2628">
        <ele>19.1</ele>
        <time>2023-05-19T14:09:40Z</time>
      </trkpt>
      <trkpt lat="49.92092" lon="2.2628">
        <ele>19.1</ele>
        <time>2023-05-19T14:09:41Z</time>
      </trkpt>
      <trkpt lat="49.92092" lon="2.2628">
        <ele>19.1</ele>
        <time>2023-05-19T14:09:42Z</time>
      </trkpt>
      <trkpt lat="49.92092" lon="2.2628">
        <ele>19.1</ele>
        <time>2023-05-19T14:09:43Z</time>
      </trkpt>
      <trkpt lat="49.92092" lon="2.2628">
        <ele>19.1</ele>
        <time>2023-05-19T14:09:44Z</time>
      </trkpt>
      <trkpt lat="49.92092" lon="2.2628">
        <ele>19.1</ele>
        <time>2023-05-19T14:09:45Z</time>
      </trkpt>
      <trkpt lat="49.92091" lon="2.26282">
        <ele>19.1</ele>
        <time>2023-05-19T14:16:17Z</time>
      </trkpt>
      <trkpt lat="49.92091" lon="2.26283">
        <ele>19.1</ele>
        <time>2023-05-19T14:16:18Z</time>
      </trkpt>
      <trkpt lat="49.92091" lon="2.26284">
        <ele>19.1</ele>
        <time>2023-05-19T14:16:19Z</time>
      </trkpt>
      <trkpt lat="49.92091" lon="2.26283">
        <ele>19.1</ele>
        <time>2023-05-19T14:16:20Z</time>
      </trkpt>
      <trkpt lat="49.92091" lon="2.26283">
        <ele>19.1</ele>
        <time>2023-05-19T14:16:22Z</time>
      </trkpt>
      <trkpt lat="49.92091" lon="2.26283">
        <ele>19.1</ele>
        <time>2023-05-19T14:16:23Z</time>
      </trkpt>
      <trkpt lat="49.9209" lon="2.26283">
        <ele>19.1</ele>
        <time>2023-05-19T14:16:25Z</time>
      </trkpt>
      <trkpt lat="49.9209" lon="2.26283">
        <ele>19.1</ele>
        <time>2023-05-19T14:16:26Z</time>
      </trkpt>
      <trkpt lat="49.9209" lon="2.26284">
        <ele>19.1</ele>
        <time>2023-05-19T14:16:27Z</time>
      </trkpt>
      <trkpt lat="49.9209" lon="2.26283">
        <ele>19.1</ele>
        <time>2023-05-19T14:16:29Z</time>
      </trkpt>
      <trkpt lat="49.9209" lon="2.26283">
        <ele>19.1</ele>
        <time>2023-05-19T14:16:30Z</time>
      </trkpt>
      <trkpt lat="49.9209" lon="2.26283">
        <ele>19.1</ele>
        <time>2023-05-19T14:16:32Z</time>
      </trkpt>
      <trkpt lat="49.9209" lon="2.26283">
        <ele>19.1</ele>
        <time>2023-05-19T14:16:33Z</time>
      </trkpt>
      <trkpt lat="49.9209" lon="2.26283">
        <ele>19.1</ele>
        <time>2023-05-19T14:16:34Z</time>
      </trkpt>
      <trkpt lat="49.9209" lon="2.26284">
        <ele>19.1</ele>
        <time>2023-05-19T14:16:35Z</time>
      </trkpt>
    </trkseg>
  </trk>
</gpx>